<?xml version="1.0" encoding="UTF-8" standalone="no" ?>
<gpx xmlns="http://www.topografix.com/GPX/1/1" xmlns:xsi="http://www.w3.org/2001/XMLSchema-instance" xsi:schemaLocation="http://www.topografix.com/GPX/1/1 http://www.topografix.com/GPX/1/1/gpx.xsd" version="1.1" creator="VisuGPX - https://www.visugpx.com">
  <metadata>
    <name>Parcours du 2022-06-27 15:26</name>
    <desc><![CDATA[chabanon tous seul ]]></desc>
  </metadata>
  <trk>
    <name><![CDATA[Parcours du 2022-06-27 15:26]]></name>
    <desc><![CDATA[]]></desc>
    <trkseg>
      <trkpt lat="44.34759" lon="6.29269">
        <ele>1655.4</ele>
        <time>2022-06-27T13:26:58.103Z</time>
      </trkpt>
      <trkpt lat="44.34755" lon="6.29265">
        <ele>1655.4</ele>
        <time>2022-06-27T13:27:06.559Z</time>
      </trkpt>
      <trkpt lat="44.34749" lon="6.29261">
        <ele>1651.4</ele>
        <time>2022-06-27T13:27:17.579Z</time>
      </trkpt>
      <trkpt lat="44.34749" lon="6.2925">
        <ele>1653.3</ele>
        <time>2022-06-27T13:28:15.000Z</time>
      </trkpt>
      <trkpt lat="44.34747" lon="6.29241">
        <ele>1652.2</ele>
        <time>2022-06-27T13:28:18.000Z</time>
      </trkpt>
      <trkpt lat="44.34742" lon="6.29234">
        <ele>1652.2</ele>
        <time>2022-06-27T13:28:20.570Z</time>
      </trkpt>
      <trkpt lat="44.34735" lon="6.29231">
        <ele>1652.6</ele>
        <time>2022-06-27T13:28:24.000Z</time>
      </trkpt>
      <trkpt lat="44.34725" lon="6.2923">
        <ele>1652.3</ele>
        <time>2022-06-27T13:28:26.580Z</time>
      </trkpt>
      <trkpt lat="44.34717" lon="6.29231">
        <ele>1652.3</ele>
        <time>2022-06-27T13:28:30.000Z</time>
      </trkpt>
      <trkpt lat="44.34707" lon="6.2923">
        <ele>1652.2</ele>
        <time>2022-06-27T13:28:33.000Z</time>
      </trkpt>
      <trkpt lat="44.34696" lon="6.29233">
        <ele>1652.4</ele>
        <time>2022-06-27T13:28:35.582Z</time>
      </trkpt>
      <trkpt lat="44.34688" lon="6.2924">
        <ele>1653.2</ele>
        <time>2022-06-27T13:28:39.000Z</time>
      </trkpt>
      <trkpt lat="44.34681" lon="6.29251">
        <ele>1653.2</ele>
        <time>2022-06-27T13:28:41.566Z</time>
      </trkpt>
      <trkpt lat="44.34672" lon="6.29262">
        <ele>1652.9</ele>
        <time>2022-06-27T13:28:44.571Z</time>
      </trkpt>
      <trkpt lat="44.34662" lon="6.29268">
        <ele>1652.8</ele>
        <time>2022-06-27T13:28:48.000Z</time>
      </trkpt>
      <trkpt lat="44.34651" lon="6.29272">
        <ele>1653.5</ele>
        <time>2022-06-27T13:28:50.579Z</time>
      </trkpt>
      <trkpt lat="44.34634" lon="6.29255">
        <ele>1653.5</ele>
        <time>2022-06-27T13:28:54.000Z</time>
      </trkpt>
      <trkpt lat="44.34625" lon="6.29238">
        <ele>1653.5</ele>
        <time>2022-06-27T13:28:57.000Z</time>
      </trkpt>
      <trkpt lat="44.34618" lon="6.2922">
        <ele>1650.5</ele>
        <time>2022-06-27T13:29:00.000Z</time>
      </trkpt>
      <trkpt lat="44.34621" lon="6.29213">
        <ele>1650.5</ele>
        <time>2022-06-27T13:29:02.571Z</time>
      </trkpt>
      <trkpt lat="44.34619" lon="6.29175">
        <ele>1649.5</ele>
        <time>2022-06-27T13:29:06.000Z</time>
      </trkpt>
      <trkpt lat="44.3462" lon="6.29156">
        <ele>1650.4</ele>
        <time>2022-06-27T13:29:09.000Z</time>
      </trkpt>
      <trkpt lat="44.34621" lon="6.29132">
        <ele>1649.8</ele>
        <time>2022-06-27T13:29:12.000Z</time>
      </trkpt>
      <trkpt lat="44.34615" lon="6.29105">
        <ele>1650.9</ele>
        <time>2022-06-27T13:29:15.000Z</time>
      </trkpt>
      <trkpt lat="44.34604" lon="6.29086">
        <ele>1650</ele>
        <time>2022-06-27T13:29:18.000Z</time>
      </trkpt>
      <trkpt lat="44.3459" lon="6.29074">
        <ele>1649.8</ele>
        <time>2022-06-27T13:29:21.000Z</time>
      </trkpt>
      <trkpt lat="44.34571" lon="6.29067">
        <ele>1646.4</ele>
        <time>2022-06-27T13:29:24.000Z</time>
      </trkpt>
      <trkpt lat="44.34551" lon="6.29058">
        <ele>1649.8</ele>
        <time>2022-06-27T13:29:27.000Z</time>
      </trkpt>
      <trkpt lat="44.3453" lon="6.29046">
        <ele>1641.2</ele>
        <time>2022-06-27T13:29:30.000Z</time>
      </trkpt>
      <trkpt lat="44.34506" lon="6.29036">
        <ele>1640.4</ele>
        <time>2022-06-27T13:29:33.000Z</time>
      </trkpt>
      <trkpt lat="44.34489" lon="6.2902">
        <ele>1640</ele>
        <time>2022-06-27T13:29:36.000Z</time>
      </trkpt>
      <trkpt lat="44.34496" lon="6.28997">
        <ele>1638.8</ele>
        <time>2022-06-27T13:29:39.000Z</time>
      </trkpt>
      <trkpt lat="44.34516" lon="6.28981">
        <ele>1635.7</ele>
        <time>2022-06-27T13:29:42.000Z</time>
      </trkpt>
      <trkpt lat="44.34537" lon="6.28959">
        <ele>1634</ele>
        <time>2022-06-27T13:29:45.000Z</time>
      </trkpt>
      <trkpt lat="44.34555" lon="6.28934">
        <ele>1632.4</ele>
        <time>2022-06-27T13:29:48.000Z</time>
      </trkpt>
      <trkpt lat="44.34558" lon="6.28903">
        <ele>1632.3</ele>
        <time>2022-06-27T13:29:51.000Z</time>
      </trkpt>
      <trkpt lat="44.34545" lon="6.28879">
        <ele>1632</ele>
        <time>2022-06-27T13:29:54.000Z</time>
      </trkpt>
      <trkpt lat="44.3453" lon="6.28862">
        <ele>1633</ele>
        <time>2022-06-27T13:29:57.000Z</time>
      </trkpt>
      <trkpt lat="44.34514" lon="6.28847">
        <ele>1631</ele>
        <time>2022-06-27T13:30:00.000Z</time>
      </trkpt>
      <trkpt lat="44.34499" lon="6.28834">
        <ele>1629.1</ele>
        <time>2022-06-27T13:30:03.000Z</time>
      </trkpt>
      <trkpt lat="44.34489" lon="6.28821">
        <ele>1628.9</ele>
        <time>2022-06-27T13:30:06.000Z</time>
      </trkpt>
      <trkpt lat="44.34483" lon="6.28801">
        <ele>1626.9</ele>
        <time>2022-06-27T13:30:09.000Z</time>
      </trkpt>
      <trkpt lat="44.3449" lon="6.28782">
        <ele>1632.9</ele>
        <time>2022-06-27T13:30:12.000Z</time>
      </trkpt>
      <trkpt lat="44.34505" lon="6.28777">
        <ele>1629.1</ele>
        <time>2022-06-27T13:30:15.000Z</time>
      </trkpt>
      <trkpt lat="44.34511" lon="6.28778">
        <ele>1628.7</ele>
        <time>2022-06-27T13:30:18.000Z</time>
      </trkpt>
      <trkpt lat="44.34526" lon="6.28776">
        <ele>1632.8</ele>
        <time>2022-06-27T13:30:21.000Z</time>
      </trkpt>
      <trkpt lat="44.34536" lon="6.28774">
        <ele>1633.2</ele>
        <time>2022-06-27T13:30:24.000Z</time>
      </trkpt>
      <trkpt lat="44.34552" lon="6.28766">
        <ele>1633.2</ele>
        <time>2022-06-27T13:30:27.000Z</time>
      </trkpt>
      <trkpt lat="44.34568" lon="6.2876">
        <ele>1632.9</ele>
        <time>2022-06-27T13:30:30.000Z</time>
      </trkpt>
      <trkpt lat="44.34581" lon="6.28751">
        <ele>1632.1</ele>
        <time>2022-06-27T13:30:33.000Z</time>
      </trkpt>
      <trkpt lat="44.34587" lon="6.28734">
        <ele>1631.9</ele>
        <time>2022-06-27T13:30:36.000Z</time>
      </trkpt>
      <trkpt lat="44.34588" lon="6.28716">
        <ele>1632.5</ele>
        <time>2022-06-27T13:30:39.000Z</time>
      </trkpt>
      <trkpt lat="44.34595" lon="6.28699">
        <ele>1633.4</ele>
        <time>2022-06-27T13:30:42.000Z</time>
      </trkpt>
      <trkpt lat="44.34603" lon="6.28682">
        <ele>1635.2</ele>
        <time>2022-06-27T13:30:45.000Z</time>
      </trkpt>
      <trkpt lat="44.34626" lon="6.2867">
        <ele>1638</ele>
        <time>2022-06-27T13:30:51.562Z</time>
      </trkpt>
      <trkpt lat="44.34632" lon="6.28665">
        <ele>1641.3</ele>
        <time>2022-06-27T13:30:54.540Z</time>
      </trkpt>
      <trkpt lat="44.34641" lon="6.28657">
        <ele>1633.8</ele>
        <time>2022-06-27T13:30:58.021Z</time>
      </trkpt>
      <trkpt lat="44.34651" lon="6.28652">
        <ele>1634.1</ele>
        <time>2022-06-27T13:31:01.041Z</time>
      </trkpt>
      <trkpt lat="44.34664" lon="6.28643">
        <ele>1634.7</ele>
        <time>2022-06-27T13:31:04.572Z</time>
      </trkpt>
      <trkpt lat="44.34673" lon="6.28634">
        <ele>1635</ele>
        <time>2022-06-27T13:31:07.604Z</time>
      </trkpt>
      <trkpt lat="44.34681" lon="6.28628">
        <ele>1635</ele>
        <time>2022-06-27T13:31:10.560Z</time>
      </trkpt>
      <trkpt lat="44.34695" lon="6.28605">
        <ele>1638.5</ele>
        <time>2022-06-27T13:31:15.000Z</time>
      </trkpt>
      <trkpt lat="44.34701" lon="6.28601">
        <ele>1638.5</ele>
        <time>2022-06-27T13:31:17.569Z</time>
      </trkpt>
      <trkpt lat="44.34709" lon="6.28593">
        <ele>1647.9</ele>
        <time>2022-06-27T13:31:20.277Z</time>
      </trkpt>
      <trkpt lat="44.34716" lon="6.28587">
        <ele>1637.9</ele>
        <time>2022-06-27T13:31:23.577Z</time>
      </trkpt>
      <trkpt lat="44.3472" lon="6.28576">
        <ele>1649.7</ele>
        <time>2022-06-27T13:31:26.567Z</time>
      </trkpt>
      <trkpt lat="44.34718" lon="6.28565">
        <ele>1643.6</ele>
        <time>2022-06-27T13:31:30.000Z</time>
      </trkpt>
      <trkpt lat="44.34718" lon="6.28545">
        <ele>1643.6</ele>
        <time>2022-06-27T13:31:32.578Z</time>
      </trkpt>
      <trkpt lat="44.34716" lon="6.28532">
        <ele>1643.5</ele>
        <time>2022-06-27T13:31:35.574Z</time>
      </trkpt>
      <trkpt lat="44.34711" lon="6.28524">
        <ele>1641.8</ele>
        <time>2022-06-27T13:31:38.483Z</time>
      </trkpt>
      <trkpt lat="44.34708" lon="6.28507">
        <ele>1644.6</ele>
        <time>2022-06-27T13:31:41.609Z</time>
      </trkpt>
      <trkpt lat="44.34704" lon="6.28489">
        <ele>1644.6</ele>
        <time>2022-06-27T13:31:44.559Z</time>
      </trkpt>
      <trkpt lat="44.34702" lon="6.28475">
        <ele>1647</ele>
        <time>2022-06-27T13:31:48.000Z</time>
      </trkpt>
      <trkpt lat="44.347" lon="6.28465">
        <ele>1647.3</ele>
        <time>2022-06-27T13:31:50.576Z</time>
      </trkpt>
      <trkpt lat="44.34698" lon="6.28453">
        <ele>1647.5</ele>
        <time>2022-06-27T13:31:53.584Z</time>
      </trkpt>
      <trkpt lat="44.347" lon="6.28437">
        <ele>1647.7</ele>
        <time>2022-06-27T13:31:56.451Z</time>
      </trkpt>
      <trkpt lat="44.34706" lon="6.28423">
        <ele>1650.6</ele>
        <time>2022-06-27T13:31:59.563Z</time>
      </trkpt>
      <trkpt lat="44.34716" lon="6.28416">
        <ele>1650.1</ele>
        <time>2022-06-27T13:32:02.572Z</time>
      </trkpt>
      <trkpt lat="44.34726" lon="6.28419">
        <ele>1656.5</ele>
        <time>2022-06-27T13:32:05.622Z</time>
      </trkpt>
      <trkpt lat="44.34733" lon="6.28423">
        <ele>1653.6</ele>
        <time>2022-06-27T13:32:08.365Z</time>
      </trkpt>
      <trkpt lat="44.34742" lon="6.28428">
        <ele>1653.7</ele>
        <time>2022-06-27T13:32:11.574Z</time>
      </trkpt>
      <trkpt lat="44.34749" lon="6.28431">
        <ele>1655</ele>
        <time>2022-06-27T13:32:14.614Z</time>
      </trkpt>
      <trkpt lat="44.34757" lon="6.28433">
        <ele>1654.5</ele>
        <time>2022-06-27T13:32:17.353Z</time>
      </trkpt>
      <trkpt lat="44.34764" lon="6.28437">
        <ele>1656.7</ele>
        <time>2022-06-27T13:32:20.584Z</time>
      </trkpt>
      <trkpt lat="44.34772" lon="6.28439">
        <ele>1656.9</ele>
        <time>2022-06-27T13:32:23.579Z</time>
      </trkpt>
      <trkpt lat="44.34777" lon="6.28444">
        <ele>1660.4</ele>
        <time>2022-06-27T13:32:26.418Z</time>
      </trkpt>
      <trkpt lat="44.34784" lon="6.28447">
        <ele>1659.8</ele>
        <time>2022-06-27T13:32:29.618Z</time>
      </trkpt>
      <trkpt lat="44.34792" lon="6.28448">
        <ele>1659.5</ele>
        <time>2022-06-27T13:32:32.584Z</time>
      </trkpt>
      <trkpt lat="44.34798" lon="6.2845">
        <ele>1661.4</ele>
        <time>2022-06-27T13:32:36.000Z</time>
      </trkpt>
      <trkpt lat="44.34805" lon="6.28448">
        <ele>1661.9</ele>
        <time>2022-06-27T13:32:38.572Z</time>
      </trkpt>
      <trkpt lat="44.34811" lon="6.2844">
        <ele>1662.2</ele>
        <time>2022-06-27T13:32:41.554Z</time>
      </trkpt>
      <trkpt lat="44.34819" lon="6.28435">
        <ele>1664.3</ele>
        <time>2022-06-27T13:32:44.718Z</time>
      </trkpt>
      <trkpt lat="44.34825" lon="6.2843">
        <ele>1664.6</ele>
        <time>2022-06-27T13:32:47.585Z</time>
      </trkpt>
      <trkpt lat="44.34831" lon="6.28426">
        <ele>1665.2</ele>
        <time>2022-06-27T13:32:50.577Z</time>
      </trkpt>
      <trkpt lat="44.34839" lon="6.28421">
        <ele>1665.3</ele>
        <time>2022-06-27T13:32:53.412Z</time>
      </trkpt>
      <trkpt lat="44.34848" lon="6.28413">
        <ele>1667.3</ele>
        <time>2022-06-27T13:32:56.570Z</time>
      </trkpt>
      <trkpt lat="44.34855" lon="6.28413">
        <ele>1667.6</ele>
        <time>2022-06-27T13:32:59.574Z</time>
      </trkpt>
      <trkpt lat="44.3486" lon="6.2841">
        <ele>1671.1</ele>
        <time>2022-06-27T13:33:02.490Z</time>
      </trkpt>
      <trkpt lat="44.34868" lon="6.28401">
        <ele>1670.7</ele>
        <time>2022-06-27T13:33:05.578Z</time>
      </trkpt>
      <trkpt lat="44.34873" lon="6.28396">
        <ele>1670.7</ele>
        <time>2022-06-27T13:33:08.581Z</time>
      </trkpt>
      <trkpt lat="44.34879" lon="6.28396">
        <ele>1673.2</ele>
        <time>2022-06-27T13:33:11.454Z</time>
      </trkpt>
      <trkpt lat="44.34884" lon="6.28395">
        <ele>1672.5</ele>
        <time>2022-06-27T13:33:15.000Z</time>
      </trkpt>
      <trkpt lat="44.34892" lon="6.28397">
        <ele>1672.5</ele>
        <time>2022-06-27T13:33:17.572Z</time>
      </trkpt>
      <trkpt lat="44.34919" lon="6.28391">
        <ele>1668.1</ele>
        <time>2022-06-27T13:33:21.000Z</time>
      </trkpt>
      <trkpt lat="44.34942" lon="6.28383">
        <ele>1667.4</ele>
        <time>2022-06-27T13:33:24.000Z</time>
      </trkpt>
      <trkpt lat="44.34962" lon="6.28368">
        <ele>1676.9</ele>
        <time>2022-06-27T13:33:27.000Z</time>
      </trkpt>
      <trkpt lat="44.3497" lon="6.28349">
        <ele>1676.3</ele>
        <time>2022-06-27T13:33:30.000Z</time>
      </trkpt>
      <trkpt lat="44.34974" lon="6.28326">
        <ele>1676.3</ele>
        <time>2022-06-27T13:33:33.000Z</time>
      </trkpt>
      <trkpt lat="44.34978" lon="6.28302">
        <ele>1678.4</ele>
        <time>2022-06-27T13:33:36.000Z</time>
      </trkpt>
      <trkpt lat="44.34975" lon="6.28279">
        <ele>1679.3</ele>
        <time>2022-06-27T13:33:39.000Z</time>
      </trkpt>
      <trkpt lat="44.34966" lon="6.2826">
        <ele>1678.4</ele>
        <time>2022-06-27T13:33:42.000Z</time>
      </trkpt>
      <trkpt lat="44.34954" lon="6.28239">
        <ele>1671.2</ele>
        <time>2022-06-27T13:33:45.000Z</time>
      </trkpt>
      <trkpt lat="44.34939" lon="6.28217">
        <ele>1668.6</ele>
        <time>2022-06-27T13:33:48.000Z</time>
      </trkpt>
      <trkpt lat="44.3492" lon="6.28193">
        <ele>1665.6</ele>
        <time>2022-06-27T13:33:51.000Z</time>
      </trkpt>
      <trkpt lat="44.34896" lon="6.28169">
        <ele>1661.9</ele>
        <time>2022-06-27T13:33:54.000Z</time>
      </trkpt>
      <trkpt lat="44.34878" lon="6.28145">
        <ele>1660.7</ele>
        <time>2022-06-27T13:33:57.000Z</time>
      </trkpt>
      <trkpt lat="44.34861" lon="6.28114">
        <ele>1660.3</ele>
        <time>2022-06-27T13:34:00.000Z</time>
      </trkpt>
      <trkpt lat="44.34836" lon="6.28082">
        <ele>1656.9</ele>
        <time>2022-06-27T13:34:03.000Z</time>
      </trkpt>
      <trkpt lat="44.34826" lon="6.28047">
        <ele>1654.7</ele>
        <time>2022-06-27T13:34:06.000Z</time>
      </trkpt>
      <trkpt lat="44.34828" lon="6.2802">
        <ele>1648.7</ele>
        <time>2022-06-27T13:34:09.000Z</time>
      </trkpt>
      <trkpt lat="44.34845" lon="6.28016">
        <ele>1655.1</ele>
        <time>2022-06-27T13:34:12.000Z</time>
      </trkpt>
      <trkpt lat="44.34867" lon="6.28018">
        <ele>1654.5</ele>
        <time>2022-06-27T13:34:15.000Z</time>
      </trkpt>
      <trkpt lat="44.34884" lon="6.28016">
        <ele>1653.4</ele>
        <time>2022-06-27T13:34:18.000Z</time>
      </trkpt>
      <trkpt lat="44.34897" lon="6.28008">
        <ele>1653.4</ele>
        <time>2022-06-27T13:34:21.000Z</time>
      </trkpt>
      <trkpt lat="44.34905" lon="6.27992">
        <ele>1654.5</ele>
        <time>2022-06-27T13:34:24.000Z</time>
      </trkpt>
      <trkpt lat="44.34908" lon="6.27972">
        <ele>1655</ele>
        <time>2022-06-27T13:34:27.000Z</time>
      </trkpt>
      <trkpt lat="44.34907" lon="6.27943">
        <ele>1655</ele>
        <time>2022-06-27T13:34:30.000Z</time>
      </trkpt>
      <trkpt lat="44.34906" lon="6.27912">
        <ele>1654.1</ele>
        <time>2022-06-27T13:34:33.000Z</time>
      </trkpt>
      <trkpt lat="44.34905" lon="6.27881">
        <ele>1652</ele>
        <time>2022-06-27T13:34:36.000Z</time>
      </trkpt>
      <trkpt lat="44.34905" lon="6.27851">
        <ele>1652.5</ele>
        <time>2022-06-27T13:34:39.000Z</time>
      </trkpt>
      <trkpt lat="44.34905" lon="6.27822">
        <ele>1652.4</ele>
        <time>2022-06-27T13:34:42.000Z</time>
      </trkpt>
      <trkpt lat="44.34915" lon="6.27807">
        <ele>1653.4</ele>
        <time>2022-06-27T13:34:45.000Z</time>
      </trkpt>
      <trkpt lat="44.34927" lon="6.27806">
        <ele>1651.9</ele>
        <time>2022-06-27T13:34:48.000Z</time>
      </trkpt>
      <trkpt lat="44.34935" lon="6.27819">
        <ele>1647.5</ele>
        <time>2022-06-27T13:34:51.000Z</time>
      </trkpt>
      <trkpt lat="44.34943" lon="6.27839">
        <ele>1643.8</ele>
        <time>2022-06-27T13:34:54.000Z</time>
      </trkpt>
      <trkpt lat="44.34949" lon="6.2786">
        <ele>1644.6</ele>
        <time>2022-06-27T13:34:57.000Z</time>
      </trkpt>
      <trkpt lat="44.34955" lon="6.27876">
        <ele>1638.3</ele>
        <time>2022-06-27T13:35:00.000Z</time>
      </trkpt>
      <trkpt lat="44.34967" lon="6.27886">
        <ele>1638.5</ele>
        <time>2022-06-27T13:35:03.000Z</time>
      </trkpt>
      <trkpt lat="44.34976" lon="6.27898">
        <ele>1637.6</ele>
        <time>2022-06-27T13:35:06.000Z</time>
      </trkpt>
      <trkpt lat="44.3498" lon="6.27904">
        <ele>1639.7</ele>
        <time>2022-06-27T13:35:09.000Z</time>
      </trkpt>
      <trkpt lat="44.34995" lon="6.27914">
        <ele>1644.4</ele>
        <time>2022-06-27T13:35:12.000Z</time>
      </trkpt>
      <trkpt lat="44.35002" lon="6.27926">
        <ele>1644.5</ele>
        <time>2022-06-27T13:35:15.000Z</time>
      </trkpt>
      <trkpt lat="44.35022" lon="6.27936">
        <ele>1645.3</ele>
        <time>2022-06-27T13:35:18.000Z</time>
      </trkpt>
      <trkpt lat="44.35039" lon="6.27943">
        <ele>1642.2</ele>
        <time>2022-06-27T13:35:21.000Z</time>
      </trkpt>
      <trkpt lat="44.35056" lon="6.27946">
        <ele>1648</ele>
        <time>2022-06-27T13:35:24.000Z</time>
      </trkpt>
      <trkpt lat="44.35071" lon="6.27943">
        <ele>1649.8</ele>
        <time>2022-06-27T13:35:27.000Z</time>
      </trkpt>
      <trkpt lat="44.35087" lon="6.27931">
        <ele>1648.4</ele>
        <time>2022-06-27T13:35:30.000Z</time>
      </trkpt>
      <trkpt lat="44.35099" lon="6.2791">
        <ele>1646.4</ele>
        <time>2022-06-27T13:35:33.000Z</time>
      </trkpt>
      <trkpt lat="44.3511" lon="6.27885">
        <ele>1648.5</ele>
        <time>2022-06-27T13:35:36.000Z</time>
      </trkpt>
      <trkpt lat="44.3512" lon="6.27857">
        <ele>1648.2</ele>
        <time>2022-06-27T13:35:39.000Z</time>
      </trkpt>
      <trkpt lat="44.35128" lon="6.27826">
        <ele>1647.2</ele>
        <time>2022-06-27T13:35:42.000Z</time>
      </trkpt>
      <trkpt lat="44.35139" lon="6.27789">
        <ele>1641.5</ele>
        <time>2022-06-27T13:35:45.000Z</time>
      </trkpt>
      <trkpt lat="44.35157" lon="6.27753">
        <ele>1639.1</ele>
        <time>2022-06-27T13:35:48.000Z</time>
      </trkpt>
      <trkpt lat="44.35173" lon="6.27725">
        <ele>1634.8</ele>
        <time>2022-06-27T13:35:51.000Z</time>
      </trkpt>
      <trkpt lat="44.35182" lon="6.27694">
        <ele>1634.8</ele>
        <time>2022-06-27T13:35:54.000Z</time>
      </trkpt>
      <trkpt lat="44.35188" lon="6.27664">
        <ele>1635.4</ele>
        <time>2022-06-27T13:35:57.000Z</time>
      </trkpt>
      <trkpt lat="44.35191" lon="6.27632">
        <ele>1635.2</ele>
        <time>2022-06-27T13:36:00.000Z</time>
      </trkpt>
      <trkpt lat="44.35196" lon="6.27597">
        <ele>1632.7</ele>
        <time>2022-06-27T13:36:03.000Z</time>
      </trkpt>
      <trkpt lat="44.35199" lon="6.27563">
        <ele>1631.8</ele>
        <time>2022-06-27T13:36:06.000Z</time>
      </trkpt>
      <trkpt lat="44.35199" lon="6.27539">
        <ele>1631</ele>
        <time>2022-06-27T13:36:09.000Z</time>
      </trkpt>
      <trkpt lat="44.35201" lon="6.27532">
        <ele>1630.3</ele>
        <time>2022-06-27T13:36:12.000Z</time>
      </trkpt>
      <trkpt lat="44.35209" lon="6.27521">
        <ele>1622.3</ele>
        <time>2022-06-27T13:36:15.000Z</time>
      </trkpt>
      <trkpt lat="44.35221" lon="6.27532">
        <ele>1622.2</ele>
        <time>2022-06-27T13:36:18.000Z</time>
      </trkpt>
      <trkpt lat="44.3523" lon="6.27544">
        <ele>1625.3</ele>
        <time>2022-06-27T13:36:21.000Z</time>
      </trkpt>
      <trkpt lat="44.35235" lon="6.27542">
        <ele>1625.3</ele>
        <time>2022-06-27T13:36:23.585Z</time>
      </trkpt>
      <trkpt lat="44.35244" lon="6.27561">
        <ele>1625.9</ele>
        <time>2022-06-27T13:36:27.185Z</time>
      </trkpt>
      <trkpt lat="44.35256" lon="6.27571">
        <ele>1625.4</ele>
        <time>2022-06-27T13:36:30.519Z</time>
      </trkpt>
      <trkpt lat="44.35264" lon="6.27583">
        <ele>1626.6</ele>
        <time>2022-06-27T13:36:33.661Z</time>
      </trkpt>
      <trkpt lat="44.35275" lon="6.27594">
        <ele>1630.5</ele>
        <time>2022-06-27T13:36:37.571Z</time>
      </trkpt>
      <trkpt lat="44.35285" lon="6.27603">
        <ele>1628.9</ele>
        <time>2022-06-27T13:36:40.584Z</time>
      </trkpt>
      <trkpt lat="44.35291" lon="6.27613">
        <ele>1627.9</ele>
        <time>2022-06-27T13:36:43.384Z</time>
      </trkpt>
      <trkpt lat="44.35297" lon="6.27627">
        <ele>1633.3</ele>
        <time>2022-06-27T13:36:46.588Z</time>
      </trkpt>
      <trkpt lat="44.35303" lon="6.2764">
        <ele>1633.6</ele>
        <time>2022-06-27T13:36:49.577Z</time>
      </trkpt>
      <trkpt lat="44.35313" lon="6.27644">
        <ele>1629.7</ele>
        <time>2022-06-27T13:36:52.352Z</time>
      </trkpt>
      <trkpt lat="44.35323" lon="6.27634">
        <ele>1633</ele>
        <time>2022-06-27T13:36:55.582Z</time>
      </trkpt>
      <trkpt lat="44.35322" lon="6.27622">
        <ele>1634.7</ele>
        <time>2022-06-27T13:36:58.622Z</time>
      </trkpt>
      <trkpt lat="44.35317" lon="6.2761">
        <ele>1632.9</ele>
        <time>2022-06-27T13:37:01.575Z</time>
      </trkpt>
      <trkpt lat="44.35311" lon="6.27599">
        <ele>1637.1</ele>
        <time>2022-06-27T13:37:04.668Z</time>
      </trkpt>
      <trkpt lat="44.35307" lon="6.2759">
        <ele>1637</ele>
        <time>2022-06-27T13:37:07.572Z</time>
      </trkpt>
      <trkpt lat="44.35305" lon="6.27579">
        <ele>1637.4</ele>
        <time>2022-06-27T13:37:10.576Z</time>
      </trkpt>
      <trkpt lat="44.35302" lon="6.27569">
        <ele>1640.2</ele>
        <time>2022-06-27T13:37:13.399Z</time>
      </trkpt>
      <trkpt lat="44.353" lon="6.2756">
        <ele>1641.5</ele>
        <time>2022-06-27T13:37:16.572Z</time>
      </trkpt>
      <trkpt lat="44.35298" lon="6.27549">
        <ele>1639.5</ele>
        <time>2022-06-27T13:37:19.761Z</time>
      </trkpt>
      <trkpt lat="44.35296" lon="6.27537">
        <ele>1640.2</ele>
        <time>2022-06-27T13:37:22.544Z</time>
      </trkpt>
      <trkpt lat="44.35293" lon="6.27521">
        <ele>1641.6</ele>
        <time>2022-06-27T13:37:25.574Z</time>
      </trkpt>
      <trkpt lat="44.35291" lon="6.27508">
        <ele>1641.8</ele>
        <time>2022-06-27T13:37:28.304Z</time>
      </trkpt>
      <trkpt lat="44.35289" lon="6.27495">
        <ele>1642.1</ele>
        <time>2022-06-27T13:37:31.499Z</time>
      </trkpt>
      <trkpt lat="44.35286" lon="6.27479">
        <ele>1642.6</ele>
        <time>2022-06-27T13:37:34.573Z</time>
      </trkpt>
      <trkpt lat="44.35282" lon="6.27465">
        <ele>1643.6</ele>
        <time>2022-06-27T13:37:37.574Z</time>
      </trkpt>
      <trkpt lat="44.35277" lon="6.27456">
        <ele>1642.1</ele>
        <time>2022-06-27T13:37:40.525Z</time>
      </trkpt>
      <trkpt lat="44.35274" lon="6.27443">
        <ele>1645.9</ele>
        <time>2022-06-27T13:37:43.578Z</time>
      </trkpt>
      <trkpt lat="44.3527" lon="6.27428">
        <ele>1648</ele>
        <time>2022-06-27T13:37:48.000Z</time>
      </trkpt>
      <trkpt lat="44.35267" lon="6.27423">
        <ele>1645</ele>
        <time>2022-06-27T13:37:51.000Z</time>
      </trkpt>
      <trkpt lat="44.35255" lon="6.2741">
        <ele>1645.5</ele>
        <time>2022-06-27T13:37:53.574Z</time>
      </trkpt>
      <trkpt lat="44.35245" lon="6.27406">
        <ele>1646</ele>
        <time>2022-06-27T13:37:56.562Z</time>
      </trkpt>
      <trkpt lat="44.35242" lon="6.27397">
        <ele>1648.1</ele>
        <time>2022-06-27T13:38:00.000Z</time>
      </trkpt>
      <trkpt lat="44.35233" lon="6.27391">
        <ele>1648.2</ele>
        <time>2022-06-27T13:38:02.569Z</time>
      </trkpt>
      <trkpt lat="44.35226" lon="6.27387">
        <ele>1647.7</ele>
        <time>2022-06-27T13:38:05.571Z</time>
      </trkpt>
      <trkpt lat="44.35219" lon="6.27382">
        <ele>1649.2</ele>
        <time>2022-06-27T13:38:09.000Z</time>
      </trkpt>
      <trkpt lat="44.35209" lon="6.27373">
        <ele>1649</ele>
        <time>2022-06-27T13:38:11.572Z</time>
      </trkpt>
      <trkpt lat="44.35204" lon="6.27369">
        <ele>1649.3</ele>
        <time>2022-06-27T13:38:15.000Z</time>
      </trkpt>
      <trkpt lat="44.35198" lon="6.27362">
        <ele>1649.3</ele>
        <time>2022-06-27T13:38:17.577Z</time>
      </trkpt>
      <trkpt lat="44.35195" lon="6.27354">
        <ele>1649</ele>
        <time>2022-06-27T13:38:20.582Z</time>
      </trkpt>
      <trkpt lat="44.35192" lon="6.27345">
        <ele>1650.4</ele>
        <time>2022-06-27T13:38:23.409Z</time>
      </trkpt>
      <trkpt lat="44.35186" lon="6.27334">
        <ele>1652.3</ele>
        <time>2022-06-27T13:38:26.581Z</time>
      </trkpt>
      <trkpt lat="44.35181" lon="6.27324">
        <ele>1652.5</ele>
        <time>2022-06-27T13:38:29.572Z</time>
      </trkpt>
      <trkpt lat="44.35178" lon="6.27316">
        <ele>1653.3</ele>
        <time>2022-06-27T13:38:33.000Z</time>
      </trkpt>
      <trkpt lat="44.35172" lon="6.27304">
        <ele>1653.5</ele>
        <time>2022-06-27T13:38:35.577Z</time>
      </trkpt>
      <trkpt lat="44.35166" lon="6.27297">
        <ele>1653.1</ele>
        <time>2022-06-27T13:38:38.585Z</time>
      </trkpt>
      <trkpt lat="44.35156" lon="6.27296">
        <ele>1655</ele>
        <time>2022-06-27T13:38:44.583Z</time>
      </trkpt>
      <trkpt lat="44.3515" lon="6.27291">
        <ele>1658.4</ele>
        <time>2022-06-27T13:38:51.000Z</time>
      </trkpt>
      <trkpt lat="44.35142" lon="6.27288">
        <ele>1658.5</ele>
        <time>2022-06-27T13:38:53.563Z</time>
      </trkpt>
      <trkpt lat="44.35135" lon="6.27287">
        <ele>1659.1</ele>
        <time>2022-06-27T13:38:56.575Z</time>
      </trkpt>
      <trkpt lat="44.35127" lon="6.27282">
        <ele>1663.8</ele>
        <time>2022-06-27T13:39:02.581Z</time>
      </trkpt>
      <trkpt lat="44.3512" lon="6.27281">
        <ele>1664.3</ele>
        <time>2022-06-27T13:39:05.574Z</time>
      </trkpt>
      <trkpt lat="44.35112" lon="6.27277">
        <ele>1666.3</ele>
        <time>2022-06-27T13:39:09.000Z</time>
      </trkpt>
      <trkpt lat="44.35106" lon="6.27273">
        <ele>1666.4</ele>
        <time>2022-06-27T13:39:11.585Z</time>
      </trkpt>
      <trkpt lat="44.35098" lon="6.2727">
        <ele>1664.9</ele>
        <time>2022-06-27T13:39:14.584Z</time>
      </trkpt>
      <trkpt lat="44.35091" lon="6.27267">
        <ele>1668.4</ele>
        <time>2022-06-27T13:39:18.000Z</time>
      </trkpt>
      <trkpt lat="44.35082" lon="6.27263">
        <ele>1668.4</ele>
        <time>2022-06-27T13:39:20.578Z</time>
      </trkpt>
      <trkpt lat="44.35077" lon="6.27261">
        <ele>1668.5</ele>
        <time>2022-06-27T13:39:23.578Z</time>
      </trkpt>
      <trkpt lat="44.35065" lon="6.27259">
        <ele>1668.9</ele>
        <time>2022-06-27T13:39:29.583Z</time>
      </trkpt>
      <trkpt lat="44.3506" lon="6.27258">
        <ele>1669.1</ele>
        <time>2022-06-27T13:39:32.573Z</time>
      </trkpt>
      <trkpt lat="44.35056" lon="6.27261">
        <ele>1671.4</ele>
        <time>2022-06-27T13:39:35.368Z</time>
      </trkpt>
      <trkpt lat="44.35048" lon="6.27265">
        <ele>1672.7</ele>
        <time>2022-06-27T13:39:38.581Z</time>
      </trkpt>
      <trkpt lat="44.35041" lon="6.27266">
        <ele>1672.7</ele>
        <time>2022-06-27T13:39:41.571Z</time>
      </trkpt>
      <trkpt lat="44.35036" lon="6.27266">
        <ele>1677</ele>
        <time>2022-06-27T13:39:45.000Z</time>
      </trkpt>
      <trkpt lat="44.35029" lon="6.27269">
        <ele>1677.3</ele>
        <time>2022-06-27T13:39:47.584Z</time>
      </trkpt>
      <trkpt lat="44.3502" lon="6.27274">
        <ele>1677.9</ele>
        <time>2022-06-27T13:39:54.000Z</time>
      </trkpt>
      <trkpt lat="44.35012" lon="6.27276">
        <ele>1677.9</ele>
        <time>2022-06-27T13:39:56.577Z</time>
      </trkpt>
      <trkpt lat="44.35006" lon="6.27278">
        <ele>1677.7</ele>
        <time>2022-06-27T13:39:59.614Z</time>
      </trkpt>
      <trkpt lat="44.35001" lon="6.27281">
        <ele>1681.4</ele>
        <time>2022-06-27T13:40:02.464Z</time>
      </trkpt>
      <trkpt lat="44.34995" lon="6.27283">
        <ele>1680.3</ele>
        <time>2022-06-27T13:40:05.578Z</time>
      </trkpt>
      <trkpt lat="44.34989" lon="6.27284">
        <ele>1680.7</ele>
        <time>2022-06-27T13:40:08.571Z</time>
      </trkpt>
      <trkpt lat="44.34983" lon="6.27285">
        <ele>1683</ele>
        <time>2022-06-27T13:40:12.000Z</time>
      </trkpt>
      <trkpt lat="44.34974" lon="6.27289">
        <ele>1683.6</ele>
        <time>2022-06-27T13:40:17.572Z</time>
      </trkpt>
      <trkpt lat="44.34966" lon="6.27295">
        <ele>1686.6</ele>
        <time>2022-06-27T13:40:21.110Z</time>
      </trkpt>
      <trkpt lat="44.34959" lon="6.27296">
        <ele>1684.8</ele>
        <time>2022-06-27T13:40:24.589Z</time>
      </trkpt>
      <trkpt lat="44.34952" lon="6.27298">
        <ele>1689.5</ele>
        <time>2022-06-27T13:40:27.768Z</time>
      </trkpt>
      <trkpt lat="44.34948" lon="6.27306">
        <ele>1689.4</ele>
        <time>2022-06-27T13:40:30.643Z</time>
      </trkpt>
      <trkpt lat="44.34939" lon="6.27312">
        <ele>1689.8</ele>
        <time>2022-06-27T13:40:37.043Z</time>
      </trkpt>
      <trkpt lat="44.34932" lon="6.27314">
        <ele>1692.1</ele>
        <time>2022-06-27T13:40:40.574Z</time>
      </trkpt>
      <trkpt lat="44.34927" lon="6.27317">
        <ele>1691.8</ele>
        <time>2022-06-27T13:40:43.581Z</time>
      </trkpt>
      <trkpt lat="44.34921" lon="6.27317">
        <ele>1696.9</ele>
        <time>2022-06-27T13:40:46.682Z</time>
      </trkpt>
      <trkpt lat="44.34916" lon="6.27317">
        <ele>1695.3</ele>
        <time>2022-06-27T13:40:49.626Z</time>
      </trkpt>
      <trkpt lat="44.3491" lon="6.27317">
        <ele>1695.8</ele>
        <time>2022-06-27T13:40:52.585Z</time>
      </trkpt>
      <trkpt lat="44.34904" lon="6.27317">
        <ele>1697.5</ele>
        <time>2022-06-27T13:40:55.626Z</time>
      </trkpt>
      <trkpt lat="44.34898" lon="6.27318">
        <ele>1695.5</ele>
        <time>2022-06-27T13:40:58.608Z</time>
      </trkpt>
      <trkpt lat="44.34895" lon="6.27328">
        <ele>1702.3</ele>
        <time>2022-06-27T13:41:04.331Z</time>
      </trkpt>
      <trkpt lat="44.34889" lon="6.2733">
        <ele>1700.3</ele>
        <time>2022-06-27T13:41:10.584Z</time>
      </trkpt>
      <trkpt lat="44.34881" lon="6.27334">
        <ele>1702.4</ele>
        <time>2022-06-27T13:41:16.581Z</time>
      </trkpt>
      <trkpt lat="44.34876" lon="6.27335">
        <ele>1703.3</ele>
        <time>2022-06-27T13:41:19.614Z</time>
      </trkpt>
      <trkpt lat="44.34871" lon="6.27336">
        <ele>1705.6</ele>
        <time>2022-06-27T13:41:22.574Z</time>
      </trkpt>
      <trkpt lat="44.34867" lon="6.27341">
        <ele>1705.4</ele>
        <time>2022-06-27T13:41:25.609Z</time>
      </trkpt>
      <trkpt lat="44.34865" lon="6.27353">
        <ele>1704.3</ele>
        <time>2022-06-27T13:41:28.369Z</time>
      </trkpt>
      <trkpt lat="44.34864" lon="6.27368">
        <ele>1706.4</ele>
        <time>2022-06-27T13:41:31.583Z</time>
      </trkpt>
      <trkpt lat="44.34856" lon="6.27371">
        <ele>1708.1</ele>
        <time>2022-06-27T13:41:37.665Z</time>
      </trkpt>
      <trkpt lat="44.34851" lon="6.27368">
        <ele>1711.5</ele>
        <time>2022-06-27T13:41:40.631Z</time>
      </trkpt>
      <trkpt lat="44.34846" lon="6.27368">
        <ele>1711.8</ele>
        <time>2022-06-27T13:41:43.576Z</time>
      </trkpt>
      <trkpt lat="44.34838" lon="6.27367">
        <ele>1711.1</ele>
        <time>2022-06-27T13:41:49.573Z</time>
      </trkpt>
      <trkpt lat="44.34833" lon="6.27374">
        <ele>1709.4</ele>
        <time>2022-06-27T13:41:55.264Z</time>
      </trkpt>
      <trkpt lat="44.3483" lon="6.27383">
        <ele>1715.8</ele>
        <time>2022-06-27T13:42:02.128Z</time>
      </trkpt>
      <trkpt lat="44.3483" lon="6.27396">
        <ele>1715.8</ele>
        <time>2022-06-27T13:42:08.573Z</time>
      </trkpt>
      <trkpt lat="44.3483" lon="6.27409">
        <ele>1716.9</ele>
        <time>2022-06-27T13:42:15.000Z</time>
      </trkpt>
      <trkpt lat="44.34832" lon="6.27417">
        <ele>1718.7</ele>
        <time>2022-06-27T13:42:18.000Z</time>
      </trkpt>
      <trkpt lat="44.34833" lon="6.27422">
        <ele>1718.7</ele>
        <time>2022-06-27T13:42:20.230Z</time>
      </trkpt>
      <trkpt lat="44.34836" lon="6.2743">
        <ele>1718.2</ele>
        <time>2022-06-27T13:42:23.615Z</time>
      </trkpt>
      <trkpt lat="44.34839" lon="6.27437">
        <ele>1719.2</ele>
        <time>2022-06-27T13:42:27.000Z</time>
      </trkpt>
      <trkpt lat="44.34844" lon="6.27444">
        <ele>1719.7</ele>
        <time>2022-06-27T13:42:29.571Z</time>
      </trkpt>
      <trkpt lat="44.34847" lon="6.27452">
        <ele>1719.7</ele>
        <time>2022-06-27T13:42:32.562Z</time>
      </trkpt>
      <trkpt lat="44.3485" lon="6.27461">
        <ele>1721.2</ele>
        <time>2022-06-27T13:42:36.000Z</time>
      </trkpt>
      <trkpt lat="44.34855" lon="6.27466">
        <ele>1721.2</ele>
        <time>2022-06-27T13:42:38.567Z</time>
      </trkpt>
      <trkpt lat="44.3486" lon="6.27472">
        <ele>1720.5</ele>
        <time>2022-06-27T13:42:41.577Z</time>
      </trkpt>
      <trkpt lat="44.34865" lon="6.27477">
        <ele>1722.3</ele>
        <time>2022-06-27T13:42:44.489Z</time>
      </trkpt>
      <trkpt lat="44.34869" lon="6.27481">
        <ele>1723.1</ele>
        <time>2022-06-27T13:42:47.581Z</time>
      </trkpt>
      <trkpt lat="44.34874" lon="6.27488">
        <ele>1723</ele>
        <time>2022-06-27T13:42:51.000Z</time>
      </trkpt>
      <trkpt lat="44.34878" lon="6.275">
        <ele>1724.2</ele>
        <time>2022-06-27T13:42:57.000Z</time>
      </trkpt>
      <trkpt lat="44.34883" lon="6.27512">
        <ele>1726.6</ele>
        <time>2022-06-27T13:43:03.000Z</time>
      </trkpt>
      <trkpt lat="44.34885" lon="6.27522">
        <ele>1726.6</ele>
        <time>2022-06-27T13:43:05.574Z</time>
      </trkpt>
      <trkpt lat="44.34885" lon="6.27529">
        <ele>1727.3</ele>
        <time>2022-06-27T13:43:08.952Z</time>
      </trkpt>
      <trkpt lat="44.34887" lon="6.27536">
        <ele>1727.4</ele>
        <time>2022-06-27T13:43:12.228Z</time>
      </trkpt>
      <trkpt lat="44.34887" lon="6.27544">
        <ele>1715.8</ele>
        <time>2022-06-27T13:43:15.484Z</time>
      </trkpt>
      <trkpt lat="44.34882" lon="6.27548">
        <ele>1727.6</ele>
        <time>2022-06-27T13:43:18.468Z</time>
      </trkpt>
      <trkpt lat="44.34881" lon="6.27557">
        <ele>1727.6</ele>
        <time>2022-06-27T13:43:21.604Z</time>
      </trkpt>
      <trkpt lat="44.3488" lon="6.27566">
        <ele>1728.2</ele>
        <time>2022-06-27T13:43:24.565Z</time>
      </trkpt>
      <trkpt lat="44.34874" lon="6.27581">
        <ele>1728.1</ele>
        <time>2022-06-27T13:43:28.047Z</time>
      </trkpt>
      <trkpt lat="44.34864" lon="6.27587">
        <ele>1730.2</ele>
        <time>2022-06-27T13:43:31.571Z</time>
      </trkpt>
      <trkpt lat="44.34857" lon="6.2759">
        <ele>1731</ele>
        <time>2022-06-27T13:43:34.570Z</time>
      </trkpt>
      <trkpt lat="44.34852" lon="6.27594">
        <ele>1732</ele>
        <time>2022-06-27T13:43:37.642Z</time>
      </trkpt>
      <trkpt lat="44.34847" lon="6.27596">
        <ele>1732.1</ele>
        <time>2022-06-27T13:43:40.576Z</time>
      </trkpt>
      <trkpt lat="44.34841" lon="6.27598">
        <ele>1731.4</ele>
        <time>2022-06-27T13:43:43.567Z</time>
      </trkpt>
      <trkpt lat="44.34829" lon="6.276">
        <ele>1734</ele>
        <time>2022-06-27T13:43:55.530Z</time>
      </trkpt>
      <trkpt lat="44.34822" lon="6.27599">
        <ele>1735.2</ele>
        <time>2022-06-27T13:43:58.566Z</time>
      </trkpt>
      <trkpt lat="44.34814" lon="6.27598">
        <ele>1735.9</ele>
        <time>2022-06-27T13:44:01.574Z</time>
      </trkpt>
      <trkpt lat="44.34807" lon="6.27598">
        <ele>1743</ele>
        <time>2022-06-27T13:44:04.573Z</time>
      </trkpt>
      <trkpt lat="44.34802" lon="6.27599">
        <ele>1743.8</ele>
        <time>2022-06-27T13:44:07.614Z</time>
      </trkpt>
      <trkpt lat="44.34794" lon="6.27599">
        <ele>1740.4</ele>
        <time>2022-06-27T13:44:10.569Z</time>
      </trkpt>
      <trkpt lat="44.34784" lon="6.27599">
        <ele>1740.3</ele>
        <time>2022-06-27T13:44:14.207Z</time>
      </trkpt>
      <trkpt lat="44.34775" lon="6.276">
        <ele>1741.4</ele>
        <time>2022-06-27T13:44:18.000Z</time>
      </trkpt>
      <trkpt lat="44.34769" lon="6.27603">
        <ele>1741.6</ele>
        <time>2022-06-27T13:44:20.561Z</time>
      </trkpt>
      <trkpt lat="44.3476" lon="6.27603">
        <ele>1741.8</ele>
        <time>2022-06-27T13:44:26.266Z</time>
      </trkpt>
      <trkpt lat="44.34754" lon="6.27601">
        <ele>1742.1</ele>
        <time>2022-06-27T13:44:29.582Z</time>
      </trkpt>
      <trkpt lat="44.34744" lon="6.27601">
        <ele>1743.6</ele>
        <time>2022-06-27T13:44:32.790Z</time>
      </trkpt>
      <trkpt lat="44.34737" lon="6.27601">
        <ele>1743.6</ele>
        <time>2022-06-27T13:44:35.571Z</time>
      </trkpt>
      <trkpt lat="44.34725" lon="6.27599">
        <ele>1741.1</ele>
        <time>2022-06-27T13:44:41.327Z</time>
      </trkpt>
      <trkpt lat="44.34719" lon="6.27599">
        <ele>1746.7</ele>
        <time>2022-06-27T13:44:44.555Z</time>
      </trkpt>
      <trkpt lat="44.34711" lon="6.27599">
        <ele>1747.9</ele>
        <time>2022-06-27T13:44:51.000Z</time>
      </trkpt>
      <trkpt lat="44.34705" lon="6.27599">
        <ele>1748</ele>
        <time>2022-06-27T13:44:54.110Z</time>
      </trkpt>
      <trkpt lat="44.34697" lon="6.27599">
        <ele>1750.9</ele>
        <time>2022-06-27T13:44:57.575Z</time>
      </trkpt>
      <trkpt lat="44.34688" lon="6.27596">
        <ele>1749.8</ele>
        <time>2022-06-27T13:45:00.650Z</time>
      </trkpt>
      <trkpt lat="44.3468" lon="6.27595">
        <ele>1749.8</ele>
        <time>2022-06-27T13:45:03.845Z</time>
      </trkpt>
      <trkpt lat="44.34673" lon="6.27594">
        <ele>1752.2</ele>
        <time>2022-06-27T13:45:06.557Z</time>
      </trkpt>
      <trkpt lat="44.34664" lon="6.27592">
        <ele>1752.5</ele>
        <time>2022-06-27T13:45:10.167Z</time>
      </trkpt>
      <trkpt lat="44.34657" lon="6.27593">
        <ele>1752.3</ele>
        <time>2022-06-27T13:45:13.562Z</time>
      </trkpt>
      <trkpt lat="44.34649" lon="6.27594">
        <ele>1753</ele>
        <time>2022-06-27T13:45:16.559Z</time>
      </trkpt>
      <trkpt lat="44.34639" lon="6.27597">
        <ele>1756</ele>
        <time>2022-06-27T13:45:19.628Z</time>
      </trkpt>
      <trkpt lat="44.34632" lon="6.27598">
        <ele>1752.9</ele>
        <time>2022-06-27T13:45:22.556Z</time>
      </trkpt>
      <trkpt lat="44.34624" lon="6.27601">
        <ele>1752.9</ele>
        <time>2022-06-27T13:45:25.570Z</time>
      </trkpt>
      <trkpt lat="44.34617" lon="6.27607">
        <ele>1756.1</ele>
        <time>2022-06-27T13:45:28.551Z</time>
      </trkpt>
      <trkpt lat="44.34612" lon="6.27608">
        <ele>1753.9</ele>
        <time>2022-06-27T13:45:31.552Z</time>
      </trkpt>
      <trkpt lat="44.34606" lon="6.27611">
        <ele>1754.9</ele>
        <time>2022-06-27T13:45:34.562Z</time>
      </trkpt>
      <trkpt lat="44.34599" lon="6.27613">
        <ele>1760.6</ele>
        <time>2022-06-27T13:45:37.550Z</time>
      </trkpt>
      <trkpt lat="44.34593" lon="6.27611">
        <ele>1755.3</ele>
        <time>2022-06-27T13:45:40.572Z</time>
      </trkpt>
      <trkpt lat="44.34587" lon="6.27614">
        <ele>1755.6</ele>
        <time>2022-06-27T13:45:43.570Z</time>
      </trkpt>
      <trkpt lat="44.3458" lon="6.27617">
        <ele>1759.2</ele>
        <time>2022-06-27T13:45:46.617Z</time>
      </trkpt>
      <trkpt lat="44.34574" lon="6.27623">
        <ele>1757.8</ele>
        <time>2022-06-27T13:45:53.042Z</time>
      </trkpt>
      <trkpt lat="44.34571" lon="6.27631">
        <ele>1759.4</ele>
        <time>2022-06-27T13:45:56.437Z</time>
      </trkpt>
      <trkpt lat="44.34562" lon="6.27637">
        <ele>1762.6</ele>
        <time>2022-06-27T13:46:02.489Z</time>
      </trkpt>
      <trkpt lat="44.34557" lon="6.27642">
        <ele>1763.4</ele>
        <time>2022-06-27T13:46:06.000Z</time>
      </trkpt>
      <trkpt lat="44.34552" lon="6.27652">
        <ele>1763.9</ele>
        <time>2022-06-27T13:46:08.581Z</time>
      </trkpt>
      <trkpt lat="44.34548" lon="6.27661">
        <ele>1760.4</ele>
        <time>2022-06-27T13:46:14.354Z</time>
      </trkpt>
      <trkpt lat="44.34542" lon="6.27666">
        <ele>1766.6</ele>
        <time>2022-06-27T13:46:17.165Z</time>
      </trkpt>
      <trkpt lat="44.34535" lon="6.27673">
        <ele>1766.7</ele>
        <time>2022-06-27T13:46:20.557Z</time>
      </trkpt>
      <trkpt lat="44.34525" lon="6.27678">
        <ele>1767.2</ele>
        <time>2022-06-27T13:46:24.000Z</time>
      </trkpt>
      <trkpt lat="44.34519" lon="6.27684">
        <ele>1767.4</ele>
        <time>2022-06-27T13:46:26.545Z</time>
      </trkpt>
      <trkpt lat="44.34514" lon="6.27691">
        <ele>1768.9</ele>
        <time>2022-06-27T13:46:33.000Z</time>
      </trkpt>
      <trkpt lat="44.34507" lon="6.27696">
        <ele>1769.6</ele>
        <time>2022-06-27T13:46:35.560Z</time>
      </trkpt>
      <trkpt lat="44.34501" lon="6.277">
        <ele>1769.6</ele>
        <time>2022-06-27T13:46:38.558Z</time>
      </trkpt>
      <trkpt lat="44.34491" lon="6.27697">
        <ele>1771.7</ele>
        <time>2022-06-27T13:46:45.000Z</time>
      </trkpt>
      <trkpt lat="44.34485" lon="6.27698">
        <ele>1772.4</ele>
        <time>2022-06-27T13:46:47.557Z</time>
      </trkpt>
      <trkpt lat="44.3448" lon="6.27702">
        <ele>1773.4</ele>
        <time>2022-06-27T13:46:50.565Z</time>
      </trkpt>
      <trkpt lat="44.34469" lon="6.27705">
        <ele>1772.7</ele>
        <time>2022-06-27T13:46:56.484Z</time>
      </trkpt>
      <trkpt lat="44.34464" lon="6.27701">
        <ele>1773</ele>
        <time>2022-06-27T13:46:59.196Z</time>
      </trkpt>
      <trkpt lat="44.34458" lon="6.27697">
        <ele>1775.5</ele>
        <time>2022-06-27T13:47:02.472Z</time>
      </trkpt>
      <trkpt lat="44.34453" lon="6.27699">
        <ele>1776</ele>
        <time>2022-06-27T13:47:05.544Z</time>
      </trkpt>
      <trkpt lat="44.34447" lon="6.27702">
        <ele>1775.5</ele>
        <time>2022-06-27T13:47:08.570Z</time>
      </trkpt>
      <trkpt lat="44.34442" lon="6.27704">
        <ele>1776.6</ele>
        <time>2022-06-27T13:47:12.000Z</time>
      </trkpt>
      <trkpt lat="44.34436" lon="6.2771">
        <ele>1776.2</ele>
        <time>2022-06-27T13:47:14.565Z</time>
      </trkpt>
      <trkpt lat="44.34433" lon="6.2772">
        <ele>1776.3</ele>
        <time>2022-06-27T13:47:17.566Z</time>
      </trkpt>
      <trkpt lat="44.34422" lon="6.27729">
        <ele>1777.5</ele>
        <time>2022-06-27T13:47:24.000Z</time>
      </trkpt>
      <trkpt lat="44.34418" lon="6.27734">
        <ele>1769.3</ele>
        <time>2022-06-27T13:47:27.000Z</time>
      </trkpt>
      <trkpt lat="44.34412" lon="6.27735">
        <ele>1777.3</ele>
        <time>2022-06-27T13:47:30.000Z</time>
      </trkpt>
      <trkpt lat="44.34401" lon="6.27737">
        <ele>1777.6</ele>
        <time>2022-06-27T13:47:32.558Z</time>
      </trkpt>
      <trkpt lat="44.3439" lon="6.2774">
        <ele>1778.3</ele>
        <time>2022-06-27T13:47:35.562Z</time>
      </trkpt>
      <trkpt lat="44.34379" lon="6.27728">
        <ele>1776.1</ele>
        <time>2022-06-27T13:47:39.000Z</time>
      </trkpt>
      <trkpt lat="44.34371" lon="6.27712">
        <ele>1776.6</ele>
        <time>2022-06-27T13:47:42.000Z</time>
      </trkpt>
      <trkpt lat="44.34364" lon="6.27702">
        <ele>1776.6</ele>
        <time>2022-06-27T13:47:44.566Z</time>
      </trkpt>
      <trkpt lat="44.34354" lon="6.27693">
        <ele>1768.4</ele>
        <time>2022-06-27T13:47:48.000Z</time>
      </trkpt>
      <trkpt lat="44.34342" lon="6.27692">
        <ele>1774.2</ele>
        <time>2022-06-27T13:47:50.463Z</time>
      </trkpt>
      <trkpt lat="44.3433" lon="6.27696">
        <ele>1774</ele>
        <time>2022-06-27T13:47:53.380Z</time>
      </trkpt>
      <trkpt lat="44.3431" lon="6.27709">
        <ele>1759.6</ele>
        <time>2022-06-27T13:47:57.000Z</time>
      </trkpt>
      <trkpt lat="44.34299" lon="6.27719">
        <ele>1773.7</ele>
        <time>2022-06-27T13:48:00.000Z</time>
      </trkpt>
      <trkpt lat="44.34282" lon="6.27722">
        <ele>1772.7</ele>
        <time>2022-06-27T13:48:03.000Z</time>
      </trkpt>
      <trkpt lat="44.3426" lon="6.27716">
        <ele>1767.9</ele>
        <time>2022-06-27T13:48:06.000Z</time>
      </trkpt>
      <trkpt lat="44.34234" lon="6.27709">
        <ele>1767.9</ele>
        <time>2022-06-27T13:48:09.000Z</time>
      </trkpt>
      <trkpt lat="44.34208" lon="6.27699">
        <ele>1767.8</ele>
        <time>2022-06-27T13:48:12.000Z</time>
      </trkpt>
      <trkpt lat="44.34187" lon="6.27687">
        <ele>1772.5</ele>
        <time>2022-06-27T13:48:15.000Z</time>
      </trkpt>
      <trkpt lat="44.34171" lon="6.27674">
        <ele>1768.8</ele>
        <time>2022-06-27T13:48:18.000Z</time>
      </trkpt>
      <trkpt lat="44.34155" lon="6.27662">
        <ele>1765.7</ele>
        <time>2022-06-27T13:48:21.000Z</time>
      </trkpt>
      <trkpt lat="44.34141" lon="6.27656">
        <ele>1766.2</ele>
        <time>2022-06-27T13:48:24.000Z</time>
      </trkpt>
      <trkpt lat="44.34113" lon="6.27632">
        <ele>1706.5</ele>
        <time>2022-06-27T13:48:27.000Z</time>
      </trkpt>
      <trkpt lat="44.34093" lon="6.27616">
        <ele>1735.2</ele>
        <time>2022-06-27T13:48:30.000Z</time>
      </trkpt>
      <trkpt lat="44.34077" lon="6.27602">
        <ele>1745.4</ele>
        <time>2022-06-27T13:48:33.000Z</time>
      </trkpt>
      <trkpt lat="44.34054" lon="6.27593">
        <ele>1748.9</ele>
        <time>2022-06-27T13:48:36.000Z</time>
      </trkpt>
      <trkpt lat="44.34032" lon="6.27579">
        <ele>1749.5</ele>
        <time>2022-06-27T13:48:39.000Z</time>
      </trkpt>
      <trkpt lat="44.34009" lon="6.27559">
        <ele>1750.4</ele>
        <time>2022-06-27T13:48:42.000Z</time>
      </trkpt>
      <trkpt lat="44.33985" lon="6.27538">
        <ele>1748</ele>
        <time>2022-06-27T13:48:45.000Z</time>
      </trkpt>
      <trkpt lat="44.33962" lon="6.27516">
        <ele>1745.1</ele>
        <time>2022-06-27T13:48:48.000Z</time>
      </trkpt>
      <trkpt lat="44.3394" lon="6.2749">
        <ele>1745.1</ele>
        <time>2022-06-27T13:48:51.000Z</time>
      </trkpt>
      <trkpt lat="44.33915" lon="6.27466">
        <ele>1745</ele>
        <time>2022-06-27T13:48:54.000Z</time>
      </trkpt>
      <trkpt lat="44.33893" lon="6.27449">
        <ele>1745.5</ele>
        <time>2022-06-27T13:48:57.000Z</time>
      </trkpt>
      <trkpt lat="44.33873" lon="6.27436">
        <ele>1744.6</ele>
        <time>2022-06-27T13:49:00.000Z</time>
      </trkpt>
      <trkpt lat="44.33862" lon="6.27424">
        <ele>1742.8</ele>
        <time>2022-06-27T13:49:03.000Z</time>
      </trkpt>
      <trkpt lat="44.33864" lon="6.27417">
        <ele>1743.4</ele>
        <time>2022-06-27T13:49:06.000Z</time>
      </trkpt>
      <trkpt lat="44.33865" lon="6.274">
        <ele>1741.7</ele>
        <time>2022-06-27T13:49:09.000Z</time>
      </trkpt>
      <trkpt lat="44.33865" lon="6.27389">
        <ele>1745.5</ele>
        <time>2022-06-27T13:49:12.000Z</time>
      </trkpt>
      <trkpt lat="44.33859" lon="6.27384">
        <ele>1744.3</ele>
        <time>2022-06-27T13:49:14.250Z</time>
      </trkpt>
      <trkpt lat="44.33857" lon="6.27373">
        <ele>1743.5</ele>
        <time>2022-06-27T13:49:16.984Z</time>
      </trkpt>
      <trkpt lat="44.33854" lon="6.27351">
        <ele>1741.1</ele>
        <time>2022-06-27T13:49:20.571Z</time>
      </trkpt>
      <trkpt lat="44.33847" lon="6.27319">
        <ele>1740.6</ele>
        <time>2022-06-27T13:49:24.000Z</time>
      </trkpt>
      <trkpt lat="44.33843" lon="6.27314">
        <ele>1742.2</ele>
        <time>2022-06-27T13:49:29.562Z</time>
      </trkpt>
      <trkpt lat="44.33841" lon="6.27299">
        <ele>1741.3</ele>
        <time>2022-06-27T13:49:32.574Z</time>
      </trkpt>
      <trkpt lat="44.33839" lon="6.27282">
        <ele>1741.9</ele>
        <time>2022-06-27T13:49:36.010Z</time>
      </trkpt>
      <trkpt lat="44.33835" lon="6.27265">
        <ele>1742.8</ele>
        <time>2022-06-27T13:49:40.561Z</time>
      </trkpt>
      <trkpt lat="44.33827" lon="6.27234">
        <ele>1736.9</ele>
        <time>2022-06-27T13:49:43.626Z</time>
      </trkpt>
      <trkpt lat="44.33815" lon="6.2719">
        <ele>1737.6</ele>
        <time>2022-06-27T13:49:48.000Z</time>
      </trkpt>
      <trkpt lat="44.33809" lon="6.27169">
        <ele>1729.2</ele>
        <time>2022-06-27T13:49:51.000Z</time>
      </trkpt>
      <trkpt lat="44.33801" lon="6.27145">
        <ele>1711.2</ele>
        <time>2022-06-27T13:49:54.000Z</time>
      </trkpt>
      <trkpt lat="44.33789" lon="6.27125">
        <ele>1726.7</ele>
        <time>2022-06-27T13:49:57.000Z</time>
      </trkpt>
      <trkpt lat="44.33782" lon="6.2711">
        <ele>1735.2</ele>
        <time>2022-06-27T13:50:03.000Z</time>
      </trkpt>
      <trkpt lat="44.33786" lon="6.27093">
        <ele>1737</ele>
        <time>2022-06-27T13:50:09.000Z</time>
      </trkpt>
      <trkpt lat="44.33785" lon="6.2708">
        <ele>1737</ele>
        <time>2022-06-27T13:50:11.568Z</time>
      </trkpt>
      <trkpt lat="44.33782" lon="6.27073">
        <ele>1738.1</ele>
        <time>2022-06-27T13:50:15.000Z</time>
      </trkpt>
      <trkpt lat="44.33773" lon="6.27068">
        <ele>1738.1</ele>
        <time>2022-06-27T13:50:17.567Z</time>
      </trkpt>
      <trkpt lat="44.33764" lon="6.27065">
        <ele>1737.9</ele>
        <time>2022-06-27T13:50:20.567Z</time>
      </trkpt>
      <trkpt lat="44.33763" lon="6.27057">
        <ele>1736.7</ele>
        <time>2022-06-27T13:50:23.365Z</time>
      </trkpt>
      <trkpt lat="44.33764" lon="6.27047">
        <ele>1738.1</ele>
        <time>2022-06-27T13:50:26.559Z</time>
      </trkpt>
      <trkpt lat="44.33762" lon="6.27037">
        <ele>1738.7</ele>
        <time>2022-06-27T13:50:29.565Z</time>
      </trkpt>
      <trkpt lat="44.33759" lon="6.2703">
        <ele>1739.1</ele>
        <time>2022-06-27T13:50:33.000Z</time>
      </trkpt>
      <trkpt lat="44.33755" lon="6.27022">
        <ele>1739</ele>
        <time>2022-06-27T13:50:35.561Z</time>
      </trkpt>
      <trkpt lat="44.33751" lon="6.27015">
        <ele>1739</ele>
        <time>2022-06-27T13:50:38.558Z</time>
      </trkpt>
      <trkpt lat="44.3375" lon="6.27009">
        <ele>1739.8</ele>
        <time>2022-06-27T13:50:42.000Z</time>
      </trkpt>
      <trkpt lat="44.33745" lon="6.27002">
        <ele>1740.8</ele>
        <time>2022-06-27T13:50:44.359Z</time>
      </trkpt>
      <trkpt lat="44.33739" lon="6.27">
        <ele>1741.1</ele>
        <time>2022-06-27T13:50:47.208Z</time>
      </trkpt>
      <trkpt lat="44.33733" lon="6.26994">
        <ele>1740.9</ele>
        <time>2022-06-27T13:50:50.327Z</time>
      </trkpt>
      <trkpt lat="44.33729" lon="6.26983">
        <ele>1742.9</ele>
        <time>2022-06-27T13:50:53.565Z</time>
      </trkpt>
      <trkpt lat="44.33726" lon="6.26979">
        <ele>1743.6</ele>
        <time>2022-06-27T13:50:56.485Z</time>
      </trkpt>
      <trkpt lat="44.33721" lon="6.26974">
        <ele>1740.4</ele>
        <time>2022-06-27T13:50:59.384Z</time>
      </trkpt>
      <trkpt lat="44.33716" lon="6.26968">
        <ele>1744.9</ele>
        <time>2022-06-27T13:51:02.566Z</time>
      </trkpt>
      <trkpt lat="44.33712" lon="6.26961">
        <ele>1744.9</ele>
        <time>2022-06-27T13:51:05.562Z</time>
      </trkpt>
      <trkpt lat="44.33708" lon="6.26956">
        <ele>1744.4</ele>
        <time>2022-06-27T13:51:08.369Z</time>
      </trkpt>
      <trkpt lat="44.33703" lon="6.26949">
        <ele>1745.8</ele>
        <time>2022-06-27T13:51:11.560Z</time>
      </trkpt>
      <trkpt lat="44.33701" lon="6.26942">
        <ele>1746.5</ele>
        <time>2022-06-27T13:51:14.575Z</time>
      </trkpt>
      <trkpt lat="44.33699" lon="6.26935">
        <ele>1749.6</ele>
        <time>2022-06-27T13:51:18.000Z</time>
      </trkpt>
      <trkpt lat="44.33695" lon="6.26928">
        <ele>1749.4</ele>
        <time>2022-06-27T13:51:20.575Z</time>
      </trkpt>
      <trkpt lat="44.33697" lon="6.26918">
        <ele>1749</ele>
        <time>2022-06-27T13:51:23.561Z</time>
      </trkpt>
      <trkpt lat="44.33702" lon="6.26913">
        <ele>1752.1</ele>
        <time>2022-06-27T13:51:27.000Z</time>
      </trkpt>
      <trkpt lat="44.33704" lon="6.26902">
        <ele>1752.5</ele>
        <time>2022-06-27T13:51:30.000Z</time>
      </trkpt>
      <trkpt lat="44.33704" lon="6.26892">
        <ele>1752.5</ele>
        <time>2022-06-27T13:51:32.571Z</time>
      </trkpt>
      <trkpt lat="44.33705" lon="6.26877">
        <ele>1745.4</ele>
        <time>2022-06-27T13:51:35.566Z</time>
      </trkpt>
      <trkpt lat="44.33708" lon="6.26862">
        <ele>1750.1</ele>
        <time>2022-06-27T13:51:38.909Z</time>
      </trkpt>
      <trkpt lat="44.33707" lon="6.26852">
        <ele>1750.6</ele>
        <time>2022-06-27T13:51:42.568Z</time>
      </trkpt>
      <trkpt lat="44.33708" lon="6.26842">
        <ele>1746.6</ele>
        <time>2022-06-27T13:51:45.945Z</time>
      </trkpt>
      <trkpt lat="44.33714" lon="6.26833">
        <ele>1753.4</ele>
        <time>2022-06-27T13:51:49.572Z</time>
      </trkpt>
      <trkpt lat="44.33716" lon="6.26825">
        <ele>1752.9</ele>
        <time>2022-06-27T13:51:52.560Z</time>
      </trkpt>
      <trkpt lat="44.33719" lon="6.26814">
        <ele>1753.1</ele>
        <time>2022-06-27T13:51:58.566Z</time>
      </trkpt>
      <trkpt lat="44.33719" lon="6.26807">
        <ele>1753.2</ele>
        <time>2022-06-27T13:52:01.560Z</time>
      </trkpt>
      <trkpt lat="44.33718" lon="6.268">
        <ele>1754.1</ele>
        <time>2022-06-27T13:52:04.598Z</time>
      </trkpt>
      <trkpt lat="44.33715" lon="6.26791">
        <ele>1755.2</ele>
        <time>2022-06-27T13:52:07.571Z</time>
      </trkpt>
      <trkpt lat="44.33712" lon="6.26784">
        <ele>1754.5</ele>
        <time>2022-06-27T13:52:10.615Z</time>
      </trkpt>
      <trkpt lat="44.33707" lon="6.26776">
        <ele>1759.2</ele>
        <time>2022-06-27T13:52:16.564Z</time>
      </trkpt>
      <trkpt lat="44.33702" lon="6.26769">
        <ele>1758.7</ele>
        <time>2022-06-27T13:52:19.559Z</time>
      </trkpt>
      <trkpt lat="44.33698" lon="6.26763">
        <ele>1754</ele>
        <time>2022-06-27T13:52:22.416Z</time>
      </trkpt>
      <trkpt lat="44.33695" lon="6.26757">
        <ele>1760.5</ele>
        <time>2022-06-27T13:52:25.597Z</time>
      </trkpt>
      <trkpt lat="44.3369" lon="6.26766">
        <ele>1760.1</ele>
        <time>2022-06-27T13:52:31.582Z</time>
      </trkpt>
      <trkpt lat="44.33686" lon="6.26774">
        <ele>1763.6</ele>
        <time>2022-06-27T13:52:34.575Z</time>
      </trkpt>
      <trkpt lat="44.33683" lon="6.2678">
        <ele>1762.6</ele>
        <time>2022-06-27T13:52:37.562Z</time>
      </trkpt>
      <trkpt lat="44.33677" lon="6.26771">
        <ele>1767.6</ele>
        <time>2022-06-27T13:52:43.626Z</time>
      </trkpt>
      <trkpt lat="44.33673" lon="6.26765">
        <ele>1768.1</ele>
        <time>2022-06-27T13:52:46.570Z</time>
      </trkpt>
      <trkpt lat="44.33669" lon="6.26759">
        <ele>1766.9</ele>
        <time>2022-06-27T13:52:49.623Z</time>
      </trkpt>
      <trkpt lat="44.33666" lon="6.26754">
        <ele>1769.1</ele>
        <time>2022-06-27T13:52:52.554Z</time>
      </trkpt>
      <trkpt lat="44.33669" lon="6.26745">
        <ele>1769</ele>
        <time>2022-06-27T13:52:55.565Z</time>
      </trkpt>
      <trkpt lat="44.33674" lon="6.26738">
        <ele>1769.6</ele>
        <time>2022-06-27T13:52:58.638Z</time>
      </trkpt>
      <trkpt lat="44.33678" lon="6.26727">
        <ele>1773.5</ele>
        <time>2022-06-27T13:53:07.743Z</time>
      </trkpt>
      <trkpt lat="44.33679" lon="6.2672">
        <ele>1774.4</ele>
        <time>2022-06-27T13:53:10.615Z</time>
      </trkpt>
      <trkpt lat="44.33679" lon="6.26712">
        <ele>1775</ele>
        <time>2022-06-27T13:53:13.552Z</time>
      </trkpt>
      <trkpt lat="44.33681" lon="6.26701">
        <ele>1777.2</ele>
        <time>2022-06-27T13:53:19.561Z</time>
      </trkpt>
      <trkpt lat="44.33681" lon="6.26694">
        <ele>1777.5</ele>
        <time>2022-06-27T13:53:22.554Z</time>
      </trkpt>
      <trkpt lat="44.3368" lon="6.26681">
        <ele>1779.3</ele>
        <time>2022-06-27T13:53:28.559Z</time>
      </trkpt>
      <trkpt lat="44.33677" lon="6.26674">
        <ele>1779.6</ele>
        <time>2022-06-27T13:53:31.564Z</time>
      </trkpt>
      <trkpt lat="44.33672" lon="6.26666">
        <ele>1782.8</ele>
        <time>2022-06-27T13:53:37.570Z</time>
      </trkpt>
      <trkpt lat="44.33669" lon="6.26661">
        <ele>1782.8</ele>
        <time>2022-06-27T13:53:40.562Z</time>
      </trkpt>
      <trkpt lat="44.33664" lon="6.26658">
        <ele>1782.5</ele>
        <time>2022-06-27T13:53:43.403Z</time>
      </trkpt>
      <trkpt lat="44.33659" lon="6.26656">
        <ele>1784.4</ele>
        <time>2022-06-27T13:53:46.571Z</time>
      </trkpt>
      <trkpt lat="44.33654" lon="6.26653">
        <ele>1784.4</ele>
        <time>2022-06-27T13:53:49.566Z</time>
      </trkpt>
      <trkpt lat="44.33649" lon="6.2665">
        <ele>1785.5</ele>
        <time>2022-06-27T13:53:52.487Z</time>
      </trkpt>
      <trkpt lat="44.33644" lon="6.26648">
        <ele>1785.1</ele>
        <time>2022-06-27T13:53:55.573Z</time>
      </trkpt>
      <trkpt lat="44.33638" lon="6.26643">
        <ele>1786.8</ele>
        <time>2022-06-27T13:54:04.610Z</time>
      </trkpt>
      <trkpt lat="44.33632" lon="6.26638">
        <ele>1787.7</ele>
        <time>2022-06-27T13:54:07.559Z</time>
      </trkpt>
      <trkpt lat="44.33629" lon="6.26633">
        <ele>1779.1</ele>
        <time>2022-06-27T13:54:10.268Z</time>
      </trkpt>
      <trkpt lat="44.33622" lon="6.26629">
        <ele>1788.7</ele>
        <time>2022-06-27T13:54:13.605Z</time>
      </trkpt>
      <trkpt lat="44.3361" lon="6.26625">
        <ele>1771.9</ele>
        <time>2022-06-27T13:54:18.000Z</time>
      </trkpt>
      <trkpt lat="44.33603" lon="6.26618">
        <ele>1787.6</ele>
        <time>2022-06-27T13:54:21.000Z</time>
      </trkpt>
      <trkpt lat="44.33599" lon="6.26613">
        <ele>1787.9</ele>
        <time>2022-06-27T13:54:23.247Z</time>
      </trkpt>
      <trkpt lat="44.33594" lon="6.26605">
        <ele>1787</ele>
        <time>2022-06-27T13:54:26.557Z</time>
      </trkpt>
      <trkpt lat="44.33589" lon="6.26593">
        <ele>1789.3</ele>
        <time>2022-06-27T13:54:30.000Z</time>
      </trkpt>
      <trkpt lat="44.33583" lon="6.26587">
        <ele>1788.3</ele>
        <time>2022-06-27T13:54:35.421Z</time>
      </trkpt>
      <trkpt lat="44.33578" lon="6.26582">
        <ele>1794</ele>
        <time>2022-06-27T13:54:38.146Z</time>
      </trkpt>
      <trkpt lat="44.33571" lon="6.26574">
        <ele>1790.6</ele>
        <time>2022-06-27T13:54:41.569Z</time>
      </trkpt>
      <trkpt lat="44.33567" lon="6.2657">
        <ele>1790.7</ele>
        <time>2022-06-27T13:54:44.286Z</time>
      </trkpt>
      <trkpt lat="44.33561" lon="6.26564">
        <ele>1789.6</ele>
        <time>2022-06-27T13:54:47.572Z</time>
      </trkpt>
      <trkpt lat="44.33557" lon="6.26559">
        <ele>1790.9</ele>
        <time>2022-06-27T13:54:50.559Z</time>
      </trkpt>
      <trkpt lat="44.33547" lon="6.26549">
        <ele>1792.3</ele>
        <time>2022-06-27T13:54:56.576Z</time>
      </trkpt>
      <trkpt lat="44.33542" lon="6.26544">
        <ele>1793.2</ele>
        <time>2022-06-27T13:54:59.562Z</time>
      </trkpt>
      <trkpt lat="44.33537" lon="6.2654">
        <ele>1792.5</ele>
        <time>2022-06-27T13:55:02.469Z</time>
      </trkpt>
      <trkpt lat="44.3353" lon="6.26534">
        <ele>1794.4</ele>
        <time>2022-06-27T13:55:05.566Z</time>
      </trkpt>
      <trkpt lat="44.33525" lon="6.26528">
        <ele>1794.9</ele>
        <time>2022-06-27T13:55:08.401Z</time>
      </trkpt>
      <trkpt lat="44.33521" lon="6.26521">
        <ele>1794.6</ele>
        <time>2022-06-27T13:55:12.000Z</time>
      </trkpt>
      <trkpt lat="44.33514" lon="6.26517">
        <ele>1794.8</ele>
        <time>2022-06-27T13:55:14.445Z</time>
      </trkpt>
      <trkpt lat="44.33508" lon="6.26512">
        <ele>1794.4</ele>
        <time>2022-06-27T13:55:17.582Z</time>
      </trkpt>
      <trkpt lat="44.33505" lon="6.26508">
        <ele>1797.8</ele>
        <time>2022-06-27T13:55:20.554Z</time>
      </trkpt>
      <trkpt lat="44.33496" lon="6.26501">
        <ele>1796.9</ele>
        <time>2022-06-27T13:55:26.574Z</time>
      </trkpt>
      <trkpt lat="44.33493" lon="6.26496">
        <ele>1802.4</ele>
        <time>2022-06-27T13:55:30.000Z</time>
      </trkpt>
      <trkpt lat="44.3349" lon="6.26489">
        <ele>1799</ele>
        <time>2022-06-27T13:55:33.000Z</time>
      </trkpt>
      <trkpt lat="44.33487" lon="6.2648">
        <ele>1801</ele>
        <time>2022-06-27T13:55:36.000Z</time>
      </trkpt>
      <trkpt lat="44.33483" lon="6.26474">
        <ele>1801</ele>
        <time>2022-06-27T13:55:38.562Z</time>
      </trkpt>
      <trkpt lat="44.33479" lon="6.26467">
        <ele>1802.3</ele>
        <time>2022-06-27T13:55:41.462Z</time>
      </trkpt>
      <trkpt lat="44.33475" lon="6.26461">
        <ele>1802</ele>
        <time>2022-06-27T13:55:44.566Z</time>
      </trkpt>
      <trkpt lat="44.33469" lon="6.26459">
        <ele>1801.6</ele>
        <time>2022-06-27T13:55:47.575Z</time>
      </trkpt>
      <trkpt lat="44.33461" lon="6.26451">
        <ele>1803.6</ele>
        <time>2022-06-27T13:55:53.565Z</time>
      </trkpt>
      <trkpt lat="44.33455" lon="6.26445">
        <ele>1801.1</ele>
        <time>2022-06-27T13:55:59.284Z</time>
      </trkpt>
      <trkpt lat="44.33449" lon="6.26442">
        <ele>1806.6</ele>
        <time>2022-06-27T13:56:02.549Z</time>
      </trkpt>
      <trkpt lat="44.33443" lon="6.26441">
        <ele>1806.5</ele>
        <time>2022-06-27T13:56:05.565Z</time>
      </trkpt>
      <trkpt lat="44.33438" lon="6.26437">
        <ele>1806.6</ele>
        <time>2022-06-27T13:56:09.000Z</time>
      </trkpt>
      <trkpt lat="44.33433" lon="6.26433">
        <ele>1807</ele>
        <time>2022-06-27T13:56:11.570Z</time>
      </trkpt>
      <trkpt lat="44.33426" lon="6.26429">
        <ele>1808</ele>
        <time>2022-06-27T13:56:18.000Z</time>
      </trkpt>
      <trkpt lat="44.33422" lon="6.26424">
        <ele>1807.6</ele>
        <time>2022-06-27T13:56:20.567Z</time>
      </trkpt>
      <trkpt lat="44.33416" lon="6.26417">
        <ele>1810.9</ele>
        <time>2022-06-27T13:56:27.000Z</time>
      </trkpt>
      <trkpt lat="44.33407" lon="6.26415">
        <ele>1812</ele>
        <time>2022-06-27T13:56:32.556Z</time>
      </trkpt>
      <trkpt lat="44.33403" lon="6.26412">
        <ele>1812.2</ele>
        <time>2022-06-27T13:56:36.000Z</time>
      </trkpt>
      <trkpt lat="44.33396" lon="6.26416">
        <ele>1813.4</ele>
        <time>2022-06-27T13:56:41.565Z</time>
      </trkpt>
      <trkpt lat="44.33393" lon="6.26423">
        <ele>1812.5</ele>
        <time>2022-06-27T13:56:45.000Z</time>
      </trkpt>
      <trkpt lat="44.33387" lon="6.26428">
        <ele>1813.3</ele>
        <time>2022-06-27T13:56:47.551Z</time>
      </trkpt>
      <trkpt lat="44.33382" lon="6.26422">
        <ele>1816.9</ele>
        <time>2022-06-27T13:57:00.000Z</time>
      </trkpt>
      <trkpt lat="44.33372" lon="6.2642">
        <ele>1818.1</ele>
        <time>2022-06-27T13:57:21.000Z</time>
      </trkpt>
      <trkpt lat="44.33365" lon="6.26421">
        <ele>1818.1</ele>
        <time>2022-06-27T13:57:23.556Z</time>
      </trkpt>
      <trkpt lat="44.3336" lon="6.2642">
        <ele>1818.2</ele>
        <time>2022-06-27T13:57:27.000Z</time>
      </trkpt>
      <trkpt lat="44.33355" lon="6.26419">
        <ele>1818.2</ele>
        <time>2022-06-27T13:57:29.559Z</time>
      </trkpt>
      <trkpt lat="44.3335" lon="6.26417">
        <ele>1818.4</ele>
        <time>2022-06-27T13:57:32.575Z</time>
      </trkpt>
      <trkpt lat="44.33345" lon="6.26413">
        <ele>1818.1</ele>
        <time>2022-06-27T13:57:35.566Z</time>
      </trkpt>
      <trkpt lat="44.3334" lon="6.26412">
        <ele>1820</ele>
        <time>2022-06-27T13:57:39.000Z</time>
      </trkpt>
      <trkpt lat="44.33336" lon="6.26414">
        <ele>1820.1</ele>
        <time>2022-06-27T13:57:41.574Z</time>
      </trkpt>
      <trkpt lat="44.33331" lon="6.26416">
        <ele>1820.6</ele>
        <time>2022-06-27T13:57:44.578Z</time>
      </trkpt>
      <trkpt lat="44.33324" lon="6.26423">
        <ele>1823.2</ele>
        <time>2022-06-27T13:57:50.417Z</time>
      </trkpt>
      <trkpt lat="44.33318" lon="6.26424">
        <ele>1823.4</ele>
        <time>2022-06-27T13:57:53.565Z</time>
      </trkpt>
      <trkpt lat="44.33312" lon="6.26426">
        <ele>1820</ele>
        <time>2022-06-27T13:57:56.576Z</time>
      </trkpt>
      <trkpt lat="44.33302" lon="6.26433">
        <ele>1825.9</ele>
        <time>2022-06-27T13:58:02.559Z</time>
      </trkpt>
      <trkpt lat="44.33295" lon="6.26435">
        <ele>1825.7</ele>
        <time>2022-06-27T13:58:05.554Z</time>
      </trkpt>
      <trkpt lat="44.3329" lon="6.26436">
        <ele>1823.7</ele>
        <time>2022-06-27T13:58:09.000Z</time>
      </trkpt>
      <trkpt lat="44.33283" lon="6.26434">
        <ele>1825.5</ele>
        <time>2022-06-27T13:58:11.577Z</time>
      </trkpt>
      <trkpt lat="44.33274" lon="6.26432">
        <ele>1827.7</ele>
        <time>2022-06-27T13:58:18.106Z</time>
      </trkpt>
      <trkpt lat="44.33267" lon="6.26435">
        <ele>1827.5</ele>
        <time>2022-06-27T13:58:21.564Z</time>
      </trkpt>
      <trkpt lat="44.3326" lon="6.26437">
        <ele>1824.6</ele>
        <time>2022-06-27T13:58:24.959Z</time>
      </trkpt>
      <trkpt lat="44.33254" lon="6.26439">
        <ele>1828.7</ele>
        <time>2022-06-27T13:58:27.807Z</time>
      </trkpt>
      <trkpt lat="44.33249" lon="6.2644">
        <ele>1828.7</ele>
        <time>2022-06-27T13:58:30.738Z</time>
      </trkpt>
      <trkpt lat="44.33242" lon="6.2644">
        <ele>1823.5</ele>
        <time>2022-06-27T13:58:33.594Z</time>
      </trkpt>
      <trkpt lat="44.33236" lon="6.26444">
        <ele>1822.3</ele>
        <time>2022-06-27T13:58:36.446Z</time>
      </trkpt>
      <trkpt lat="44.33232" lon="6.2645">
        <ele>1827.6</ele>
        <time>2022-06-27T13:58:39.226Z</time>
      </trkpt>
      <trkpt lat="44.33225" lon="6.26456">
        <ele>1828.3</ele>
        <time>2022-06-27T13:58:42.564Z</time>
      </trkpt>
      <trkpt lat="44.33229" lon="6.26452">
        <ele>1830.3</ele>
        <time>2022-06-27T13:59:18.614Z</time>
      </trkpt>
      <trkpt lat="44.33238" lon="6.2645">
        <ele>1832.6</ele>
        <time>2022-06-27T13:59:33.000Z</time>
      </trkpt>
      <trkpt lat="44.33246" lon="6.26447">
        <ele>1832.6</ele>
        <time>2022-06-27T13:59:35.327Z</time>
      </trkpt>
      <trkpt lat="44.33253" lon="6.26447">
        <ele>1831.2</ele>
        <time>2022-06-27T13:59:39.000Z</time>
      </trkpt>
      <trkpt lat="44.33257" lon="6.2644">
        <ele>1832.2</ele>
        <time>2022-06-27T13:59:50.245Z</time>
      </trkpt>
      <trkpt lat="44.33266" lon="6.26437">
        <ele>1834.1</ele>
        <time>2022-06-27T13:59:56.185Z</time>
      </trkpt>
      <trkpt lat="44.33273" lon="6.26435">
        <ele>1834.9</ele>
        <time>2022-06-27T14:00:03.000Z</time>
      </trkpt>
      <trkpt lat="44.33275" lon="6.26444">
        <ele>1835.3</ele>
        <time>2022-06-27T14:00:06.000Z</time>
      </trkpt>
      <trkpt lat="44.33274" lon="6.26455">
        <ele>1835.4</ele>
        <time>2022-06-27T14:00:12.000Z</time>
      </trkpt>
      <trkpt lat="44.33271" lon="6.26462">
        <ele>1834.7</ele>
        <time>2022-06-27T14:00:18.000Z</time>
      </trkpt>
      <trkpt lat="44.3327" lon="6.26474">
        <ele>1834.4</ele>
        <time>2022-06-27T14:00:27.000Z</time>
      </trkpt>
      <trkpt lat="44.33263" lon="6.26478">
        <ele>1836.2</ele>
        <time>2022-06-27T14:00:32.377Z</time>
      </trkpt>
      <trkpt lat="44.33258" lon="6.26479">
        <ele>1835.2</ele>
        <time>2022-06-27T14:00:36.000Z</time>
      </trkpt>
      <trkpt lat="44.33249" lon="6.26477">
        <ele>1836.9</ele>
        <time>2022-06-27T14:00:42.000Z</time>
      </trkpt>
      <trkpt lat="44.33241" lon="6.2648">
        <ele>1839.1</ele>
        <time>2022-06-27T14:00:47.360Z</time>
      </trkpt>
      <trkpt lat="44.33238" lon="6.26488">
        <ele>1839.4</ele>
        <time>2022-06-27T14:00:51.000Z</time>
      </trkpt>
      <trkpt lat="44.33235" lon="6.26493">
        <ele>1837.8</ele>
        <time>2022-06-27T14:00:57.000Z</time>
      </trkpt>
      <trkpt lat="44.33238" lon="6.26483">
        <ele>1835.6</ele>
        <time>2022-06-27T14:01:12.000Z</time>
      </trkpt>
      <trkpt lat="44.33239" lon="6.26475">
        <ele>1832.6</ele>
        <time>2022-06-27T14:01:14.346Z</time>
      </trkpt>
      <trkpt lat="44.33243" lon="6.26462">
        <ele>1834</ele>
        <time>2022-06-27T14:01:17.628Z</time>
      </trkpt>
      <trkpt lat="44.33244" lon="6.26448">
        <ele>1831.2</ele>
        <time>2022-06-27T14:01:21.591Z</time>
      </trkpt>
      <trkpt lat="44.33239" lon="6.26442">
        <ele>1828.7</ele>
        <time>2022-06-27T14:01:24.940Z</time>
      </trkpt>
      <trkpt lat="44.33234" lon="6.26438">
        <ele>1821.2</ele>
        <time>2022-06-27T14:01:30.000Z</time>
      </trkpt>
      <trkpt lat="44.33229" lon="6.26442">
        <ele>1828.7</ele>
        <time>2022-06-27T14:01:35.361Z</time>
      </trkpt>
      <trkpt lat="44.33227" lon="6.26449">
        <ele>1829.2</ele>
        <time>2022-06-27T14:01:39.000Z</time>
      </trkpt>
      <trkpt lat="44.33224" lon="6.26456">
        <ele>1828.6</ele>
        <time>2022-06-27T14:01:45.000Z</time>
      </trkpt>
      <trkpt lat="44.33226" lon="6.26463">
        <ele>1829.4</ele>
        <time>2022-06-27T14:01:51.000Z</time>
      </trkpt>
      <trkpt lat="44.33228" lon="6.26469">
        <ele>1827.6</ele>
        <time>2022-06-27T14:02:17.635Z</time>
      </trkpt>
      <trkpt lat="44.33225" lon="6.26464">
        <ele>1826</ele>
        <time>2022-06-27T14:02:30.225Z</time>
      </trkpt>
      <trkpt lat="44.33221" lon="6.26473">
        <ele>1825.4</ele>
        <time>2022-06-27T14:02:36.267Z</time>
      </trkpt>
      <trkpt lat="44.33217" lon="6.26472">
        <ele>1826.1</ele>
        <time>2022-06-27T14:02:42.645Z</time>
      </trkpt>
      <trkpt lat="44.33212" lon="6.2647">
        <ele>1827.1</ele>
        <time>2022-06-27T14:02:54.628Z</time>
      </trkpt>
      <trkpt lat="44.33206" lon="6.2647">
        <ele>1829</ele>
        <time>2022-06-27T14:03:01.421Z</time>
      </trkpt>
      <trkpt lat="44.33202" lon="6.26466">
        <ele>1829.2</ele>
        <time>2022-06-27T14:03:21.000Z</time>
      </trkpt>
      <trkpt lat="44.33194" lon="6.26473">
        <ele>1828.5</ele>
        <time>2022-06-27T14:03:27.000Z</time>
      </trkpt>
      <trkpt lat="44.3318" lon="6.26479">
        <ele>1827.5</ele>
        <time>2022-06-27T14:03:30.000Z</time>
      </trkpt>
      <trkpt lat="44.33173" lon="6.26475">
        <ele>1829.2</ele>
        <time>2022-06-27T14:03:36.000Z</time>
      </trkpt>
      <trkpt lat="44.33167" lon="6.26473">
        <ele>1829.3</ele>
        <time>2022-06-27T14:03:39.000Z</time>
      </trkpt>
      <trkpt lat="44.33157" lon="6.26473">
        <ele>1830.2</ele>
        <time>2022-06-27T14:03:44.555Z</time>
      </trkpt>
      <trkpt lat="44.33151" lon="6.26475">
        <ele>1831.9</ele>
        <time>2022-06-27T14:03:48.000Z</time>
      </trkpt>
      <trkpt lat="44.33143" lon="6.26477">
        <ele>1831.9</ele>
        <time>2022-06-27T14:03:50.558Z</time>
      </trkpt>
      <trkpt lat="44.33139" lon="6.26482">
        <ele>1831.8</ele>
        <time>2022-06-27T14:03:53.566Z</time>
      </trkpt>
      <trkpt lat="44.33132" lon="6.26483">
        <ele>1833.1</ele>
        <time>2022-06-27T14:03:59.554Z</time>
      </trkpt>
      <trkpt lat="44.33127" lon="6.26484">
        <ele>1833.6</ele>
        <time>2022-06-27T14:04:02.556Z</time>
      </trkpt>
      <trkpt lat="44.33118" lon="6.26489">
        <ele>1836.3</ele>
        <time>2022-06-27T14:04:09.601Z</time>
      </trkpt>
      <trkpt lat="44.33113" lon="6.26493">
        <ele>1836.8</ele>
        <time>2022-06-27T14:04:12.859Z</time>
      </trkpt>
      <trkpt lat="44.33108" lon="6.26499">
        <ele>1838.1</ele>
        <time>2022-06-27T14:04:16.544Z</time>
      </trkpt>
      <trkpt lat="44.33102" lon="6.26511">
        <ele>1836.9</ele>
        <time>2022-06-27T14:04:22.938Z</time>
      </trkpt>
      <trkpt lat="44.331" lon="6.26518">
        <ele>1838.2</ele>
        <time>2022-06-27T14:04:26.540Z</time>
      </trkpt>
      <trkpt lat="44.33102" lon="6.26513">
        <ele>1839.8</ele>
        <time>2022-06-27T14:04:36.000Z</time>
      </trkpt>
      <trkpt lat="44.33106" lon="6.265">
        <ele>1838.3</ele>
        <time>2022-06-27T14:05:08.728Z</time>
      </trkpt>
      <trkpt lat="44.33108" lon="6.26488">
        <ele>1837.7</ele>
        <time>2022-06-27T14:05:12.000Z</time>
      </trkpt>
      <trkpt lat="44.33108" lon="6.26479">
        <ele>1837.6</ele>
        <time>2022-06-27T14:05:14.564Z</time>
      </trkpt>
      <trkpt lat="44.33103" lon="6.26471">
        <ele>1837.3</ele>
        <time>2022-06-27T14:05:17.552Z</time>
      </trkpt>
      <trkpt lat="44.33096" lon="6.26465">
        <ele>1839</ele>
        <time>2022-06-27T14:05:21.000Z</time>
      </trkpt>
      <trkpt lat="44.33091" lon="6.26457">
        <ele>1839.4</ele>
        <time>2022-06-27T14:05:23.562Z</time>
      </trkpt>
      <trkpt lat="44.33086" lon="6.26446">
        <ele>1839.8</ele>
        <time>2022-06-27T14:05:26.561Z</time>
      </trkpt>
      <trkpt lat="44.33084" lon="6.26439">
        <ele>1841.5</ele>
        <time>2022-06-27T14:05:30.000Z</time>
      </trkpt>
      <trkpt lat="44.33081" lon="6.2643">
        <ele>1841.8</ele>
        <time>2022-06-27T14:05:32.556Z</time>
      </trkpt>
      <trkpt lat="44.33079" lon="6.26421">
        <ele>1843</ele>
        <time>2022-06-27T14:05:35.543Z</time>
      </trkpt>
      <trkpt lat="44.33077" lon="6.26413">
        <ele>1843.2</ele>
        <time>2022-06-27T14:05:39.000Z</time>
      </trkpt>
      <trkpt lat="44.33076" lon="6.26407">
        <ele>1843.5</ele>
        <time>2022-06-27T14:05:41.261Z</time>
      </trkpt>
      <trkpt lat="44.33072" lon="6.264">
        <ele>1843.3</ele>
        <time>2022-06-27T14:05:44.557Z</time>
      </trkpt>
      <trkpt lat="44.33068" lon="6.26394">
        <ele>1836.8</ele>
        <time>2022-06-27T14:05:48.000Z</time>
      </trkpt>
      <trkpt lat="44.33065" lon="6.26387">
        <ele>1841.5</ele>
        <time>2022-06-27T14:05:50.463Z</time>
      </trkpt>
      <trkpt lat="44.33064" lon="6.2638">
        <ele>1842.7</ele>
        <time>2022-06-27T14:05:53.551Z</time>
      </trkpt>
      <trkpt lat="44.33064" lon="6.26372">
        <ele>1836.4</ele>
        <time>2022-06-27T14:05:57.000Z</time>
      </trkpt>
      <trkpt lat="44.33066" lon="6.26364">
        <ele>1840.7</ele>
        <time>2022-06-27T14:05:59.261Z</time>
      </trkpt>
      <trkpt lat="44.33068" lon="6.26353">
        <ele>1839</ele>
        <time>2022-06-27T14:06:02.553Z</time>
      </trkpt>
      <trkpt lat="44.33072" lon="6.26342">
        <ele>1840</ele>
        <time>2022-06-27T14:06:05.557Z</time>
      </trkpt>
      <trkpt lat="44.33077" lon="6.26327">
        <ele>1836.4</ele>
        <time>2022-06-27T14:06:08.912Z</time>
      </trkpt>
      <trkpt lat="44.33083" lon="6.26309">
        <ele>1834.6</ele>
        <time>2022-06-27T14:06:12.562Z</time>
      </trkpt>
      <trkpt lat="44.33085" lon="6.26298">
        <ele>1834.8</ele>
        <time>2022-06-27T14:06:15.729Z</time>
      </trkpt>
      <trkpt lat="44.33083" lon="6.26282">
        <ele>1831.6</ele>
        <time>2022-06-27T14:06:18.801Z</time>
      </trkpt>
      <trkpt lat="44.33079" lon="6.26263">
        <ele>1830.5</ele>
        <time>2022-06-27T14:06:21.561Z</time>
      </trkpt>
      <trkpt lat="44.33073" lon="6.26246">
        <ele>1819.9</ele>
        <time>2022-06-27T14:06:24.620Z</time>
      </trkpt>
      <trkpt lat="44.3307" lon="6.26234">
        <ele>1827.2</ele>
        <time>2022-06-27T14:06:27.564Z</time>
      </trkpt>
      <trkpt lat="44.33066" lon="6.26224">
        <ele>1826.9</ele>
        <time>2022-06-27T14:06:30.556Z</time>
      </trkpt>
      <trkpt lat="44.33063" lon="6.26214">
        <ele>1831.9</ele>
        <time>2022-06-27T14:06:33.325Z</time>
      </trkpt>
      <trkpt lat="44.3306" lon="6.26202">
        <ele>1827.1</ele>
        <time>2022-06-27T14:06:36.380Z</time>
      </trkpt>
      <trkpt lat="44.33055" lon="6.26193">
        <ele>1826.8</ele>
        <time>2022-06-27T14:06:39.549Z</time>
      </trkpt>
      <trkpt lat="44.33049" lon="6.26184">
        <ele>1828.7</ele>
        <time>2022-06-27T14:06:42.601Z</time>
      </trkpt>
      <trkpt lat="44.33045" lon="6.26175">
        <ele>1827.2</ele>
        <time>2022-06-27T14:06:45.786Z</time>
      </trkpt>
      <trkpt lat="44.3304" lon="6.26166">
        <ele>1827.4</ele>
        <time>2022-06-27T14:06:48.544Z</time>
      </trkpt>
      <trkpt lat="44.33035" lon="6.26159">
        <ele>1829.9</ele>
        <time>2022-06-27T14:06:51.588Z</time>
      </trkpt>
      <trkpt lat="44.33029" lon="6.26151">
        <ele>1828.6</ele>
        <time>2022-06-27T14:06:54.782Z</time>
      </trkpt>
      <trkpt lat="44.33024" lon="6.26143">
        <ele>1828.2</ele>
        <time>2022-06-27T14:06:57.551Z</time>
      </trkpt>
      <trkpt lat="44.33019" lon="6.26136">
        <ele>1829.2</ele>
        <time>2022-06-27T14:07:00.554Z</time>
      </trkpt>
      <trkpt lat="44.33016" lon="6.26128">
        <ele>1829.9</ele>
        <time>2022-06-27T14:07:03.573Z</time>
      </trkpt>
      <trkpt lat="44.33013" lon="6.26119">
        <ele>1830.4</ele>
        <time>2022-06-27T14:07:06.301Z</time>
      </trkpt>
      <trkpt lat="44.33007" lon="6.26113">
        <ele>1831.2</ele>
        <time>2022-06-27T14:07:09.002Z</time>
      </trkpt>
      <trkpt lat="44.33003" lon="6.26104">
        <ele>1830.8</ele>
        <time>2022-06-27T14:07:12.546Z</time>
      </trkpt>
      <trkpt lat="44.32999" lon="6.26097">
        <ele>1834.8</ele>
        <time>2022-06-27T14:07:15.324Z</time>
      </trkpt>
      <trkpt lat="44.32996" lon="6.26091">
        <ele>1833.4</ele>
        <time>2022-06-27T14:07:18.100Z</time>
      </trkpt>
      <trkpt lat="44.3299" lon="6.26083">
        <ele>1832.4</ele>
        <time>2022-06-27T14:07:21.551Z</time>
      </trkpt>
      <trkpt lat="44.32984" lon="6.26077">
        <ele>1835.7</ele>
        <time>2022-06-27T14:07:24.662Z</time>
      </trkpt>
      <trkpt lat="44.3298" lon="6.26068">
        <ele>1832.8</ele>
        <time>2022-06-27T14:07:27.525Z</time>
      </trkpt>
      <trkpt lat="44.32974" lon="6.26059">
        <ele>1833.9</ele>
        <time>2022-06-27T14:07:30.600Z</time>
      </trkpt>
      <trkpt lat="44.32968" lon="6.2605">
        <ele>1837.3</ele>
        <time>2022-06-27T14:07:33.586Z</time>
      </trkpt>
      <trkpt lat="44.32964" lon="6.26042">
        <ele>1832.6</ele>
        <time>2022-06-27T14:07:36.662Z</time>
      </trkpt>
      <trkpt lat="44.32959" lon="6.26033">
        <ele>1831.6</ele>
        <time>2022-06-27T14:07:39.558Z</time>
      </trkpt>
      <trkpt lat="44.32956" lon="6.26027">
        <ele>1838.8</ele>
        <time>2022-06-27T14:07:42.467Z</time>
      </trkpt>
      <trkpt lat="44.32951" lon="6.26017">
        <ele>1833</ele>
        <time>2022-06-27T14:07:46.547Z</time>
      </trkpt>
      <trkpt lat="44.32946" lon="6.2601">
        <ele>1833.2</ele>
        <time>2022-06-27T14:07:49.349Z</time>
      </trkpt>
      <trkpt lat="44.32941" lon="6.26">
        <ele>1834.9</ele>
        <time>2022-06-27T14:07:52.722Z</time>
      </trkpt>
      <trkpt lat="44.32938" lon="6.25991">
        <ele>1834.1</ele>
        <time>2022-06-27T14:07:55.551Z</time>
      </trkpt>
      <trkpt lat="44.32933" lon="6.25983">
        <ele>1835.2</ele>
        <time>2022-06-27T14:07:58.559Z</time>
      </trkpt>
      <trkpt lat="44.32929" lon="6.25977">
        <ele>1840.3</ele>
        <time>2022-06-27T14:08:01.327Z</time>
      </trkpt>
      <trkpt lat="44.32924" lon="6.25971">
        <ele>1836.2</ele>
        <time>2022-06-27T14:08:04.551Z</time>
      </trkpt>
      <trkpt lat="44.32921" lon="6.25965">
        <ele>1836.1</ele>
        <time>2022-06-27T14:08:07.548Z</time>
      </trkpt>
      <trkpt lat="44.32915" lon="6.25958">
        <ele>1836.5</ele>
        <time>2022-06-27T14:08:10.742Z</time>
      </trkpt>
      <trkpt lat="44.32906" lon="6.25954">
        <ele>1837.1</ele>
        <time>2022-06-27T14:08:13.564Z</time>
      </trkpt>
      <trkpt lat="44.32896" lon="6.25948">
        <ele>1837.8</ele>
        <time>2022-06-27T14:08:16.540Z</time>
      </trkpt>
      <trkpt lat="44.3289" lon="6.25945">
        <ele>1840.9</ele>
        <time>2022-06-27T14:08:19.456Z</time>
      </trkpt>
      <trkpt lat="44.32883" lon="6.25939">
        <ele>1837.2</ele>
        <time>2022-06-27T14:08:22.555Z</time>
      </trkpt>
      <trkpt lat="44.32875" lon="6.25926">
        <ele>1837.6</ele>
        <time>2022-06-27T14:08:25.560Z</time>
      </trkpt>
      <trkpt lat="44.3287" lon="6.2591">
        <ele>1839.9</ele>
        <time>2022-06-27T14:08:28.638Z</time>
      </trkpt>
      <trkpt lat="44.32868" lon="6.259">
        <ele>1836.9</ele>
        <time>2022-06-27T14:08:31.591Z</time>
      </trkpt>
      <trkpt lat="44.32867" lon="6.25892">
        <ele>1836.7</ele>
        <time>2022-06-27T14:08:34.549Z</time>
      </trkpt>
      <trkpt lat="44.32867" lon="6.25885">
        <ele>1841.3</ele>
        <time>2022-06-27T14:08:37.400Z</time>
      </trkpt>
      <trkpt lat="44.32866" lon="6.25877">
        <ele>1838.1</ele>
        <time>2022-06-27T14:08:40.558Z</time>
      </trkpt>
      <trkpt lat="44.32865" lon="6.2587">
        <ele>1838</ele>
        <time>2022-06-27T14:08:43.554Z</time>
      </trkpt>
      <trkpt lat="44.32865" lon="6.25857">
        <ele>1840.9</ele>
        <time>2022-06-27T14:08:49.561Z</time>
      </trkpt>
      <trkpt lat="44.32864" lon="6.25849">
        <ele>1840.9</ele>
        <time>2022-06-27T14:08:52.544Z</time>
      </trkpt>
      <trkpt lat="44.32862" lon="6.25843">
        <ele>1843.5</ele>
        <time>2022-06-27T14:08:55.602Z</time>
      </trkpt>
      <trkpt lat="44.32862" lon="6.25833">
        <ele>1843.9</ele>
        <time>2022-06-27T14:08:59.558Z</time>
      </trkpt>
      <trkpt lat="44.3286" lon="6.25827">
        <ele>1843.6</ele>
        <time>2022-06-27T14:09:02.558Z</time>
      </trkpt>
      <trkpt lat="44.32864" lon="6.25814">
        <ele>1845.8</ele>
        <time>2022-06-27T14:09:08.539Z</time>
      </trkpt>
      <trkpt lat="44.32867" lon="6.25806">
        <ele>1846.7</ele>
        <time>2022-06-27T14:09:11.543Z</time>
      </trkpt>
      <trkpt lat="44.32868" lon="6.25798">
        <ele>1846.6</ele>
        <time>2022-06-27T14:09:15.028Z</time>
      </trkpt>
      <trkpt lat="44.32867" lon="6.2579">
        <ele>1846.4</ele>
        <time>2022-06-27T14:09:18.550Z</time>
      </trkpt>
      <trkpt lat="44.32866" lon="6.25783">
        <ele>1858.9</ele>
        <time>2022-06-27T14:09:21.760Z</time>
      </trkpt>
      <trkpt lat="44.32856" lon="6.25782">
        <ele>1850</ele>
        <time>2022-06-27T14:09:25.552Z</time>
      </trkpt>
      <trkpt lat="44.3285" lon="6.25781">
        <ele>1849.4</ele>
        <time>2022-06-27T14:09:28.538Z</time>
      </trkpt>
      <trkpt lat="44.32843" lon="6.25774">
        <ele>1851</ele>
        <time>2022-06-27T14:09:34.554Z</time>
      </trkpt>
      <trkpt lat="44.32838" lon="6.25772">
        <ele>1850.9</ele>
        <time>2022-06-27T14:09:37.542Z</time>
      </trkpt>
      <trkpt lat="44.32832" lon="6.2577">
        <ele>1854.8</ele>
        <time>2022-06-27T14:09:40.618Z</time>
      </trkpt>
      <trkpt lat="44.32824" lon="6.25763">
        <ele>1854.6</ele>
        <time>2022-06-27T14:09:47.146Z</time>
      </trkpt>
      <trkpt lat="44.32816" lon="6.2576">
        <ele>1857.4</ele>
        <time>2022-06-27T14:09:52.967Z</time>
      </trkpt>
      <trkpt lat="44.32808" lon="6.25753">
        <ele>1860.4</ele>
        <time>2022-06-27T14:09:59.571Z</time>
      </trkpt>
      <trkpt lat="44.32804" lon="6.25748">
        <ele>1859.5</ele>
        <time>2022-06-27T14:10:02.553Z</time>
      </trkpt>
      <trkpt lat="44.328" lon="6.25744">
        <ele>1861.5</ele>
        <time>2022-06-27T14:10:05.257Z</time>
      </trkpt>
      <trkpt lat="44.32795" lon="6.25733">
        <ele>1862.5</ele>
        <time>2022-06-27T14:10:11.567Z</time>
      </trkpt>
      <trkpt lat="44.32791" lon="6.25729">
        <ele>1864</ele>
        <time>2022-06-27T14:10:15.176Z</time>
      </trkpt>
      <trkpt lat="44.32786" lon="6.25728">
        <ele>1864.1</ele>
        <time>2022-06-27T14:10:18.416Z</time>
      </trkpt>
      <trkpt lat="44.32777" lon="6.2572">
        <ele>1871.1</ele>
        <time>2022-06-27T14:10:24.785Z</time>
      </trkpt>
      <trkpt lat="44.32773" lon="6.25714">
        <ele>1867.6</ele>
        <time>2022-06-27T14:10:27.967Z</time>
      </trkpt>
      <trkpt lat="44.32768" lon="6.25707">
        <ele>1866.4</ele>
        <time>2022-06-27T14:10:31.058Z</time>
      </trkpt>
      <trkpt lat="44.32762" lon="6.25702">
        <ele>1866.7</ele>
        <time>2022-06-27T14:10:34.561Z</time>
      </trkpt>
      <trkpt lat="44.32758" lon="6.25699">
        <ele>1867.6</ele>
        <time>2022-06-27T14:10:37.562Z</time>
      </trkpt>
      <trkpt lat="44.3275" lon="6.25695">
        <ele>1869.3</ele>
        <time>2022-06-27T14:10:44.563Z</time>
      </trkpt>
      <trkpt lat="44.32742" lon="6.25689">
        <ele>1872.1</ele>
        <time>2022-06-27T14:10:51.086Z</time>
      </trkpt>
      <trkpt lat="44.32737" lon="6.25682">
        <ele>1876.1</ele>
        <time>2022-06-27T14:10:57.681Z</time>
      </trkpt>
      <trkpt lat="44.32732" lon="6.25679">
        <ele>1872.6</ele>
        <time>2022-06-27T14:11:00.483Z</time>
      </trkpt>
      <trkpt lat="44.32731" lon="6.25666">
        <ele>1868</ele>
        <time>2022-06-27T14:11:06.384Z</time>
      </trkpt>
      <trkpt lat="44.32728" lon="6.25659">
        <ele>1873.4</ele>
        <time>2022-06-27T14:11:09.461Z</time>
      </trkpt>
      <trkpt lat="44.32726" lon="6.25652">
        <ele>1873.6</ele>
        <time>2022-06-27T14:11:12.551Z</time>
      </trkpt>
      <trkpt lat="44.32721" lon="6.2564">
        <ele>1876.7</ele>
        <time>2022-06-27T14:11:19.553Z</time>
      </trkpt>
      <trkpt lat="44.32718" lon="6.25635">
        <ele>1876.5</ele>
        <time>2022-06-27T14:11:22.562Z</time>
      </trkpt>
      <trkpt lat="44.32711" lon="6.25625">
        <ele>1877.8</ele>
        <time>2022-06-27T14:11:28.548Z</time>
      </trkpt>
      <trkpt lat="44.32707" lon="6.2562">
        <ele>1876.6</ele>
        <time>2022-06-27T14:11:31.546Z</time>
      </trkpt>
      <trkpt lat="44.32703" lon="6.2561">
        <ele>1878.9</ele>
        <time>2022-06-27T14:11:37.551Z</time>
      </trkpt>
      <trkpt lat="44.32699" lon="6.25605">
        <ele>1878.9</ele>
        <time>2022-06-27T14:11:40.547Z</time>
      </trkpt>
      <trkpt lat="44.32694" lon="6.25596">
        <ele>1882.1</ele>
        <time>2022-06-27T14:11:46.593Z</time>
      </trkpt>
      <trkpt lat="44.32691" lon="6.25592">
        <ele>1883.2</ele>
        <time>2022-06-27T14:11:49.537Z</time>
      </trkpt>
      <trkpt lat="44.32688" lon="6.25587">
        <ele>1884.6</ele>
        <time>2022-06-27T14:11:52.587Z</time>
      </trkpt>
      <trkpt lat="44.32682" lon="6.25577">
        <ele>1884.9</ele>
        <time>2022-06-27T14:11:58.559Z</time>
      </trkpt>
      <trkpt lat="44.32675" lon="6.25569">
        <ele>1886.7</ele>
        <time>2022-06-27T14:12:04.553Z</time>
      </trkpt>
      <trkpt lat="44.32669" lon="6.25562">
        <ele>1837.7</ele>
        <time>2022-06-27T14:12:10.447Z</time>
      </trkpt>
      <trkpt lat="44.32665" lon="6.25556">
        <ele>1888.5</ele>
        <time>2022-06-27T14:12:13.585Z</time>
      </trkpt>
      <trkpt lat="44.3266" lon="6.25547">
        <ele>1886.4</ele>
        <time>2022-06-27T14:12:19.457Z</time>
      </trkpt>
      <trkpt lat="44.32656" lon="6.25539">
        <ele>1894.5</ele>
        <time>2022-06-27T14:12:25.560Z</time>
      </trkpt>
      <trkpt lat="44.32654" lon="6.25529">
        <ele>1889.8</ele>
        <time>2022-06-27T14:12:31.587Z</time>
      </trkpt>
      <trkpt lat="44.32651" lon="6.25523">
        <ele>1896.5</ele>
        <time>2022-06-27T14:12:34.564Z</time>
      </trkpt>
      <trkpt lat="44.32647" lon="6.25519">
        <ele>1897.5</ele>
        <time>2022-06-27T14:12:37.480Z</time>
      </trkpt>
      <trkpt lat="44.32643" lon="6.25514">
        <ele>1898.2</ele>
        <time>2022-06-27T14:12:40.560Z</time>
      </trkpt>
      <trkpt lat="44.32643" lon="6.25506">
        <ele>1903.7</ele>
        <time>2022-06-27T14:12:46.757Z</time>
      </trkpt>
      <trkpt lat="44.32638" lon="6.25496">
        <ele>1902.6</ele>
        <time>2022-06-27T14:12:52.562Z</time>
      </trkpt>
      <trkpt lat="44.32634" lon="6.25491">
        <ele>1901.9</ele>
        <time>2022-06-27T14:12:55.762Z</time>
      </trkpt>
      <trkpt lat="44.3263" lon="6.25481">
        <ele>1903.9</ele>
        <time>2022-06-27T14:13:01.557Z</time>
      </trkpt>
      <trkpt lat="44.32625" lon="6.25471">
        <ele>1907</ele>
        <time>2022-06-27T14:13:07.573Z</time>
      </trkpt>
      <trkpt lat="44.3262" lon="6.2546">
        <ele>1909.1</ele>
        <time>2022-06-27T14:13:14.127Z</time>
      </trkpt>
      <trkpt lat="44.32615" lon="6.25455">
        <ele>1909.7</ele>
        <time>2022-06-27T14:13:17.562Z</time>
      </trkpt>
      <trkpt lat="44.32611" lon="6.25445">
        <ele>1912.2</ele>
        <time>2022-06-27T14:13:23.534Z</time>
      </trkpt>
      <trkpt lat="44.32608" lon="6.2544">
        <ele>1910.5</ele>
        <time>2022-06-27T14:13:26.546Z</time>
      </trkpt>
      <trkpt lat="44.32606" lon="6.25429">
        <ele>1913.3</ele>
        <time>2022-06-27T14:13:32.552Z</time>
      </trkpt>
      <trkpt lat="44.32602" lon="6.25418">
        <ele>1915.9</ele>
        <time>2022-06-27T14:13:39.001Z</time>
      </trkpt>
      <trkpt lat="44.326" lon="6.25406">
        <ele>1917.6</ele>
        <time>2022-06-27T14:13:45.552Z</time>
      </trkpt>
      <trkpt lat="44.32597" lon="6.25399">
        <ele>1918.2</ele>
        <time>2022-06-27T14:13:48.959Z</time>
      </trkpt>
      <trkpt lat="44.32594" lon="6.25392">
        <ele>1918.7</ele>
        <time>2022-06-27T14:13:52.550Z</time>
      </trkpt>
      <trkpt lat="44.32591" lon="6.25386">
        <ele>1918</ele>
        <time>2022-06-27T14:13:55.561Z</time>
      </trkpt>
      <trkpt lat="44.32587" lon="6.25375">
        <ele>1919.6</ele>
        <time>2022-06-27T14:14:01.548Z</time>
      </trkpt>
      <trkpt lat="44.32584" lon="6.25367">
        <ele>1919.7</ele>
        <time>2022-06-27T14:14:04.551Z</time>
      </trkpt>
      <trkpt lat="44.3258" lon="6.25362">
        <ele>1918.1</ele>
        <time>2022-06-27T14:14:07.585Z</time>
      </trkpt>
      <trkpt lat="44.32577" lon="6.2535">
        <ele>1921.7</ele>
        <time>2022-06-27T14:14:13.502Z</time>
      </trkpt>
      <trkpt lat="44.32574" lon="6.25337">
        <ele>1923.5</ele>
        <time>2022-06-27T14:14:19.560Z</time>
      </trkpt>
      <trkpt lat="44.32573" lon="6.25327">
        <ele>1925.4</ele>
        <time>2022-06-27T14:14:25.629Z</time>
      </trkpt>
      <trkpt lat="44.32572" lon="6.25321">
        <ele>1923.3</ele>
        <time>2022-06-27T14:14:28.571Z</time>
      </trkpt>
      <trkpt lat="44.32571" lon="6.25313">
        <ele>1923.4</ele>
        <time>2022-06-27T14:14:31.595Z</time>
      </trkpt>
      <trkpt lat="44.3257" lon="6.25306">
        <ele>1929.1</ele>
        <time>2022-06-27T14:14:34.737Z</time>
      </trkpt>
      <trkpt lat="44.32569" lon="6.25294">
        <ele>1925</ele>
        <time>2022-06-27T14:14:40.549Z</time>
      </trkpt>
      <trkpt lat="44.32568" lon="6.25283">
        <ele>1926.7</ele>
        <time>2022-06-27T14:14:46.563Z</time>
      </trkpt>
      <trkpt lat="44.32566" lon="6.25271">
        <ele>1933.1</ele>
        <time>2022-06-27T14:14:52.538Z</time>
      </trkpt>
      <trkpt lat="44.32565" lon="6.25264">
        <ele>1927.9</ele>
        <time>2022-06-27T14:14:55.587Z</time>
      </trkpt>
      <trkpt lat="44.32565" lon="6.25257">
        <ele>1928.2</ele>
        <time>2022-06-27T14:14:58.562Z</time>
      </trkpt>
      <trkpt lat="44.32563" lon="6.25246">
        <ele>1928.5</ele>
        <time>2022-06-27T14:15:04.543Z</time>
      </trkpt>
      <trkpt lat="44.3256" lon="6.2524">
        <ele>1929.7</ele>
        <time>2022-06-27T14:15:07.549Z</time>
      </trkpt>
      <trkpt lat="44.32556" lon="6.25233">
        <ele>1929.9</ele>
        <time>2022-06-27T14:15:10.570Z</time>
      </trkpt>
      <trkpt lat="44.32561" lon="6.2523">
        <ele>1928.1</ele>
        <time>2022-06-27T14:18:33.000Z</time>
      </trkpt>
      <trkpt lat="44.32557" lon="6.25235">
        <ele>1928.3</ele>
        <time>2022-06-27T14:18:42.000Z</time>
      </trkpt>
      <trkpt lat="44.32551" lon="6.25228">
        <ele>1926.8</ele>
        <time>2022-06-27T14:20:11.076Z</time>
      </trkpt>
      <trkpt lat="44.3254" lon="6.25224">
        <ele>1925.5</ele>
        <time>2022-06-27T14:20:14.406Z</time>
      </trkpt>
      <trkpt lat="44.3253" lon="6.25222">
        <ele>1926</ele>
        <time>2022-06-27T14:20:18.000Z</time>
      </trkpt>
      <trkpt lat="44.32518" lon="6.25218">
        <ele>1926</ele>
        <time>2022-06-27T14:20:20.303Z</time>
      </trkpt>
      <trkpt lat="44.32509" lon="6.25214">
        <ele>1933.8</ele>
        <time>2022-06-27T14:20:24.000Z</time>
      </trkpt>
      <trkpt lat="44.32505" lon="6.25207">
        <ele>1928</ele>
        <time>2022-06-27T14:20:27.000Z</time>
      </trkpt>
      <trkpt lat="44.32497" lon="6.25204">
        <ele>1927.5</ele>
        <time>2022-06-27T14:20:29.850Z</time>
      </trkpt>
      <trkpt lat="44.32491" lon="6.25202">
        <ele>1932.1</ele>
        <time>2022-06-27T14:20:32.560Z</time>
      </trkpt>
      <trkpt lat="44.32485" lon="6.252">
        <ele>1932.1</ele>
        <time>2022-06-27T14:20:35.441Z</time>
      </trkpt>
      <trkpt lat="44.32477" lon="6.252">
        <ele>1926.5</ele>
        <time>2022-06-27T14:20:39.000Z</time>
      </trkpt>
      <trkpt lat="44.32469" lon="6.252">
        <ele>1926.5</ele>
        <time>2022-06-27T14:20:41.504Z</time>
      </trkpt>
      <trkpt lat="44.32452" lon="6.25194">
        <ele>1924.8</ele>
        <time>2022-06-27T14:20:45.000Z</time>
      </trkpt>
      <trkpt lat="44.32437" lon="6.2519">
        <ele>1924.4</ele>
        <time>2022-06-27T14:20:48.000Z</time>
      </trkpt>
      <trkpt lat="44.3243" lon="6.25187">
        <ele>1823.9</ele>
        <time>2022-06-27T14:20:51.000Z</time>
      </trkpt>
      <trkpt lat="44.32423" lon="6.25186">
        <ele>1928.3</ele>
        <time>2022-06-27T14:20:53.284Z</time>
      </trkpt>
      <trkpt lat="44.32412" lon="6.25175">
        <ele>1926.8</ele>
        <time>2022-06-27T14:20:56.372Z</time>
      </trkpt>
      <trkpt lat="44.32403" lon="6.25166">
        <ele>1925.4</ele>
        <time>2022-06-27T14:20:59.302Z</time>
      </trkpt>
      <trkpt lat="44.32393" lon="6.25158">
        <ele>1926.6</ele>
        <time>2022-06-27T14:21:02.570Z</time>
      </trkpt>
      <trkpt lat="44.32388" lon="6.25149">
        <ele>1924.5</ele>
        <time>2022-06-27T14:21:05.559Z</time>
      </trkpt>
      <trkpt lat="44.3238" lon="6.25143">
        <ele>1926.4</ele>
        <time>2022-06-27T14:21:09.000Z</time>
      </trkpt>
      <trkpt lat="44.32372" lon="6.25135">
        <ele>1926.5</ele>
        <time>2022-06-27T14:21:11.573Z</time>
      </trkpt>
      <trkpt lat="44.32365" lon="6.25129">
        <ele>1925.8</ele>
        <time>2022-06-27T14:21:14.576Z</time>
      </trkpt>
      <trkpt lat="44.32358" lon="6.25123">
        <ele>1924.3</ele>
        <time>2022-06-27T14:21:18.000Z</time>
      </trkpt>
      <trkpt lat="44.32353" lon="6.25118">
        <ele>1925.9</ele>
        <time>2022-06-27T14:21:21.000Z</time>
      </trkpt>
      <trkpt lat="44.32348" lon="6.25108">
        <ele>1920.9</ele>
        <time>2022-06-27T14:21:41.233Z</time>
      </trkpt>
      <trkpt lat="44.32343" lon="6.25101">
        <ele>1921.5</ele>
        <time>2022-06-27T14:21:44.559Z</time>
      </trkpt>
      <trkpt lat="44.3234" lon="6.25091">
        <ele>1924.8</ele>
        <time>2022-06-27T14:21:47.620Z</time>
      </trkpt>
      <trkpt lat="44.32336" lon="6.25082">
        <ele>1911.9</ele>
        <time>2022-06-27T14:21:51.000Z</time>
      </trkpt>
      <trkpt lat="44.32332" lon="6.25067">
        <ele>1909.8</ele>
        <time>2022-06-27T14:21:54.000Z</time>
      </trkpt>
      <trkpt lat="44.32327" lon="6.25051">
        <ele>1909.8</ele>
        <time>2022-06-27T14:21:56.357Z</time>
      </trkpt>
      <trkpt lat="44.32323" lon="6.25036">
        <ele>1909.2</ele>
        <time>2022-06-27T14:21:59.272Z</time>
      </trkpt>
      <trkpt lat="44.32323" lon="6.25021">
        <ele>1908.8</ele>
        <time>2022-06-27T14:22:02.073Z</time>
      </trkpt>
      <trkpt lat="44.3231" lon="6.24962">
        <ele>1900.9</ele>
        <time>2022-06-27T14:22:06.000Z</time>
      </trkpt>
      <trkpt lat="44.32308" lon="6.24946">
        <ele>1852.9</ele>
        <time>2022-06-27T14:22:09.000Z</time>
      </trkpt>
      <trkpt lat="44.32307" lon="6.24931">
        <ele>1876.8</ele>
        <time>2022-06-27T14:22:12.000Z</time>
      </trkpt>
      <trkpt lat="44.32307" lon="6.2491">
        <ele>1883.9</ele>
        <time>2022-06-27T14:22:15.000Z</time>
      </trkpt>
      <trkpt lat="44.32307" lon="6.24883">
        <ele>1880.3</ele>
        <time>2022-06-27T14:22:18.000Z</time>
      </trkpt>
      <trkpt lat="44.32306" lon="6.24859">
        <ele>1750.6</ele>
        <time>2022-06-27T14:22:21.000Z</time>
      </trkpt>
      <trkpt lat="44.32298" lon="6.24842">
        <ele>1792</ele>
        <time>2022-06-27T14:22:24.000Z</time>
      </trkpt>
      <trkpt lat="44.32291" lon="6.24829">
        <ele>1837.4</ele>
        <time>2022-06-27T14:22:27.000Z</time>
      </trkpt>
      <trkpt lat="44.32287" lon="6.24823">
        <ele>1846.4</ele>
        <time>2022-06-27T14:22:30.000Z</time>
      </trkpt>
      <trkpt lat="44.32283" lon="6.24819">
        <ele>1869.1</ele>
        <time>2022-06-27T14:22:33.000Z</time>
      </trkpt>
      <trkpt lat="44.32275" lon="6.2482">
        <ele>1864.5</ele>
        <time>2022-06-27T14:22:41.185Z</time>
      </trkpt>
      <trkpt lat="44.32264" lon="6.24818">
        <ele>1861.7</ele>
        <time>2022-06-27T14:22:44.107Z</time>
      </trkpt>
      <trkpt lat="44.32258" lon="6.24819">
        <ele>1861</ele>
        <time>2022-06-27T14:22:47.063Z</time>
      </trkpt>
      <trkpt lat="44.32252" lon="6.2482">
        <ele>1838.9</ele>
        <time>2022-06-27T14:22:51.000Z</time>
      </trkpt>
      <trkpt lat="44.32242" lon="6.24816">
        <ele>1852.3</ele>
        <time>2022-06-27T14:22:56.185Z</time>
      </trkpt>
      <trkpt lat="44.32233" lon="6.24815">
        <ele>1847.8</ele>
        <time>2022-06-27T14:22:59.325Z</time>
      </trkpt>
      <trkpt lat="44.32226" lon="6.24815">
        <ele>1844.3</ele>
        <time>2022-06-27T14:23:03.000Z</time>
      </trkpt>
      <trkpt lat="44.32218" lon="6.24816">
        <ele>1864.2</ele>
        <time>2022-06-27T14:23:06.000Z</time>
      </trkpt>
      <trkpt lat="44.32211" lon="6.24817">
        <ele>1837.1</ele>
        <time>2022-06-27T14:23:08.883Z</time>
      </trkpt>
      <trkpt lat="44.32204" lon="6.24813">
        <ele>1836.6</ele>
        <time>2022-06-27T14:23:12.598Z</time>
      </trkpt>
      <trkpt lat="44.32194" lon="6.24812">
        <ele>1833.6</ele>
        <time>2022-06-27T14:23:15.618Z</time>
      </trkpt>
      <trkpt lat="44.32185" lon="6.24806">
        <ele>1832</ele>
        <time>2022-06-27T14:23:18.629Z</time>
      </trkpt>
      <trkpt lat="44.32172" lon="6.24794">
        <ele>1836.3</ele>
        <time>2022-06-27T14:23:22.634Z</time>
      </trkpt>
      <trkpt lat="44.32167" lon="6.24781">
        <ele>1834.4</ele>
        <time>2022-06-27T14:23:25.542Z</time>
      </trkpt>
      <trkpt lat="44.3215" lon="6.2476">
        <ele>1814.2</ele>
        <time>2022-06-27T14:23:30.000Z</time>
      </trkpt>
      <trkpt lat="44.32142" lon="6.24745">
        <ele>1814.8</ele>
        <time>2022-06-27T14:23:33.000Z</time>
      </trkpt>
      <trkpt lat="44.32142" lon="6.24734">
        <ele>1813.1</ele>
        <time>2022-06-27T14:23:36.000Z</time>
      </trkpt>
      <trkpt lat="44.32125" lon="6.24726">
        <ele>1817.8</ele>
        <time>2022-06-27T14:23:39.000Z</time>
      </trkpt>
      <trkpt lat="44.32102" lon="6.24712">
        <ele>1814.4</ele>
        <time>2022-06-27T14:23:42.000Z</time>
      </trkpt>
      <trkpt lat="44.32079" lon="6.24698">
        <ele>1813.2</ele>
        <time>2022-06-27T14:23:45.000Z</time>
      </trkpt>
      <trkpt lat="44.32067" lon="6.24692">
        <ele>1813.6</ele>
        <time>2022-06-27T14:23:48.000Z</time>
      </trkpt>
      <trkpt lat="44.32056" lon="6.24685">
        <ele>1813.1</ele>
        <time>2022-06-27T14:23:51.000Z</time>
      </trkpt>
      <trkpt lat="44.32053" lon="6.24676">
        <ele>1801.5</ele>
        <time>2022-06-27T14:24:00.000Z</time>
      </trkpt>
      <trkpt lat="44.32045" lon="6.24667">
        <ele>1801.7</ele>
        <time>2022-06-27T14:24:05.270Z</time>
      </trkpt>
      <trkpt lat="44.32037" lon="6.24669">
        <ele>1800.4</ele>
        <time>2022-06-27T14:24:08.061Z</time>
      </trkpt>
      <trkpt lat="44.32028" lon="6.24669">
        <ele>1805.7</ele>
        <time>2022-06-27T14:24:14.628Z</time>
      </trkpt>
      <trkpt lat="44.32024" lon="6.24662">
        <ele>1792.8</ele>
        <time>2022-06-27T14:24:18.000Z</time>
      </trkpt>
      <trkpt lat="44.32018" lon="6.24656">
        <ele>1791.8</ele>
        <time>2022-06-27T14:24:20.388Z</time>
      </trkpt>
      <trkpt lat="44.32013" lon="6.24651">
        <ele>1791.4</ele>
        <time>2022-06-27T14:24:24.000Z</time>
      </trkpt>
      <trkpt lat="44.32009" lon="6.24636">
        <ele>1760.4</ele>
        <time>2022-06-27T14:24:30.000Z</time>
      </trkpt>
      <trkpt lat="44.32005" lon="6.24624">
        <ele>1783.7</ele>
        <time>2022-06-27T14:24:32.746Z</time>
      </trkpt>
      <trkpt lat="44.31999" lon="6.24615">
        <ele>1783.4</ele>
        <time>2022-06-27T14:24:36.325Z</time>
      </trkpt>
      <trkpt lat="44.31996" lon="6.24605">
        <ele>1781.4</ele>
        <time>2022-06-27T14:24:39.180Z</time>
      </trkpt>
      <trkpt lat="44.31989" lon="6.24593">
        <ele>1781.2</ele>
        <time>2022-06-27T14:24:42.651Z</time>
      </trkpt>
      <trkpt lat="44.31983" lon="6.24579">
        <ele>1726.3</ele>
        <time>2022-06-27T14:24:45.358Z</time>
      </trkpt>
      <trkpt lat="44.31981" lon="6.24563">
        <ele>1758.3</ele>
        <time>2022-06-27T14:24:48.629Z</time>
      </trkpt>
      <trkpt lat="44.31979" lon="6.24556">
        <ele>1758.3</ele>
        <time>2022-06-27T14:24:51.620Z</time>
      </trkpt>
      <trkpt lat="44.31979" lon="6.24544">
        <ele>1780.3</ele>
        <time>2022-06-27T14:24:54.567Z</time>
      </trkpt>
      <trkpt lat="44.31978" lon="6.24528">
        <ele>1776.9</ele>
        <time>2022-06-27T14:24:57.625Z</time>
      </trkpt>
      <trkpt lat="44.31982" lon="6.24517">
        <ele>1754.8</ele>
        <time>2022-06-27T14:25:00.386Z</time>
      </trkpt>
      <trkpt lat="44.31983" lon="6.24507">
        <ele>1757</ele>
        <time>2022-06-27T14:25:03.554Z</time>
      </trkpt>
      <trkpt lat="44.3198" lon="6.24483">
        <ele>1780.8</ele>
        <time>2022-06-27T14:25:09.446Z</time>
      </trkpt>
      <trkpt lat="44.31976" lon="6.24474">
        <ele>1783.2</ele>
        <time>2022-06-27T14:25:12.791Z</time>
      </trkpt>
      <trkpt lat="44.31974" lon="6.24463">
        <ele>1783.2</ele>
        <time>2022-06-27T14:25:16.636Z</time>
      </trkpt>
      <trkpt lat="44.31973" lon="6.24455">
        <ele>1783.6</ele>
        <time>2022-06-27T14:25:19.704Z</time>
      </trkpt>
      <trkpt lat="44.31967" lon="6.24449">
        <ele>1784.6</ele>
        <time>2022-06-27T14:25:22.869Z</time>
      </trkpt>
      <trkpt lat="44.31956" lon="6.24443">
        <ele>1784.9</ele>
        <time>2022-06-27T14:25:26.620Z</time>
      </trkpt>
      <trkpt lat="44.31951" lon="6.24437">
        <ele>1791.1</ele>
        <time>2022-06-27T14:25:30.000Z</time>
      </trkpt>
      <trkpt lat="44.31952" lon="6.2443">
        <ele>1791.1</ele>
        <time>2022-06-27T14:25:32.558Z</time>
      </trkpt>
      <trkpt lat="44.3196" lon="6.24422">
        <ele>1789.6</ele>
        <time>2022-06-27T14:25:35.444Z</time>
      </trkpt>
      <trkpt lat="44.31962" lon="6.24416">
        <ele>1790.1</ele>
        <time>2022-06-27T14:25:38.574Z</time>
      </trkpt>
      <trkpt lat="44.31963" lon="6.24406">
        <ele>1786.4</ele>
        <time>2022-06-27T14:25:44.349Z</time>
      </trkpt>
      <trkpt lat="44.31963" lon="6.24398">
        <ele>1793</ele>
        <time>2022-06-27T14:25:47.574Z</time>
      </trkpt>
      <trkpt lat="44.31961" lon="6.24392">
        <ele>1792.2</ele>
        <time>2022-06-27T14:25:50.574Z</time>
      </trkpt>
      <trkpt lat="44.31959" lon="6.24386">
        <ele>1796.8</ele>
        <time>2022-06-27T14:25:54.000Z</time>
      </trkpt>
      <trkpt lat="44.31955" lon="6.2438">
        <ele>1794.4</ele>
        <time>2022-06-27T14:25:56.565Z</time>
      </trkpt>
      <trkpt lat="44.31952" lon="6.24374">
        <ele>1794.6</ele>
        <time>2022-06-27T14:25:59.567Z</time>
      </trkpt>
      <trkpt lat="44.3195" lon="6.24359">
        <ele>1798.2</ele>
        <time>2022-06-27T14:26:06.566Z</time>
      </trkpt>
      <trkpt lat="44.31947" lon="6.24352">
        <ele>1800.9</ele>
        <time>2022-06-27T14:26:09.965Z</time>
      </trkpt>
      <trkpt lat="44.31944" lon="6.24344">
        <ele>1802.3</ele>
        <time>2022-06-27T14:26:13.597Z</time>
      </trkpt>
      <trkpt lat="44.31942" lon="6.24334">
        <ele>1805.4</ele>
        <time>2022-06-27T14:26:19.302Z</time>
      </trkpt>
      <trkpt lat="44.31935" lon="6.24325">
        <ele>1801.8</ele>
        <time>2022-06-27T14:26:25.569Z</time>
      </trkpt>
      <trkpt lat="44.3193" lon="6.24321">
        <ele>1803.9</ele>
        <time>2022-06-27T14:26:28.829Z</time>
      </trkpt>
      <trkpt lat="44.31922" lon="6.24314">
        <ele>1803.4</ele>
        <time>2022-06-27T14:26:34.580Z</time>
      </trkpt>
      <trkpt lat="44.31918" lon="6.2431">
        <ele>1792.6</ele>
        <time>2022-06-27T14:26:37.285Z</time>
      </trkpt>
      <trkpt lat="44.31913" lon="6.24306">
        <ele>1806</ele>
        <time>2022-06-27T14:26:40.563Z</time>
      </trkpt>
      <trkpt lat="44.31909" lon="6.24302">
        <ele>1805.4</ele>
        <time>2022-06-27T14:26:43.562Z</time>
      </trkpt>
      <trkpt lat="44.31902" lon="6.24296">
        <ele>1806.2</ele>
        <time>2022-06-27T14:26:49.463Z</time>
      </trkpt>
      <trkpt lat="44.31894" lon="6.2429">
        <ele>1807.3</ele>
        <time>2022-06-27T14:26:55.563Z</time>
      </trkpt>
      <trkpt lat="44.31889" lon="6.24287">
        <ele>1810.8</ele>
        <time>2022-06-27T14:26:58.611Z</time>
      </trkpt>
      <trkpt lat="44.31881" lon="6.24282">
        <ele>1809.5</ele>
        <time>2022-06-27T14:27:04.563Z</time>
      </trkpt>
      <trkpt lat="44.31877" lon="6.24279">
        <ele>1812.5</ele>
        <time>2022-06-27T14:27:07.322Z</time>
      </trkpt>
      <trkpt lat="44.31873" lon="6.24275">
        <ele>1812.4</ele>
        <time>2022-06-27T14:27:10.560Z</time>
      </trkpt>
      <trkpt lat="44.3187" lon="6.2427">
        <ele>1812.1</ele>
        <time>2022-06-27T14:27:14.146Z</time>
      </trkpt>
      <trkpt lat="44.3187" lon="6.24262">
        <ele>1812.1</ele>
        <time>2022-06-27T14:27:18.000Z</time>
      </trkpt>
      <trkpt lat="44.31873" lon="6.24252">
        <ele>1811.2</ele>
        <time>2022-06-27T14:27:21.000Z</time>
      </trkpt>
      <trkpt lat="44.31873" lon="6.24242">
        <ele>1804.9</ele>
        <time>2022-06-27T14:27:23.262Z</time>
      </trkpt>
      <trkpt lat="44.31869" lon="6.2422">
        <ele>1805.2</ele>
        <time>2022-06-27T14:27:26.568Z</time>
      </trkpt>
      <trkpt lat="44.3186" lon="6.24195">
        <ele>1801.1</ele>
        <time>2022-06-27T14:27:30.000Z</time>
      </trkpt>
      <trkpt lat="44.3185" lon="6.24168">
        <ele>1795.3</ele>
        <time>2022-06-27T14:27:33.000Z</time>
      </trkpt>
      <trkpt lat="44.31839" lon="6.24143">
        <ele>1796.4</ele>
        <time>2022-06-27T14:27:36.000Z</time>
      </trkpt>
      <trkpt lat="44.31833" lon="6.24127">
        <ele>1799.4</ele>
        <time>2022-06-27T14:27:39.000Z</time>
      </trkpt>
      <trkpt lat="44.3183" lon="6.24113">
        <ele>1796.5</ele>
        <time>2022-06-27T14:27:45.000Z</time>
      </trkpt>
      <trkpt lat="44.31825" lon="6.24105">
        <ele>1799.1</ele>
        <time>2022-06-27T14:27:54.000Z</time>
      </trkpt>
      <trkpt lat="44.31824" lon="6.24093">
        <ele>1799.1</ele>
        <time>2022-06-27T14:27:56.632Z</time>
      </trkpt>
      <trkpt lat="44.31821" lon="6.2408">
        <ele>1811.2</ele>
        <time>2022-06-27T14:28:00.000Z</time>
      </trkpt>
      <trkpt lat="44.31815" lon="6.24074">
        <ele>1800.1</ele>
        <time>2022-06-27T14:28:05.490Z</time>
      </trkpt>
      <trkpt lat="44.3181" lon="6.24059">
        <ele>1799.2</ele>
        <time>2022-06-27T14:28:08.566Z</time>
      </trkpt>
      <trkpt lat="44.31805" lon="6.24029">
        <ele>1798.2</ele>
        <time>2022-06-27T14:28:12.000Z</time>
      </trkpt>
      <trkpt lat="44.31804" lon="6.24003">
        <ele>1790.6</ele>
        <time>2022-06-27T14:28:15.000Z</time>
      </trkpt>
      <trkpt lat="44.31804" lon="6.23978">
        <ele>1791.9</ele>
        <time>2022-06-27T14:28:18.000Z</time>
      </trkpt>
      <trkpt lat="44.31801" lon="6.23954">
        <ele>1797.8</ele>
        <time>2022-06-27T14:28:21.000Z</time>
      </trkpt>
      <trkpt lat="44.31794" lon="6.23933">
        <ele>1796.4</ele>
        <time>2022-06-27T14:28:24.000Z</time>
      </trkpt>
      <trkpt lat="44.31794" lon="6.23907">
        <ele>1793.9</ele>
        <time>2022-06-27T14:28:27.000Z</time>
      </trkpt>
      <trkpt lat="44.31795" lon="6.23879">
        <ele>1792.4</ele>
        <time>2022-06-27T14:28:30.000Z</time>
      </trkpt>
      <trkpt lat="44.31794" lon="6.23849">
        <ele>1791.2</ele>
        <time>2022-06-27T14:28:33.000Z</time>
      </trkpt>
      <trkpt lat="44.31795" lon="6.23816">
        <ele>1790.1</ele>
        <time>2022-06-27T14:28:36.000Z</time>
      </trkpt>
      <trkpt lat="44.31792" lon="6.23783">
        <ele>1789.3</ele>
        <time>2022-06-27T14:28:39.000Z</time>
      </trkpt>
      <trkpt lat="44.31786" lon="6.23765">
        <ele>1788.4</ele>
        <time>2022-06-27T14:28:42.000Z</time>
      </trkpt>
      <trkpt lat="44.3178" lon="6.23748">
        <ele>1780.1</ele>
        <time>2022-06-27T14:28:48.000Z</time>
      </trkpt>
      <trkpt lat="44.31779" lon="6.23738">
        <ele>1778.6</ele>
        <time>2022-06-27T14:28:51.000Z</time>
      </trkpt>
      <trkpt lat="44.31784" lon="6.23732">
        <ele>1776.7</ele>
        <time>2022-06-27T14:28:53.432Z</time>
      </trkpt>
      <trkpt lat="44.31763" lon="6.23707">
        <ele>1776.1</ele>
        <time>2022-06-27T14:28:56.493Z</time>
      </trkpt>
      <trkpt lat="44.31765" lon="6.23691">
        <ele>1775.5</ele>
        <time>2022-06-27T14:28:59.428Z</time>
      </trkpt>
      <trkpt lat="44.31772" lon="6.23673">
        <ele>1775</ele>
        <time>2022-06-27T14:29:02.593Z</time>
      </trkpt>
      <trkpt lat="44.31768" lon="6.23644">
        <ele>1781.8</ele>
        <time>2022-06-27T14:29:06.000Z</time>
      </trkpt>
      <trkpt lat="44.31762" lon="6.23618">
        <ele>1766.2</ele>
        <time>2022-06-27T14:29:09.000Z</time>
      </trkpt>
      <trkpt lat="44.31759" lon="6.2359">
        <ele>1764.9</ele>
        <time>2022-06-27T14:29:12.000Z</time>
      </trkpt>
      <trkpt lat="44.31752" lon="6.23571">
        <ele>1763.8</ele>
        <time>2022-06-27T14:29:15.000Z</time>
      </trkpt>
      <trkpt lat="44.31745" lon="6.23553">
        <ele>1763.8</ele>
        <time>2022-06-27T14:29:18.000Z</time>
      </trkpt>
      <trkpt lat="44.31742" lon="6.23547">
        <ele>1763.2</ele>
        <time>2022-06-27T14:29:21.000Z</time>
      </trkpt>
      <trkpt lat="44.31737" lon="6.23538">
        <ele>1756.3</ele>
        <time>2022-06-27T14:29:24.000Z</time>
      </trkpt>
      <trkpt lat="44.31732" lon="6.23536">
        <ele>1758.2</ele>
        <time>2022-06-27T14:29:39.000Z</time>
      </trkpt>
      <trkpt lat="44.31736" lon="6.23539">
        <ele>1758.2</ele>
        <time>2022-06-27T14:30:06.000Z</time>
      </trkpt>
      <trkpt lat="44.31736" lon="6.23532">
        <ele>1758.7</ele>
        <time>2022-06-27T14:30:15.000Z</time>
      </trkpt>
      <trkpt lat="44.31738" lon="6.23519">
        <ele>1756.6</ele>
        <time>2022-06-27T14:30:17.551Z</time>
      </trkpt>
      <trkpt lat="44.3174" lon="6.23506">
        <ele>1756.8</ele>
        <time>2022-06-27T14:30:20.282Z</time>
      </trkpt>
      <trkpt lat="44.31749" lon="6.23496">
        <ele>1751.9</ele>
        <time>2022-06-27T14:30:23.288Z</time>
      </trkpt>
      <trkpt lat="44.31767" lon="6.23477">
        <ele>1752.9</ele>
        <time>2022-06-27T14:30:27.000Z</time>
      </trkpt>
      <trkpt lat="44.31784" lon="6.23459">
        <ele>1771.4</ele>
        <time>2022-06-27T14:30:30.000Z</time>
      </trkpt>
      <trkpt lat="44.31802" lon="6.23451">
        <ele>1759.6</ele>
        <time>2022-06-27T14:30:33.000Z</time>
      </trkpt>
      <trkpt lat="44.31818" lon="6.2345">
        <ele>1751.4</ele>
        <time>2022-06-27T14:30:36.000Z</time>
      </trkpt>
      <trkpt lat="44.31825" lon="6.23449">
        <ele>1748.9</ele>
        <time>2022-06-27T14:30:39.000Z</time>
      </trkpt>
      <trkpt lat="44.31848" lon="6.23442">
        <ele>1740.8</ele>
        <time>2022-06-27T14:30:42.000Z</time>
      </trkpt>
      <trkpt lat="44.31864" lon="6.23443">
        <ele>1740.9</ele>
        <time>2022-06-27T14:30:45.000Z</time>
      </trkpt>
      <trkpt lat="44.31875" lon="6.23428">
        <ele>1729.7</ele>
        <time>2022-06-27T14:30:51.000Z</time>
      </trkpt>
      <trkpt lat="44.31887" lon="6.23415">
        <ele>1729.7</ele>
        <time>2022-06-27T14:30:53.575Z</time>
      </trkpt>
      <trkpt lat="44.31901" lon="6.23402">
        <ele>1730.6</ele>
        <time>2022-06-27T14:30:56.567Z</time>
      </trkpt>
      <trkpt lat="44.31913" lon="6.23385">
        <ele>1722.2</ele>
        <time>2022-06-27T14:31:00.000Z</time>
      </trkpt>
      <trkpt lat="44.31926" lon="6.23371">
        <ele>1722.2</ele>
        <time>2022-06-27T14:31:03.000Z</time>
      </trkpt>
      <trkpt lat="44.3194" lon="6.23361">
        <ele>1714.5</ele>
        <time>2022-06-27T14:31:06.000Z</time>
      </trkpt>
      <trkpt lat="44.31955" lon="6.23354">
        <ele>1713.1</ele>
        <time>2022-06-27T14:31:09.000Z</time>
      </trkpt>
      <trkpt lat="44.31968" lon="6.23343">
        <ele>1708.8</ele>
        <time>2022-06-27T14:31:12.000Z</time>
      </trkpt>
      <trkpt lat="44.31978" lon="6.2332">
        <ele>1686.2</ele>
        <time>2022-06-27T14:31:15.000Z</time>
      </trkpt>
      <trkpt lat="44.31989" lon="6.23299">
        <ele>1708.2</ele>
        <time>2022-06-27T14:31:18.000Z</time>
      </trkpt>
      <trkpt lat="44.32004" lon="6.2328">
        <ele>1693.8</ele>
        <time>2022-06-27T14:31:21.000Z</time>
      </trkpt>
      <trkpt lat="44.32021" lon="6.23256">
        <ele>1689.6</ele>
        <time>2022-06-27T14:31:24.000Z</time>
      </trkpt>
      <trkpt lat="44.32035" lon="6.23239">
        <ele>1685.4</ele>
        <time>2022-06-27T14:31:27.000Z</time>
      </trkpt>
      <trkpt lat="44.3205" lon="6.23223">
        <ele>1681.7</ele>
        <time>2022-06-27T14:31:30.000Z</time>
      </trkpt>
      <trkpt lat="44.32067" lon="6.23207">
        <ele>1679.7</ele>
        <time>2022-06-27T14:31:33.000Z</time>
      </trkpt>
      <trkpt lat="44.32078" lon="6.23199">
        <ele>1678.8</ele>
        <time>2022-06-27T14:31:36.000Z</time>
      </trkpt>
      <trkpt lat="44.32082" lon="6.23195">
        <ele>1675.2</ele>
        <time>2022-06-27T14:31:39.000Z</time>
      </trkpt>
      <trkpt lat="44.32085" lon="6.2319">
        <ele>1676.9</ele>
        <time>2022-06-27T14:31:57.000Z</time>
      </trkpt>
      <trkpt lat="44.32093" lon="6.23187">
        <ele>1670</ele>
        <time>2022-06-27T14:32:11.373Z</time>
      </trkpt>
      <trkpt lat="44.32104" lon="6.2318">
        <ele>1668</ele>
        <time>2022-06-27T14:32:15.000Z</time>
      </trkpt>
      <trkpt lat="44.32118" lon="6.23172">
        <ele>1663.6</ele>
        <time>2022-06-27T14:32:18.000Z</time>
      </trkpt>
      <trkpt lat="44.32132" lon="6.23163">
        <ele>1664.2</ele>
        <time>2022-06-27T14:32:21.000Z</time>
      </trkpt>
      <trkpt lat="44.32147" lon="6.23154">
        <ele>1656</ele>
        <time>2022-06-27T14:32:24.000Z</time>
      </trkpt>
      <trkpt lat="44.32163" lon="6.23146">
        <ele>1655.9</ele>
        <time>2022-06-27T14:32:27.000Z</time>
      </trkpt>
      <trkpt lat="44.3218" lon="6.23141">
        <ele>1647.2</ele>
        <time>2022-06-27T14:32:30.000Z</time>
      </trkpt>
      <trkpt lat="44.32198" lon="6.23136">
        <ele>1641.7</ele>
        <time>2022-06-27T14:32:33.000Z</time>
      </trkpt>
      <trkpt lat="44.32216" lon="6.23132">
        <ele>1640.9</ele>
        <time>2022-06-27T14:32:36.000Z</time>
      </trkpt>
      <trkpt lat="44.32227" lon="6.23127">
        <ele>1639.8</ele>
        <time>2022-06-27T14:32:39.000Z</time>
      </trkpt>
      <trkpt lat="44.32233" lon="6.23124">
        <ele>1639.6</ele>
        <time>2022-06-27T14:32:42.000Z</time>
      </trkpt>
      <trkpt lat="44.32226" lon="6.23118">
        <ele>1633.4</ele>
        <time>2022-06-27T14:32:45.000Z</time>
      </trkpt>
      <trkpt lat="44.32221" lon="6.23122">
        <ele>1632.3</ele>
        <time>2022-06-27T14:33:00.000Z</time>
      </trkpt>
      <trkpt lat="44.32239" lon="6.2312">
        <ele>1631.9</ele>
        <time>2022-06-27T14:33:15.000Z</time>
      </trkpt>
      <trkpt lat="44.32255" lon="6.23121">
        <ele>1628.9</ele>
        <time>2022-06-27T14:33:18.000Z</time>
      </trkpt>
      <trkpt lat="44.32268" lon="6.23123">
        <ele>1625.3</ele>
        <time>2022-06-27T14:33:21.000Z</time>
      </trkpt>
      <trkpt lat="44.32278" lon="6.23121">
        <ele>1625.3</ele>
        <time>2022-06-27T14:33:23.579Z</time>
      </trkpt>
      <trkpt lat="44.32292" lon="6.23124">
        <ele>1625.9</ele>
        <time>2022-06-27T14:33:26.551Z</time>
      </trkpt>
      <trkpt lat="44.32308" lon="6.2312">
        <ele>1613.9</ele>
        <time>2022-06-27T14:33:30.000Z</time>
      </trkpt>
      <trkpt lat="44.32323" lon="6.2312">
        <ele>1612.2</ele>
        <time>2022-06-27T14:33:33.000Z</time>
      </trkpt>
      <trkpt lat="44.32337" lon="6.23117">
        <ele>1602.7</ele>
        <time>2022-06-27T14:33:36.000Z</time>
      </trkpt>
      <trkpt lat="44.32353" lon="6.23113">
        <ele>1600.3</ele>
        <time>2022-06-27T14:33:39.000Z</time>
      </trkpt>
      <trkpt lat="44.3237" lon="6.23114">
        <ele>1595.5</ele>
        <time>2022-06-27T14:33:42.000Z</time>
      </trkpt>
      <trkpt lat="44.32385" lon="6.2312">
        <ele>1594.2</ele>
        <time>2022-06-27T14:33:45.000Z</time>
      </trkpt>
      <trkpt lat="44.32405" lon="6.23116">
        <ele>1585.3</ele>
        <time>2022-06-27T14:33:48.000Z</time>
      </trkpt>
      <trkpt lat="44.32423" lon="6.23109">
        <ele>1581.4</ele>
        <time>2022-06-27T14:33:51.000Z</time>
      </trkpt>
      <trkpt lat="44.32437" lon="6.23105">
        <ele>1577.9</ele>
        <time>2022-06-27T14:33:54.000Z</time>
      </trkpt>
      <trkpt lat="44.32441" lon="6.23101">
        <ele>1572.5</ele>
        <time>2022-06-27T14:33:57.000Z</time>
      </trkpt>
      <trkpt lat="44.32451" lon="6.23097">
        <ele>1577.1</ele>
        <time>2022-06-27T14:34:00.000Z</time>
      </trkpt>
      <trkpt lat="44.32459" lon="6.23097">
        <ele>1573.8</ele>
        <time>2022-06-27T14:34:03.000Z</time>
      </trkpt>
      <trkpt lat="44.32469" lon="6.23092">
        <ele>1574.1</ele>
        <time>2022-06-27T14:34:05.678Z</time>
      </trkpt>
      <trkpt lat="44.32485" lon="6.23095">
        <ele>1572.5</ele>
        <time>2022-06-27T14:34:08.708Z</time>
      </trkpt>
      <trkpt lat="44.32494" lon="6.23095">
        <ele>1569.8</ele>
        <time>2022-06-27T14:34:11.599Z</time>
      </trkpt>
      <trkpt lat="44.32503" lon="6.23095">
        <ele>1560.4</ele>
        <time>2022-06-27T14:34:15.089Z</time>
      </trkpt>
      <trkpt lat="44.32511" lon="6.23085">
        <ele>1561.6</ele>
        <time>2022-06-27T14:34:18.505Z</time>
      </trkpt>
      <trkpt lat="44.32521" lon="6.23089">
        <ele>1562.2</ele>
        <time>2022-06-27T14:34:22.565Z</time>
      </trkpt>
      <trkpt lat="44.32525" lon="6.23093">
        <ele>1552.5</ele>
        <time>2022-06-27T14:34:25.604Z</time>
      </trkpt>
      <trkpt lat="44.3253" lon="6.23096">
        <ele>1553.7</ele>
        <time>2022-06-27T14:34:28.649Z</time>
      </trkpt>
      <trkpt lat="44.32538" lon="6.23092">
        <ele>1548.1</ele>
        <time>2022-06-27T14:34:35.475Z</time>
      </trkpt>
      <trkpt lat="44.32543" lon="6.23088">
        <ele>1546.6</ele>
        <time>2022-06-27T14:34:38.558Z</time>
      </trkpt>
      <trkpt lat="44.32549" lon="6.23085">
        <ele>1539.7</ele>
        <time>2022-06-27T14:34:41.371Z</time>
      </trkpt>
      <trkpt lat="44.32559" lon="6.2309">
        <ele>1540.7</ele>
        <time>2022-06-27T14:34:44.509Z</time>
      </trkpt>
      <trkpt lat="44.32567" lon="6.23092">
        <ele>1534.3</ele>
        <time>2022-06-27T14:34:47.455Z</time>
      </trkpt>
      <trkpt lat="44.32576" lon="6.23093">
        <ele>1532.6</ele>
        <time>2022-06-27T14:34:50.601Z</time>
      </trkpt>
      <trkpt lat="44.32588" lon="6.23097">
        <ele>1532.7</ele>
        <time>2022-06-27T14:34:53.550Z</time>
      </trkpt>
      <trkpt lat="44.32594" lon="6.23092">
        <ele>1523.8</ele>
        <time>2022-06-27T14:34:56.486Z</time>
      </trkpt>
      <trkpt lat="44.326" lon="6.23085">
        <ele>1521.1</ele>
        <time>2022-06-27T14:34:59.298Z</time>
      </trkpt>
      <trkpt lat="44.3261" lon="6.23075">
        <ele>1519.5</ele>
        <time>2022-06-27T14:35:02.571Z</time>
      </trkpt>
      <trkpt lat="44.32616" lon="6.23068">
        <ele>1515</ele>
        <time>2022-06-27T14:35:06.000Z</time>
      </trkpt>
      <trkpt lat="44.32624" lon="6.23061">
        <ele>1513.4</ele>
        <time>2022-06-27T14:35:09.000Z</time>
      </trkpt>
      <trkpt lat="44.32631" lon="6.23057">
        <ele>1513.4</ele>
        <time>2022-06-27T14:35:11.564Z</time>
      </trkpt>
      <trkpt lat="44.32636" lon="6.23049">
        <ele>1506.1</ele>
        <time>2022-06-27T14:35:15.000Z</time>
      </trkpt>
      <trkpt lat="44.32642" lon="6.23043">
        <ele>1505.6</ele>
        <time>2022-06-27T14:35:17.557Z</time>
      </trkpt>
      <trkpt lat="44.32647" lon="6.23045">
        <ele>1506.4</ele>
        <time>2022-06-27T14:35:20.556Z</time>
      </trkpt>
      <trkpt lat="44.32656" lon="6.23048">
        <ele>1500.7</ele>
        <time>2022-06-27T14:35:24.000Z</time>
      </trkpt>
      <trkpt lat="44.32662" lon="6.2305">
        <ele>1500.3</ele>
        <time>2022-06-27T14:35:26.571Z</time>
      </trkpt>
      <trkpt lat="44.32668" lon="6.23053">
        <ele>1498.6</ele>
        <time>2022-06-27T14:35:29.547Z</time>
      </trkpt>
      <trkpt lat="44.32675" lon="6.2305">
        <ele>1489.9</ele>
        <time>2022-06-27T14:35:32.947Z</time>
      </trkpt>
      <trkpt lat="44.32681" lon="6.23048">
        <ele>1489.9</ele>
        <time>2022-06-27T14:35:36.560Z</time>
      </trkpt>
      <trkpt lat="44.32691" lon="6.23044">
        <ele>1486.8</ele>
        <time>2022-06-27T14:35:39.673Z</time>
      </trkpt>
      <trkpt lat="44.327" lon="6.23036">
        <ele>1478.4</ele>
        <time>2022-06-27T14:35:42.826Z</time>
      </trkpt>
      <trkpt lat="44.32707" lon="6.23039">
        <ele>1477.2</ele>
        <time>2022-06-27T14:35:46.558Z</time>
      </trkpt>
      <trkpt lat="44.32716" lon="6.2303">
        <ele>1477.3</ele>
        <time>2022-06-27T14:35:49.550Z</time>
      </trkpt>
      <trkpt lat="44.32728" lon="6.23022">
        <ele>1469</ele>
        <time>2022-06-27T14:35:52.563Z</time>
      </trkpt>
      <trkpt lat="44.32739" lon="6.23023">
        <ele>1469.1</ele>
        <time>2022-06-27T14:35:55.575Z</time>
      </trkpt>
      <trkpt lat="44.32745" lon="6.2303">
        <ele>1463</ele>
        <time>2022-06-27T14:35:58.608Z</time>
      </trkpt>
      <trkpt lat="44.32753" lon="6.23035">
        <ele>1459.2</ele>
        <time>2022-06-27T14:36:01.557Z</time>
      </trkpt>
      <trkpt lat="44.32764" lon="6.23033">
        <ele>1461.9</ele>
        <time>2022-06-27T14:36:04.601Z</time>
      </trkpt>
      <trkpt lat="44.32773" lon="6.23029">
        <ele>1452.7</ele>
        <time>2022-06-27T14:36:07.570Z</time>
      </trkpt>
      <trkpt lat="44.32791" lon="6.2302">
        <ele>1451.5</ele>
        <time>2022-06-27T14:36:12.000Z</time>
      </trkpt>
      <trkpt lat="44.32796" lon="6.23026">
        <ele>1451.5</ele>
        <time>2022-06-27T14:36:14.386Z</time>
      </trkpt>
      <trkpt lat="44.32821" lon="6.23019">
        <ele>1451.1</ele>
        <time>2022-06-27T14:36:18.000Z</time>
      </trkpt>
      <trkpt lat="44.32828" lon="6.23009">
        <ele>1451.1</ele>
        <time>2022-06-27T14:36:20.561Z</time>
      </trkpt>
      <trkpt lat="44.32845" lon="6.23005">
        <ele>1438.2</ele>
        <time>2022-06-27T14:36:24.000Z</time>
      </trkpt>
      <trkpt lat="44.32852" lon="6.23007">
        <ele>1429.4</ele>
        <time>2022-06-27T14:36:29.568Z</time>
      </trkpt>
      <trkpt lat="44.3286" lon="6.2301">
        <ele>1430.9</ele>
        <time>2022-06-27T14:36:32.562Z</time>
      </trkpt>
      <trkpt lat="44.32879" lon="6.23012">
        <ele>1423.7</ele>
        <time>2022-06-27T14:36:36.000Z</time>
      </trkpt>
      <trkpt lat="44.32895" lon="6.23013">
        <ele>1423.7</ele>
        <time>2022-06-27T14:36:38.570Z</time>
      </trkpt>
      <trkpt lat="44.32934" lon="6.23013">
        <ele>1412.3</ele>
        <time>2022-06-27T14:36:42.000Z</time>
      </trkpt>
      <trkpt lat="44.32958" lon="6.23009">
        <ele>1415.5</ele>
        <time>2022-06-27T14:36:45.000Z</time>
      </trkpt>
      <trkpt lat="44.32974" lon="6.23007">
        <ele>1415.2</ele>
        <time>2022-06-27T14:36:48.000Z</time>
      </trkpt>
      <trkpt lat="44.32984" lon="6.22998">
        <ele>1415.2</ele>
        <time>2022-06-27T14:36:50.557Z</time>
      </trkpt>
      <trkpt lat="44.33007" lon="6.22999">
        <ele>1406.5</ele>
        <time>2022-06-27T14:36:54.000Z</time>
      </trkpt>
      <trkpt lat="44.33015" lon="6.23004">
        <ele>1407.7</ele>
        <time>2022-06-27T14:36:59.261Z</time>
      </trkpt>
      <trkpt lat="44.33025" lon="6.23008">
        <ele>1404.5</ele>
        <time>2022-06-27T14:37:03.000Z</time>
      </trkpt>
      <trkpt lat="44.33032" lon="6.23012">
        <ele>1404.5</ele>
        <time>2022-06-27T14:37:05.282Z</time>
      </trkpt>
      <trkpt lat="44.33043" lon="6.23017">
        <ele>1410.7</ele>
        <time>2022-06-27T14:37:09.000Z</time>
      </trkpt>
      <trkpt lat="44.33051" lon="6.2302">
        <ele>1410.7</ele>
        <time>2022-06-27T14:37:11.446Z</time>
      </trkpt>
      <trkpt lat="44.33059" lon="6.23023">
        <ele>1405.7</ele>
        <time>2022-06-27T14:37:14.156Z</time>
      </trkpt>
      <trkpt lat="44.33074" lon="6.23026">
        <ele>1406.2</ele>
        <time>2022-06-27T14:37:17.597Z</time>
      </trkpt>
      <trkpt lat="44.3309" lon="6.23024">
        <ele>1401.4</ele>
        <time>2022-06-27T14:37:21.012Z</time>
      </trkpt>
      <trkpt lat="44.33103" lon="6.23023">
        <ele>1399.5</ele>
        <time>2022-06-27T14:37:24.497Z</time>
      </trkpt>
      <trkpt lat="44.33108" lon="6.23021">
        <ele>1390.9</ele>
        <time>2022-06-27T14:37:27.461Z</time>
      </trkpt>
      <trkpt lat="44.33112" lon="6.23018">
        <ele>1397</ele>
        <time>2022-06-27T14:37:30.677Z</time>
      </trkpt>
      <trkpt lat="44.33116" lon="6.23014">
        <ele>1396.8</ele>
        <time>2022-06-27T14:37:33.734Z</time>
      </trkpt>
      <trkpt lat="44.33121" lon="6.23014">
        <ele>1393.9</ele>
        <time>2022-06-27T14:37:36.638Z</time>
      </trkpt>
      <trkpt lat="44.33129" lon="6.23016">
        <ele>1388.1</ele>
        <time>2022-06-27T14:37:39.882Z</time>
      </trkpt>
      <trkpt lat="44.33134" lon="6.23016">
        <ele>1386.8</ele>
        <time>2022-06-27T14:37:42.698Z</time>
      </trkpt>
      <trkpt lat="44.3314" lon="6.2302">
        <ele>1381.9</ele>
        <time>2022-06-27T14:37:48.541Z</time>
      </trkpt>
      <trkpt lat="44.33146" lon="6.23023">
        <ele>1379.4</ele>
        <time>2022-06-27T14:37:51.345Z</time>
      </trkpt>
      <trkpt lat="44.33151" lon="6.23024">
        <ele>1376.9</ele>
        <time>2022-06-27T14:37:54.335Z</time>
      </trkpt>
      <trkpt lat="44.33161" lon="6.23028">
        <ele>1370.2</ele>
        <time>2022-06-27T14:38:00.070Z</time>
      </trkpt>
      <trkpt lat="44.33168" lon="6.23036">
        <ele>1370.2</ele>
        <time>2022-06-27T14:38:03.590Z</time>
      </trkpt>
      <trkpt lat="44.33173" lon="6.23042">
        <ele>1368.6</ele>
        <time>2022-06-27T14:38:06.758Z</time>
      </trkpt>
      <trkpt lat="44.33178" lon="6.23048">
        <ele>1363.4</ele>
        <time>2022-06-27T14:38:10.035Z</time>
      </trkpt>
      <trkpt lat="44.33183" lon="6.2305">
        <ele>1363</ele>
        <time>2022-06-27T14:38:13.239Z</time>
      </trkpt>
      <trkpt lat="44.33195" lon="6.2305">
        <ele>1353.5</ele>
        <time>2022-06-27T14:38:16.660Z</time>
      </trkpt>
      <trkpt lat="44.3321" lon="6.23049">
        <ele>1351</ele>
        <time>2022-06-27T14:38:20.460Z</time>
      </trkpt>
      <trkpt lat="44.33217" lon="6.23047">
        <ele>1349.9</ele>
        <time>2022-06-27T14:38:24.000Z</time>
      </trkpt>
      <trkpt lat="44.33225" lon="6.23044">
        <ele>1350.8</ele>
        <time>2022-06-27T14:38:30.000Z</time>
      </trkpt>
      <trkpt lat="44.33229" lon="6.2304">
        <ele>1351.2</ele>
        <time>2022-06-27T14:38:45.000Z</time>
      </trkpt>
      <trkpt lat="44.33233" lon="6.23037">
        <ele>1351.1</ele>
        <time>2022-06-27T14:39:24.000Z</time>
      </trkpt>
      <trkpt lat="44.33246" lon="6.23031">
        <ele>1346.5</ele>
        <time>2022-06-27T14:39:39.000Z</time>
      </trkpt>
      <trkpt lat="44.33256" lon="6.23032">
        <ele>1342.3</ele>
        <time>2022-06-27T14:39:42.000Z</time>
      </trkpt>
      <trkpt lat="44.33267" lon="6.23034">
        <ele>1338.8</ele>
        <time>2022-06-27T14:39:45.000Z</time>
      </trkpt>
      <trkpt lat="44.33272" lon="6.23033">
        <ele>1338.8</ele>
        <time>2022-06-27T14:39:47.496Z</time>
      </trkpt>
      <trkpt lat="44.33281" lon="6.23039">
        <ele>1337.6</ele>
        <time>2022-06-27T14:39:54.000Z</time>
      </trkpt>
      <trkpt lat="44.33288" lon="6.23041">
        <ele>1332.7</ele>
        <time>2022-06-27T14:39:56.219Z</time>
      </trkpt>
      <trkpt lat="44.33292" lon="6.23037">
        <ele>1331.3</ele>
        <time>2022-06-27T14:40:02.364Z</time>
      </trkpt>
      <trkpt lat="44.33298" lon="6.23039">
        <ele>1324.3</ele>
        <time>2022-06-27T14:40:05.378Z</time>
      </trkpt>
      <trkpt lat="44.33307" lon="6.23042">
        <ele>1326.8</ele>
        <time>2022-06-27T14:40:08.282Z</time>
      </trkpt>
      <trkpt lat="44.33318" lon="6.23045">
        <ele>1322</ele>
        <time>2022-06-27T14:40:12.000Z</time>
      </trkpt>
      <trkpt lat="44.33335" lon="6.23044">
        <ele>1320.3</ele>
        <time>2022-06-27T14:40:15.000Z</time>
      </trkpt>
      <trkpt lat="44.33356" lon="6.23038">
        <ele>1314.4</ele>
        <time>2022-06-27T14:40:18.000Z</time>
      </trkpt>
      <trkpt lat="44.33378" lon="6.2303">
        <ele>1314.4</ele>
        <time>2022-06-27T14:40:21.000Z</time>
      </trkpt>
      <trkpt lat="44.33392" lon="6.23027">
        <ele>1301.9</ele>
        <time>2022-06-27T14:40:24.000Z</time>
      </trkpt>
      <trkpt lat="44.33395" lon="6.23021">
        <ele>1301.9</ele>
        <time>2022-06-27T14:40:26.322Z</time>
      </trkpt>
      <trkpt lat="44.3341" lon="6.2302">
        <ele>1301.4</ele>
        <time>2022-06-27T14:40:29.145Z</time>
      </trkpt>
      <trkpt lat="44.33429" lon="6.23015">
        <ele>1298</ele>
        <time>2022-06-27T14:40:32.241Z</time>
      </trkpt>
      <trkpt lat="44.33462" lon="6.2299">
        <ele>1288.5</ele>
        <time>2022-06-27T14:40:36.000Z</time>
      </trkpt>
      <trkpt lat="44.33481" lon="6.22976">
        <ele>1299.7</ele>
        <time>2022-06-27T14:40:39.000Z</time>
      </trkpt>
      <trkpt lat="44.33485" lon="6.2298">
        <ele>1300.9</ele>
        <time>2022-06-27T14:40:42.000Z</time>
      </trkpt>
      <trkpt lat="44.33496" lon="6.2298">
        <ele>1300.9</ele>
        <time>2022-06-27T14:40:44.366Z</time>
      </trkpt>
      <trkpt lat="44.33507" lon="6.22974">
        <ele>1286.9</ele>
        <time>2022-06-27T14:40:48.000Z</time>
      </trkpt>
      <trkpt lat="44.33518" lon="6.22973">
        <ele>1300</ele>
        <time>2022-06-27T14:40:50.726Z</time>
      </trkpt>
      <trkpt lat="44.33528" lon="6.22973">
        <ele>1300</ele>
        <time>2022-06-27T14:40:53.556Z</time>
      </trkpt>
      <trkpt lat="44.33535" lon="6.22969">
        <ele>1298.8</ele>
        <time>2022-06-27T14:40:56.564Z</time>
      </trkpt>
      <trkpt lat="44.33541" lon="6.22966">
        <ele>1295.1</ele>
        <time>2022-06-27T14:40:59.823Z</time>
      </trkpt>
      <trkpt lat="44.33547" lon="6.22966">
        <ele>1290.7</ele>
        <time>2022-06-27T14:41:02.554Z</time>
      </trkpt>
      <trkpt lat="44.33555" lon="6.22969">
        <ele>1292.1</ele>
        <time>2022-06-27T14:41:05.613Z</time>
      </trkpt>
      <trkpt lat="44.33559" lon="6.22969">
        <ele>1284.5</ele>
        <time>2022-06-27T14:41:09.000Z</time>
      </trkpt>
      <trkpt lat="44.33567" lon="6.22965">
        <ele>1282.8</ele>
        <time>2022-06-27T14:41:11.566Z</time>
      </trkpt>
      <trkpt lat="44.33573" lon="6.22964">
        <ele>1284.6</ele>
        <time>2022-06-27T14:41:14.572Z</time>
      </trkpt>
      <trkpt lat="44.33578" lon="6.22964">
        <ele>1278.9</ele>
        <time>2022-06-27T14:41:18.000Z</time>
      </trkpt>
      <trkpt lat="44.33582" lon="6.22959">
        <ele>1278.9</ele>
        <time>2022-06-27T14:41:20.554Z</time>
      </trkpt>
      <trkpt lat="44.33587" lon="6.22951">
        <ele>1275.5</ele>
        <time>2022-06-27T14:41:26.147Z</time>
      </trkpt>
      <trkpt lat="44.33592" lon="6.22958">
        <ele>1273.1</ele>
        <time>2022-06-27T14:41:30.000Z</time>
      </trkpt>
      <trkpt lat="44.33596" lon="6.22953">
        <ele>1260.7</ele>
        <time>2022-06-27T14:41:39.222Z</time>
      </trkpt>
      <trkpt lat="44.336" lon="6.22946">
        <ele>1262.6</ele>
        <time>2022-06-27T14:41:42.040Z</time>
      </trkpt>
      <trkpt lat="44.33611" lon="6.22935">
        <ele>1258.7</ele>
        <time>2022-06-27T14:41:45.556Z</time>
      </trkpt>
      <trkpt lat="44.33616" lon="6.2293">
        <ele>1258.6</ele>
        <time>2022-06-27T14:41:48.560Z</time>
      </trkpt>
      <trkpt lat="44.3362" lon="6.22936">
        <ele>1248.7</ele>
        <time>2022-06-27T14:41:51.777Z</time>
      </trkpt>
      <trkpt lat="44.33624" lon="6.22949">
        <ele>1252.8</ele>
        <time>2022-06-27T14:41:54.623Z</time>
      </trkpt>
      <trkpt lat="44.33627" lon="6.22967">
        <ele>1250.9</ele>
        <time>2022-06-27T14:41:57.554Z</time>
      </trkpt>
      <trkpt lat="44.33629" lon="6.22977">
        <ele>1232.5</ele>
        <time>2022-06-27T14:42:00.503Z</time>
      </trkpt>
      <trkpt lat="44.33635" lon="6.22987">
        <ele>1242.2</ele>
        <time>2022-06-27T14:42:07.554Z</time>
      </trkpt>
      <trkpt lat="44.33637" lon="6.22995">
        <ele>1240.5</ele>
        <time>2022-06-27T14:42:10.785Z</time>
      </trkpt>
      <trkpt lat="44.33641" lon="6.22999">
        <ele>1238.9</ele>
        <time>2022-06-27T14:42:13.564Z</time>
      </trkpt>
      <trkpt lat="44.33646" lon="6.23009">
        <ele>1236.5</ele>
        <time>2022-06-27T14:42:19.898Z</time>
      </trkpt>
      <trkpt lat="44.33651" lon="6.23009">
        <ele>1229.1</ele>
        <time>2022-06-27T14:42:30.000Z</time>
      </trkpt>
      <trkpt lat="44.33655" lon="6.23013">
        <ele>1229.1</ele>
        <time>2022-06-27T14:42:32.555Z</time>
      </trkpt>
      <trkpt lat="44.33658" lon="6.23024">
        <ele>1227.9</ele>
        <time>2022-06-27T14:42:35.598Z</time>
      </trkpt>
      <trkpt lat="44.33664" lon="6.23025">
        <ele>1225.2</ele>
        <time>2022-06-27T14:42:41.561Z</time>
      </trkpt>
      <trkpt lat="44.33669" lon="6.23026">
        <ele>1220.7</ele>
        <time>2022-06-27T14:42:44.404Z</time>
      </trkpt>
      <trkpt lat="44.33672" lon="6.23032">
        <ele>1219.2</ele>
        <time>2022-06-27T14:42:50.402Z</time>
      </trkpt>
      <trkpt lat="44.33675" lon="6.2304">
        <ele>1214.3</ele>
        <time>2022-06-27T14:42:57.000Z</time>
      </trkpt>
      <trkpt lat="44.33678" lon="6.23048">
        <ele>1209.2</ele>
        <time>2022-06-27T14:43:03.000Z</time>
      </trkpt>
      <trkpt lat="44.33687" lon="6.2305">
        <ele>1205</ele>
        <time>2022-06-27T14:43:08.262Z</time>
      </trkpt>
      <trkpt lat="44.33693" lon="6.23052">
        <ele>1203.1</ele>
        <time>2022-06-27T14:43:12.000Z</time>
      </trkpt>
      <trkpt lat="44.33698" lon="6.23051">
        <ele>1204.6</ele>
        <time>2022-06-27T14:43:21.000Z</time>
      </trkpt>
      <trkpt lat="44.33707" lon="6.23056">
        <ele>1202.9</ele>
        <time>2022-06-27T14:43:24.220Z</time>
      </trkpt>
      <trkpt lat="44.33714" lon="6.23062">
        <ele>1196.2</ele>
        <time>2022-06-27T14:43:30.619Z</time>
      </trkpt>
      <trkpt lat="44.33718" lon="6.23065">
        <ele>1193.2</ele>
        <time>2022-06-27T14:43:33.826Z</time>
      </trkpt>
      <trkpt lat="44.33725" lon="6.23064">
        <ele>1191.4</ele>
        <time>2022-06-27T14:43:41.555Z</time>
      </trkpt>
      <trkpt lat="44.33732" lon="6.23071">
        <ele>1186.5</ele>
        <time>2022-06-27T14:43:47.320Z</time>
      </trkpt>
      <trkpt lat="44.33737" lon="6.23077">
        <ele>1181.1</ele>
        <time>2022-06-27T14:43:50.331Z</time>
      </trkpt>
      <trkpt lat="44.33747" lon="6.23084">
        <ele>1178.4</ele>
        <time>2022-06-27T14:43:53.426Z</time>
      </trkpt>
      <trkpt lat="44.33761" lon="6.23091">
        <ele>1174.1</ele>
        <time>2022-06-27T14:43:56.570Z</time>
      </trkpt>
      <trkpt lat="44.33769" lon="6.23096">
        <ele>1174.2</ele>
        <time>2022-06-27T14:43:59.571Z</time>
      </trkpt>
      <trkpt lat="44.33777" lon="6.23102">
        <ele>1162</ele>
        <time>2022-06-27T14:44:03.000Z</time>
      </trkpt>
      <trkpt lat="44.33789" lon="6.23109">
        <ele>1159.5</ele>
        <time>2022-06-27T14:44:05.591Z</time>
      </trkpt>
      <trkpt lat="44.33796" lon="6.23118">
        <ele>1161</ele>
        <time>2022-06-27T14:44:08.557Z</time>
      </trkpt>
      <trkpt lat="44.33809" lon="6.23128">
        <ele>1149.5</ele>
        <time>2022-06-27T14:44:12.000Z</time>
      </trkpt>
      <trkpt lat="44.33808" lon="6.23119">
        <ele>1148.2</ele>
        <time>2022-06-27T14:44:14.551Z</time>
      </trkpt>
      <trkpt lat="44.33843" lon="6.23138">
        <ele>1130.1</ele>
        <time>2022-06-27T14:44:18.000Z</time>
      </trkpt>
      <trkpt lat="44.33848" lon="6.23145">
        <ele>1141.5</ele>
        <time>2022-06-27T14:44:20.291Z</time>
      </trkpt>
      <trkpt lat="44.3386" lon="6.23146">
        <ele>1141.7</ele>
        <time>2022-06-27T14:44:23.553Z</time>
      </trkpt>
      <trkpt lat="44.33884" lon="6.23145">
        <ele>1117.6</ele>
        <time>2022-06-27T14:44:27.000Z</time>
      </trkpt>
      <trkpt lat="44.33906" lon="6.23143">
        <ele>1140.4</ele>
        <time>2022-06-27T14:44:33.560Z</time>
      </trkpt>
      <trkpt lat="44.3392" lon="6.23141">
        <ele>1114.6</ele>
        <time>2022-06-27T14:44:36.810Z</time>
      </trkpt>
      <trkpt lat="44.33936" lon="6.23134">
        <ele>1139.5</ele>
        <time>2022-06-27T14:44:40.562Z</time>
      </trkpt>
      <trkpt lat="44.33947" lon="6.23124">
        <ele>1137.3</ele>
        <time>2022-06-27T14:44:43.569Z</time>
      </trkpt>
      <trkpt lat="44.33956" lon="6.23106">
        <ele>1131.4</ele>
        <time>2022-06-27T14:44:47.242Z</time>
      </trkpt>
      <trkpt lat="44.33958" lon="6.23097">
        <ele>1124.9</ele>
        <time>2022-06-27T14:45:06.000Z</time>
      </trkpt>
      <trkpt lat="44.33953" lon="6.23094">
        <ele>1126.5</ele>
        <time>2022-06-27T14:45:12.000Z</time>
      </trkpt>
      <trkpt lat="44.33953" lon="6.23104">
        <ele>1126.9</ele>
        <time>2022-06-27T14:45:17.565Z</time>
      </trkpt>
      <trkpt lat="44.33953" lon="6.23114">
        <ele>1126.2</ele>
        <time>2022-06-27T14:45:20.797Z</time>
      </trkpt>
      <trkpt lat="44.3395" lon="6.23126">
        <ele>1127</ele>
        <time>2022-06-27T14:45:23.564Z</time>
      </trkpt>
      <trkpt lat="44.33946" lon="6.23143">
        <ele>1126.6</ele>
        <time>2022-06-27T14:45:26.567Z</time>
      </trkpt>
      <trkpt lat="44.33945" lon="6.23162">
        <ele>1125.3</ele>
        <time>2022-06-27T14:45:30.000Z</time>
      </trkpt>
      <trkpt lat="44.33946" lon="6.23175">
        <ele>1125.8</ele>
        <time>2022-06-27T14:45:32.560Z</time>
      </trkpt>
      <trkpt lat="44.33951" lon="6.23191">
        <ele>1127.6</ele>
        <time>2022-06-27T14:45:35.554Z</time>
      </trkpt>
      <trkpt lat="44.33957" lon="6.23202">
        <ele>1128.3</ele>
        <time>2022-06-27T14:45:39.000Z</time>
      </trkpt>
      <trkpt lat="44.33965" lon="6.23214">
        <ele>1128.5</ele>
        <time>2022-06-27T14:45:41.556Z</time>
      </trkpt>
      <trkpt lat="44.3397" lon="6.23225">
        <ele>1125.4</ele>
        <time>2022-06-27T14:45:44.551Z</time>
      </trkpt>
      <trkpt lat="44.33975" lon="6.23236">
        <ele>1127.5</ele>
        <time>2022-06-27T14:45:48.000Z</time>
      </trkpt>
      <trkpt lat="44.33983" lon="6.23248">
        <ele>1128.2</ele>
        <time>2022-06-27T14:45:50.560Z</time>
      </trkpt>
      <trkpt lat="44.33989" lon="6.23256">
        <ele>1129.5</ele>
        <time>2022-06-27T14:45:53.556Z</time>
      </trkpt>
      <trkpt lat="44.33994" lon="6.23268">
        <ele>1127.5</ele>
        <time>2022-06-27T14:45:56.496Z</time>
      </trkpt>
      <trkpt lat="44.34001" lon="6.23281">
        <ele>1130</ele>
        <time>2022-06-27T14:45:59.557Z</time>
      </trkpt>
      <trkpt lat="44.34009" lon="6.23293">
        <ele>1129.2</ele>
        <time>2022-06-27T14:46:02.605Z</time>
      </trkpt>
      <trkpt lat="44.34013" lon="6.23306">
        <ele>1130.7</ele>
        <time>2022-06-27T14:46:05.973Z</time>
      </trkpt>
      <trkpt lat="44.3402" lon="6.23321">
        <ele>1132.7</ele>
        <time>2022-06-27T14:46:09.568Z</time>
      </trkpt>
      <trkpt lat="44.34025" lon="6.23334">
        <ele>1106.5</ele>
        <time>2022-06-27T14:46:12.775Z</time>
      </trkpt>
      <trkpt lat="44.34027" lon="6.23348">
        <ele>1133.5</ele>
        <time>2022-06-27T14:46:15.791Z</time>
      </trkpt>
      <trkpt lat="44.34029" lon="6.23361">
        <ele>1132.3</ele>
        <time>2022-06-27T14:46:18.565Z</time>
      </trkpt>
      <trkpt lat="44.34032" lon="6.23375">
        <ele>1113.2</ele>
        <time>2022-06-27T14:46:21.438Z</time>
      </trkpt>
      <trkpt lat="44.34037" lon="6.23392">
        <ele>1130.8</ele>
        <time>2022-06-27T14:46:24.820Z</time>
      </trkpt>
      <trkpt lat="44.34041" lon="6.23405">
        <ele>1132.2</ele>
        <time>2022-06-27T14:46:27.568Z</time>
      </trkpt>
      <trkpt lat="44.34042" lon="6.2342">
        <ele>1114</ele>
        <time>2022-06-27T14:46:30.595Z</time>
      </trkpt>
      <trkpt lat="44.34044" lon="6.23435">
        <ele>1127.5</ele>
        <time>2022-06-27T14:46:33.519Z</time>
      </trkpt>
      <trkpt lat="44.34046" lon="6.23452">
        <ele>1133.8</ele>
        <time>2022-06-27T14:46:36.575Z</time>
      </trkpt>
      <trkpt lat="44.34046" lon="6.23468">
        <ele>1118.2</ele>
        <time>2022-06-27T14:46:39.578Z</time>
      </trkpt>
      <trkpt lat="44.34044" lon="6.23481">
        <ele>1134.9</ele>
        <time>2022-06-27T14:46:42.763Z</time>
      </trkpt>
      <trkpt lat="44.34044" lon="6.23494">
        <ele>1133.3</ele>
        <time>2022-06-27T14:46:45.607Z</time>
      </trkpt>
      <trkpt lat="44.34044" lon="6.2351">
        <ele>1117.5</ele>
        <time>2022-06-27T14:46:48.875Z</time>
      </trkpt>
      <trkpt lat="44.34047" lon="6.23532">
        <ele>1136.7</ele>
        <time>2022-06-27T14:46:52.571Z</time>
      </trkpt>
      <trkpt lat="44.3405" lon="6.23551">
        <ele>1134</ele>
        <time>2022-06-27T14:46:55.555Z</time>
      </trkpt>
      <trkpt lat="44.34053" lon="6.23568">
        <ele>1110.6</ele>
        <time>2022-06-27T14:46:58.672Z</time>
      </trkpt>
      <trkpt lat="44.34054" lon="6.23583">
        <ele>1131.5</ele>
        <time>2022-06-27T14:47:01.571Z</time>
      </trkpt>
      <trkpt lat="44.34055" lon="6.236">
        <ele>1133.4</ele>
        <time>2022-06-27T14:47:04.554Z</time>
      </trkpt>
      <trkpt lat="44.3406" lon="6.23616">
        <ele>1134.3</ele>
        <time>2022-06-27T14:47:07.919Z</time>
      </trkpt>
      <trkpt lat="44.34066" lon="6.23636">
        <ele>1137.7</ele>
        <time>2022-06-27T14:47:11.571Z</time>
      </trkpt>
      <trkpt lat="44.34072" lon="6.2365">
        <ele>1138.6</ele>
        <time>2022-06-27T14:47:14.564Z</time>
      </trkpt>
      <trkpt lat="44.34078" lon="6.2366">
        <ele>1137.9</ele>
        <time>2022-06-27T14:47:18.000Z</time>
      </trkpt>
      <trkpt lat="44.34085" lon="6.23674">
        <ele>1138</ele>
        <time>2022-06-27T14:47:20.566Z</time>
      </trkpt>
      <trkpt lat="44.34091" lon="6.23688">
        <ele>1139.4</ele>
        <time>2022-06-27T14:47:23.559Z</time>
      </trkpt>
      <trkpt lat="44.34101" lon="6.23699">
        <ele>1108</ele>
        <time>2022-06-27T14:47:26.573Z</time>
      </trkpt>
      <trkpt lat="44.34109" lon="6.23715">
        <ele>1136.7</ele>
        <time>2022-06-27T14:47:29.898Z</time>
      </trkpt>
      <trkpt lat="44.34118" lon="6.2373">
        <ele>1136.5</ele>
        <time>2022-06-27T14:47:33.561Z</time>
      </trkpt>
      <trkpt lat="44.34127" lon="6.23745">
        <ele>1108.1</ele>
        <time>2022-06-27T14:47:36.695Z</time>
      </trkpt>
      <trkpt lat="44.34137" lon="6.23757">
        <ele>1140</ele>
        <time>2022-06-27T14:47:39.437Z</time>
      </trkpt>
      <trkpt lat="44.34147" lon="6.23769">
        <ele>1140.5</ele>
        <time>2022-06-27T14:47:42.588Z</time>
      </trkpt>
      <trkpt lat="44.34156" lon="6.23777">
        <ele>1110</ele>
        <time>2022-06-27T14:47:45.715Z</time>
      </trkpt>
      <trkpt lat="44.34165" lon="6.23788">
        <ele>1142.7</ele>
        <time>2022-06-27T14:47:48.519Z</time>
      </trkpt>
      <trkpt lat="44.34173" lon="6.238">
        <ele>1140.5</ele>
        <time>2022-06-27T14:47:51.571Z</time>
      </trkpt>
      <trkpt lat="44.34198" lon="6.23823">
        <ele>1112.6</ele>
        <time>2022-06-27T14:47:57.000Z</time>
      </trkpt>
      <trkpt lat="44.34207" lon="6.23841">
        <ele>1144.7</ele>
        <time>2022-06-27T14:48:02.560Z</time>
      </trkpt>
      <trkpt lat="44.34214" lon="6.2386">
        <ele>1141.9</ele>
        <time>2022-06-27T14:48:05.558Z</time>
      </trkpt>
      <trkpt lat="44.34224" lon="6.23883">
        <ele>1144.8</ele>
        <time>2022-06-27T14:48:09.000Z</time>
      </trkpt>
      <trkpt lat="44.34232" lon="6.23899">
        <ele>1144.4</ele>
        <time>2022-06-27T14:48:12.000Z</time>
      </trkpt>
      <trkpt lat="44.34236" lon="6.2391">
        <ele>1144.4</ele>
        <time>2022-06-27T14:48:14.557Z</time>
      </trkpt>
      <trkpt lat="44.34243" lon="6.23911">
        <ele>1104.2</ele>
        <time>2022-06-27T14:48:17.561Z</time>
      </trkpt>
      <trkpt lat="44.34252" lon="6.23923">
        <ele>1141.8</ele>
        <time>2022-06-27T14:48:20.487Z</time>
      </trkpt>
      <trkpt lat="44.34259" lon="6.23938">
        <ele>1142</ele>
        <time>2022-06-27T14:48:23.563Z</time>
      </trkpt>
      <trkpt lat="44.34266" lon="6.23954">
        <ele>1144.5</ele>
        <time>2022-06-27T14:48:26.572Z</time>
      </trkpt>
      <trkpt lat="44.34271" lon="6.23968">
        <ele>1138.9</ele>
        <time>2022-06-27T14:48:29.311Z</time>
      </trkpt>
      <trkpt lat="44.34276" lon="6.23987">
        <ele>1143.1</ele>
        <time>2022-06-27T14:48:32.386Z</time>
      </trkpt>
      <trkpt lat="44.34283" lon="6.24005">
        <ele>1144</ele>
        <time>2022-06-27T14:48:35.525Z</time>
      </trkpt>
      <trkpt lat="44.34294" lon="6.24018">
        <ele>1147.5</ele>
        <time>2022-06-27T14:48:39.000Z</time>
      </trkpt>
      <trkpt lat="44.34305" lon="6.24034">
        <ele>1144.8</ele>
        <time>2022-06-27T14:48:42.000Z</time>
      </trkpt>
      <trkpt lat="44.34317" lon="6.24046">
        <ele>1114.4</ele>
        <time>2022-06-27T14:48:45.000Z</time>
      </trkpt>
      <trkpt lat="44.34317" lon="6.2406">
        <ele>1149.1</ele>
        <time>2022-06-27T14:48:48.000Z</time>
      </trkpt>
      <trkpt lat="44.34327" lon="6.24071">
        <ele>1149.1</ele>
        <time>2022-06-27T14:48:50.566Z</time>
      </trkpt>
      <trkpt lat="44.34336" lon="6.24083">
        <ele>1144.8</ele>
        <time>2022-06-27T14:48:53.563Z</time>
      </trkpt>
      <trkpt lat="44.34347" lon="6.24089">
        <ele>1143.9</ele>
        <time>2022-06-27T14:48:57.000Z</time>
      </trkpt>
      <trkpt lat="44.34358" lon="6.24094">
        <ele>1146.8</ele>
        <time>2022-06-27T14:48:59.562Z</time>
      </trkpt>
      <trkpt lat="44.34368" lon="6.24096">
        <ele>1146.9</ele>
        <time>2022-06-27T14:49:02.558Z</time>
      </trkpt>
      <trkpt lat="44.34382" lon="6.24101">
        <ele>1147.6</ele>
        <time>2022-06-27T14:49:05.645Z</time>
      </trkpt>
      <trkpt lat="44.34392" lon="6.24108">
        <ele>1147.8</ele>
        <time>2022-06-27T14:49:08.571Z</time>
      </trkpt>
      <trkpt lat="44.34406" lon="6.24119">
        <ele>1127.5</ele>
        <time>2022-06-27T14:49:12.107Z</time>
      </trkpt>
      <trkpt lat="44.34415" lon="6.24129">
        <ele>1150.7</ele>
        <time>2022-06-27T14:49:14.890Z</time>
      </trkpt>
      <trkpt lat="44.34424" lon="6.24144">
        <ele>1148.5</ele>
        <time>2022-06-27T14:49:18.596Z</time>
      </trkpt>
      <trkpt lat="44.34435" lon="6.24155">
        <ele>1131.8</ele>
        <time>2022-06-27T14:49:21.623Z</time>
      </trkpt>
      <trkpt lat="44.34443" lon="6.24166">
        <ele>1146.7</ele>
        <time>2022-06-27T14:49:24.547Z</time>
      </trkpt>
      <trkpt lat="44.34465" lon="6.24185">
        <ele>1133</ele>
        <time>2022-06-27T14:49:30.000Z</time>
      </trkpt>
      <trkpt lat="44.34469" lon="6.24193">
        <ele>1148.2</ele>
        <time>2022-06-27T14:49:32.299Z</time>
      </trkpt>
      <trkpt lat="44.34478" lon="6.242">
        <ele>1151.1</ele>
        <time>2022-06-27T14:49:35.550Z</time>
      </trkpt>
      <trkpt lat="44.34484" lon="6.24208">
        <ele>1151.1</ele>
        <time>2022-06-27T14:49:38.562Z</time>
      </trkpt>
      <trkpt lat="44.34487" lon="6.24216">
        <ele>1151.1</ele>
        <time>2022-06-27T14:49:41.479Z</time>
      </trkpt>
      <trkpt lat="44.34491" lon="6.24227">
        <ele>1152.1</ele>
        <time>2022-06-27T14:49:44.633Z</time>
      </trkpt>
      <trkpt lat="44.34496" lon="6.24239">
        <ele>1156.8</ele>
        <time>2022-06-27T14:49:47.564Z</time>
      </trkpt>
      <trkpt lat="44.34498" lon="6.24248">
        <ele>1152.7</ele>
        <time>2022-06-27T14:49:51.000Z</time>
      </trkpt>
      <trkpt lat="44.34499" lon="6.24259">
        <ele>1152.7</ele>
        <time>2022-06-27T14:49:53.593Z</time>
      </trkpt>
      <trkpt lat="44.34498" lon="6.24268">
        <ele>1150.1</ele>
        <time>2022-06-27T14:49:56.592Z</time>
      </trkpt>
      <trkpt lat="44.34497" lon="6.24279">
        <ele>1153</ele>
        <time>2022-06-27T14:50:00.046Z</time>
      </trkpt>
      <trkpt lat="44.34496" lon="6.24291">
        <ele>1155.8</ele>
        <time>2022-06-27T14:50:03.559Z</time>
      </trkpt>
      <trkpt lat="44.34495" lon="6.24301">
        <ele>1142.9</ele>
        <time>2022-06-27T14:50:06.397Z</time>
      </trkpt>
      <trkpt lat="44.34496" lon="6.24312">
        <ele>1156.8</ele>
        <time>2022-06-27T14:50:09.132Z</time>
      </trkpt>
      <trkpt lat="44.34495" lon="6.24326">
        <ele>1159.3</ele>
        <time>2022-06-27T14:50:12.556Z</time>
      </trkpt>
      <trkpt lat="44.34494" lon="6.24338">
        <ele>1150.9</ele>
        <time>2022-06-27T14:50:15.275Z</time>
      </trkpt>
      <trkpt lat="44.34493" lon="6.24347">
        <ele>1157.6</ele>
        <time>2022-06-27T14:50:17.976Z</time>
      </trkpt>
      <trkpt lat="44.34491" lon="6.24359">
        <ele>1159</ele>
        <time>2022-06-27T14:50:21.568Z</time>
      </trkpt>
      <trkpt lat="44.34492" lon="6.24368">
        <ele>1148.6</ele>
        <time>2022-06-27T14:50:24.277Z</time>
      </trkpt>
      <trkpt lat="44.34495" lon="6.24378">
        <ele>1160.8</ele>
        <time>2022-06-27T14:50:27.111Z</time>
      </trkpt>
      <trkpt lat="44.34497" lon="6.24392">
        <ele>1162.5</ele>
        <time>2022-06-27T14:50:30.561Z</time>
      </trkpt>
      <trkpt lat="44.345" lon="6.24403">
        <ele>1152.2</ele>
        <time>2022-06-27T14:50:33.743Z</time>
      </trkpt>
      <trkpt lat="44.34497" lon="6.24415">
        <ele>1164.3</ele>
        <time>2022-06-27T14:50:37.570Z</time>
      </trkpt>
      <trkpt lat="44.34491" lon="6.24426">
        <ele>1165.1</ele>
        <time>2022-06-27T14:50:40.565Z</time>
      </trkpt>
      <trkpt lat="44.34486" lon="6.24438">
        <ele>1154.5</ele>
        <time>2022-06-27T14:50:43.652Z</time>
      </trkpt>
      <trkpt lat="44.34487" lon="6.24448">
        <ele>1166.9</ele>
        <time>2022-06-27T14:50:46.608Z</time>
      </trkpt>
      <trkpt lat="44.34491" lon="6.24459">
        <ele>1170.4</ele>
        <time>2022-06-27T14:50:49.565Z</time>
      </trkpt>
      <trkpt lat="44.34499" lon="6.24469">
        <ele>1168.9</ele>
        <time>2022-06-27T14:50:52.828Z</time>
      </trkpt>
      <trkpt lat="44.34509" lon="6.24473">
        <ele>1170.4</ele>
        <time>2022-06-27T14:50:55.556Z</time>
      </trkpt>
      <trkpt lat="44.34519" lon="6.24475">
        <ele>1169.8</ele>
        <time>2022-06-27T14:50:58.564Z</time>
      </trkpt>
      <trkpt lat="44.34527" lon="6.24477">
        <ele>1151.7</ele>
        <time>2022-06-27T14:51:01.538Z</time>
      </trkpt>
      <trkpt lat="44.34535" lon="6.24477">
        <ele>1175.9</ele>
        <time>2022-06-27T14:51:04.566Z</time>
      </trkpt>
      <trkpt lat="44.34541" lon="6.2448">
        <ele>1175.2</ele>
        <time>2022-06-27T14:51:07.559Z</time>
      </trkpt>
      <trkpt lat="44.34548" lon="6.24482">
        <ele>1154.7</ele>
        <time>2022-06-27T14:51:10.315Z</time>
      </trkpt>
      <trkpt lat="44.34557" lon="6.24485">
        <ele>1175.5</ele>
        <time>2022-06-27T14:51:13.562Z</time>
      </trkpt>
      <trkpt lat="44.34564" lon="6.24492">
        <ele>1175.6</ele>
        <time>2022-06-27T14:51:16.571Z</time>
      </trkpt>
      <trkpt lat="44.34566" lon="6.24504">
        <ele>1178.1</ele>
        <time>2022-06-27T14:51:20.075Z</time>
      </trkpt>
      <trkpt lat="44.34558" lon="6.24514">
        <ele>1178.7</ele>
        <time>2022-06-27T14:51:23.567Z</time>
      </trkpt>
      <trkpt lat="44.34555" lon="6.24521">
        <ele>1179.4</ele>
        <time>2022-06-27T14:51:26.572Z</time>
      </trkpt>
      <trkpt lat="44.34554" lon="6.24529">
        <ele>1181.7</ele>
        <time>2022-06-27T14:51:29.461Z</time>
      </trkpt>
      <trkpt lat="44.34558" lon="6.24538">
        <ele>1183.5</ele>
        <time>2022-06-27T14:51:32.573Z</time>
      </trkpt>
      <trkpt lat="44.34565" lon="6.24545">
        <ele>1183.9</ele>
        <time>2022-06-27T14:51:35.562Z</time>
      </trkpt>
      <trkpt lat="44.34575" lon="6.24555">
        <ele>1188.5</ele>
        <time>2022-06-27T14:51:39.001Z</time>
      </trkpt>
      <trkpt lat="44.34586" lon="6.24562">
        <ele>1186.2</ele>
        <time>2022-06-27T14:51:42.550Z</time>
      </trkpt>
      <trkpt lat="44.34595" lon="6.24566">
        <ele>1168.4</ele>
        <time>2022-06-27T14:51:45.250Z</time>
      </trkpt>
      <trkpt lat="44.34604" lon="6.24573">
        <ele>1186.8</ele>
        <time>2022-06-27T14:51:48.211Z</time>
      </trkpt>
      <trkpt lat="44.34616" lon="6.24577">
        <ele>1187.1</ele>
        <time>2022-06-27T14:51:51.559Z</time>
      </trkpt>
      <trkpt lat="44.34626" lon="6.24581">
        <ele>1174.7</ele>
        <time>2022-06-27T14:51:54.927Z</time>
      </trkpt>
      <trkpt lat="44.34636" lon="6.24588">
        <ele>1192.7</ele>
        <time>2022-06-27T14:51:58.559Z</time>
      </trkpt>
      <trkpt lat="44.34647" lon="6.24592">
        <ele>1192.7</ele>
        <time>2022-06-27T14:52:01.562Z</time>
      </trkpt>
      <trkpt lat="44.34656" lon="6.24599">
        <ele>1172.4</ele>
        <time>2022-06-27T14:52:04.595Z</time>
      </trkpt>
      <trkpt lat="44.34665" lon="6.24603">
        <ele>1195.2</ele>
        <time>2022-06-27T14:52:07.418Z</time>
      </trkpt>
      <trkpt lat="44.34674" lon="6.24605">
        <ele>1193.9</ele>
        <time>2022-06-27T14:52:10.606Z</time>
      </trkpt>
      <trkpt lat="44.34683" lon="6.24606">
        <ele>1178.9</ele>
        <time>2022-06-27T14:52:13.570Z</time>
      </trkpt>
      <trkpt lat="44.34694" lon="6.24606">
        <ele>1179.1</ele>
        <time>2022-06-27T14:52:16.290Z</time>
      </trkpt>
      <trkpt lat="44.34709" lon="6.2461">
        <ele>1196.3</ele>
        <time>2022-06-27T14:52:19.554Z</time>
      </trkpt>
      <trkpt lat="44.34721" lon="6.24618">
        <ele>1197.3</ele>
        <time>2022-06-27T14:52:22.558Z</time>
      </trkpt>
      <trkpt lat="44.34728" lon="6.24631">
        <ele>1180.3</ele>
        <time>2022-06-27T14:52:25.357Z</time>
      </trkpt>
      <trkpt lat="44.34723" lon="6.2465">
        <ele>1201.3</ele>
        <time>2022-06-27T14:52:28.552Z</time>
      </trkpt>
      <trkpt lat="44.34729" lon="6.24664">
        <ele>1201.9</ele>
        <time>2022-06-27T14:52:31.562Z</time>
      </trkpt>
      <trkpt lat="44.34743" lon="6.24667">
        <ele>1185.6</ele>
        <time>2022-06-27T14:52:34.298Z</time>
      </trkpt>
      <trkpt lat="44.34761" lon="6.24687">
        <ele>1201.3</ele>
        <time>2022-06-27T14:52:39.000Z</time>
      </trkpt>
      <trkpt lat="44.34777" lon="6.24701">
        <ele>1186.3</ele>
        <time>2022-06-27T14:52:44.567Z</time>
      </trkpt>
      <trkpt lat="44.3479" lon="6.24716">
        <ele>1204.8</ele>
        <time>2022-06-27T14:52:47.397Z</time>
      </trkpt>
      <trkpt lat="44.34806" lon="6.24725">
        <ele>1205.6</ele>
        <time>2022-06-27T14:52:51.000Z</time>
      </trkpt>
      <trkpt lat="44.34813" lon="6.24733">
        <ele>1205.6</ele>
        <time>2022-06-27T14:52:53.556Z</time>
      </trkpt>
      <trkpt lat="44.34824" lon="6.2475">
        <ele>1191.8</ele>
        <time>2022-06-27T14:52:57.000Z</time>
      </trkpt>
      <trkpt lat="44.34842" lon="6.24762">
        <ele>1211.6</ele>
        <time>2022-06-27T14:53:02.564Z</time>
      </trkpt>
      <trkpt lat="44.34854" lon="6.24775">
        <ele>1209</ele>
        <time>2022-06-27T14:53:05.564Z</time>
      </trkpt>
      <trkpt lat="44.34865" lon="6.24784">
        <ele>1213</ele>
        <time>2022-06-27T14:53:08.463Z</time>
      </trkpt>
      <trkpt lat="44.34876" lon="6.2479">
        <ele>1213.2</ele>
        <time>2022-06-27T14:53:11.555Z</time>
      </trkpt>
      <trkpt lat="44.34888" lon="6.24794">
        <ele>1213.4</ele>
        <time>2022-06-27T14:53:14.558Z</time>
      </trkpt>
      <trkpt lat="44.34894" lon="6.24813">
        <ele>1215.7</ele>
        <time>2022-06-27T14:53:18.000Z</time>
      </trkpt>
      <trkpt lat="44.34899" lon="6.24819">
        <ele>1215.7</ele>
        <time>2022-06-27T14:53:20.599Z</time>
      </trkpt>
      <trkpt lat="44.34909" lon="6.24831">
        <ele>1216.1</ele>
        <time>2022-06-27T14:53:23.606Z</time>
      </trkpt>
      <trkpt lat="44.34921" lon="6.24845">
        <ele>1217.9</ele>
        <time>2022-06-27T14:53:27.000Z</time>
      </trkpt>
      <trkpt lat="44.34932" lon="6.24858">
        <ele>1218.6</ele>
        <time>2022-06-27T14:53:30.000Z</time>
      </trkpt>
      <trkpt lat="44.34936" lon="6.24866">
        <ele>1218.6</ele>
        <time>2022-06-27T14:53:32.556Z</time>
      </trkpt>
      <trkpt lat="44.34944" lon="6.2488">
        <ele>1206.4</ele>
        <time>2022-06-27T14:53:35.576Z</time>
      </trkpt>
      <trkpt lat="44.34948" lon="6.24892">
        <ele>1222.1</ele>
        <time>2022-06-27T14:53:39.000Z</time>
      </trkpt>
      <trkpt lat="44.34951" lon="6.24904">
        <ele>1222.7</ele>
        <time>2022-06-27T14:53:41.556Z</time>
      </trkpt>
      <trkpt lat="44.3496" lon="6.2491">
        <ele>1222.1</ele>
        <time>2022-06-27T14:53:44.551Z</time>
      </trkpt>
      <trkpt lat="44.34968" lon="6.24917">
        <ele>1226.5</ele>
        <time>2022-06-27T14:53:48.000Z</time>
      </trkpt>
      <trkpt lat="44.34979" lon="6.24923">
        <ele>1226.5</ele>
        <time>2022-06-27T14:53:50.567Z</time>
      </trkpt>
      <trkpt lat="44.34989" lon="6.2493">
        <ele>1226.8</ele>
        <time>2022-06-27T14:53:53.557Z</time>
      </trkpt>
      <trkpt lat="44.34996" lon="6.2494">
        <ele>1227.3</ele>
        <time>2022-06-27T14:53:57.000Z</time>
      </trkpt>
      <trkpt lat="44.35003" lon="6.24951">
        <ele>1229</ele>
        <time>2022-06-27T14:53:59.572Z</time>
      </trkpt>
      <trkpt lat="44.35007" lon="6.24961">
        <ele>1225.6</ele>
        <time>2022-06-27T14:54:02.564Z</time>
      </trkpt>
      <trkpt lat="44.35014" lon="6.2497">
        <ele>1230.6</ele>
        <time>2022-06-27T14:54:06.000Z</time>
      </trkpt>
      <trkpt lat="44.35023" lon="6.2498">
        <ele>1230.5</ele>
        <time>2022-06-27T14:54:08.563Z</time>
      </trkpt>
      <trkpt lat="44.35033" lon="6.24987">
        <ele>1231.2</ele>
        <time>2022-06-27T14:54:11.562Z</time>
      </trkpt>
      <trkpt lat="44.35041" lon="6.24995">
        <ele>1229.2</ele>
        <time>2022-06-27T14:54:15.000Z</time>
      </trkpt>
      <trkpt lat="44.35052" lon="6.25003">
        <ele>1233.6</ele>
        <time>2022-06-27T14:54:17.560Z</time>
      </trkpt>
      <trkpt lat="44.35062" lon="6.25008">
        <ele>1233.9</ele>
        <time>2022-06-27T14:54:20.600Z</time>
      </trkpt>
      <trkpt lat="44.35069" lon="6.25013">
        <ele>1235.1</ele>
        <time>2022-06-27T14:54:23.319Z</time>
      </trkpt>
      <trkpt lat="44.35079" lon="6.25017">
        <ele>1234.9</ele>
        <time>2022-06-27T14:54:26.552Z</time>
      </trkpt>
      <trkpt lat="44.35088" lon="6.25022">
        <ele>1234</ele>
        <time>2022-06-27T14:54:29.556Z</time>
      </trkpt>
      <trkpt lat="44.35098" lon="6.25023">
        <ele>1236.6</ele>
        <time>2022-06-27T14:54:33.000Z</time>
      </trkpt>
      <trkpt lat="44.35108" lon="6.25026">
        <ele>1236.9</ele>
        <time>2022-06-27T14:54:35.563Z</time>
      </trkpt>
      <trkpt lat="44.35117" lon="6.25033">
        <ele>1235.7</ele>
        <time>2022-06-27T14:54:38.567Z</time>
      </trkpt>
      <trkpt lat="44.35125" lon="6.2504">
        <ele>1237.1</ele>
        <time>2022-06-27T14:54:42.000Z</time>
      </trkpt>
      <trkpt lat="44.35135" lon="6.25045">
        <ele>1236.5</ele>
        <time>2022-06-27T14:54:44.570Z</time>
      </trkpt>
      <trkpt lat="44.35146" lon="6.25044">
        <ele>1233.9</ele>
        <time>2022-06-27T14:54:47.545Z</time>
      </trkpt>
      <trkpt lat="44.35157" lon="6.25042">
        <ele>1223.9</ele>
        <time>2022-06-27T14:54:50.546Z</time>
      </trkpt>
      <trkpt lat="44.35166" lon="6.25035">
        <ele>1241.6</ele>
        <time>2022-06-27T14:54:53.400Z</time>
      </trkpt>
      <trkpt lat="44.35178" lon="6.25024">
        <ele>1238.1</ele>
        <time>2022-06-27T14:54:56.562Z</time>
      </trkpt>
      <trkpt lat="44.35187" lon="6.25018">
        <ele>1238.6</ele>
        <time>2022-06-27T14:54:59.565Z</time>
      </trkpt>
      <trkpt lat="44.35195" lon="6.25016">
        <ele>1242.7</ele>
        <time>2022-06-27T14:55:02.463Z</time>
      </trkpt>
      <trkpt lat="44.35206" lon="6.25009">
        <ele>1238.8</ele>
        <time>2022-06-27T14:55:05.604Z</time>
      </trkpt>
      <trkpt lat="44.35216" lon="6.25006">
        <ele>1242.3</ele>
        <time>2022-06-27T14:55:08.569Z</time>
      </trkpt>
      <trkpt lat="44.35227" lon="6.25003">
        <ele>1243.1</ele>
        <time>2022-06-27T14:55:11.445Z</time>
      </trkpt>
      <trkpt lat="44.35234" lon="6.25006">
        <ele>1238.9</ele>
        <time>2022-06-27T14:55:14.569Z</time>
      </trkpt>
      <trkpt lat="44.35224" lon="6.2501">
        <ele>1239.8</ele>
        <time>2022-06-27T14:55:17.560Z</time>
      </trkpt>
      <trkpt lat="44.35214" lon="6.2501">
        <ele>1245.1</ele>
        <time>2022-06-27T14:55:20.383Z</time>
      </trkpt>
      <trkpt lat="44.35207" lon="6.25014">
        <ele>1243.2</ele>
        <time>2022-06-27T14:55:23.560Z</time>
      </trkpt>
      <trkpt lat="44.35207" lon="6.25033">
        <ele>1242</ele>
        <time>2022-06-27T14:55:26.556Z</time>
      </trkpt>
      <trkpt lat="44.35211" lon="6.25054">
        <ele>1241.4</ele>
        <time>2022-06-27T14:55:29.905Z</time>
      </trkpt>
      <trkpt lat="44.35216" lon="6.25067">
        <ele>1241.9</ele>
        <time>2022-06-27T14:55:32.607Z</time>
      </trkpt>
      <trkpt lat="44.35221" lon="6.25084">
        <ele>1242.8</ele>
        <time>2022-06-27T14:55:35.575Z</time>
      </trkpt>
      <trkpt lat="44.35226" lon="6.25098">
        <ele>1247.1</ele>
        <time>2022-06-27T14:55:38.299Z</time>
      </trkpt>
      <trkpt lat="44.35231" lon="6.25115">
        <ele>1241.9</ele>
        <time>2022-06-27T14:55:41.559Z</time>
      </trkpt>
      <trkpt lat="44.35233" lon="6.25127">
        <ele>1241.5</ele>
        <time>2022-06-27T14:55:44.568Z</time>
      </trkpt>
      <trkpt lat="44.35231" lon="6.25143">
        <ele>1249.6</ele>
        <time>2022-06-27T14:55:48.060Z</time>
      </trkpt>
      <trkpt lat="44.35228" lon="6.25156">
        <ele>1243.5</ele>
        <time>2022-06-27T14:55:50.824Z</time>
      </trkpt>
      <trkpt lat="44.35228" lon="6.25169">
        <ele>1243.5</ele>
        <time>2022-06-27T14:55:53.566Z</time>
      </trkpt>
      <trkpt lat="44.35231" lon="6.25181">
        <ele>1247.4</ele>
        <time>2022-06-27T14:55:56.279Z</time>
      </trkpt>
      <trkpt lat="44.35238" lon="6.25194">
        <ele>1249.2</ele>
        <time>2022-06-27T14:55:59.567Z</time>
      </trkpt>
      <trkpt lat="44.35244" lon="6.25208">
        <ele>1250</ele>
        <time>2022-06-27T14:56:02.559Z</time>
      </trkpt>
      <trkpt lat="44.35251" lon="6.25221">
        <ele>1255.6</ele>
        <time>2022-06-27T14:56:06.000Z</time>
      </trkpt>
      <trkpt lat="44.35261" lon="6.25229">
        <ele>1255.8</ele>
        <time>2022-06-27T14:56:08.566Z</time>
      </trkpt>
      <trkpt lat="44.3527" lon="6.25231">
        <ele>1253.6</ele>
        <time>2022-06-27T14:56:11.571Z</time>
      </trkpt>
      <trkpt lat="44.35281" lon="6.25235">
        <ele>1254.7</ele>
        <time>2022-06-27T14:56:15.041Z</time>
      </trkpt>
      <trkpt lat="44.35292" lon="6.25242">
        <ele>1254.9</ele>
        <time>2022-06-27T14:56:18.569Z</time>
      </trkpt>
      <trkpt lat="44.35299" lon="6.25249">
        <ele>1247.4</ele>
        <time>2022-06-27T14:56:21.284Z</time>
      </trkpt>
      <trkpt lat="44.35306" lon="6.25256">
        <ele>1258.7</ele>
        <time>2022-06-27T14:56:24.016Z</time>
      </trkpt>
      <trkpt lat="44.35317" lon="6.25262">
        <ele>1258.4</ele>
        <time>2022-06-27T14:56:27.560Z</time>
      </trkpt>
      <trkpt lat="44.35326" lon="6.2527">
        <ele>1250.3</ele>
        <time>2022-06-27T14:56:30.661Z</time>
      </trkpt>
      <trkpt lat="44.35331" lon="6.25277">
        <ele>1261.9</ele>
        <time>2022-06-27T14:56:33.371Z</time>
      </trkpt>
      <trkpt lat="44.35336" lon="6.25284">
        <ele>1264.3</ele>
        <time>2022-06-27T14:56:36.555Z</time>
      </trkpt>
      <trkpt lat="44.35337" lon="6.25303">
        <ele>1263.3</ele>
        <time>2022-06-27T14:56:43.571Z</time>
      </trkpt>
      <trkpt lat="44.35338" lon="6.25318">
        <ele>1265.5</ele>
        <time>2022-06-27T14:56:46.562Z</time>
      </trkpt>
      <trkpt lat="44.35341" lon="6.25328">
        <ele>1268.1</ele>
        <time>2022-06-27T14:56:49.763Z</time>
      </trkpt>
      <trkpt lat="44.35341" lon="6.25342">
        <ele>1268.8</ele>
        <time>2022-06-27T14:56:52.593Z</time>
      </trkpt>
      <trkpt lat="44.35343" lon="6.25359">
        <ele>1268.5</ele>
        <time>2022-06-27T14:56:55.563Z</time>
      </trkpt>
      <trkpt lat="44.35346" lon="6.25373">
        <ele>1266.4</ele>
        <time>2022-06-27T14:56:58.636Z</time>
      </trkpt>
      <trkpt lat="44.35351" lon="6.25386">
        <ele>1267.8</ele>
        <time>2022-06-27T14:57:01.566Z</time>
      </trkpt>
      <trkpt lat="44.35355" lon="6.25401">
        <ele>1272.2</ele>
        <time>2022-06-27T14:57:04.582Z</time>
      </trkpt>
      <trkpt lat="44.35361" lon="6.25411">
        <ele>1261.3</ele>
        <time>2022-06-27T14:57:07.421Z</time>
      </trkpt>
      <trkpt lat="44.35366" lon="6.25423">
        <ele>1271.1</ele>
        <time>2022-06-27T14:57:10.558Z</time>
      </trkpt>
      <trkpt lat="44.35374" lon="6.25435">
        <ele>1270.4</ele>
        <time>2022-06-27T14:57:13.551Z</time>
      </trkpt>
      <trkpt lat="44.35387" lon="6.25443">
        <ele>1276.3</ele>
        <time>2022-06-27T14:57:17.157Z</time>
      </trkpt>
      <trkpt lat="44.35397" lon="6.25449">
        <ele>1277.6</ele>
        <time>2022-06-27T14:57:20.565Z</time>
      </trkpt>
      <trkpt lat="44.35408" lon="6.25453">
        <ele>1277.6</ele>
        <time>2022-06-27T14:57:23.555Z</time>
      </trkpt>
      <trkpt lat="44.35416" lon="6.25456">
        <ele>1275.8</ele>
        <time>2022-06-27T14:57:26.340Z</time>
      </trkpt>
      <trkpt lat="44.35424" lon="6.2546">
        <ele>1277.4</ele>
        <time>2022-06-27T14:57:29.570Z</time>
      </trkpt>
      <trkpt lat="44.35433" lon="6.25464">
        <ele>1277.5</ele>
        <time>2022-06-27T14:57:32.560Z</time>
      </trkpt>
      <trkpt lat="44.3544" lon="6.25474">
        <ele>1280.4</ele>
        <time>2022-06-27T14:57:36.048Z</time>
      </trkpt>
      <trkpt lat="44.35446" lon="6.25485">
        <ele>1281.8</ele>
        <time>2022-06-27T14:57:39.553Z</time>
      </trkpt>
      <trkpt lat="44.3545" lon="6.25493">
        <ele>1285.6</ele>
        <time>2022-06-27T14:57:42.342Z</time>
      </trkpt>
      <trkpt lat="44.35459" lon="6.25498">
        <ele>1286.4</ele>
        <time>2022-06-27T14:57:46.566Z</time>
      </trkpt>
      <trkpt lat="44.35465" lon="6.25506">
        <ele>1287.1</ele>
        <time>2022-06-27T14:57:49.296Z</time>
      </trkpt>
      <trkpt lat="44.35469" lon="6.2552">
        <ele>1290.8</ele>
        <time>2022-06-27T14:57:52.754Z</time>
      </trkpt>
      <trkpt lat="44.35471" lon="6.25529">
        <ele>1290.9</ele>
        <time>2022-06-27T14:57:55.581Z</time>
      </trkpt>
      <trkpt lat="44.35475" lon="6.25541">
        <ele>1293.2</ele>
        <time>2022-06-27T14:58:00.000Z</time>
      </trkpt>
      <trkpt lat="44.35479" lon="6.25548">
        <ele>1287.5</ele>
        <time>2022-06-27T14:58:06.000Z</time>
      </trkpt>
      <trkpt lat="44.35477" lon="6.2554">
        <ele>1293.7</ele>
        <time>2022-06-27T14:58:09.000Z</time>
      </trkpt>
      <trkpt lat="44.35476" lon="6.25534">
        <ele>1291.5</ele>
        <time>2022-06-27T14:58:30.000Z</time>
      </trkpt>
      <trkpt lat="44.3548" lon="6.25527">
        <ele>1286.3</ele>
        <time>2022-06-27T14:58:39.000Z</time>
      </trkpt>
      <trkpt lat="44.35485" lon="6.25526">
        <ele>1291.2</ele>
        <time>2022-06-27T14:59:00.000Z</time>
      </trkpt>
      <trkpt lat="44.35483" lon="6.25533">
        <ele>1289.3</ele>
        <time>2022-06-27T14:59:48.000Z</time>
      </trkpt>
      <trkpt lat="44.35485" lon="6.2554">
        <ele>1291.7</ele>
        <time>2022-06-27T15:00:14.556Z</time>
      </trkpt>
      <trkpt lat="44.35485" lon="6.25551">
        <ele>1292.5</ele>
        <time>2022-06-27T15:00:18.000Z</time>
      </trkpt>
      <trkpt lat="44.35485" lon="6.25565">
        <ele>1292.5</ele>
        <time>2022-06-27T15:00:20.561Z</time>
      </trkpt>
      <trkpt lat="44.35486" lon="6.25579">
        <ele>1289.8</ele>
        <time>2022-06-27T15:00:23.556Z</time>
      </trkpt>
      <trkpt lat="44.35488" lon="6.25593">
        <ele>1293.9</ele>
        <time>2022-06-27T15:00:26.386Z</time>
      </trkpt>
      <trkpt lat="44.35493" lon="6.25608">
        <ele>1294.2</ele>
        <time>2022-06-27T15:00:29.556Z</time>
      </trkpt>
      <trkpt lat="44.355" lon="6.25623">
        <ele>1294</ele>
        <time>2022-06-27T15:00:32.562Z</time>
      </trkpt>
      <trkpt lat="44.35505" lon="6.25637">
        <ele>1296.5</ele>
        <time>2022-06-27T15:00:36.000Z</time>
      </trkpt>
      <trkpt lat="44.35516" lon="6.25646">
        <ele>1296.5</ele>
        <time>2022-06-27T15:00:38.571Z</time>
      </trkpt>
      <trkpt lat="44.35524" lon="6.25652">
        <ele>1300</ele>
        <time>2022-06-27T15:00:41.555Z</time>
      </trkpt>
      <trkpt lat="44.3553" lon="6.25658">
        <ele>1305</ele>
        <time>2022-06-27T15:00:44.444Z</time>
      </trkpt>
      <trkpt lat="44.35538" lon="6.25674">
        <ele>1302</ele>
        <time>2022-06-27T15:00:50.570Z</time>
      </trkpt>
      <trkpt lat="44.35539" lon="6.25683">
        <ele>1302.7</ele>
        <time>2022-06-27T15:00:54.000Z</time>
      </trkpt>
      <trkpt lat="44.35543" lon="6.25696">
        <ele>1304.2</ele>
        <time>2022-06-27T15:00:59.557Z</time>
      </trkpt>
      <trkpt lat="44.3555" lon="6.25707">
        <ele>1308.4</ele>
        <time>2022-06-27T15:01:03.000Z</time>
      </trkpt>
      <trkpt lat="44.35554" lon="6.25724">
        <ele>1307.3</ele>
        <time>2022-06-27T15:01:05.571Z</time>
      </trkpt>
      <trkpt lat="44.35558" lon="6.25741">
        <ele>1307.3</ele>
        <time>2022-06-27T15:01:08.564Z</time>
      </trkpt>
      <trkpt lat="44.35564" lon="6.25753">
        <ele>1313.7</ele>
        <time>2022-06-27T15:01:12.000Z</time>
      </trkpt>
      <trkpt lat="44.3557" lon="6.25766">
        <ele>1314.3</ele>
        <time>2022-06-27T15:01:14.572Z</time>
      </trkpt>
      <trkpt lat="44.35575" lon="6.25776">
        <ele>1314.1</ele>
        <time>2022-06-27T15:01:17.560Z</time>
      </trkpt>
      <trkpt lat="44.35581" lon="6.25785">
        <ele>1312.4</ele>
        <time>2022-06-27T15:01:21.000Z</time>
      </trkpt>
      <trkpt lat="44.35585" lon="6.25799">
        <ele>1313.6</ele>
        <time>2022-06-27T15:01:23.568Z</time>
      </trkpt>
      <trkpt lat="44.35587" lon="6.25812">
        <ele>1318.4</ele>
        <time>2022-06-27T15:01:26.572Z</time>
      </trkpt>
      <trkpt lat="44.35591" lon="6.2582">
        <ele>1318</ele>
        <time>2022-06-27T15:01:29.395Z</time>
      </trkpt>
      <trkpt lat="44.35594" lon="6.25832">
        <ele>1318.1</ele>
        <time>2022-06-27T15:01:32.550Z</time>
      </trkpt>
      <trkpt lat="44.35598" lon="6.25845">
        <ele>1316.5</ele>
        <time>2022-06-27T15:01:35.570Z</time>
      </trkpt>
      <trkpt lat="44.35603" lon="6.25855">
        <ele>1324.1</ele>
        <time>2022-06-27T15:01:39.000Z</time>
      </trkpt>
      <trkpt lat="44.35611" lon="6.25868">
        <ele>1324.8</ele>
        <time>2022-06-27T15:01:42.565Z</time>
      </trkpt>
      <trkpt lat="44.35616" lon="6.25878">
        <ele>1327.9</ele>
        <time>2022-06-27T15:01:45.675Z</time>
      </trkpt>
      <trkpt lat="44.35619" lon="6.2589">
        <ele>1323.2</ele>
        <time>2022-06-27T15:01:49.558Z</time>
      </trkpt>
      <trkpt lat="44.35615" lon="6.25901">
        <ele>1340.6</ele>
        <time>2022-06-27T15:01:55.475Z</time>
      </trkpt>
      <trkpt lat="44.35609" lon="6.25908">
        <ele>1330.3</ele>
        <time>2022-06-27T15:01:58.557Z</time>
      </trkpt>
      <trkpt lat="44.35602" lon="6.2591">
        <ele>1330.3</ele>
        <time>2022-06-27T15:02:01.561Z</time>
      </trkpt>
      <trkpt lat="44.35596" lon="6.2591">
        <ele>1349.2</ele>
        <time>2022-06-27T15:02:04.403Z</time>
      </trkpt>
      <trkpt lat="44.3559" lon="6.25911">
        <ele>1335.8</ele>
        <time>2022-06-27T15:02:07.562Z</time>
      </trkpt>
      <trkpt lat="44.35582" lon="6.25911">
        <ele>1333.9</ele>
        <time>2022-06-27T15:02:10.564Z</time>
      </trkpt>
      <trkpt lat="44.35573" lon="6.25905">
        <ele>1333.9</ele>
        <time>2022-06-27T15:02:14.015Z</time>
      </trkpt>
      <trkpt lat="44.35566" lon="6.25897">
        <ele>1339.4</ele>
        <time>2022-06-27T15:02:17.563Z</time>
      </trkpt>
      <trkpt lat="44.35563" lon="6.25891">
        <ele>1344.8</ele>
        <time>2022-06-27T15:02:21.201Z</time>
      </trkpt>
      <trkpt lat="44.35563" lon="6.25881">
        <ele>1337.8</ele>
        <time>2022-06-27T15:02:24.496Z</time>
      </trkpt>
      <trkpt lat="44.3556" lon="6.25873">
        <ele>1339.5</ele>
        <time>2022-06-27T15:02:27.603Z</time>
      </trkpt>
      <trkpt lat="44.35551" lon="6.25864">
        <ele>1342.6</ele>
        <time>2022-06-27T15:02:33.605Z</time>
      </trkpt>
      <trkpt lat="44.35543" lon="6.25857">
        <ele>1343.1</ele>
        <time>2022-06-27T15:02:36.562Z</time>
      </trkpt>
      <trkpt lat="44.35536" lon="6.25854">
        <ele>1340.9</ele>
        <time>2022-06-27T15:02:39.447Z</time>
      </trkpt>
      <trkpt lat="44.35527" lon="6.25849">
        <ele>1345.7</ele>
        <time>2022-06-27T15:02:42.765Z</time>
      </trkpt>
      <trkpt lat="44.35519" lon="6.2584">
        <ele>1346.9</ele>
        <time>2022-06-27T15:02:46.558Z</time>
      </trkpt>
      <trkpt lat="44.35513" lon="6.25832">
        <ele>1344.5</ele>
        <time>2022-06-27T15:02:49.426Z</time>
      </trkpt>
      <trkpt lat="44.35505" lon="6.2583">
        <ele>1350.5</ele>
        <time>2022-06-27T15:02:52.417Z</time>
      </trkpt>
      <trkpt lat="44.35495" lon="6.25831">
        <ele>1350.2</ele>
        <time>2022-06-27T15:02:55.563Z</time>
      </trkpt>
      <trkpt lat="44.35485" lon="6.25829">
        <ele>1350.8</ele>
        <time>2022-06-27T15:02:58.574Z</time>
      </trkpt>
      <trkpt lat="44.35475" lon="6.25825">
        <ele>1354.9</ele>
        <time>2022-06-27T15:03:01.743Z</time>
      </trkpt>
      <trkpt lat="44.35466" lon="6.25822">
        <ele>1354.7</ele>
        <time>2022-06-27T15:03:04.553Z</time>
      </trkpt>
      <trkpt lat="44.35456" lon="6.25821">
        <ele>1355.7</ele>
        <time>2022-06-27T15:03:07.556Z</time>
      </trkpt>
      <trkpt lat="44.35447" lon="6.25826">
        <ele>1361.3</ele>
        <time>2022-06-27T15:03:10.534Z</time>
      </trkpt>
      <trkpt lat="44.35439" lon="6.25831">
        <ele>1357.9</ele>
        <time>2022-06-27T15:03:13.549Z</time>
      </trkpt>
      <trkpt lat="44.35431" lon="6.25836">
        <ele>1357.2</ele>
        <time>2022-06-27T15:03:16.577Z</time>
      </trkpt>
      <trkpt lat="44.35424" lon="6.2583">
        <ele>1370.4</ele>
        <time>2022-06-27T15:03:19.339Z</time>
      </trkpt>
      <trkpt lat="44.35418" lon="6.25821">
        <ele>1360.2</ele>
        <time>2022-06-27T15:03:24.000Z</time>
      </trkpt>
      <trkpt lat="44.3542" lon="6.25828">
        <ele>1374.3</ele>
        <time>2022-06-27T15:03:27.000Z</time>
      </trkpt>
      <trkpt lat="44.35416" lon="6.2583">
        <ele>1360.8</ele>
        <time>2022-06-27T15:03:45.015Z</time>
      </trkpt>
      <trkpt lat="44.35413" lon="6.25824">
        <ele>1364.8</ele>
        <time>2022-06-27T15:04:21.000Z</time>
      </trkpt>
      <trkpt lat="44.35402" lon="6.25817">
        <ele>1367.2</ele>
        <time>2022-06-27T15:04:24.000Z</time>
      </trkpt>
      <trkpt lat="44.35396" lon="6.2581">
        <ele>1367.2</ele>
        <time>2022-06-27T15:04:26.258Z</time>
      </trkpt>
      <trkpt lat="44.35392" lon="6.25803">
        <ele>1388.2</ele>
        <time>2022-06-27T15:04:30.000Z</time>
      </trkpt>
      <trkpt lat="44.35392" lon="6.25793">
        <ele>1375.4</ele>
        <time>2022-06-27T15:04:33.000Z</time>
      </trkpt>
      <trkpt lat="44.35388" lon="6.25782">
        <ele>1375.4</ele>
        <time>2022-06-27T15:04:35.247Z</time>
      </trkpt>
      <trkpt lat="44.35385" lon="6.25771">
        <ele>1371.4</ele>
        <time>2022-06-27T15:04:38.504Z</time>
      </trkpt>
      <trkpt lat="44.35383" lon="6.25762">
        <ele>1392.8</ele>
        <time>2022-06-27T15:04:42.000Z</time>
      </trkpt>
      <trkpt lat="44.35371" lon="6.25761">
        <ele>1376.6</ele>
        <time>2022-06-27T15:04:44.419Z</time>
      </trkpt>
      <trkpt lat="44.35357" lon="6.2576">
        <ele>1376.8</ele>
        <time>2022-06-27T15:04:47.505Z</time>
      </trkpt>
      <trkpt lat="44.35345" lon="6.25761">
        <ele>1391.7</ele>
        <time>2022-06-27T15:04:51.000Z</time>
      </trkpt>
      <trkpt lat="44.35334" lon="6.25761">
        <ele>1382.8</ele>
        <time>2022-06-27T15:04:54.000Z</time>
      </trkpt>
      <trkpt lat="44.35325" lon="6.25765">
        <ele>1384</ele>
        <time>2022-06-27T15:04:57.000Z</time>
      </trkpt>
      <trkpt lat="44.35321" lon="6.25774">
        <ele>1384</ele>
        <time>2022-06-27T15:04:59.502Z</time>
      </trkpt>
      <trkpt lat="44.35316" lon="6.25783">
        <ele>1390.5</ele>
        <time>2022-06-27T15:05:03.000Z</time>
      </trkpt>
      <trkpt lat="44.3531" lon="6.25792">
        <ele>1390.5</ele>
        <time>2022-06-27T15:05:05.552Z</time>
      </trkpt>
      <trkpt lat="44.35305" lon="6.258">
        <ele>1385.5</ele>
        <time>2022-06-27T15:05:08.564Z</time>
      </trkpt>
      <trkpt lat="44.35303" lon="6.25814">
        <ele>1388.4</ele>
        <time>2022-06-27T15:05:12.000Z</time>
      </trkpt>
      <trkpt lat="44.353" lon="6.25825">
        <ele>1388.7</ele>
        <time>2022-06-27T15:05:14.558Z</time>
      </trkpt>
      <trkpt lat="44.353" lon="6.25837">
        <ele>1390.2</ele>
        <time>2022-06-27T15:05:17.553Z</time>
      </trkpt>
      <trkpt lat="44.35299" lon="6.25848">
        <ele>1390.5</ele>
        <time>2022-06-27T15:05:20.319Z</time>
      </trkpt>
      <trkpt lat="44.35294" lon="6.25859">
        <ele>1391.5</ele>
        <time>2022-06-27T15:05:23.537Z</time>
      </trkpt>
      <trkpt lat="44.35288" lon="6.25859">
        <ele>1395.7</ele>
        <time>2022-06-27T15:05:26.555Z</time>
      </trkpt>
      <trkpt lat="44.35282" lon="6.2585">
        <ele>1395.1</ele>
        <time>2022-06-27T15:05:30.048Z</time>
      </trkpt>
      <trkpt lat="44.35276" lon="6.25838">
        <ele>1398.6</ele>
        <time>2022-06-27T15:05:33.540Z</time>
      </trkpt>
      <trkpt lat="44.35274" lon="6.2583">
        <ele>1404.4</ele>
        <time>2022-06-27T15:05:36.243Z</time>
      </trkpt>
      <trkpt lat="44.35271" lon="6.25818">
        <ele>1396.7</ele>
        <time>2022-06-27T15:05:39.478Z</time>
      </trkpt>
      <trkpt lat="44.35264" lon="6.25813">
        <ele>1398.6</ele>
        <time>2022-06-27T15:05:42.776Z</time>
      </trkpt>
      <trkpt lat="44.35254" lon="6.25816">
        <ele>1405.3</ele>
        <time>2022-06-27T15:05:45.661Z</time>
      </trkpt>
      <trkpt lat="44.35244" lon="6.25811">
        <ele>1400.9</ele>
        <time>2022-06-27T15:05:48.755Z</time>
      </trkpt>
      <trkpt lat="44.35236" lon="6.25809">
        <ele>1400.8</ele>
        <time>2022-06-27T15:05:51.552Z</time>
      </trkpt>
      <trkpt lat="44.35228" lon="6.2581">
        <ele>1412.6</ele>
        <time>2022-06-27T15:05:54.387Z</time>
      </trkpt>
      <trkpt lat="44.35219" lon="6.25807">
        <ele>1406.7</ele>
        <time>2022-06-27T15:05:57.479Z</time>
      </trkpt>
      <trkpt lat="44.35211" lon="6.25805">
        <ele>1408.4</ele>
        <time>2022-06-27T15:06:00.546Z</time>
      </trkpt>
      <trkpt lat="44.35205" lon="6.25797">
        <ele>1416.7</ele>
        <time>2022-06-27T15:06:03.642Z</time>
      </trkpt>
      <trkpt lat="44.35195" lon="6.25796">
        <ele>1407.2</ele>
        <time>2022-06-27T15:06:06.779Z</time>
      </trkpt>
      <trkpt lat="44.35184" lon="6.25801">
        <ele>1407.5</ele>
        <time>2022-06-27T15:06:09.919Z</time>
      </trkpt>
      <trkpt lat="44.35177" lon="6.25815">
        <ele>1422.9</ele>
        <time>2022-06-27T15:06:13.180Z</time>
      </trkpt>
      <trkpt lat="44.3517" lon="6.25828">
        <ele>1410.3</ele>
        <time>2022-06-27T15:06:16.542Z</time>
      </trkpt>
      <trkpt lat="44.35164" lon="6.25838">
        <ele>1410.6</ele>
        <time>2022-06-27T15:06:19.337Z</time>
      </trkpt>
      <trkpt lat="44.35158" lon="6.25844">
        <ele>1410.9</ele>
        <time>2022-06-27T15:06:22.549Z</time>
      </trkpt>
      <trkpt lat="44.35151" lon="6.25851">
        <ele>1413.1</ele>
        <time>2022-06-27T15:06:25.604Z</time>
      </trkpt>
      <trkpt lat="44.35146" lon="6.25861">
        <ele>1415.2</ele>
        <time>2022-06-27T15:06:28.784Z</time>
      </trkpt>
      <trkpt lat="44.35141" lon="6.25867">
        <ele>1415.2</ele>
        <time>2022-06-27T15:06:31.560Z</time>
      </trkpt>
      <trkpt lat="44.35131" lon="6.25872">
        <ele>1417.9</ele>
        <time>2022-06-27T15:06:34.549Z</time>
      </trkpt>
      <trkpt lat="44.35122" lon="6.25871">
        <ele>1435.8</ele>
        <time>2022-06-27T15:06:37.335Z</time>
      </trkpt>
      <trkpt lat="44.35113" lon="6.25863">
        <ele>1416.3</ele>
        <time>2022-06-27T15:06:40.556Z</time>
      </trkpt>
      <trkpt lat="44.35102" lon="6.25852">
        <ele>1417</ele>
        <time>2022-06-27T15:06:43.532Z</time>
      </trkpt>
      <trkpt lat="44.35092" lon="6.25845">
        <ele>1439.4</ele>
        <time>2022-06-27T15:06:46.246Z</time>
      </trkpt>
      <trkpt lat="44.35078" lon="6.25847">
        <ele>1420.6</ele>
        <time>2022-06-27T15:06:49.557Z</time>
      </trkpt>
      <trkpt lat="44.35067" lon="6.2585">
        <ele>1420.5</ele>
        <time>2022-06-27T15:06:52.535Z</time>
      </trkpt>
      <trkpt lat="44.35059" lon="6.25862">
        <ele>1425.5</ele>
        <time>2022-06-27T15:06:56.380Z</time>
      </trkpt>
      <trkpt lat="44.35057" lon="6.25889">
        <ele>1423</ele>
        <time>2022-06-27T15:07:00.000Z</time>
      </trkpt>
      <trkpt lat="44.35062" lon="6.25918">
        <ele>1432.4</ele>
        <time>2022-06-27T15:07:03.000Z</time>
      </trkpt>
      <trkpt lat="44.35066" lon="6.25941">
        <ele>1417.6</ele>
        <time>2022-06-27T15:07:06.000Z</time>
      </trkpt>
      <trkpt lat="44.35058" lon="6.25961">
        <ele>1417.3</ele>
        <time>2022-06-27T15:07:11.559Z</time>
      </trkpt>
      <trkpt lat="44.35058" lon="6.25989">
        <ele>1417.9</ele>
        <time>2022-06-27T15:07:15.000Z</time>
      </trkpt>
      <trkpt lat="44.35057" lon="6.26015">
        <ele>1416.7</ele>
        <time>2022-06-27T15:07:18.000Z</time>
      </trkpt>
      <trkpt lat="44.35041" lon="6.26019">
        <ele>1432.3</ele>
        <time>2022-06-27T15:07:21.000Z</time>
      </trkpt>
      <trkpt lat="44.35022" lon="6.26012">
        <ele>1433.3</ele>
        <time>2022-06-27T15:07:24.000Z</time>
      </trkpt>
      <trkpt lat="44.35008" lon="6.2601">
        <ele>1433.1</ele>
        <time>2022-06-27T15:07:27.000Z</time>
      </trkpt>
      <trkpt lat="44.35003" lon="6.26018">
        <ele>1432.7</ele>
        <time>2022-06-27T15:07:30.000Z</time>
      </trkpt>
      <trkpt lat="44.35006" lon="6.26036">
        <ele>1422.4</ele>
        <time>2022-06-27T15:07:33.000Z</time>
      </trkpt>
      <trkpt lat="44.35018" lon="6.26079">
        <ele>1419.9</ele>
        <time>2022-06-27T15:07:39.000Z</time>
      </trkpt>
      <trkpt lat="44.35027" lon="6.26094">
        <ele>1421.4</ele>
        <time>2022-06-27T15:07:42.000Z</time>
      </trkpt>
      <trkpt lat="44.35034" lon="6.26097">
        <ele>1421.4</ele>
        <time>2022-06-27T15:07:44.557Z</time>
      </trkpt>
      <trkpt lat="44.35028" lon="6.2613">
        <ele>1435.3</ele>
        <time>2022-06-27T15:07:48.000Z</time>
      </trkpt>
      <trkpt lat="44.35022" lon="6.26144">
        <ele>1423.7</ele>
        <time>2022-06-27T15:07:51.000Z</time>
      </trkpt>
      <trkpt lat="44.35008" lon="6.26157">
        <ele>1428.5</ele>
        <time>2022-06-27T15:07:56.559Z</time>
      </trkpt>
      <trkpt lat="44.34997" lon="6.26167">
        <ele>1427.5</ele>
        <time>2022-06-27T15:07:59.262Z</time>
      </trkpt>
      <trkpt lat="44.3498" lon="6.26176">
        <ele>1431.3</ele>
        <time>2022-06-27T15:08:03.000Z</time>
      </trkpt>
      <trkpt lat="44.34976" lon="6.26179">
        <ele>1431.3</ele>
        <time>2022-06-27T15:08:05.544Z</time>
      </trkpt>
      <trkpt lat="44.34975" lon="6.26204">
        <ele>1445.5</ele>
        <time>2022-06-27T15:08:08.553Z</time>
      </trkpt>
      <trkpt lat="44.34975" lon="6.26225">
        <ele>1429.7</ele>
        <time>2022-06-27T15:08:12.000Z</time>
      </trkpt>
      <trkpt lat="44.34963" lon="6.26233">
        <ele>1431.7</ele>
        <time>2022-06-27T15:08:15.000Z</time>
      </trkpt>
      <trkpt lat="44.34959" lon="6.2624">
        <ele>1431.7</ele>
        <time>2022-06-27T15:08:17.565Z</time>
      </trkpt>
      <trkpt lat="44.34947" lon="6.26233">
        <ele>1446.4</ele>
        <time>2022-06-27T15:08:21.000Z</time>
      </trkpt>
      <trkpt lat="44.34936" lon="6.26215">
        <ele>1446.4</ele>
        <time>2022-06-27T15:08:23.549Z</time>
      </trkpt>
      <trkpt lat="44.34924" lon="6.26212">
        <ele>1442.7</ele>
        <time>2022-06-27T15:08:30.000Z</time>
      </trkpt>
      <trkpt lat="44.34915" lon="6.26213">
        <ele>1442.2</ele>
        <time>2022-06-27T15:08:32.555Z</time>
      </trkpt>
      <trkpt lat="44.34908" lon="6.26221">
        <ele>1442.1</ele>
        <time>2022-06-27T15:08:35.549Z</time>
      </trkpt>
      <trkpt lat="44.34905" lon="6.26228">
        <ele>1440.3</ele>
        <time>2022-06-27T15:08:39.000Z</time>
      </trkpt>
      <trkpt lat="44.34903" lon="6.26243">
        <ele>1441.5</ele>
        <time>2022-06-27T15:08:41.561Z</time>
      </trkpt>
      <trkpt lat="44.34908" lon="6.26256">
        <ele>1442.6</ele>
        <time>2022-06-27T15:08:44.564Z</time>
      </trkpt>
      <trkpt lat="44.34913" lon="6.2627">
        <ele>1445.4</ele>
        <time>2022-06-27T15:08:48.000Z</time>
      </trkpt>
      <trkpt lat="44.34917" lon="6.2628">
        <ele>1445.4</ele>
        <time>2022-06-27T15:08:50.561Z</time>
      </trkpt>
      <trkpt lat="44.34922" lon="6.26293">
        <ele>1447.7</ele>
        <time>2022-06-27T15:08:53.563Z</time>
      </trkpt>
      <trkpt lat="44.34928" lon="6.26301">
        <ele>1451.9</ele>
        <time>2022-06-27T15:08:57.000Z</time>
      </trkpt>
      <trkpt lat="44.34938" lon="6.26306">
        <ele>1453.9</ele>
        <time>2022-06-27T15:08:59.555Z</time>
      </trkpt>
      <trkpt lat="44.34943" lon="6.26316">
        <ele>1454.2</ele>
        <time>2022-06-27T15:09:02.553Z</time>
      </trkpt>
      <trkpt lat="44.34949" lon="6.26324">
        <ele>1460.2</ele>
        <time>2022-06-27T15:09:05.261Z</time>
      </trkpt>
      <trkpt lat="44.34957" lon="6.26339">
        <ele>1459.3</ele>
        <time>2022-06-27T15:09:08.562Z</time>
      </trkpt>
      <trkpt lat="44.34967" lon="6.26343">
        <ele>1457.5</ele>
        <time>2022-06-27T15:09:11.559Z</time>
      </trkpt>
      <trkpt lat="44.34974" lon="6.26356">
        <ele>1457.7</ele>
        <time>2022-06-27T15:09:14.373Z</time>
      </trkpt>
      <trkpt lat="44.34979" lon="6.26365">
        <ele>1458.2</ele>
        <time>2022-06-27T15:09:17.559Z</time>
      </trkpt>
      <trkpt lat="44.34977" lon="6.2637">
        <ele>1454.5</ele>
        <time>2022-06-27T15:09:20.549Z</time>
      </trkpt>
      <trkpt lat="44.34973" lon="6.26374">
        <ele>1459.8</ele>
        <time>2022-06-27T15:09:24.048Z</time>
      </trkpt>
      <trkpt lat="44.34973" lon="6.26387">
        <ele>1460.2</ele>
        <time>2022-06-27T15:09:27.095Z</time>
      </trkpt>
      <trkpt lat="44.34971" lon="6.26398">
        <ele>1468.8</ele>
        <time>2022-06-27T15:09:30.636Z</time>
      </trkpt>
      <trkpt lat="44.34957" lon="6.26391">
        <ele>1465.5</ele>
        <time>2022-06-27T15:09:37.553Z</time>
      </trkpt>
      <trkpt lat="44.34948" lon="6.26387">
        <ele>1471.4</ele>
        <time>2022-06-27T15:09:40.691Z</time>
      </trkpt>
      <trkpt lat="44.34941" lon="6.26385">
        <ele>1468.3</ele>
        <time>2022-06-27T15:09:43.537Z</time>
      </trkpt>
      <trkpt lat="44.34935" lon="6.2639">
        <ele>1466.5</ele>
        <time>2022-06-27T15:09:46.543Z</time>
      </trkpt>
      <trkpt lat="44.34935" lon="6.26401">
        <ele>1468.7</ele>
        <time>2022-06-27T15:09:49.796Z</time>
      </trkpt>
      <trkpt lat="44.34942" lon="6.26411">
        <ele>1470.8</ele>
        <time>2022-06-27T15:09:53.120Z</time>
      </trkpt>
      <trkpt lat="44.34951" lon="6.26423">
        <ele>1472.1</ele>
        <time>2022-06-27T15:09:56.550Z</time>
      </trkpt>
      <trkpt lat="44.34959" lon="6.26434">
        <ele>1476.3</ele>
        <time>2022-06-27T15:09:59.914Z</time>
      </trkpt>
      <trkpt lat="44.34969" lon="6.26442">
        <ele>1477</ele>
        <time>2022-06-27T15:10:03.179Z</time>
      </trkpt>
      <trkpt lat="44.34971" lon="6.26455">
        <ele>1483.2</ele>
        <time>2022-06-27T15:10:06.546Z</time>
      </trkpt>
      <trkpt lat="44.34956" lon="6.26466">
        <ele>1477.5</ele>
        <time>2022-06-27T15:10:12.000Z</time>
      </trkpt>
      <trkpt lat="44.34947" lon="6.26472">
        <ele>1474.8</ele>
        <time>2022-06-27T15:10:15.000Z</time>
      </trkpt>
      <trkpt lat="44.34947" lon="6.26483">
        <ele>1474.8</ele>
        <time>2022-06-27T15:10:17.548Z</time>
      </trkpt>
      <trkpt lat="44.3495" lon="6.265">
        <ele>1474</ele>
        <time>2022-06-27T15:10:21.042Z</time>
      </trkpt>
      <trkpt lat="44.34957" lon="6.26512">
        <ele>1477.2</ele>
        <time>2022-06-27T15:10:24.399Z</time>
      </trkpt>
      <trkpt lat="44.34966" lon="6.26517">
        <ele>1492.5</ele>
        <time>2022-06-27T15:10:27.544Z</time>
      </trkpt>
      <trkpt lat="44.34974" lon="6.26531">
        <ele>1491.1</ele>
        <time>2022-06-27T15:10:30.800Z</time>
      </trkpt>
      <trkpt lat="44.34977" lon="6.26545">
        <ele>1481.3</ele>
        <time>2022-06-27T15:10:33.541Z</time>
      </trkpt>
      <trkpt lat="44.34982" lon="6.26558">
        <ele>1482.3</ele>
        <time>2022-06-27T15:10:36.544Z</time>
      </trkpt>
      <trkpt lat="44.34974" lon="6.26573">
        <ele>1482.7</ele>
        <time>2022-06-27T15:10:42.000Z</time>
      </trkpt>
      <trkpt lat="44.34963" lon="6.2658">
        <ele>1483.7</ele>
        <time>2022-06-27T15:10:44.552Z</time>
      </trkpt>
      <trkpt lat="44.34957" lon="6.26595">
        <ele>1487.5</ele>
        <time>2022-06-27T15:10:48.000Z</time>
      </trkpt>
      <trkpt lat="44.34957" lon="6.26607">
        <ele>1477.7</ele>
        <time>2022-06-27T15:10:51.000Z</time>
      </trkpt>
      <trkpt lat="44.34962" lon="6.2661">
        <ele>1488.6</ele>
        <time>2022-06-27T15:11:00.000Z</time>
      </trkpt>
      <trkpt lat="44.34965" lon="6.26614">
        <ele>1481.7</ele>
        <time>2022-06-27T15:11:12.000Z</time>
      </trkpt>
      <trkpt lat="44.34961" lon="6.26627">
        <ele>1479.8</ele>
        <time>2022-06-27T15:11:29.000Z</time>
      </trkpt>
      <trkpt lat="44.34958" lon="6.26632">
        <ele>1505.5</ele>
        <time>2022-06-27T15:11:35.000Z</time>
      </trkpt>
      <trkpt lat="44.34954" lon="6.26632">
        <ele>1482.9</ele>
        <time>2022-06-27T15:11:44.000Z</time>
      </trkpt>
      <trkpt lat="44.34952" lon="6.26649">
        <ele>1483.7</ele>
        <time>2022-06-27T15:11:46.920Z</time>
      </trkpt>
      <trkpt lat="44.3495" lon="6.26669">
        <ele>1484.9</ele>
        <time>2022-06-27T15:11:50.156Z</time>
      </trkpt>
      <trkpt lat="44.34948" lon="6.26688">
        <ele>1503.3</ele>
        <time>2022-06-27T15:11:53.218Z</time>
      </trkpt>
      <trkpt lat="44.34947" lon="6.26703">
        <ele>1502.5</ele>
        <time>2022-06-27T15:11:56.152Z</time>
      </trkpt>
      <trkpt lat="44.34944" lon="6.26718">
        <ele>1484.6</ele>
        <time>2022-06-27T15:11:59.184Z</time>
      </trkpt>
      <trkpt lat="44.34937" lon="6.2673">
        <ele>1487.9</ele>
        <time>2022-06-27T15:12:02.737Z</time>
      </trkpt>
      <trkpt lat="44.34933" lon="6.2674">
        <ele>1502.2</ele>
        <time>2022-06-27T15:12:05.863Z</time>
      </trkpt>
      <trkpt lat="44.34933" lon="6.26748">
        <ele>1490.2</ele>
        <time>2022-06-27T15:12:08.840Z</time>
      </trkpt>
      <trkpt lat="44.34936" lon="6.26758">
        <ele>1488.8</ele>
        <time>2022-06-27T15:12:12.013Z</time>
      </trkpt>
      <trkpt lat="44.3494" lon="6.26771">
        <ele>1488.9</ele>
        <time>2022-06-27T15:12:15.218Z</time>
      </trkpt>
      <trkpt lat="44.34941" lon="6.26789">
        <ele>1489</ele>
        <time>2022-06-27T15:12:18.736Z</time>
      </trkpt>
      <trkpt lat="44.34935" lon="6.26802">
        <ele>1502.7</ele>
        <time>2022-06-27T15:12:22.049Z</time>
      </trkpt>
      <trkpt lat="44.34925" lon="6.26801">
        <ele>1503</ele>
        <time>2022-06-27T15:12:25.103Z</time>
      </trkpt>
      <trkpt lat="44.34914" lon="6.26799">
        <ele>1503</ele>
        <time>2022-06-27T15:12:28.474Z</time>
      </trkpt>
      <trkpt lat="44.3491" lon="6.26805">
        <ele>1494.2</ele>
        <time>2022-06-27T15:12:32.000Z</time>
      </trkpt>
      <trkpt lat="44.34913" lon="6.26814">
        <ele>1495.9</ele>
        <time>2022-06-27T15:12:37.567Z</time>
      </trkpt>
      <trkpt lat="44.34915" lon="6.26822">
        <ele>1498.6</ele>
        <time>2022-06-27T15:12:40.475Z</time>
      </trkpt>
      <trkpt lat="44.34914" lon="6.26832">
        <ele>1496.6</ele>
        <time>2022-06-27T15:12:43.566Z</time>
      </trkpt>
      <trkpt lat="44.34911" lon="6.26843">
        <ele>1497.3</ele>
        <time>2022-06-27T15:12:46.568Z</time>
      </trkpt>
      <trkpt lat="44.34907" lon="6.26847">
        <ele>1498.5</ele>
        <time>2022-06-27T15:12:50.000Z</time>
      </trkpt>
      <trkpt lat="44.34902" lon="6.2685">
        <ele>1499.4</ele>
        <time>2022-06-27T15:12:52.568Z</time>
      </trkpt>
      <trkpt lat="44.34899" lon="6.26858">
        <ele>1500.5</ele>
        <time>2022-06-27T15:12:55.565Z</time>
      </trkpt>
      <trkpt lat="44.34891" lon="6.26866">
        <ele>1499.2</ele>
        <time>2022-06-27T15:13:01.561Z</time>
      </trkpt>
      <trkpt lat="44.34885" lon="6.2687">
        <ele>1501.6</ele>
        <time>2022-06-27T15:13:04.567Z</time>
      </trkpt>
      <trkpt lat="44.34884" lon="6.2688">
        <ele>1503.9</ele>
        <time>2022-06-27T15:13:07.477Z</time>
      </trkpt>
      <trkpt lat="44.34881" lon="6.26889">
        <ele>1502.7</ele>
        <time>2022-06-27T15:13:11.000Z</time>
      </trkpt>
      <trkpt lat="44.34877" lon="6.26897">
        <ele>1515.1</ele>
        <time>2022-06-27T15:13:14.102Z</time>
      </trkpt>
      <trkpt lat="44.34873" lon="6.26902">
        <ele>1515.9</ele>
        <time>2022-06-27T15:13:17.235Z</time>
      </trkpt>
      <trkpt lat="44.34869" lon="6.2691">
        <ele>1517.3</ele>
        <time>2022-06-27T15:13:20.978Z</time>
      </trkpt>
      <trkpt lat="44.34868" lon="6.26917">
        <ele>1506.2</ele>
        <time>2022-06-27T15:13:32.000Z</time>
      </trkpt>
      <trkpt lat="44.3487" lon="6.26928">
        <ele>1508.8</ele>
        <time>2022-06-27T15:13:57.218Z</time>
      </trkpt>
      <trkpt lat="44.34869" lon="6.26939">
        <ele>1511.1</ele>
        <time>2022-06-27T15:14:05.000Z</time>
      </trkpt>
      <trkpt lat="44.34871" lon="6.26946">
        <ele>1510.4</ele>
        <time>2022-06-27T15:14:17.000Z</time>
      </trkpt>
      <trkpt lat="44.34871" lon="6.2694">
        <ele>1510.9</ele>
        <time>2022-06-27T15:14:41.000Z</time>
      </trkpt>
      <trkpt lat="44.34873" lon="6.26933">
        <ele>1510.5</ele>
        <time>2022-06-27T15:14:47.000Z</time>
      </trkpt>
      <trkpt lat="44.3487" lon="6.26927">
        <ele>1508.7</ele>
        <time>2022-06-27T15:14:52.377Z</time>
      </trkpt>
      <trkpt lat="44.34867" lon="6.2692">
        <ele>1508</ele>
        <time>2022-06-27T15:14:58.058Z</time>
      </trkpt>
      <trkpt lat="44.34866" lon="6.26912">
        <ele>1507.9</ele>
        <time>2022-06-27T15:15:05.000Z</time>
      </trkpt>
      <trkpt lat="44.34874" lon="6.2691">
        <ele>1508.4</ele>
        <time>2022-06-27T15:15:08.000Z</time>
      </trkpt>
      <trkpt lat="44.34878" lon="6.26906">
        <ele>1507.1</ele>
        <time>2022-06-27T15:15:14.000Z</time>
      </trkpt>
      <trkpt lat="44.34883" lon="6.26898">
        <ele>1505.3</ele>
        <time>2022-06-27T15:15:19.289Z</time>
      </trkpt>
      <trkpt lat="44.34887" lon="6.2689">
        <ele>1503.1</ele>
        <time>2022-06-27T15:15:22.460Z</time>
      </trkpt>
      <trkpt lat="44.34892" lon="6.26883">
        <ele>1504.9</ele>
        <time>2022-06-27T15:15:26.000Z</time>
      </trkpt>
      <trkpt lat="44.34898" lon="6.26877">
        <ele>1504.9</ele>
        <time>2022-06-27T15:15:28.360Z</time>
      </trkpt>
      <trkpt lat="44.34906" lon="6.26867">
        <ele>1499.9</ele>
        <time>2022-06-27T15:15:32.000Z</time>
      </trkpt>
      <trkpt lat="44.34914" lon="6.26856">
        <ele>1499.8</ele>
        <time>2022-06-27T15:15:34.573Z</time>
      </trkpt>
      <trkpt lat="44.34921" lon="6.26819">
        <ele>1517.6</ele>
        <time>2022-06-27T15:15:38.000Z</time>
      </trkpt>
      <trkpt lat="44.34923" lon="6.26799">
        <ele>1495.9</ele>
        <time>2022-06-27T15:15:41.000Z</time>
      </trkpt>
      <trkpt lat="44.34926" lon="6.26803">
        <ele>1495.1</ele>
        <time>2022-06-27T15:15:44.000Z</time>
      </trkpt>
      <trkpt lat="44.34937" lon="6.26803">
        <ele>1495.1</ele>
        <time>2022-06-27T15:15:46.576Z</time>
      </trkpt>
      <trkpt lat="44.34941" lon="6.26791">
        <ele>1494.1</ele>
        <time>2022-06-27T15:15:49.370Z</time>
      </trkpt>
      <trkpt lat="44.34944" lon="6.26781">
        <ele>1494.5</ele>
        <time>2022-06-27T15:15:53.000Z</time>
      </trkpt>
      <trkpt lat="44.34945" lon="6.26769">
        <ele>1494.5</ele>
        <time>2022-06-27T15:15:55.564Z</time>
      </trkpt>
      <trkpt lat="44.34944" lon="6.26737">
        <ele>1490.2</ele>
        <time>2022-06-27T15:15:59.000Z</time>
      </trkpt>
      <trkpt lat="44.34954" lon="6.2671">
        <ele>1488.2</ele>
        <time>2022-06-27T15:16:02.000Z</time>
      </trkpt>
      <trkpt lat="44.34965" lon="6.26681">
        <ele>1507.2</ele>
        <time>2022-06-27T15:16:05.000Z</time>
      </trkpt>
      <trkpt lat="44.3497" lon="6.26654">
        <ele>1488.6</ele>
        <time>2022-06-27T15:16:08.000Z</time>
      </trkpt>
      <trkpt lat="44.34972" lon="6.26631">
        <ele>1488.8</ele>
        <time>2022-06-27T15:16:11.000Z</time>
      </trkpt>
      <trkpt lat="44.34975" lon="6.26608">
        <ele>1503.1</ele>
        <time>2022-06-27T15:16:14.000Z</time>
      </trkpt>
      <trkpt lat="44.34981" lon="6.2659">
        <ele>1500.2</ele>
        <time>2022-06-27T15:16:17.000Z</time>
      </trkpt>
      <trkpt lat="44.34982" lon="6.26582">
        <ele>1502.1</ele>
        <time>2022-06-27T15:16:20.000Z</time>
      </trkpt>
      <trkpt lat="44.34988" lon="6.26566">
        <ele>1486.4</ele>
        <time>2022-06-27T15:16:23.000Z</time>
      </trkpt>
      <trkpt lat="44.34992" lon="6.26571">
        <ele>1487</ele>
        <time>2022-06-27T15:16:25.368Z</time>
      </trkpt>
      <trkpt lat="44.34992" lon="6.26552">
        <ele>1486.3</ele>
        <time>2022-06-27T15:16:29.000Z</time>
      </trkpt>
      <trkpt lat="44.34985" lon="6.26535">
        <ele>1486.3</ele>
        <time>2022-06-27T15:16:31.574Z</time>
      </trkpt>
      <trkpt lat="44.34957" lon="6.26511">
        <ele>1492.3</ele>
        <time>2022-06-27T15:16:35.000Z</time>
      </trkpt>
      <trkpt lat="44.34947" lon="6.26489">
        <ele>1482.2</ele>
        <time>2022-06-27T15:16:38.000Z</time>
      </trkpt>
      <trkpt lat="44.34946" lon="6.2647">
        <ele>1483.7</ele>
        <time>2022-06-27T15:16:41.000Z</time>
      </trkpt>
      <trkpt lat="44.34955" lon="6.26468">
        <ele>1492.2</ele>
        <time>2022-06-27T15:16:44.000Z</time>
      </trkpt>
      <trkpt lat="44.34967" lon="6.26465">
        <ele>1482.2</ele>
        <time>2022-06-27T15:16:47.000Z</time>
      </trkpt>
      <trkpt lat="44.34971" lon="6.26446">
        <ele>1484</ele>
        <time>2022-06-27T15:16:50.000Z</time>
      </trkpt>
      <trkpt lat="44.34959" lon="6.26426">
        <ele>1482.3</ele>
        <time>2022-06-27T15:16:53.000Z</time>
      </trkpt>
      <trkpt lat="44.34951" lon="6.26411">
        <ele>1482.1</ele>
        <time>2022-06-27T15:16:56.000Z</time>
      </trkpt>
      <trkpt lat="44.34945" lon="6.26396">
        <ele>1482.1</ele>
        <time>2022-06-27T15:16:58.358Z</time>
      </trkpt>
      <trkpt lat="44.34954" lon="6.26385">
        <ele>1471.6</ele>
        <time>2022-06-27T15:17:01.140Z</time>
      </trkpt>
      <trkpt lat="44.34967" lon="6.26383">
        <ele>1471</ele>
        <time>2022-06-27T15:17:04.595Z</time>
      </trkpt>
      <trkpt lat="44.34974" lon="6.26379">
        <ele>1483.9</ele>
        <time>2022-06-27T15:17:08.000Z</time>
      </trkpt>
      <trkpt lat="44.34968" lon="6.26374">
        <ele>1471.6</ele>
        <time>2022-06-27T15:17:11.000Z</time>
      </trkpt>
      <trkpt lat="44.34972" lon="6.26352">
        <ele>1471.4</ele>
        <time>2022-06-27T15:17:13.565Z</time>
      </trkpt>
      <trkpt lat="44.34975" lon="6.26326">
        <ele>1475.4</ele>
        <time>2022-06-27T15:17:17.000Z</time>
      </trkpt>
      <trkpt lat="44.34956" lon="6.26316">
        <ele>1465.6</ele>
        <time>2022-06-27T15:17:20.000Z</time>
      </trkpt>
      <trkpt lat="44.3494" lon="6.26306">
        <ele>1466.3</ele>
        <time>2022-06-27T15:17:23.000Z</time>
      </trkpt>
      <trkpt lat="44.34925" lon="6.26291">
        <ele>1462.5</ele>
        <time>2022-06-27T15:17:26.000Z</time>
      </trkpt>
      <trkpt lat="44.34914" lon="6.26275">
        <ele>1461.2</ele>
        <time>2022-06-27T15:17:29.000Z</time>
      </trkpt>
      <trkpt lat="44.34911" lon="6.26251">
        <ele>1459.4</ele>
        <time>2022-06-27T15:17:32.000Z</time>
      </trkpt>
      <trkpt lat="44.34913" lon="6.2623">
        <ele>1459.3</ele>
        <time>2022-06-27T15:17:35.000Z</time>
      </trkpt>
      <trkpt lat="44.34923" lon="6.26215">
        <ele>1455.4</ele>
        <time>2022-06-27T15:17:38.000Z</time>
      </trkpt>
      <trkpt lat="44.34934" lon="6.26219">
        <ele>1455.2</ele>
        <time>2022-06-27T15:17:41.000Z</time>
      </trkpt>
      <trkpt lat="44.34956" lon="6.26235">
        <ele>1448.3</ele>
        <time>2022-06-27T15:17:44.000Z</time>
      </trkpt>
      <trkpt lat="44.34977" lon="6.26237">
        <ele>1445.8</ele>
        <time>2022-06-27T15:17:47.000Z</time>
      </trkpt>
      <trkpt lat="44.3499" lon="6.26215">
        <ele>1457.6</ele>
        <time>2022-06-27T15:17:50.000Z</time>
      </trkpt>
      <trkpt lat="44.34993" lon="6.26189">
        <ele>1456.5</ele>
        <time>2022-06-27T15:17:53.000Z</time>
      </trkpt>
      <trkpt lat="44.34997" lon="6.26182">
        <ele>1452.7</ele>
        <time>2022-06-27T15:17:56.000Z</time>
      </trkpt>
      <trkpt lat="44.35012" lon="6.26171">
        <ele>1443.1</ele>
        <time>2022-06-27T15:17:59.000Z</time>
      </trkpt>
      <trkpt lat="44.35024" lon="6.26149">
        <ele>1440.4</ele>
        <time>2022-06-27T15:18:02.000Z</time>
      </trkpt>
      <trkpt lat="44.35032" lon="6.26115">
        <ele>1452.2</ele>
        <time>2022-06-27T15:18:05.000Z</time>
      </trkpt>
      <trkpt lat="44.35028" lon="6.26082">
        <ele>1454.1</ele>
        <time>2022-06-27T15:18:08.000Z</time>
      </trkpt>
      <trkpt lat="44.35018" lon="6.26054">
        <ele>1453.4</ele>
        <time>2022-06-27T15:18:11.000Z</time>
      </trkpt>
      <trkpt lat="44.35008" lon="6.2603">
        <ele>1442.9</ele>
        <time>2022-06-27T15:18:14.000Z</time>
      </trkpt>
      <trkpt lat="44.35013" lon="6.26017">
        <ele>1438.8</ele>
        <time>2022-06-27T15:18:17.000Z</time>
      </trkpt>
      <trkpt lat="44.35027" lon="6.26012">
        <ele>1440</ele>
        <time>2022-06-27T15:18:20.000Z</time>
      </trkpt>
      <trkpt lat="44.35045" lon="6.26018">
        <ele>1437.3</ele>
        <time>2022-06-27T15:18:23.000Z</time>
      </trkpt>
      <trkpt lat="44.35062" lon="6.26011">
        <ele>1434.9</ele>
        <time>2022-06-27T15:18:26.000Z</time>
      </trkpt>
      <trkpt lat="44.35073" lon="6.25993">
        <ele>1435.3</ele>
        <time>2022-06-27T15:18:29.000Z</time>
      </trkpt>
      <trkpt lat="44.35065" lon="6.25957">
        <ele>1436.8</ele>
        <time>2022-06-27T15:18:35.000Z</time>
      </trkpt>
      <trkpt lat="44.35068" lon="6.25937">
        <ele>1433.3</ele>
        <time>2022-06-27T15:18:38.000Z</time>
      </trkpt>
      <trkpt lat="44.35069" lon="6.25918">
        <ele>1432.8</ele>
        <time>2022-06-27T15:18:41.000Z</time>
      </trkpt>
      <trkpt lat="44.35064" lon="6.25911">
        <ele>1432.4</ele>
        <time>2022-06-27T15:18:44.000Z</time>
      </trkpt>
      <trkpt lat="44.35063" lon="6.25899">
        <ele>1436.2</ele>
        <time>2022-06-27T15:18:47.000Z</time>
      </trkpt>
      <trkpt lat="44.35067" lon="6.2589">
        <ele>1437.1</ele>
        <time>2022-06-27T15:18:50.000Z</time>
      </trkpt>
      <trkpt lat="44.35073" lon="6.25883">
        <ele>1438.7</ele>
        <time>2022-06-27T15:18:53.000Z</time>
      </trkpt>
      <trkpt lat="44.35083" lon="6.2587">
        <ele>1435.3</ele>
        <time>2022-06-27T15:18:59.000Z</time>
      </trkpt>
      <trkpt lat="44.35093" lon="6.25863">
        <ele>1435.6</ele>
        <time>2022-06-27T15:19:02.000Z</time>
      </trkpt>
      <trkpt lat="44.35107" lon="6.25863">
        <ele>1434</ele>
        <time>2022-06-27T15:19:05.000Z</time>
      </trkpt>
      <trkpt lat="44.35131" lon="6.25875">
        <ele>1433.3</ele>
        <time>2022-06-27T15:19:08.000Z</time>
      </trkpt>
      <trkpt lat="44.35152" lon="6.25862">
        <ele>1430.5</ele>
        <time>2022-06-27T15:19:11.000Z</time>
      </trkpt>
      <trkpt lat="44.35167" lon="6.25837">
        <ele>1430.3</ele>
        <time>2022-06-27T15:19:14.000Z</time>
      </trkpt>
      <trkpt lat="44.35186" lon="6.25811">
        <ele>1430</ele>
        <time>2022-06-27T15:19:17.000Z</time>
      </trkpt>
      <trkpt lat="44.35203" lon="6.25794">
        <ele>1427.4</ele>
        <time>2022-06-27T15:19:20.000Z</time>
      </trkpt>
      <trkpt lat="44.35222" lon="6.25804">
        <ele>1426.7</ele>
        <time>2022-06-27T15:19:23.000Z</time>
      </trkpt>
      <trkpt lat="44.35245" lon="6.2582">
        <ele>1423.8</ele>
        <time>2022-06-27T15:19:26.000Z</time>
      </trkpt>
      <trkpt lat="44.35265" lon="6.25827">
        <ele>1424.7</ele>
        <time>2022-06-27T15:19:29.000Z</time>
      </trkpt>
      <trkpt lat="44.35275" lon="6.25838">
        <ele>1421.2</ele>
        <time>2022-06-27T15:19:32.000Z</time>
      </trkpt>
      <trkpt lat="44.35282" lon="6.2586">
        <ele>1419.3</ele>
        <time>2022-06-27T15:19:35.000Z</time>
      </trkpt>
      <trkpt lat="44.35297" lon="6.25867">
        <ele>1421.3</ele>
        <time>2022-06-27T15:19:38.000Z</time>
      </trkpt>
      <trkpt lat="44.35306" lon="6.25848">
        <ele>1420.2</ele>
        <time>2022-06-27T15:19:41.000Z</time>
      </trkpt>
      <trkpt lat="44.35306" lon="6.25822">
        <ele>1418.6</ele>
        <time>2022-06-27T15:19:44.000Z</time>
      </trkpt>
      <trkpt lat="44.35308" lon="6.25813">
        <ele>1417.1</ele>
        <time>2022-06-27T15:19:47.000Z</time>
      </trkpt>
      <trkpt lat="44.35315" lon="6.25785">
        <ele>1403</ele>
        <time>2022-06-27T15:19:50.000Z</time>
      </trkpt>
      <trkpt lat="44.35333" lon="6.2576">
        <ele>1403.2</ele>
        <time>2022-06-27T15:19:53.000Z</time>
      </trkpt>
      <trkpt lat="44.35352" lon="6.25749">
        <ele>1402.2</ele>
        <time>2022-06-27T15:19:56.000Z</time>
      </trkpt>
      <trkpt lat="44.3537" lon="6.25767">
        <ele>1398.8</ele>
        <time>2022-06-27T15:19:59.000Z</time>
      </trkpt>
      <trkpt lat="44.35384" lon="6.25797">
        <ele>1396.9</ele>
        <time>2022-06-27T15:20:02.000Z</time>
      </trkpt>
      <trkpt lat="44.35394" lon="6.25822">
        <ele>1393.9</ele>
        <time>2022-06-27T15:20:05.000Z</time>
      </trkpt>
      <trkpt lat="44.35412" lon="6.25839">
        <ele>1392.2</ele>
        <time>2022-06-27T15:20:08.000Z</time>
      </trkpt>
      <trkpt lat="44.35432" lon="6.25843">
        <ele>1391.9</ele>
        <time>2022-06-27T15:20:11.000Z</time>
      </trkpt>
      <trkpt lat="44.35453" lon="6.25828">
        <ele>1385.7</ele>
        <time>2022-06-27T15:20:14.000Z</time>
      </trkpt>
      <trkpt lat="44.35473" lon="6.25827">
        <ele>1380.4</ele>
        <time>2022-06-27T15:20:17.000Z</time>
      </trkpt>
      <trkpt lat="44.35486" lon="6.25839">
        <ele>1377.7</ele>
        <time>2022-06-27T15:20:20.000Z</time>
      </trkpt>
      <trkpt lat="44.35496" lon="6.25856">
        <ele>1376.2</ele>
        <time>2022-06-27T15:20:23.000Z</time>
      </trkpt>
      <trkpt lat="44.35504" lon="6.25868">
        <ele>1377.5</ele>
        <time>2022-06-27T15:20:26.000Z</time>
      </trkpt>
      <trkpt lat="44.35509" lon="6.25873">
        <ele>1375.4</ele>
        <time>2022-06-27T15:20:29.000Z</time>
      </trkpt>
      <trkpt lat="44.35516" lon="6.25879">
        <ele>1375.8</ele>
        <time>2022-06-27T15:20:32.000Z</time>
      </trkpt>
      <trkpt lat="44.35522" lon="6.2589">
        <ele>1375.3</ele>
        <time>2022-06-27T15:20:35.000Z</time>
      </trkpt>
      <trkpt lat="44.35526" lon="6.25897">
        <ele>1375.1</ele>
        <time>2022-06-27T15:20:38.000Z</time>
      </trkpt>
      <trkpt lat="44.35524" lon="6.25904">
        <ele>1376.5</ele>
        <time>2022-06-27T15:20:56.000Z</time>
      </trkpt>
      <trkpt lat="44.35519" lon="6.25903">
        <ele>1377.2</ele>
        <time>2022-06-27T15:21:00.000Z</time>
      </trkpt>
      <trkpt lat="44.35519" lon="6.25909">
        <ele>1376.7</ele>
        <time>2022-06-27T15:21:25.857Z</time>
      </trkpt>
      <trkpt lat="44.35528" lon="6.25921">
        <ele>1378.2</ele>
        <time>2022-06-27T15:21:29.560Z</time>
      </trkpt>
      <trkpt lat="44.35529" lon="6.25932">
        <ele>1378.2</ele>
        <time>2022-06-27T15:21:32.562Z</time>
      </trkpt>
      <trkpt lat="44.35529" lon="6.25941">
        <ele>1379.9</ele>
        <time>2022-06-27T15:21:35.416Z</time>
      </trkpt>
      <trkpt lat="44.35525" lon="6.25951">
        <ele>1379.8</ele>
        <time>2022-06-27T15:21:38.450Z</time>
      </trkpt>
      <trkpt lat="44.35529" lon="6.25964">
        <ele>1379.8</ele>
        <time>2022-06-27T15:21:41.579Z</time>
      </trkpt>
      <trkpt lat="44.35532" lon="6.25975">
        <ele>1382.1</ele>
        <time>2022-06-27T15:21:45.000Z</time>
      </trkpt>
      <trkpt lat="44.35536" lon="6.25987">
        <ele>1382.1</ele>
        <time>2022-06-27T15:21:47.570Z</time>
      </trkpt>
      <trkpt lat="44.35539" lon="6.25995">
        <ele>1380.6</ele>
        <time>2022-06-27T15:21:50.580Z</time>
      </trkpt>
      <trkpt lat="44.3554" lon="6.26004">
        <ele>1381.1</ele>
        <time>2022-06-27T15:21:54.000Z</time>
      </trkpt>
      <trkpt lat="44.35544" lon="6.26013">
        <ele>1383.5</ele>
        <time>2022-06-27T15:21:56.568Z</time>
      </trkpt>
      <trkpt lat="44.35549" lon="6.26031">
        <ele>1382.4</ele>
        <time>2022-06-27T15:21:59.556Z</time>
      </trkpt>
      <trkpt lat="44.35552" lon="6.26041">
        <ele>1385.5</ele>
        <time>2022-06-27T15:22:03.000Z</time>
      </trkpt>
      <trkpt lat="44.35557" lon="6.26049">
        <ele>1386.2</ele>
        <time>2022-06-27T15:22:05.571Z</time>
      </trkpt>
      <trkpt lat="44.35562" lon="6.26058">
        <ele>1386</ele>
        <time>2022-06-27T15:22:08.458Z</time>
      </trkpt>
      <trkpt lat="44.35565" lon="6.26069">
        <ele>1387.9</ele>
        <time>2022-06-27T15:22:11.168Z</time>
      </trkpt>
      <trkpt lat="44.35571" lon="6.26082">
        <ele>1389.2</ele>
        <time>2022-06-27T15:22:17.570Z</time>
      </trkpt>
      <trkpt lat="44.35572" lon="6.26091">
        <ele>1407.5</ele>
        <time>2022-06-27T15:22:20.556Z</time>
      </trkpt>
      <trkpt lat="44.35571" lon="6.26099">
        <ele>1405.8</ele>
        <time>2022-06-27T15:22:23.563Z</time>
      </trkpt>
      <trkpt lat="44.3557" lon="6.26109">
        <ele>1407.2</ele>
        <time>2022-06-27T15:22:26.566Z</time>
      </trkpt>
      <trkpt lat="44.35572" lon="6.26118">
        <ele>1410.2</ele>
        <time>2022-06-27T15:22:29.563Z</time>
      </trkpt>
      <trkpt lat="44.35577" lon="6.26126">
        <ele>1410.1</ele>
        <time>2022-06-27T15:22:32.577Z</time>
      </trkpt>
      <trkpt lat="44.35583" lon="6.26128">
        <ele>1408.7</ele>
        <time>2022-06-27T15:22:35.566Z</time>
      </trkpt>
      <trkpt lat="44.3559" lon="6.26127">
        <ele>1410.5</ele>
        <time>2022-06-27T15:22:38.440Z</time>
      </trkpt>
      <trkpt lat="44.35595" lon="6.26113">
        <ele>1412.1</ele>
        <time>2022-06-27T15:22:41.570Z</time>
      </trkpt>
      <trkpt lat="44.356" lon="6.26103">
        <ele>1412.1</ele>
        <time>2022-06-27T15:22:44.544Z</time>
      </trkpt>
      <trkpt lat="44.35607" lon="6.26094">
        <ele>1411.7</ele>
        <time>2022-06-27T15:22:47.577Z</time>
      </trkpt>
      <trkpt lat="44.35612" lon="6.26077">
        <ele>1411</ele>
        <time>2022-06-27T15:22:50.560Z</time>
      </trkpt>
      <trkpt lat="44.35623" lon="6.26066">
        <ele>1411.3</ele>
        <time>2022-06-27T15:22:53.575Z</time>
      </trkpt>
      <trkpt lat="44.35638" lon="6.26046">
        <ele>1414.2</ele>
        <time>2022-06-27T15:22:57.000Z</time>
      </trkpt>
      <trkpt lat="44.3565" lon="6.2604">
        <ele>1412.7</ele>
        <time>2022-06-27T15:23:00.000Z</time>
      </trkpt>
      <trkpt lat="44.3566" lon="6.26039">
        <ele>1412.7</ele>
        <time>2022-06-27T15:23:02.569Z</time>
      </trkpt>
      <trkpt lat="44.3568" lon="6.26024">
        <ele>1415.1</ele>
        <time>2022-06-27T15:23:06.000Z</time>
      </trkpt>
      <trkpt lat="44.3569" lon="6.26009">
        <ele>1411.9</ele>
        <time>2022-06-27T15:23:09.000Z</time>
      </trkpt>
      <trkpt lat="44.35687" lon="6.26001">
        <ele>1411.9</ele>
        <time>2022-06-27T15:23:11.566Z</time>
      </trkpt>
      <trkpt lat="44.35689" lon="6.25988">
        <ele>1410</ele>
        <time>2022-06-27T15:23:14.561Z</time>
      </trkpt>
      <trkpt lat="44.35696" lon="6.2597">
        <ele>1407.9</ele>
        <time>2022-06-27T15:23:17.615Z</time>
      </trkpt>
      <trkpt lat="44.3571" lon="6.25938">
        <ele>1409.1</ele>
        <time>2022-06-27T15:23:21.000Z</time>
      </trkpt>
      <trkpt lat="44.35716" lon="6.25916">
        <ele>1408.5</ele>
        <time>2022-06-27T15:23:24.000Z</time>
      </trkpt>
      <trkpt lat="44.35724" lon="6.25894">
        <ele>1404.1</ele>
        <time>2022-06-27T15:23:27.000Z</time>
      </trkpt>
      <trkpt lat="44.35733" lon="6.25877">
        <ele>1403.9</ele>
        <time>2022-06-27T15:23:30.000Z</time>
      </trkpt>
      <trkpt lat="44.3574" lon="6.25868">
        <ele>1405.8</ele>
        <time>2022-06-27T15:23:33.000Z</time>
      </trkpt>
      <trkpt lat="44.35742" lon="6.25854">
        <ele>1409</ele>
        <time>2022-06-27T15:23:36.000Z</time>
      </trkpt>
      <trkpt lat="44.35744" lon="6.25815">
        <ele>1413.2</ele>
        <time>2022-06-27T15:23:42.000Z</time>
      </trkpt>
      <trkpt lat="44.35747" lon="6.25795">
        <ele>1416.3</ele>
        <time>2022-06-27T15:23:45.000Z</time>
      </trkpt>
      <trkpt lat="44.35743" lon="6.25787">
        <ele>1417.5</ele>
        <time>2022-06-27T15:23:48.000Z</time>
      </trkpt>
      <trkpt lat="44.35745" lon="6.25768">
        <ele>1417.5</ele>
        <time>2022-06-27T15:23:50.567Z</time>
      </trkpt>
      <trkpt lat="44.35742" lon="6.25731">
        <ele>1421.4</ele>
        <time>2022-06-27T15:23:54.000Z</time>
      </trkpt>
      <trkpt lat="44.3574" lon="6.25712">
        <ele>1417.7</ele>
        <time>2022-06-27T15:23:57.000Z</time>
      </trkpt>
      <trkpt lat="44.35736" lon="6.25708">
        <ele>1417.7</ele>
        <time>2022-06-27T15:23:59.574Z</time>
      </trkpt>
      <trkpt lat="44.35736" lon="6.25695">
        <ele>1414.2</ele>
        <time>2022-06-27T15:24:02.565Z</time>
      </trkpt>
      <trkpt lat="44.35736" lon="6.25677">
        <ele>1414.5</ele>
        <time>2022-06-27T15:24:05.562Z</time>
      </trkpt>
      <trkpt lat="44.35734" lon="6.25662">
        <ele>1416.4</ele>
        <time>2022-06-27T15:24:08.485Z</time>
      </trkpt>
      <trkpt lat="44.35733" lon="6.25643">
        <ele>1417.8</ele>
        <time>2022-06-27T15:24:11.570Z</time>
      </trkpt>
      <trkpt lat="44.35735" lon="6.25621">
        <ele>1418.4</ele>
        <time>2022-06-27T15:24:14.576Z</time>
      </trkpt>
      <trkpt lat="44.35734" lon="6.25601">
        <ele>1419.3</ele>
        <time>2022-06-27T15:24:17.608Z</time>
      </trkpt>
      <trkpt lat="44.35732" lon="6.25585">
        <ele>1421.7</ele>
        <time>2022-06-27T15:24:21.000Z</time>
      </trkpt>
      <trkpt lat="44.35729" lon="6.25569">
        <ele>1421.7</ele>
        <time>2022-06-27T15:24:23.606Z</time>
      </trkpt>
      <trkpt lat="44.35727" lon="6.2555">
        <ele>1416.9</ele>
        <time>2022-06-27T15:24:26.556Z</time>
      </trkpt>
      <trkpt lat="44.35725" lon="6.25514">
        <ele>1415.6</ele>
        <time>2022-06-27T15:24:30.000Z</time>
      </trkpt>
      <trkpt lat="44.35725" lon="6.25507">
        <ele>1415.6</ele>
        <time>2022-06-27T15:24:32.567Z</time>
      </trkpt>
      <trkpt lat="44.35726" lon="6.2549">
        <ele>1413.8</ele>
        <time>2022-06-27T15:24:35.563Z</time>
      </trkpt>
      <trkpt lat="44.35728" lon="6.25472">
        <ele>1415.1</ele>
        <time>2022-06-27T15:24:38.376Z</time>
      </trkpt>
      <trkpt lat="44.35726" lon="6.25444">
        <ele>1417.2</ele>
        <time>2022-06-27T15:24:42.000Z</time>
      </trkpt>
      <trkpt lat="44.35726" lon="6.25425">
        <ele>1416.8</ele>
        <time>2022-06-27T15:24:45.000Z</time>
      </trkpt>
      <trkpt lat="44.35725" lon="6.25415">
        <ele>1416.8</ele>
        <time>2022-06-27T15:24:47.570Z</time>
      </trkpt>
      <trkpt lat="44.3572" lon="6.2541">
        <ele>1417.4</ele>
        <time>2022-06-27T15:24:50.565Z</time>
      </trkpt>
      <trkpt lat="44.35715" lon="6.25394">
        <ele>1418.7</ele>
        <time>2022-06-27T15:24:53.597Z</time>
      </trkpt>
      <trkpt lat="44.35713" lon="6.25375">
        <ele>1416.1</ele>
        <time>2022-06-27T15:24:56.563Z</time>
      </trkpt>
      <trkpt lat="44.35708" lon="6.25347">
        <ele>1414.2</ele>
        <time>2022-06-27T15:25:00.000Z</time>
      </trkpt>
      <trkpt lat="44.35707" lon="6.25332">
        <ele>1414.2</ele>
        <time>2022-06-27T15:25:02.577Z</time>
      </trkpt>
      <trkpt lat="44.35715" lon="6.25323">
        <ele>1413.6</ele>
        <time>2022-06-27T15:25:06.000Z</time>
      </trkpt>
      <trkpt lat="44.35724" lon="6.25311">
        <ele>1413.6</ele>
        <time>2022-06-27T15:25:08.515Z</time>
      </trkpt>
      <trkpt lat="44.35734" lon="6.25297">
        <ele>1414.3</ele>
        <time>2022-06-27T15:25:11.565Z</time>
      </trkpt>
      <trkpt lat="44.35734" lon="6.25277">
        <ele>1415.9</ele>
        <time>2022-06-27T15:25:14.572Z</time>
      </trkpt>
      <trkpt lat="44.35733" lon="6.25258">
        <ele>1413.6</ele>
        <time>2022-06-27T15:25:17.573Z</time>
      </trkpt>
      <trkpt lat="44.35741" lon="6.25244">
        <ele>1419</ele>
        <time>2022-06-27T15:25:20.580Z</time>
      </trkpt>
      <trkpt lat="44.35748" lon="6.25231">
        <ele>1419</ele>
        <time>2022-06-27T15:25:23.565Z</time>
      </trkpt>
      <trkpt lat="44.35754" lon="6.25215">
        <ele>1419.3</ele>
        <time>2022-06-27T15:25:27.000Z</time>
      </trkpt>
      <trkpt lat="44.35758" lon="6.25202">
        <ele>1419.3</ele>
        <time>2022-06-27T15:25:29.573Z</time>
      </trkpt>
      <trkpt lat="44.35762" lon="6.25192">
        <ele>1417.6</ele>
        <time>2022-06-27T15:25:32.579Z</time>
      </trkpt>
      <trkpt lat="44.35765" lon="6.25177">
        <ele>1418.5</ele>
        <time>2022-06-27T15:25:35.574Z</time>
      </trkpt>
      <trkpt lat="44.3577" lon="6.25151">
        <ele>1416.6</ele>
        <time>2022-06-27T15:25:39.000Z</time>
      </trkpt>
      <trkpt lat="44.35776" lon="6.25142">
        <ele>1416.6</ele>
        <time>2022-06-27T15:25:41.620Z</time>
      </trkpt>
      <trkpt lat="44.3578" lon="6.25125">
        <ele>1415.9</ele>
        <time>2022-06-27T15:25:44.327Z</time>
      </trkpt>
      <trkpt lat="44.35786" lon="6.25101">
        <ele>1415.6</ele>
        <time>2022-06-27T15:25:47.580Z</time>
      </trkpt>
      <trkpt lat="44.35792" lon="6.25083">
        <ele>1414</ele>
        <time>2022-06-27T15:25:50.570Z</time>
      </trkpt>
      <trkpt lat="44.35807" lon="6.2507">
        <ele>1414.9</ele>
        <time>2022-06-27T15:25:54.000Z</time>
      </trkpt>
      <trkpt lat="44.35819" lon="6.25055">
        <ele>1416</ele>
        <time>2022-06-27T15:25:57.000Z</time>
      </trkpt>
      <trkpt lat="44.35825" lon="6.25037">
        <ele>1418.6</ele>
        <time>2022-06-27T15:26:00.000Z</time>
      </trkpt>
      <trkpt lat="44.3582" lon="6.2503">
        <ele>1418.6</ele>
        <time>2022-06-27T15:26:02.573Z</time>
      </trkpt>
      <trkpt lat="44.35818" lon="6.25019">
        <ele>1419.7</ele>
        <time>2022-06-27T15:26:05.567Z</time>
      </trkpt>
      <trkpt lat="44.35815" lon="6.25">
        <ele>1424.7</ele>
        <time>2022-06-27T15:26:08.510Z</time>
      </trkpt>
      <trkpt lat="44.35819" lon="6.24971">
        <ele>1430.4</ele>
        <time>2022-06-27T15:26:12.000Z</time>
      </trkpt>
      <trkpt lat="44.35828" lon="6.24954">
        <ele>1430</ele>
        <time>2022-06-27T15:26:15.000Z</time>
      </trkpt>
      <trkpt lat="44.35825" lon="6.24946">
        <ele>1430</ele>
        <time>2022-06-27T15:26:17.577Z</time>
      </trkpt>
      <trkpt lat="44.35828" lon="6.24933">
        <ele>1429.4</ele>
        <time>2022-06-27T15:26:20.570Z</time>
      </trkpt>
      <trkpt lat="44.3583" lon="6.24899">
        <ele>1433.9</ele>
        <time>2022-06-27T15:26:24.000Z</time>
      </trkpt>
      <trkpt lat="44.35822" lon="6.24889">
        <ele>1433.9</ele>
        <time>2022-06-27T15:26:26.574Z</time>
      </trkpt>
      <trkpt lat="44.35825" lon="6.24874">
        <ele>1432.3</ele>
        <time>2022-06-27T15:26:29.573Z</time>
      </trkpt>
      <trkpt lat="44.35825" lon="6.24861">
        <ele>1434.1</ele>
        <time>2022-06-27T15:26:32.573Z</time>
      </trkpt>
      <trkpt lat="44.35822" lon="6.24849">
        <ele>1438.2</ele>
        <time>2022-06-27T15:26:35.576Z</time>
      </trkpt>
      <trkpt lat="44.35813" lon="6.24834">
        <ele>1436.1</ele>
        <time>2022-06-27T15:26:38.534Z</time>
      </trkpt>
      <trkpt lat="44.35803" lon="6.24816">
        <ele>1431.6</ele>
        <time>2022-06-27T15:26:41.564Z</time>
      </trkpt>
      <trkpt lat="44.35793" lon="6.24789">
        <ele>1427.7</ele>
        <time>2022-06-27T15:26:45.000Z</time>
      </trkpt>
      <trkpt lat="44.35788" lon="6.24778">
        <ele>1427.7</ele>
        <time>2022-06-27T15:26:47.587Z</time>
      </trkpt>
      <trkpt lat="44.35778" lon="6.24766">
        <ele>1423.3</ele>
        <time>2022-06-27T15:26:51.000Z</time>
      </trkpt>
      <trkpt lat="44.35764" lon="6.24761">
        <ele>1423.3</ele>
        <time>2022-06-27T15:26:53.565Z</time>
      </trkpt>
      <trkpt lat="44.3575" lon="6.24765">
        <ele>1423.6</ele>
        <time>2022-06-27T15:26:56.577Z</time>
      </trkpt>
      <trkpt lat="44.3572" lon="6.24778">
        <ele>1423.3</ele>
        <time>2022-06-27T15:27:00.000Z</time>
      </trkpt>
      <trkpt lat="44.35702" lon="6.24782">
        <ele>1426.2</ele>
        <time>2022-06-27T15:27:03.000Z</time>
      </trkpt>
      <trkpt lat="44.35688" lon="6.24785">
        <ele>1424.1</ele>
        <time>2022-06-27T15:27:06.000Z</time>
      </trkpt>
      <trkpt lat="44.3568" lon="6.24778">
        <ele>1422.5</ele>
        <time>2022-06-27T15:27:09.000Z</time>
      </trkpt>
      <trkpt lat="44.35678" lon="6.24769">
        <ele>1422.3</ele>
        <time>2022-06-27T15:27:12.000Z</time>
      </trkpt>
      <trkpt lat="44.3567" lon="6.24747">
        <ele>1421.2</ele>
        <time>2022-06-27T15:27:15.000Z</time>
      </trkpt>
      <trkpt lat="44.35664" lon="6.24724">
        <ele>1422</ele>
        <time>2022-06-27T15:27:18.000Z</time>
      </trkpt>
      <trkpt lat="44.35657" lon="6.24703">
        <ele>1422.6</ele>
        <time>2022-06-27T15:27:21.000Z</time>
      </trkpt>
      <trkpt lat="44.35645" lon="6.24689">
        <ele>1424.4</ele>
        <time>2022-06-27T15:27:24.000Z</time>
      </trkpt>
      <trkpt lat="44.35637" lon="6.24687">
        <ele>1426.9</ele>
        <time>2022-06-27T15:27:27.000Z</time>
      </trkpt>
      <trkpt lat="44.35615" lon="6.24683">
        <ele>1427.1</ele>
        <time>2022-06-27T15:27:30.000Z</time>
      </trkpt>
      <trkpt lat="44.35602" lon="6.24676">
        <ele>1427.1</ele>
        <time>2022-06-27T15:27:33.000Z</time>
      </trkpt>
      <trkpt lat="44.35605" lon="6.24666">
        <ele>1427.1</ele>
        <time>2022-06-27T15:27:35.562Z</time>
      </trkpt>
      <trkpt lat="44.35606" lon="6.24656">
        <ele>1429.4</ele>
        <time>2022-06-27T15:27:38.530Z</time>
      </trkpt>
      <trkpt lat="44.35602" lon="6.24636">
        <ele>1429.3</ele>
        <time>2022-06-27T15:27:41.562Z</time>
      </trkpt>
      <trkpt lat="44.35599" lon="6.24624">
        <ele>1432</ele>
        <time>2022-06-27T15:27:44.549Z</time>
      </trkpt>
      <trkpt lat="44.35591" lon="6.24617">
        <ele>1432.8</ele>
        <time>2022-06-27T15:27:47.574Z</time>
      </trkpt>
      <trkpt lat="44.35582" lon="6.24607">
        <ele>1435.5</ele>
        <time>2022-06-27T15:27:51.000Z</time>
      </trkpt>
      <trkpt lat="44.35568" lon="6.24608">
        <ele>1435.5</ele>
        <time>2022-06-27T15:27:53.604Z</time>
      </trkpt>
      <trkpt lat="44.35548" lon="6.24614">
        <ele>1439.7</ele>
        <time>2022-06-27T15:27:57.000Z</time>
      </trkpt>
      <trkpt lat="44.35534" lon="6.24617">
        <ele>1439.1</ele>
        <time>2022-06-27T15:28:00.000Z</time>
      </trkpt>
      <trkpt lat="44.35531" lon="6.24613">
        <ele>1439.1</ele>
        <time>2022-06-27T15:28:02.568Z</time>
      </trkpt>
      <trkpt lat="44.35526" lon="6.246">
        <ele>1438.6</ele>
        <time>2022-06-27T15:28:05.587Z</time>
      </trkpt>
      <trkpt lat="44.35522" lon="6.24584">
        <ele>1438.7</ele>
        <time>2022-06-27T15:28:08.539Z</time>
      </trkpt>
      <trkpt lat="44.35519" lon="6.24565">
        <ele>1438.2</ele>
        <time>2022-06-27T15:28:11.278Z</time>
      </trkpt>
      <trkpt lat="44.3552" lon="6.24547">
        <ele>1438.3</ele>
        <time>2022-06-27T15:28:14.545Z</time>
      </trkpt>
      <trkpt lat="44.35522" lon="6.24534">
        <ele>1441</ele>
        <time>2022-06-27T15:28:18.000Z</time>
      </trkpt>
      <trkpt lat="44.35525" lon="6.24519">
        <ele>1441</ele>
        <time>2022-06-27T15:28:20.248Z</time>
      </trkpt>
      <trkpt lat="44.35529" lon="6.24497">
        <ele>1442</ele>
        <time>2022-06-27T15:28:24.000Z</time>
      </trkpt>
      <trkpt lat="44.35533" lon="6.24478">
        <ele>1441.7</ele>
        <time>2022-06-27T15:28:27.000Z</time>
      </trkpt>
      <trkpt lat="44.35536" lon="6.24469">
        <ele>1441.7</ele>
        <time>2022-06-27T15:28:29.569Z</time>
      </trkpt>
      <trkpt lat="44.35547" lon="6.24455">
        <ele>1442.2</ele>
        <time>2022-06-27T15:28:32.569Z</time>
      </trkpt>
      <trkpt lat="44.35558" lon="6.24444">
        <ele>1442.3</ele>
        <time>2022-06-27T15:28:35.568Z</time>
      </trkpt>
      <trkpt lat="44.35568" lon="6.24432">
        <ele>1443.8</ele>
        <time>2022-06-27T15:28:38.606Z</time>
      </trkpt>
      <trkpt lat="44.3558" lon="6.24426">
        <ele>1444.9</ele>
        <time>2022-06-27T15:28:42.000Z</time>
      </trkpt>
      <trkpt lat="44.35584" lon="6.24413">
        <ele>1444.9</ele>
        <time>2022-06-27T15:28:44.370Z</time>
      </trkpt>
      <trkpt lat="44.3559" lon="6.24396">
        <ele>1449.7</ele>
        <time>2022-06-27T15:28:47.573Z</time>
      </trkpt>
      <trkpt lat="44.35601" lon="6.24395">
        <ele>1452.1</ele>
        <time>2022-06-27T15:28:50.556Z</time>
      </trkpt>
      <trkpt lat="44.35611" lon="6.2441">
        <ele>1455.8</ele>
        <time>2022-06-27T15:28:53.602Z</time>
      </trkpt>
      <trkpt lat="44.35626" lon="6.24412">
        <ele>1454.9</ele>
        <time>2022-06-27T15:28:56.548Z</time>
      </trkpt>
      <trkpt lat="44.35638" lon="6.24413">
        <ele>1455.7</ele>
        <time>2022-06-27T15:28:59.604Z</time>
      </trkpt>
      <trkpt lat="44.35645" lon="6.24418">
        <ele>1457.5</ele>
        <time>2022-06-27T15:29:02.575Z</time>
      </trkpt>
      <trkpt lat="44.35659" lon="6.24412">
        <ele>1457.5</ele>
        <time>2022-06-27T15:29:05.579Z</time>
      </trkpt>
      <trkpt lat="44.35664" lon="6.24398">
        <ele>1456</ele>
        <time>2022-06-27T15:29:08.570Z</time>
      </trkpt>
      <trkpt lat="44.35666" lon="6.24376">
        <ele>1459.3</ele>
        <time>2022-06-27T15:29:12.000Z</time>
      </trkpt>
      <trkpt lat="44.3567" lon="6.24363">
        <ele>1459.3</ele>
        <time>2022-06-27T15:29:14.575Z</time>
      </trkpt>
      <trkpt lat="44.35681" lon="6.24362">
        <ele>1463.3</ele>
        <time>2022-06-27T15:29:17.576Z</time>
      </trkpt>
      <trkpt lat="44.35693" lon="6.24353">
        <ele>1464.7</ele>
        <time>2022-06-27T15:29:20.569Z</time>
      </trkpt>
      <trkpt lat="44.35702" lon="6.24351">
        <ele>1464.7</ele>
        <time>2022-06-27T15:29:23.614Z</time>
      </trkpt>
      <trkpt lat="44.3571" lon="6.24347">
        <ele>1465.2</ele>
        <time>2022-06-27T15:29:26.561Z</time>
      </trkpt>
      <trkpt lat="44.35718" lon="6.24343">
        <ele>1466</ele>
        <time>2022-06-27T15:29:29.576Z</time>
      </trkpt>
      <trkpt lat="44.35727" lon="6.24341">
        <ele>1468.6</ele>
        <time>2022-06-27T15:29:32.621Z</time>
      </trkpt>
      <trkpt lat="44.35735" lon="6.24339">
        <ele>1470.8</ele>
        <time>2022-06-27T15:29:35.577Z</time>
      </trkpt>
      <trkpt lat="44.35739" lon="6.24329">
        <ele>1474.6</ele>
        <time>2022-06-27T15:29:38.571Z</time>
      </trkpt>
      <trkpt lat="44.35743" lon="6.2432">
        <ele>1471.8</ele>
        <time>2022-06-27T15:29:41.571Z</time>
      </trkpt>
      <trkpt lat="44.35745" lon="6.24308">
        <ele>1476.3</ele>
        <time>2022-06-27T15:29:44.551Z</time>
      </trkpt>
      <trkpt lat="44.35748" lon="6.24299">
        <ele>1474.6</ele>
        <time>2022-06-27T15:29:47.591Z</time>
      </trkpt>
      <trkpt lat="44.35755" lon="6.24296">
        <ele>1473.2</ele>
        <time>2022-06-27T15:29:50.577Z</time>
      </trkpt>
      <trkpt lat="44.35765" lon="6.24295">
        <ele>1475.3</ele>
        <time>2022-06-27T15:29:53.561Z</time>
      </trkpt>
      <trkpt lat="44.35775" lon="6.24294">
        <ele>1474.8</ele>
        <time>2022-06-27T15:29:56.564Z</time>
      </trkpt>
      <trkpt lat="44.35783" lon="6.24287">
        <ele>1474.6</ele>
        <time>2022-06-27T15:29:59.566Z</time>
      </trkpt>
      <trkpt lat="44.3579" lon="6.24275">
        <ele>1474.9</ele>
        <time>2022-06-27T15:30:02.569Z</time>
      </trkpt>
      <trkpt lat="44.35795" lon="6.24265">
        <ele>1475.2</ele>
        <time>2022-06-27T15:30:05.581Z</time>
      </trkpt>
      <trkpt lat="44.35799" lon="6.24257">
        <ele>1475.2</ele>
        <time>2022-06-27T15:30:08.579Z</time>
      </trkpt>
      <trkpt lat="44.35804" lon="6.24251">
        <ele>1475.3</ele>
        <time>2022-06-27T15:30:11.569Z</time>
      </trkpt>
      <trkpt lat="44.35811" lon="6.24247">
        <ele>1476.5</ele>
        <time>2022-06-27T15:30:14.606Z</time>
      </trkpt>
      <trkpt lat="44.35818" lon="6.24239">
        <ele>1476.4</ele>
        <time>2022-06-27T15:30:17.579Z</time>
      </trkpt>
      <trkpt lat="44.35824" lon="6.24234">
        <ele>1477.4</ele>
        <time>2022-06-27T15:30:21.000Z</time>
      </trkpt>
      <trkpt lat="44.35831" lon="6.24229">
        <ele>1477.4</ele>
        <time>2022-06-27T15:30:23.610Z</time>
      </trkpt>
      <trkpt lat="44.35837" lon="6.24222">
        <ele>1478.3</ele>
        <time>2022-06-27T15:30:26.569Z</time>
      </trkpt>
      <trkpt lat="44.3584" lon="6.24218">
        <ele>1480.2</ele>
        <time>2022-06-27T15:30:29.561Z</time>
      </trkpt>
      <trkpt lat="44.35843" lon="6.24212">
        <ele>1476.3</ele>
        <time>2022-06-27T15:30:32.609Z</time>
      </trkpt>
      <trkpt lat="44.35847" lon="6.24204">
        <ele>1478.3</ele>
        <time>2022-06-27T15:30:35.572Z</time>
      </trkpt>
      <trkpt lat="44.35852" lon="6.24191">
        <ele>1478.8</ele>
        <time>2022-06-27T15:30:39.577Z</time>
      </trkpt>
      <trkpt lat="44.35856" lon="6.24187">
        <ele>1479.5</ele>
        <time>2022-06-27T15:30:42.560Z</time>
      </trkpt>
      <trkpt lat="44.35862" lon="6.24175">
        <ele>1482.4</ele>
        <time>2022-06-27T15:30:45.576Z</time>
      </trkpt>
      <trkpt lat="44.35867" lon="6.24165">
        <ele>1482.8</ele>
        <time>2022-06-27T15:30:48.574Z</time>
      </trkpt>
      <trkpt lat="44.35873" lon="6.24153">
        <ele>1482.4</ele>
        <time>2022-06-27T15:30:51.581Z</time>
      </trkpt>
      <trkpt lat="44.35882" lon="6.24145">
        <ele>1482.2</ele>
        <time>2022-06-27T15:30:54.587Z</time>
      </trkpt>
      <trkpt lat="44.35886" lon="6.2414">
        <ele>1483.2</ele>
        <time>2022-06-27T15:30:57.570Z</time>
      </trkpt>
      <trkpt lat="44.35891" lon="6.24131">
        <ele>1484.3</ele>
        <time>2022-06-27T15:31:00.568Z</time>
      </trkpt>
      <trkpt lat="44.35892" lon="6.24118">
        <ele>1483.9</ele>
        <time>2022-06-27T15:31:03.570Z</time>
      </trkpt>
      <trkpt lat="44.35894" lon="6.24103">
        <ele>1484</ele>
        <time>2022-06-27T15:31:06.566Z</time>
      </trkpt>
      <trkpt lat="44.35899" lon="6.24091">
        <ele>1485.3</ele>
        <time>2022-06-27T15:31:09.561Z</time>
      </trkpt>
      <trkpt lat="44.35905" lon="6.2408">
        <ele>1486.6</ele>
        <time>2022-06-27T15:31:12.588Z</time>
      </trkpt>
      <trkpt lat="44.3591" lon="6.24069">
        <ele>1488.3</ele>
        <time>2022-06-27T15:31:15.584Z</time>
      </trkpt>
      <trkpt lat="44.3591" lon="6.24057">
        <ele>1489.1</ele>
        <time>2022-06-27T15:31:18.569Z</time>
      </trkpt>
      <trkpt lat="44.35909" lon="6.24044">
        <ele>1486.3</ele>
        <time>2022-06-27T15:31:21.622Z</time>
      </trkpt>
      <trkpt lat="44.35914" lon="6.24034">
        <ele>1485.8</ele>
        <time>2022-06-27T15:31:24.588Z</time>
      </trkpt>
      <trkpt lat="44.35918" lon="6.24021">
        <ele>1485.6</ele>
        <time>2022-06-27T15:31:27.582Z</time>
      </trkpt>
      <trkpt lat="44.35919" lon="6.24007">
        <ele>1487</ele>
        <time>2022-06-27T15:31:30.574Z</time>
      </trkpt>
      <trkpt lat="44.35919" lon="6.23993">
        <ele>1489.9</ele>
        <time>2022-06-27T15:31:33.576Z</time>
      </trkpt>
      <trkpt lat="44.3592" lon="6.23976">
        <ele>1489.5</ele>
        <time>2022-06-27T15:31:36.572Z</time>
      </trkpt>
      <trkpt lat="44.35921" lon="6.23962">
        <ele>1492.4</ele>
        <time>2022-06-27T15:31:39.577Z</time>
      </trkpt>
      <trkpt lat="44.35922" lon="6.23946">
        <ele>1493.9</ele>
        <time>2022-06-27T15:31:42.572Z</time>
      </trkpt>
      <trkpt lat="44.35924" lon="6.23929">
        <ele>1495.6</ele>
        <time>2022-06-27T15:31:45.586Z</time>
      </trkpt>
      <trkpt lat="44.35925" lon="6.23916">
        <ele>1497.5</ele>
        <time>2022-06-27T15:31:48.574Z</time>
      </trkpt>
      <trkpt lat="44.35925" lon="6.23908">
        <ele>1501.1</ele>
        <time>2022-06-27T15:31:51.579Z</time>
      </trkpt>
      <trkpt lat="44.35925" lon="6.23896">
        <ele>1501.4</ele>
        <time>2022-06-27T15:31:54.569Z</time>
      </trkpt>
      <trkpt lat="44.35927" lon="6.23878">
        <ele>1502.5</ele>
        <time>2022-06-27T15:31:57.620Z</time>
      </trkpt>
      <trkpt lat="44.35933" lon="6.23867">
        <ele>1501.8</ele>
        <time>2022-06-27T15:32:00.570Z</time>
      </trkpt>
      <trkpt lat="44.35929" lon="6.2385">
        <ele>1504.1</ele>
        <time>2022-06-27T15:32:03.573Z</time>
      </trkpt>
      <trkpt lat="44.35924" lon="6.23842">
        <ele>1502.3</ele>
        <time>2022-06-27T15:32:06.577Z</time>
      </trkpt>
      <trkpt lat="44.35914" lon="6.23831">
        <ele>1499.7</ele>
        <time>2022-06-27T15:32:09.565Z</time>
      </trkpt>
      <trkpt lat="44.35903" lon="6.23825">
        <ele>1500.4</ele>
        <time>2022-06-27T15:32:12.574Z</time>
      </trkpt>
      <trkpt lat="44.35896" lon="6.23817">
        <ele>1501.6</ele>
        <time>2022-06-27T15:32:15.566Z</time>
      </trkpt>
      <trkpt lat="44.35887" lon="6.23814">
        <ele>1504.9</ele>
        <time>2022-06-27T15:32:18.605Z</time>
      </trkpt>
      <trkpt lat="44.35875" lon="6.2382">
        <ele>1504.4</ele>
        <time>2022-06-27T15:32:21.560Z</time>
      </trkpt>
      <trkpt lat="44.35863" lon="6.23828">
        <ele>1507.1</ele>
        <time>2022-06-27T15:32:24.597Z</time>
      </trkpt>
      <trkpt lat="44.35851" lon="6.23833">
        <ele>1506.4</ele>
        <time>2022-06-27T15:32:27.581Z</time>
      </trkpt>
      <trkpt lat="44.35844" lon="6.23842">
        <ele>1507.7</ele>
        <time>2022-06-27T15:32:30.576Z</time>
      </trkpt>
      <trkpt lat="44.35835" lon="6.23854">
        <ele>1508.5</ele>
        <time>2022-06-27T15:32:33.576Z</time>
      </trkpt>
      <trkpt lat="44.35828" lon="6.23865">
        <ele>1512.5</ele>
        <time>2022-06-27T15:32:36.566Z</time>
      </trkpt>
      <trkpt lat="44.35822" lon="6.23876">
        <ele>1514.8</ele>
        <time>2022-06-27T15:32:39.573Z</time>
      </trkpt>
      <trkpt lat="44.35817" lon="6.23879">
        <ele>1518.6</ele>
        <time>2022-06-27T15:32:42.581Z</time>
      </trkpt>
      <trkpt lat="44.35807" lon="6.23879">
        <ele>1515.2</ele>
        <time>2022-06-27T15:32:45.571Z</time>
      </trkpt>
      <trkpt lat="44.35796" lon="6.23882">
        <ele>1514.7</ele>
        <time>2022-06-27T15:32:48.570Z</time>
      </trkpt>
      <trkpt lat="44.35786" lon="6.23887">
        <ele>1517.9</ele>
        <time>2022-06-27T15:32:51.564Z</time>
      </trkpt>
      <trkpt lat="44.35776" lon="6.23889">
        <ele>1517</ele>
        <time>2022-06-27T15:32:54.562Z</time>
      </trkpt>
      <trkpt lat="44.35768" lon="6.23887">
        <ele>1516.9</ele>
        <time>2022-06-27T15:32:57.577Z</time>
      </trkpt>
      <trkpt lat="44.35759" lon="6.23885">
        <ele>1514.2</ele>
        <time>2022-06-27T15:33:00.579Z</time>
      </trkpt>
      <trkpt lat="44.35749" lon="6.23882">
        <ele>1512.6</ele>
        <time>2022-06-27T15:33:03.620Z</time>
      </trkpt>
      <trkpt lat="44.35743" lon="6.23875">
        <ele>1512.8</ele>
        <time>2022-06-27T15:33:06.577Z</time>
      </trkpt>
      <trkpt lat="44.35737" lon="6.23865">
        <ele>1512.2</ele>
        <time>2022-06-27T15:33:09.579Z</time>
      </trkpt>
      <trkpt lat="44.35732" lon="6.23856">
        <ele>1513.1</ele>
        <time>2022-06-27T15:33:12.576Z</time>
      </trkpt>
      <trkpt lat="44.35727" lon="6.23845">
        <ele>1515.4</ele>
        <time>2022-06-27T15:33:15.566Z</time>
      </trkpt>
      <trkpt lat="44.35721" lon="6.23839">
        <ele>1515.4</ele>
        <time>2022-06-27T15:33:18.573Z</time>
      </trkpt>
      <trkpt lat="44.35712" lon="6.23836">
        <ele>1513.4</ele>
        <time>2022-06-27T15:33:21.576Z</time>
      </trkpt>
      <trkpt lat="44.35701" lon="6.23835">
        <ele>1512.7</ele>
        <time>2022-06-27T15:33:24.569Z</time>
      </trkpt>
      <trkpt lat="44.35691" lon="6.23834">
        <ele>1514.6</ele>
        <time>2022-06-27T15:33:27.618Z</time>
      </trkpt>
      <trkpt lat="44.35683" lon="6.23831">
        <ele>1517.2</ele>
        <time>2022-06-27T15:33:30.566Z</time>
      </trkpt>
      <trkpt lat="44.35678" lon="6.23828">
        <ele>1517.6</ele>
        <time>2022-06-27T15:33:33.607Z</time>
      </trkpt>
      <trkpt lat="44.35674" lon="6.23821">
        <ele>1523.5</ele>
        <time>2022-06-27T15:33:36.577Z</time>
      </trkpt>
      <trkpt lat="44.35665" lon="6.23814">
        <ele>1529.7</ele>
        <time>2022-06-27T15:33:42.570Z</time>
      </trkpt>
      <trkpt lat="44.35662" lon="6.23808">
        <ele>1529</ele>
        <time>2022-06-27T15:33:45.576Z</time>
      </trkpt>
      <trkpt lat="44.35662" lon="6.23801">
        <ele>1528.2</ele>
        <time>2022-06-27T15:33:48.578Z</time>
      </trkpt>
      <trkpt lat="44.35659" lon="6.23791">
        <ele>1527.9</ele>
        <time>2022-06-27T15:33:51.574Z</time>
      </trkpt>
      <trkpt lat="44.35653" lon="6.23783">
        <ele>1526.5</ele>
        <time>2022-06-27T15:33:54.573Z</time>
      </trkpt>
      <trkpt lat="44.35649" lon="6.23778">
        <ele>1529.2</ele>
        <time>2022-06-27T15:33:57.571Z</time>
      </trkpt>
      <trkpt lat="44.35643" lon="6.23773">
        <ele>1532.1</ele>
        <time>2022-06-27T15:34:00.587Z</time>
      </trkpt>
      <trkpt lat="44.35639" lon="6.23769">
        <ele>1534.7</ele>
        <time>2022-06-27T15:34:03.576Z</time>
      </trkpt>
      <trkpt lat="44.35636" lon="6.23763">
        <ele>1536</ele>
        <time>2022-06-27T15:34:06.583Z</time>
      </trkpt>
      <trkpt lat="44.35632" lon="6.23759">
        <ele>1536</ele>
        <time>2022-06-27T15:34:09.577Z</time>
      </trkpt>
      <trkpt lat="44.35629" lon="6.23754">
        <ele>1535.8</ele>
        <time>2022-06-27T15:34:12.575Z</time>
      </trkpt>
      <trkpt lat="44.35624" lon="6.23745">
        <ele>1538.4</ele>
        <time>2022-06-27T15:34:15.572Z</time>
      </trkpt>
      <trkpt lat="44.35622" lon="6.23737">
        <ele>1537.4</ele>
        <time>2022-06-27T15:34:18.572Z</time>
      </trkpt>
      <trkpt lat="44.3562" lon="6.23728">
        <ele>1536.3</ele>
        <time>2022-06-27T15:34:21.579Z</time>
      </trkpt>
      <trkpt lat="44.35616" lon="6.23721">
        <ele>1538.5</ele>
        <time>2022-06-27T15:34:24.577Z</time>
      </trkpt>
      <trkpt lat="44.35613" lon="6.23716">
        <ele>1538.8</ele>
        <time>2022-06-27T15:34:27.575Z</time>
      </trkpt>
      <trkpt lat="44.35607" lon="6.2371">
        <ele>1539.7</ele>
        <time>2022-06-27T15:34:30.580Z</time>
      </trkpt>
      <trkpt lat="44.35598" lon="6.23701">
        <ele>1539.5</ele>
        <time>2022-06-27T15:34:36.602Z</time>
      </trkpt>
      <trkpt lat="44.35593" lon="6.23696">
        <ele>1540.2</ele>
        <time>2022-06-27T15:34:39.572Z</time>
      </trkpt>
      <trkpt lat="44.35585" lon="6.23695">
        <ele>1538.3</ele>
        <time>2022-06-27T15:34:42.575Z</time>
      </trkpt>
      <trkpt lat="44.3558" lon="6.23693">
        <ele>1538.9</ele>
        <time>2022-06-27T15:34:45.577Z</time>
      </trkpt>
      <trkpt lat="44.35576" lon="6.23688">
        <ele>1538</ele>
        <time>2022-06-27T15:34:48.556Z</time>
      </trkpt>
      <trkpt lat="44.3557" lon="6.23683">
        <ele>1541.8</ele>
        <time>2022-06-27T15:34:51.578Z</time>
      </trkpt>
      <trkpt lat="44.35564" lon="6.23678">
        <ele>1545</ele>
        <time>2022-06-27T15:34:54.615Z</time>
      </trkpt>
      <trkpt lat="44.35556" lon="6.23681">
        <ele>1546.2</ele>
        <time>2022-06-27T15:34:57.576Z</time>
      </trkpt>
      <trkpt lat="44.35552" lon="6.23674">
        <ele>1545.1</ele>
        <time>2022-06-27T15:35:00.572Z</time>
      </trkpt>
      <trkpt lat="44.35551" lon="6.23664">
        <ele>1544.2</ele>
        <time>2022-06-27T15:35:03.583Z</time>
      </trkpt>
      <trkpt lat="44.35554" lon="6.23657">
        <ele>1544.1</ele>
        <time>2022-06-27T15:35:06.620Z</time>
      </trkpt>
      <trkpt lat="44.3556" lon="6.23653">
        <ele>1546.1</ele>
        <time>2022-06-27T15:35:09.580Z</time>
      </trkpt>
      <trkpt lat="44.35568" lon="6.2365">
        <ele>1548</ele>
        <time>2022-06-27T15:35:15.575Z</time>
      </trkpt>
      <trkpt lat="44.35576" lon="6.23651">
        <ele>1549.3</ele>
        <time>2022-06-27T15:35:19.578Z</time>
      </trkpt>
      <trkpt lat="44.35583" lon="6.2365">
        <ele>1552.3</ele>
        <time>2022-06-27T15:35:22.582Z</time>
      </trkpt>
      <trkpt lat="44.35589" lon="6.23649">
        <ele>1552.8</ele>
        <time>2022-06-27T15:35:25.570Z</time>
      </trkpt>
      <trkpt lat="44.35594" lon="6.23648">
        <ele>1554.4</ele>
        <time>2022-06-27T15:35:28.572Z</time>
      </trkpt>
      <trkpt lat="44.35599" lon="6.23643">
        <ele>1555.4</ele>
        <time>2022-06-27T15:35:31.573Z</time>
      </trkpt>
      <trkpt lat="44.35601" lon="6.23633">
        <ele>1556.5</ele>
        <time>2022-06-27T15:35:34.572Z</time>
      </trkpt>
      <trkpt lat="44.35601" lon="6.23623">
        <ele>1555.2</ele>
        <time>2022-06-27T15:35:37.571Z</time>
      </trkpt>
      <trkpt lat="44.356" lon="6.2361">
        <ele>1554.7</ele>
        <time>2022-06-27T15:35:41.564Z</time>
      </trkpt>
      <trkpt lat="44.35596" lon="6.23599">
        <ele>1557.8</ele>
        <time>2022-06-27T15:35:47.600Z</time>
      </trkpt>
      <trkpt lat="44.35593" lon="6.23588">
        <ele>1559.5</ele>
        <time>2022-06-27T15:35:50.571Z</time>
      </trkpt>
      <trkpt lat="44.35595" lon="6.23578">
        <ele>1557.7</ele>
        <time>2022-06-27T15:35:53.580Z</time>
      </trkpt>
      <trkpt lat="44.35595" lon="6.23568">
        <ele>1558.4</ele>
        <time>2022-06-27T15:35:56.569Z</time>
      </trkpt>
      <trkpt lat="44.3559" lon="6.23558">
        <ele>1558.7</ele>
        <time>2022-06-27T15:35:59.574Z</time>
      </trkpt>
      <trkpt lat="44.35585" lon="6.23549">
        <ele>1557.5</ele>
        <time>2022-06-27T15:36:02.580Z</time>
      </trkpt>
      <trkpt lat="44.35581" lon="6.23544">
        <ele>1555.9</ele>
        <time>2022-06-27T15:36:05.565Z</time>
      </trkpt>
      <trkpt lat="44.35578" lon="6.23536">
        <ele>1558.2</ele>
        <time>2022-06-27T15:36:08.568Z</time>
      </trkpt>
      <trkpt lat="44.35576" lon="6.23528">
        <ele>1558.3</ele>
        <time>2022-06-27T15:36:14.575Z</time>
      </trkpt>
      <trkpt lat="44.35576" lon="6.23513">
        <ele>1559.4</ele>
        <time>2022-06-27T15:36:17.574Z</time>
      </trkpt>
      <trkpt lat="44.35574" lon="6.23501">
        <ele>1563.4</ele>
        <time>2022-06-27T15:36:20.581Z</time>
      </trkpt>
      <trkpt lat="44.3557" lon="6.23491">
        <ele>1564.8</ele>
        <time>2022-06-27T15:36:23.560Z</time>
      </trkpt>
      <trkpt lat="44.35561" lon="6.23487">
        <ele>1563.9</ele>
        <time>2022-06-27T15:36:26.578Z</time>
      </trkpt>
      <trkpt lat="44.35549" lon="6.2349">
        <ele>1563.4</ele>
        <time>2022-06-27T15:36:29.573Z</time>
      </trkpt>
      <trkpt lat="44.35541" lon="6.23493">
        <ele>1566.6</ele>
        <time>2022-06-27T15:36:32.568Z</time>
      </trkpt>
      <trkpt lat="44.35535" lon="6.23497">
        <ele>1566</ele>
        <time>2022-06-27T15:36:35.593Z</time>
      </trkpt>
      <trkpt lat="44.35525" lon="6.23497">
        <ele>1571.3</ele>
        <time>2022-06-27T15:36:38.569Z</time>
      </trkpt>
      <trkpt lat="44.35518" lon="6.23493">
        <ele>1572.1</ele>
        <time>2022-06-27T15:36:41.574Z</time>
      </trkpt>
      <trkpt lat="44.35511" lon="6.23486">
        <ele>1572.7</ele>
        <time>2022-06-27T15:36:44.578Z</time>
      </trkpt>
      <trkpt lat="44.35504" lon="6.2348">
        <ele>1574.1</ele>
        <time>2022-06-27T15:36:47.570Z</time>
      </trkpt>
      <trkpt lat="44.35498" lon="6.23475">
        <ele>1574.4</ele>
        <time>2022-06-27T15:36:50.572Z</time>
      </trkpt>
      <trkpt lat="44.35491" lon="6.2347">
        <ele>1571.8</ele>
        <time>2022-06-27T15:36:54.053Z</time>
      </trkpt>
      <trkpt lat="44.35484" lon="6.2346">
        <ele>1571.6</ele>
        <time>2022-06-27T15:36:57.586Z</time>
      </trkpt>
      <trkpt lat="44.35479" lon="6.23443">
        <ele>1571.7</ele>
        <time>2022-06-27T15:37:03.000Z</time>
      </trkpt>
      <trkpt lat="44.35476" lon="6.23431">
        <ele>1567.2</ele>
        <time>2022-06-27T15:37:08.586Z</time>
      </trkpt>
      <trkpt lat="44.35478" lon="6.2342">
        <ele>1567.6</ele>
        <time>2022-06-27T15:37:11.574Z</time>
      </trkpt>
      <trkpt lat="44.35478" lon="6.23408">
        <ele>1568.1</ele>
        <time>2022-06-27T15:37:14.574Z</time>
      </trkpt>
      <trkpt lat="44.35477" lon="6.23387">
        <ele>1569.2</ele>
        <time>2022-06-27T15:37:18.568Z</time>
      </trkpt>
      <trkpt lat="44.35478" lon="6.23374">
        <ele>1570.1</ele>
        <time>2022-06-27T15:37:21.576Z</time>
      </trkpt>
      <trkpt lat="44.3548" lon="6.23362">
        <ele>1570.8</ele>
        <time>2022-06-27T15:37:24.578Z</time>
      </trkpt>
      <trkpt lat="44.35478" lon="6.23352">
        <ele>1572.9</ele>
        <time>2022-06-27T15:37:27.573Z</time>
      </trkpt>
      <trkpt lat="44.35481" lon="6.23342">
        <ele>1574.5</ele>
        <time>2022-06-27T15:37:30.570Z</time>
      </trkpt>
      <trkpt lat="44.35487" lon="6.23332">
        <ele>1574.1</ele>
        <time>2022-06-27T15:37:33.581Z</time>
      </trkpt>
      <trkpt lat="44.35496" lon="6.23324">
        <ele>1575.4</ele>
        <time>2022-06-27T15:37:36.570Z</time>
      </trkpt>
      <trkpt lat="44.35505" lon="6.23319">
        <ele>1578.9</ele>
        <time>2022-06-27T15:37:39.606Z</time>
      </trkpt>
      <trkpt lat="44.35513" lon="6.2331">
        <ele>1578.3</ele>
        <time>2022-06-27T15:37:42.575Z</time>
      </trkpt>
      <trkpt lat="44.35519" lon="6.23317">
        <ele>1582.5</ele>
        <time>2022-06-27T15:37:45.579Z</time>
      </trkpt>
      <trkpt lat="44.35528" lon="6.23312">
        <ele>1583.5</ele>
        <time>2022-06-27T15:37:48.570Z</time>
      </trkpt>
      <trkpt lat="44.35537" lon="6.23302">
        <ele>1584.7</ele>
        <time>2022-06-27T15:37:51.571Z</time>
      </trkpt>
      <trkpt lat="44.35543" lon="6.23312">
        <ele>1584.9</ele>
        <time>2022-06-27T15:37:54.567Z</time>
      </trkpt>
      <trkpt lat="44.35542" lon="6.23324">
        <ele>1585.5</ele>
        <time>2022-06-27T15:37:57.585Z</time>
      </trkpt>
      <trkpt lat="44.35533" lon="6.23336">
        <ele>1585.2</ele>
        <time>2022-06-27T15:38:00.576Z</time>
      </trkpt>
      <trkpt lat="44.35524" lon="6.23337">
        <ele>1587.2</ele>
        <time>2022-06-27T15:38:03.616Z</time>
      </trkpt>
      <trkpt lat="44.35519" lon="6.23346">
        <ele>1589</ele>
        <time>2022-06-27T15:38:06.576Z</time>
      </trkpt>
      <trkpt lat="44.35518" lon="6.23357">
        <ele>1592</ele>
        <time>2022-06-27T15:38:09.574Z</time>
      </trkpt>
      <trkpt lat="44.3552" lon="6.23368">
        <ele>1593.2</ele>
        <time>2022-06-27T15:38:12.581Z</time>
      </trkpt>
      <trkpt lat="44.35523" lon="6.2338">
        <ele>1593.3</ele>
        <time>2022-06-27T15:38:15.572Z</time>
      </trkpt>
      <trkpt lat="44.35524" lon="6.23389">
        <ele>1590.5</ele>
        <time>2022-06-27T15:38:18.572Z</time>
      </trkpt>
      <trkpt lat="44.35525" lon="6.23402">
        <ele>1590.7</ele>
        <time>2022-06-27T15:38:21.579Z</time>
      </trkpt>
      <trkpt lat="44.35529" lon="6.23415">
        <ele>1591.5</ele>
        <time>2022-06-27T15:38:24.572Z</time>
      </trkpt>
      <trkpt lat="44.35537" lon="6.2342">
        <ele>1594.1</ele>
        <time>2022-06-27T15:38:27.875Z</time>
      </trkpt>
      <trkpt lat="44.35546" lon="6.2342">
        <ele>1594.4</ele>
        <time>2022-06-27T15:38:31.003Z</time>
      </trkpt>
      <trkpt lat="44.35555" lon="6.23419">
        <ele>1596.9</ele>
        <time>2022-06-27T15:38:34.574Z</time>
      </trkpt>
      <trkpt lat="44.35561" lon="6.23414">
        <ele>1597.6</ele>
        <time>2022-06-27T15:38:37.578Z</time>
      </trkpt>
      <trkpt lat="44.35567" lon="6.23412">
        <ele>1600.6</ele>
        <time>2022-06-27T15:38:40.549Z</time>
      </trkpt>
      <trkpt lat="44.35577" lon="6.2341">
        <ele>1598.8</ele>
        <time>2022-06-27T15:38:44.557Z</time>
      </trkpt>
      <trkpt lat="44.35582" lon="6.23413">
        <ele>1599.8</ele>
        <time>2022-06-27T15:38:47.563Z</time>
      </trkpt>
      <trkpt lat="44.35589" lon="6.23423">
        <ele>1602.3</ele>
        <time>2022-06-27T15:38:50.562Z</time>
      </trkpt>
      <trkpt lat="44.35593" lon="6.23431">
        <ele>1602.7</ele>
        <time>2022-06-27T15:38:53.430Z</time>
      </trkpt>
      <trkpt lat="44.35599" lon="6.23436">
        <ele>1603.5</ele>
        <time>2022-06-27T15:38:56.564Z</time>
      </trkpt>
      <trkpt lat="44.35605" lon="6.23444">
        <ele>1602.8</ele>
        <time>2022-06-27T15:39:00.000Z</time>
      </trkpt>
      <trkpt lat="44.35612" lon="6.23455">
        <ele>1601.8</ele>
        <time>2022-06-27T15:39:02.803Z</time>
      </trkpt>
      <trkpt lat="44.35621" lon="6.23462">
        <ele>1600.5</ele>
        <time>2022-06-27T15:39:05.961Z</time>
      </trkpt>
      <trkpt lat="44.35632" lon="6.23468">
        <ele>1601.7</ele>
        <time>2022-06-27T15:39:09.001Z</time>
      </trkpt>
      <trkpt lat="44.35643" lon="6.23476">
        <ele>1604</ele>
        <time>2022-06-27T15:39:11.995Z</time>
      </trkpt>
      <trkpt lat="44.35655" lon="6.2348">
        <ele>1604.4</ele>
        <time>2022-06-27T15:39:15.305Z</time>
      </trkpt>
      <trkpt lat="44.35667" lon="6.23477">
        <ele>1606</ele>
        <time>2022-06-27T15:39:18.454Z</time>
      </trkpt>
      <trkpt lat="44.35677" lon="6.23477">
        <ele>1606.8</ele>
        <time>2022-06-27T15:39:21.763Z</time>
      </trkpt>
      <trkpt lat="44.35686" lon="6.23475">
        <ele>1607.9</ele>
        <time>2022-06-27T15:39:25.138Z</time>
      </trkpt>
      <trkpt lat="44.35696" lon="6.23476">
        <ele>1608.7</ele>
        <time>2022-06-27T15:39:28.636Z</time>
      </trkpt>
      <trkpt lat="44.35704" lon="6.23477">
        <ele>1611.1</ele>
        <time>2022-06-27T15:39:32.153Z</time>
      </trkpt>
      <trkpt lat="44.3571" lon="6.23479">
        <ele>1612.9</ele>
        <time>2022-06-27T15:39:34.879Z</time>
      </trkpt>
      <trkpt lat="44.35717" lon="6.23479">
        <ele>1611.5</ele>
        <time>2022-06-27T15:39:37.604Z</time>
      </trkpt>
      <trkpt lat="44.35724" lon="6.23477">
        <ele>1613.5</ele>
        <time>2022-06-27T15:39:40.570Z</time>
      </trkpt>
      <trkpt lat="44.35731" lon="6.23478">
        <ele>1614.9</ele>
        <time>2022-06-27T15:39:43.567Z</time>
      </trkpt>
      <trkpt lat="44.35738" lon="6.23482">
        <ele>1616.6</ele>
        <time>2022-06-27T15:39:46.572Z</time>
      </trkpt>
      <trkpt lat="44.35746" lon="6.23482">
        <ele>1617.7</ele>
        <time>2022-06-27T15:39:49.578Z</time>
      </trkpt>
      <trkpt lat="44.35755" lon="6.23482">
        <ele>1618.1</ele>
        <time>2022-06-27T15:39:52.559Z</time>
      </trkpt>
      <trkpt lat="44.35764" lon="6.23481">
        <ele>1618.2</ele>
        <time>2022-06-27T15:39:55.587Z</time>
      </trkpt>
      <trkpt lat="44.35773" lon="6.23476">
        <ele>1619.6</ele>
        <time>2022-06-27T15:39:58.566Z</time>
      </trkpt>
      <trkpt lat="44.3578" lon="6.2347">
        <ele>1621.5</ele>
        <time>2022-06-27T15:40:01.610Z</time>
      </trkpt>
      <trkpt lat="44.35786" lon="6.23469">
        <ele>1619.8</ele>
        <time>2022-06-27T15:40:04.571Z</time>
      </trkpt>
      <trkpt lat="44.35794" lon="6.23465">
        <ele>1621.7</ele>
        <time>2022-06-27T15:40:07.575Z</time>
      </trkpt>
      <trkpt lat="44.35799" lon="6.2346">
        <ele>1623.9</ele>
        <time>2022-06-27T15:40:10.579Z</time>
      </trkpt>
      <trkpt lat="44.35803" lon="6.23457">
        <ele>1624</ele>
        <time>2022-06-27T15:40:13.577Z</time>
      </trkpt>
      <trkpt lat="44.35813" lon="6.23454">
        <ele>1624.8</ele>
        <time>2022-06-27T15:40:16.571Z</time>
      </trkpt>
      <trkpt lat="44.35822" lon="6.23451">
        <ele>1622.7</ele>
        <time>2022-06-27T15:40:19.982Z</time>
      </trkpt>
      <trkpt lat="44.35832" lon="6.23453">
        <ele>1623.7</ele>
        <time>2022-06-27T15:40:23.565Z</time>
      </trkpt>
      <trkpt lat="44.35839" lon="6.2346">
        <ele>1625.2</ele>
        <time>2022-06-27T15:40:26.575Z</time>
      </trkpt>
      <trkpt lat="44.35847" lon="6.23467">
        <ele>1626.6</ele>
        <time>2022-06-27T15:40:29.560Z</time>
      </trkpt>
      <trkpt lat="44.35854" lon="6.23472">
        <ele>1627.9</ele>
        <time>2022-06-27T15:40:32.560Z</time>
      </trkpt>
      <trkpt lat="44.35863" lon="6.23476">
        <ele>1629.7</ele>
        <time>2022-06-27T15:40:35.564Z</time>
      </trkpt>
      <trkpt lat="44.35872" lon="6.23477">
        <ele>1630.5</ele>
        <time>2022-06-27T15:40:38.560Z</time>
      </trkpt>
      <trkpt lat="44.35879" lon="6.23483">
        <ele>1631.4</ele>
        <time>2022-06-27T15:40:41.576Z</time>
      </trkpt>
      <trkpt lat="44.35886" lon="6.23486">
        <ele>1632.5</ele>
        <time>2022-06-27T15:40:44.572Z</time>
      </trkpt>
      <trkpt lat="44.35895" lon="6.23489">
        <ele>1633</ele>
        <time>2022-06-27T15:40:47.582Z</time>
      </trkpt>
      <trkpt lat="44.35901" lon="6.23493">
        <ele>1633</ele>
        <time>2022-06-27T15:40:50.618Z</time>
      </trkpt>
      <trkpt lat="44.35908" lon="6.23492">
        <ele>1633.7</ele>
        <time>2022-06-27T15:40:53.574Z</time>
      </trkpt>
      <trkpt lat="44.35915" lon="6.23492">
        <ele>1633.4</ele>
        <time>2022-06-27T15:40:56.572Z</time>
      </trkpt>
      <trkpt lat="44.35925" lon="6.23488">
        <ele>1636.1</ele>
        <time>2022-06-27T15:41:00.559Z</time>
      </trkpt>
      <trkpt lat="44.35934" lon="6.23491">
        <ele>1637.2</ele>
        <time>2022-06-27T15:41:03.569Z</time>
      </trkpt>
      <trkpt lat="44.35937" lon="6.23504">
        <ele>1638.1</ele>
        <time>2022-06-27T15:41:06.578Z</time>
      </trkpt>
      <trkpt lat="44.35935" lon="6.23512">
        <ele>1638.8</ele>
        <time>2022-06-27T15:41:09.571Z</time>
      </trkpt>
      <trkpt lat="44.35936" lon="6.23527">
        <ele>1638.3</ele>
        <time>2022-06-27T15:41:15.575Z</time>
      </trkpt>
      <trkpt lat="44.35941" lon="6.23539">
        <ele>1639.9</ele>
        <time>2022-06-27T15:41:18.615Z</time>
      </trkpt>
      <trkpt lat="44.35944" lon="6.23547">
        <ele>1638.8</ele>
        <time>2022-06-27T15:41:21.575Z</time>
      </trkpt>
      <trkpt lat="44.35949" lon="6.23557">
        <ele>1640.8</ele>
        <time>2022-06-27T15:41:24.576Z</time>
      </trkpt>
      <trkpt lat="44.35954" lon="6.2357">
        <ele>1641.9</ele>
        <time>2022-06-27T15:41:28.569Z</time>
      </trkpt>
      <trkpt lat="44.35962" lon="6.23578">
        <ele>1642.4</ele>
        <time>2022-06-27T15:41:31.581Z</time>
      </trkpt>
      <trkpt lat="44.35971" lon="6.23584">
        <ele>1644</ele>
        <time>2022-06-27T15:41:34.571Z</time>
      </trkpt>
      <trkpt lat="44.35981" lon="6.23588">
        <ele>1644.7</ele>
        <time>2022-06-27T15:41:37.610Z</time>
      </trkpt>
      <trkpt lat="44.35988" lon="6.23595">
        <ele>1647.1</ele>
        <time>2022-06-27T15:41:40.578Z</time>
      </trkpt>
      <trkpt lat="44.35995" lon="6.236">
        <ele>1647.9</ele>
        <time>2022-06-27T15:41:43.575Z</time>
      </trkpt>
      <trkpt lat="44.36002" lon="6.23606">
        <ele>1649</ele>
        <time>2022-06-27T15:41:46.566Z</time>
      </trkpt>
      <trkpt lat="44.36009" lon="6.23613">
        <ele>1650.4</ele>
        <time>2022-06-27T15:41:49.572Z</time>
      </trkpt>
      <trkpt lat="44.36014" lon="6.2362">
        <ele>1651.3</ele>
        <time>2022-06-27T15:41:52.603Z</time>
      </trkpt>
      <trkpt lat="44.36019" lon="6.2363">
        <ele>1652.6</ele>
        <time>2022-06-27T15:41:55.584Z</time>
      </trkpt>
      <trkpt lat="44.36023" lon="6.23638">
        <ele>1654.3</ele>
        <time>2022-06-27T15:41:58.580Z</time>
      </trkpt>
      <trkpt lat="44.3603" lon="6.23644">
        <ele>1654.9</ele>
        <time>2022-06-27T15:42:01.579Z</time>
      </trkpt>
      <trkpt lat="44.36036" lon="6.2365">
        <ele>1655.5</ele>
        <time>2022-06-27T15:42:04.568Z</time>
      </trkpt>
      <trkpt lat="44.36043" lon="6.23653">
        <ele>1657.3</ele>
        <time>2022-06-27T15:42:07.570Z</time>
      </trkpt>
      <trkpt lat="44.3605" lon="6.2365">
        <ele>1658.7</ele>
        <time>2022-06-27T15:42:10.574Z</time>
      </trkpt>
      <trkpt lat="44.36056" lon="6.23646">
        <ele>1659</ele>
        <time>2022-06-27T15:42:13.583Z</time>
      </trkpt>
      <trkpt lat="44.36063" lon="6.23644">
        <ele>1660.2</ele>
        <time>2022-06-27T15:42:16.571Z</time>
      </trkpt>
      <trkpt lat="44.36071" lon="6.23643">
        <ele>1660.2</ele>
        <time>2022-06-27T15:42:19.576Z</time>
      </trkpt>
      <trkpt lat="44.3608" lon="6.23645">
        <ele>1660.4</ele>
        <time>2022-06-27T15:42:22.585Z</time>
      </trkpt>
      <trkpt lat="44.36088" lon="6.23647">
        <ele>1662.9</ele>
        <time>2022-06-27T15:42:25.576Z</time>
      </trkpt>
      <trkpt lat="44.36095" lon="6.23648">
        <ele>1662.7</ele>
        <time>2022-06-27T15:42:28.571Z</time>
      </trkpt>
      <trkpt lat="44.36102" lon="6.23647">
        <ele>1663.1</ele>
        <time>2022-06-27T15:42:31.571Z</time>
      </trkpt>
      <trkpt lat="44.36109" lon="6.23649">
        <ele>1664</ele>
        <time>2022-06-27T15:42:34.569Z</time>
      </trkpt>
      <trkpt lat="44.36117" lon="6.23652">
        <ele>1665.6</ele>
        <time>2022-06-27T15:42:37.574Z</time>
      </trkpt>
      <trkpt lat="44.36124" lon="6.23653">
        <ele>1666.1</ele>
        <time>2022-06-27T15:42:40.616Z</time>
      </trkpt>
      <trkpt lat="44.36131" lon="6.23655">
        <ele>1666.4</ele>
        <time>2022-06-27T15:42:43.573Z</time>
      </trkpt>
      <trkpt lat="44.36139" lon="6.23658">
        <ele>1665.8</ele>
        <time>2022-06-27T15:42:46.575Z</time>
      </trkpt>
      <trkpt lat="44.36135" lon="6.23665">
        <ele>1671.2</ele>
        <time>2022-06-27T15:42:52.568Z</time>
      </trkpt>
      <trkpt lat="44.36127" lon="6.23673">
        <ele>1672.7</ele>
        <time>2022-06-27T15:42:55.575Z</time>
      </trkpt>
      <trkpt lat="44.36124" lon="6.23683">
        <ele>1676.7</ele>
        <time>2022-06-27T15:42:58.579Z</time>
      </trkpt>
      <trkpt lat="44.36125" lon="6.23691">
        <ele>1675.6</ele>
        <time>2022-06-27T15:43:01.580Z</time>
      </trkpt>
      <trkpt lat="44.36129" lon="6.23702">
        <ele>1674.1</ele>
        <time>2022-06-27T15:43:04.569Z</time>
      </trkpt>
      <trkpt lat="44.36136" lon="6.23717">
        <ele>1670</ele>
        <time>2022-06-27T15:43:07.720Z</time>
      </trkpt>
      <trkpt lat="44.36142" lon="6.2373">
        <ele>1672.7</ele>
        <time>2022-06-27T15:43:10.614Z</time>
      </trkpt>
      <trkpt lat="44.36152" lon="6.2374">
        <ele>1670.9</ele>
        <time>2022-06-27T15:43:14.578Z</time>
      </trkpt>
      <trkpt lat="44.36162" lon="6.23745">
        <ele>1669.5</ele>
        <time>2022-06-27T15:43:17.594Z</time>
      </trkpt>
      <trkpt lat="44.36173" lon="6.23749">
        <ele>1670.7</ele>
        <time>2022-06-27T15:43:20.580Z</time>
      </trkpt>
      <trkpt lat="44.36184" lon="6.23747">
        <ele>1671.3</ele>
        <time>2022-06-27T15:43:23.578Z</time>
      </trkpt>
      <trkpt lat="44.36196" lon="6.23752">
        <ele>1668.4</ele>
        <time>2022-06-27T15:43:27.574Z</time>
      </trkpt>
      <trkpt lat="44.36218" lon="6.23755">
        <ele>1672.5</ele>
        <time>2022-06-27T15:43:33.000Z</time>
      </trkpt>
      <trkpt lat="44.36226" lon="6.23756">
        <ele>1672.5</ele>
        <time>2022-06-27T15:43:35.573Z</time>
      </trkpt>
      <trkpt lat="44.36238" lon="6.23761">
        <ele>1670.1</ele>
        <time>2022-06-27T15:43:38.567Z</time>
      </trkpt>
      <trkpt lat="44.36254" lon="6.23757">
        <ele>1677.4</ele>
        <time>2022-06-27T15:43:42.000Z</time>
      </trkpt>
      <trkpt lat="44.36266" lon="6.23752">
        <ele>1679.3</ele>
        <time>2022-06-27T15:43:45.000Z</time>
      </trkpt>
      <trkpt lat="44.36275" lon="6.23744">
        <ele>1679.3</ele>
        <time>2022-06-27T15:43:47.584Z</time>
      </trkpt>
      <trkpt lat="44.36279" lon="6.23748">
        <ele>1680.1</ele>
        <time>2022-06-27T15:43:50.578Z</time>
      </trkpt>
      <trkpt lat="44.36282" lon="6.23754">
        <ele>1681</ele>
        <time>2022-06-27T15:43:53.574Z</time>
      </trkpt>
      <trkpt lat="44.36295" lon="6.23756">
        <ele>1681.3</ele>
        <time>2022-06-27T15:43:56.574Z</time>
      </trkpt>
      <trkpt lat="44.36315" lon="6.23742">
        <ele>1678.3</ele>
        <time>2022-06-27T15:44:00.000Z</time>
      </trkpt>
      <trkpt lat="44.36326" lon="6.23742">
        <ele>1678.3</ele>
        <time>2022-06-27T15:44:02.579Z</time>
      </trkpt>
      <trkpt lat="44.36337" lon="6.23743">
        <ele>1674.8</ele>
        <time>2022-06-27T15:44:06.000Z</time>
      </trkpt>
      <trkpt lat="44.36344" lon="6.23749">
        <ele>1674.8</ele>
        <time>2022-06-27T15:44:08.568Z</time>
      </trkpt>
      <trkpt lat="44.3635" lon="6.23751">
        <ele>1674.1</ele>
        <time>2022-06-27T15:44:12.000Z</time>
      </trkpt>
      <trkpt lat="44.36357" lon="6.23749">
        <ele>1672.6</ele>
        <time>2022-06-27T15:44:15.000Z</time>
      </trkpt>
      <trkpt lat="44.36358" lon="6.23743">
        <ele>1676.4</ele>
        <time>2022-06-27T15:44:36.000Z</time>
      </trkpt>
      <trkpt lat="44.36338" lon="6.23767">
        <ele>1691.7</ele>
        <time>2022-06-27T15:45:27.000Z</time>
      </trkpt>
      <trkpt lat="44.36291" lon="6.23845">
        <ele>1673.1</ele>
        <time>2022-06-27T15:45:33.000Z</time>
      </trkpt>
      <trkpt lat="44.3628" lon="6.23863">
        <ele>1673.1</ele>
        <time>2022-06-27T15:45:36.000Z</time>
      </trkpt>
      <trkpt lat="44.36272" lon="6.23881">
        <ele>1670.8</ele>
        <time>2022-06-27T15:45:39.000Z</time>
      </trkpt>
      <trkpt lat="44.36268" lon="6.23892">
        <ele>1669.9</ele>
        <time>2022-06-27T15:45:42.000Z</time>
      </trkpt>
      <trkpt lat="44.3626" lon="6.23905">
        <ele>1670</ele>
        <time>2022-06-27T15:45:45.000Z</time>
      </trkpt>
      <trkpt lat="44.36258" lon="6.23917">
        <ele>1670</ele>
        <time>2022-06-27T15:45:47.404Z</time>
      </trkpt>
      <trkpt lat="44.36249" lon="6.23922">
        <ele>1662.1</ele>
        <time>2022-06-27T15:45:51.000Z</time>
      </trkpt>
      <trkpt lat="44.36239" lon="6.23933">
        <ele>1663.2</ele>
        <time>2022-06-27T15:45:54.000Z</time>
      </trkpt>
      <trkpt lat="44.36231" lon="6.23945">
        <ele>1663.2</ele>
        <time>2022-06-27T15:45:56.555Z</time>
      </trkpt>
      <trkpt lat="44.36225" lon="6.23958">
        <ele>1653.8</ele>
        <time>2022-06-27T15:45:59.553Z</time>
      </trkpt>
      <trkpt lat="44.3622" lon="6.23971">
        <ele>1660.6</ele>
        <time>2022-06-27T15:46:02.564Z</time>
      </trkpt>
      <trkpt lat="44.36219" lon="6.23982">
        <ele>1668.7</ele>
        <time>2022-06-27T15:46:05.578Z</time>
      </trkpt>
      <trkpt lat="44.36213" lon="6.23989">
        <ele>1668.8</ele>
        <time>2022-06-27T15:46:08.549Z</time>
      </trkpt>
      <trkpt lat="44.36207" lon="6.2399">
        <ele>1667.7</ele>
        <time>2022-06-27T15:46:11.556Z</time>
      </trkpt>
      <trkpt lat="44.36201" lon="6.23991">
        <ele>1670.9</ele>
        <time>2022-06-27T15:46:14.487Z</time>
      </trkpt>
      <trkpt lat="44.36194" lon="6.23997">
        <ele>1674.9</ele>
        <time>2022-06-27T15:46:17.553Z</time>
      </trkpt>
      <trkpt lat="44.36187" lon="6.24007">
        <ele>1671.8</ele>
        <time>2022-06-27T15:46:20.547Z</time>
      </trkpt>
      <trkpt lat="44.36183" lon="6.24013">
        <ele>1675.6</ele>
        <time>2022-06-27T15:46:23.568Z</time>
      </trkpt>
      <trkpt lat="44.36177" lon="6.2402">
        <ele>1686.8</ele>
        <time>2022-06-27T15:46:26.550Z</time>
      </trkpt>
      <trkpt lat="44.36172" lon="6.24027">
        <ele>1684</ele>
        <time>2022-06-27T15:46:29.571Z</time>
      </trkpt>
      <trkpt lat="44.36166" lon="6.24028">
        <ele>1673.1</ele>
        <time>2022-06-27T15:46:33.000Z</time>
      </trkpt>
      <trkpt lat="44.36161" lon="6.24032">
        <ele>1673.1</ele>
        <time>2022-06-27T15:46:35.554Z</time>
      </trkpt>
      <trkpt lat="44.36157" lon="6.24039">
        <ele>1682</ele>
        <time>2022-06-27T15:46:38.559Z</time>
      </trkpt>
      <trkpt lat="44.36154" lon="6.24045">
        <ele>1685.9</ele>
        <time>2022-06-27T15:46:41.558Z</time>
      </trkpt>
      <trkpt lat="44.36147" lon="6.24047">
        <ele>1698.1</ele>
        <time>2022-06-27T15:46:44.569Z</time>
      </trkpt>
      <trkpt lat="44.36143" lon="6.24052">
        <ele>1692.9</ele>
        <time>2022-06-27T15:46:47.556Z</time>
      </trkpt>
      <trkpt lat="44.36137" lon="6.24057">
        <ele>1693.2</ele>
        <time>2022-06-27T15:46:50.559Z</time>
      </trkpt>
      <trkpt lat="44.36134" lon="6.24065">
        <ele>1694.7</ele>
        <time>2022-06-27T15:46:54.000Z</time>
      </trkpt>
      <trkpt lat="44.36132" lon="6.24076">
        <ele>1694.7</ele>
        <time>2022-06-27T15:46:56.556Z</time>
      </trkpt>
      <trkpt lat="44.36135" lon="6.24088">
        <ele>1693.4</ele>
        <time>2022-06-27T15:46:59.558Z</time>
      </trkpt>
      <trkpt lat="44.36132" lon="6.24095">
        <ele>1694.1</ele>
        <time>2022-06-27T15:47:02.555Z</time>
      </trkpt>
      <trkpt lat="44.36127" lon="6.24102">
        <ele>1694.9</ele>
        <time>2022-06-27T15:47:05.563Z</time>
      </trkpt>
      <trkpt lat="44.36124" lon="6.24111">
        <ele>1699.4</ele>
        <time>2022-06-27T15:47:08.557Z</time>
      </trkpt>
      <trkpt lat="44.36122" lon="6.24121">
        <ele>1696.9</ele>
        <time>2022-06-27T15:47:11.567Z</time>
      </trkpt>
      <trkpt lat="44.36119" lon="6.24129">
        <ele>1698.7</ele>
        <time>2022-06-27T15:47:14.567Z</time>
      </trkpt>
      <trkpt lat="44.36117" lon="6.24137">
        <ele>1698.7</ele>
        <time>2022-06-27T15:47:17.565Z</time>
      </trkpt>
      <trkpt lat="44.36116" lon="6.24147">
        <ele>1701.1</ele>
        <time>2022-06-27T15:47:20.565Z</time>
      </trkpt>
      <trkpt lat="44.36115" lon="6.24159">
        <ele>1701.8</ele>
        <time>2022-06-27T15:47:23.569Z</time>
      </trkpt>
      <trkpt lat="44.36115" lon="6.24171">
        <ele>1699.6</ele>
        <time>2022-06-27T15:47:26.562Z</time>
      </trkpt>
      <trkpt lat="44.36117" lon="6.24183">
        <ele>1691.2</ele>
        <time>2022-06-27T15:47:30.037Z</time>
      </trkpt>
      <trkpt lat="44.36114" lon="6.24198">
        <ele>1698.8</ele>
        <time>2022-06-27T15:47:33.547Z</time>
      </trkpt>
      <trkpt lat="44.36114" lon="6.24214">
        <ele>1702</ele>
        <time>2022-06-27T15:47:36.954Z</time>
      </trkpt>
      <trkpt lat="44.36111" lon="6.24222">
        <ele>1703.9</ele>
        <time>2022-06-27T15:47:40.558Z</time>
      </trkpt>
      <trkpt lat="44.36107" lon="6.24231">
        <ele>1705.2</ele>
        <time>2022-06-27T15:47:43.562Z</time>
      </trkpt>
      <trkpt lat="44.36104" lon="6.24241">
        <ele>1710.3</ele>
        <time>2022-06-27T15:47:46.553Z</time>
      </trkpt>
      <trkpt lat="44.36101" lon="6.2425">
        <ele>1708.1</ele>
        <time>2022-06-27T15:47:49.514Z</time>
      </trkpt>
      <trkpt lat="44.36099" lon="6.24259">
        <ele>1710.9</ele>
        <time>2022-06-27T15:47:52.399Z</time>
      </trkpt>
      <trkpt lat="44.36095" lon="6.24271">
        <ele>1710.2</ele>
        <time>2022-06-27T15:47:55.552Z</time>
      </trkpt>
      <trkpt lat="44.36085" lon="6.24294">
        <ele>1714.2</ele>
        <time>2022-06-27T15:47:59.556Z</time>
      </trkpt>
      <trkpt lat="44.36078" lon="6.24321">
        <ele>1713.6</ele>
        <time>2022-06-27T15:48:03.000Z</time>
      </trkpt>
      <trkpt lat="44.36071" lon="6.24348">
        <ele>1712</ele>
        <time>2022-06-27T15:48:06.000Z</time>
      </trkpt>
      <trkpt lat="44.36064" lon="6.2438">
        <ele>1711.1</ele>
        <time>2022-06-27T15:48:09.000Z</time>
      </trkpt>
      <trkpt lat="44.36055" lon="6.24413">
        <ele>1708.9</ele>
        <time>2022-06-27T15:48:12.000Z</time>
      </trkpt>
      <trkpt lat="44.36045" lon="6.24445">
        <ele>1706.6</ele>
        <time>2022-06-27T15:48:15.000Z</time>
      </trkpt>
      <trkpt lat="44.36034" lon="6.24471">
        <ele>1705.5</ele>
        <time>2022-06-27T15:48:18.000Z</time>
      </trkpt>
      <trkpt lat="44.3602" lon="6.24492">
        <ele>1705.6</ele>
        <time>2022-06-27T15:48:21.000Z</time>
      </trkpt>
      <trkpt lat="44.36011" lon="6.24507">
        <ele>1685.5</ele>
        <time>2022-06-27T15:48:24.000Z</time>
      </trkpt>
      <trkpt lat="44.3601" lon="6.24517">
        <ele>1695.4</ele>
        <time>2022-06-27T15:48:27.000Z</time>
      </trkpt>
      <trkpt lat="44.36009" lon="6.24546">
        <ele>1694.7</ele>
        <time>2022-06-27T15:48:30.000Z</time>
      </trkpt>
      <trkpt lat="44.36016" lon="6.24568">
        <ele>1691.3</ele>
        <time>2022-06-27T15:48:33.000Z</time>
      </trkpt>
      <trkpt lat="44.36031" lon="6.24586">
        <ele>1691.2</ele>
        <time>2022-06-27T15:48:36.000Z</time>
      </trkpt>
      <trkpt lat="44.36045" lon="6.24595">
        <ele>1688.1</ele>
        <time>2022-06-27T15:48:39.000Z</time>
      </trkpt>
      <trkpt lat="44.36051" lon="6.24593">
        <ele>1684.5</ele>
        <time>2022-06-27T15:48:42.000Z</time>
      </trkpt>
      <trkpt lat="44.36067" lon="6.24604">
        <ele>1680.3</ele>
        <time>2022-06-27T15:48:45.000Z</time>
      </trkpt>
      <trkpt lat="44.36069" lon="6.24624">
        <ele>1679.2</ele>
        <time>2022-06-27T15:48:48.000Z</time>
      </trkpt>
      <trkpt lat="44.36071" lon="6.2465">
        <ele>1676.3</ele>
        <time>2022-06-27T15:48:51.000Z</time>
      </trkpt>
      <trkpt lat="44.36077" lon="6.24678">
        <ele>1674.6</ele>
        <time>2022-06-27T15:48:54.000Z</time>
      </trkpt>
      <trkpt lat="44.36086" lon="6.24711">
        <ele>1667.8</ele>
        <time>2022-06-27T15:48:57.000Z</time>
      </trkpt>
      <trkpt lat="44.3609" lon="6.24744">
        <ele>1664.6</ele>
        <time>2022-06-27T15:49:00.000Z</time>
      </trkpt>
      <trkpt lat="44.36096" lon="6.24777">
        <ele>1660.2</ele>
        <time>2022-06-27T15:49:03.000Z</time>
      </trkpt>
      <trkpt lat="44.36097" lon="6.24805">
        <ele>1656.6</ele>
        <time>2022-06-27T15:49:06.000Z</time>
      </trkpt>
      <trkpt lat="44.36091" lon="6.24841">
        <ele>1658.3</ele>
        <time>2022-06-27T15:49:09.000Z</time>
      </trkpt>
      <trkpt lat="44.36089" lon="6.24881">
        <ele>1653.5</ele>
        <time>2022-06-27T15:49:12.000Z</time>
      </trkpt>
      <trkpt lat="44.36081" lon="6.24915">
        <ele>1652.7</ele>
        <time>2022-06-27T15:49:15.000Z</time>
      </trkpt>
      <trkpt lat="44.36073" lon="6.24951">
        <ele>1651.6</ele>
        <time>2022-06-27T15:49:18.000Z</time>
      </trkpt>
      <trkpt lat="44.36068" lon="6.24982">
        <ele>1650.1</ele>
        <time>2022-06-27T15:49:21.000Z</time>
      </trkpt>
      <trkpt lat="44.3606" lon="6.25011">
        <ele>1648.1</ele>
        <time>2022-06-27T15:49:24.000Z</time>
      </trkpt>
      <trkpt lat="44.36054" lon="6.25062">
        <ele>1640.2</ele>
        <time>2022-06-27T15:49:27.000Z</time>
      </trkpt>
      <trkpt lat="44.36052" lon="6.25102">
        <ele>1636.4</ele>
        <time>2022-06-27T15:49:30.000Z</time>
      </trkpt>
      <trkpt lat="44.36046" lon="6.25133">
        <ele>1636.8</ele>
        <time>2022-06-27T15:49:33.000Z</time>
      </trkpt>
      <trkpt lat="44.36035" lon="6.25151">
        <ele>1635.9</ele>
        <time>2022-06-27T15:49:36.000Z</time>
      </trkpt>
      <trkpt lat="44.36027" lon="6.25171">
        <ele>1636.4</ele>
        <time>2022-06-27T15:49:39.000Z</time>
      </trkpt>
      <trkpt lat="44.36026" lon="6.25182">
        <ele>1636.9</ele>
        <time>2022-06-27T15:49:42.000Z</time>
      </trkpt>
      <trkpt lat="44.3602" lon="6.25201">
        <ele>1639.6</ele>
        <time>2022-06-27T15:49:45.000Z</time>
      </trkpt>
      <trkpt lat="44.36015" lon="6.25209">
        <ele>1639.6</ele>
        <time>2022-06-27T15:49:47.564Z</time>
      </trkpt>
      <trkpt lat="44.36011" lon="6.25218">
        <ele>1640.9</ele>
        <time>2022-06-27T15:49:50.562Z</time>
      </trkpt>
      <trkpt lat="44.35997" lon="6.25259">
        <ele>1639.1</ele>
        <time>2022-06-27T15:49:54.000Z</time>
      </trkpt>
      <trkpt lat="44.35987" lon="6.25293">
        <ele>1638.4</ele>
        <time>2022-06-27T15:49:57.000Z</time>
      </trkpt>
      <trkpt lat="44.35989" lon="6.2533">
        <ele>1632.8</ele>
        <time>2022-06-27T15:50:00.000Z</time>
      </trkpt>
      <trkpt lat="44.35996" lon="6.25356">
        <ele>1630.5</ele>
        <time>2022-06-27T15:50:03.000Z</time>
      </trkpt>
      <trkpt lat="44.35998" lon="6.25364">
        <ele>1628.7</ele>
        <time>2022-06-27T15:50:06.000Z</time>
      </trkpt>
      <trkpt lat="44.36002" lon="6.25378">
        <ele>1628.7</ele>
        <time>2022-06-27T15:50:08.564Z</time>
      </trkpt>
      <trkpt lat="44.36001" lon="6.25405">
        <ele>1632.2</ele>
        <time>2022-06-27T15:50:12.000Z</time>
      </trkpt>
      <trkpt lat="44.36005" lon="6.25415">
        <ele>1632.2</ele>
        <time>2022-06-27T15:50:14.458Z</time>
      </trkpt>
      <trkpt lat="44.35999" lon="6.2543">
        <ele>1655.7</ele>
        <time>2022-06-27T15:50:17.564Z</time>
      </trkpt>
      <trkpt lat="44.35994" lon="6.25448">
        <ele>1640.4</ele>
        <time>2022-06-27T15:50:20.557Z</time>
      </trkpt>
      <trkpt lat="44.35993" lon="6.25478">
        <ele>1636.3</ele>
        <time>2022-06-27T15:50:24.000Z</time>
      </trkpt>
      <trkpt lat="44.35985" lon="6.25491">
        <ele>1636.3</ele>
        <time>2022-06-27T15:50:26.557Z</time>
      </trkpt>
      <trkpt lat="44.35975" lon="6.25521">
        <ele>1634.1</ele>
        <time>2022-06-27T15:50:30.000Z</time>
      </trkpt>
      <trkpt lat="44.35966" lon="6.25527">
        <ele>1634.1</ele>
        <time>2022-06-27T15:50:32.554Z</time>
      </trkpt>
      <trkpt lat="44.35971" lon="6.25564">
        <ele>1625.2</ele>
        <time>2022-06-27T15:50:36.000Z</time>
      </trkpt>
      <trkpt lat="44.35971" lon="6.25579">
        <ele>1625.2</ele>
        <time>2022-06-27T15:50:38.566Z</time>
      </trkpt>
      <trkpt lat="44.35999" lon="6.25608">
        <ele>1617.3</ele>
        <time>2022-06-27T15:50:42.000Z</time>
      </trkpt>
      <trkpt lat="44.36008" lon="6.25635">
        <ele>1616.7</ele>
        <time>2022-06-27T15:50:45.000Z</time>
      </trkpt>
      <trkpt lat="44.36008" lon="6.25675">
        <ele>1617.6</ele>
        <time>2022-06-27T15:50:48.000Z</time>
      </trkpt>
      <trkpt lat="44.36004" lon="6.25713">
        <ele>1612.2</ele>
        <time>2022-06-27T15:50:51.000Z</time>
      </trkpt>
      <trkpt lat="44.36001" lon="6.25751">
        <ele>1610.9</ele>
        <time>2022-06-27T15:50:54.000Z</time>
      </trkpt>
      <trkpt lat="44.35995" lon="6.25786">
        <ele>1610</ele>
        <time>2022-06-27T15:50:57.000Z</time>
      </trkpt>
      <trkpt lat="44.35986" lon="6.25821">
        <ele>1608.6</ele>
        <time>2022-06-27T15:51:00.000Z</time>
      </trkpt>
      <trkpt lat="44.35983" lon="6.25858">
        <ele>1606.1</ele>
        <time>2022-06-27T15:51:03.000Z</time>
      </trkpt>
      <trkpt lat="44.35981" lon="6.25893">
        <ele>1606.4</ele>
        <time>2022-06-27T15:51:06.000Z</time>
      </trkpt>
      <trkpt lat="44.3598" lon="6.25925">
        <ele>1605.7</ele>
        <time>2022-06-27T15:51:09.000Z</time>
      </trkpt>
      <trkpt lat="44.35983" lon="6.25955">
        <ele>1602.8</ele>
        <time>2022-06-27T15:51:12.000Z</time>
      </trkpt>
      <trkpt lat="44.35983" lon="6.25963">
        <ele>1604.6</ele>
        <time>2022-06-27T15:51:15.000Z</time>
      </trkpt>
      <trkpt lat="44.35981" lon="6.25975">
        <ele>1607.8</ele>
        <time>2022-06-27T15:51:18.000Z</time>
      </trkpt>
      <trkpt lat="44.35977" lon="6.25983">
        <ele>1609.1</ele>
        <time>2022-06-27T15:51:21.000Z</time>
      </trkpt>
      <trkpt lat="44.35974" lon="6.26002">
        <ele>1608</ele>
        <time>2022-06-27T15:51:26.552Z</time>
      </trkpt>
      <trkpt lat="44.35965" lon="6.26021">
        <ele>1605.8</ele>
        <time>2022-06-27T15:51:29.598Z</time>
      </trkpt>
      <trkpt lat="44.35957" lon="6.26032">
        <ele>1605.6</ele>
        <time>2022-06-27T15:51:32.598Z</time>
      </trkpt>
      <trkpt lat="44.35957" lon="6.26053">
        <ele>1608.9</ele>
        <time>2022-06-27T15:51:35.555Z</time>
      </trkpt>
      <trkpt lat="44.35947" lon="6.26085">
        <ele>1609.9</ele>
        <time>2022-06-27T15:51:39.000Z</time>
      </trkpt>
      <trkpt lat="44.35936" lon="6.26112">
        <ele>1609.2</ele>
        <time>2022-06-27T15:51:42.000Z</time>
      </trkpt>
      <trkpt lat="44.35929" lon="6.2614">
        <ele>1612.6</ele>
        <time>2022-06-27T15:51:45.000Z</time>
      </trkpt>
      <trkpt lat="44.35925" lon="6.26163">
        <ele>1612.2</ele>
        <time>2022-06-27T15:51:48.000Z</time>
      </trkpt>
      <trkpt lat="44.35922" lon="6.26173">
        <ele>1612.2</ele>
        <time>2022-06-27T15:51:50.554Z</time>
      </trkpt>
      <trkpt lat="44.35909" lon="6.26197">
        <ele>1611</ele>
        <time>2022-06-27T15:51:54.000Z</time>
      </trkpt>
      <trkpt lat="44.35898" lon="6.26211">
        <ele>1611.1</ele>
        <time>2022-06-27T15:51:57.000Z</time>
      </trkpt>
      <trkpt lat="44.35893" lon="6.26224">
        <ele>1609.8</ele>
        <time>2022-06-27T15:52:00.000Z</time>
      </trkpt>
      <trkpt lat="44.35881" lon="6.26242">
        <ele>1608.4</ele>
        <time>2022-06-27T15:52:03.000Z</time>
      </trkpt>
      <trkpt lat="44.35865" lon="6.2626">
        <ele>1609.7</ele>
        <time>2022-06-27T15:52:06.000Z</time>
      </trkpt>
      <trkpt lat="44.35849" lon="6.26284">
        <ele>1612.3</ele>
        <time>2022-06-27T15:52:09.000Z</time>
      </trkpt>
      <trkpt lat="44.35833" lon="6.26302">
        <ele>1612.1</ele>
        <time>2022-06-27T15:52:12.000Z</time>
      </trkpt>
      <trkpt lat="44.35824" lon="6.26323">
        <ele>1614.7</ele>
        <time>2022-06-27T15:52:15.000Z</time>
      </trkpt>
      <trkpt lat="44.35822" lon="6.26336">
        <ele>1614</ele>
        <time>2022-06-27T15:52:18.000Z</time>
      </trkpt>
      <trkpt lat="44.35816" lon="6.26352">
        <ele>1611.1</ele>
        <time>2022-06-27T15:52:21.000Z</time>
      </trkpt>
      <trkpt lat="44.35807" lon="6.26361">
        <ele>1611.1</ele>
        <time>2022-06-27T15:52:23.559Z</time>
      </trkpt>
      <trkpt lat="44.35791" lon="6.26387">
        <ele>1612.6</ele>
        <time>2022-06-27T15:52:27.000Z</time>
      </trkpt>
      <trkpt lat="44.35778" lon="6.26405">
        <ele>1611.8</ele>
        <time>2022-06-27T15:52:30.000Z</time>
      </trkpt>
      <trkpt lat="44.35765" lon="6.26418">
        <ele>1622.6</ele>
        <time>2022-06-27T15:52:33.000Z</time>
      </trkpt>
      <trkpt lat="44.3575" lon="6.26428">
        <ele>1615.7</ele>
        <time>2022-06-27T15:52:36.000Z</time>
      </trkpt>
      <trkpt lat="44.35739" lon="6.26438">
        <ele>1612.2</ele>
        <time>2022-06-27T15:52:39.000Z</time>
      </trkpt>
      <trkpt lat="44.35733" lon="6.26444">
        <ele>1608.4</ele>
        <time>2022-06-27T15:52:42.000Z</time>
      </trkpt>
      <trkpt lat="44.35715" lon="6.26458">
        <ele>1609.8</ele>
        <time>2022-06-27T15:52:45.000Z</time>
      </trkpt>
      <trkpt lat="44.35712" lon="6.2647">
        <ele>1609.8</ele>
        <time>2022-06-27T15:52:47.547Z</time>
      </trkpt>
      <trkpt lat="44.35703" lon="6.2647">
        <ele>1609.8</ele>
        <time>2022-06-27T15:52:50.600Z</time>
      </trkpt>
      <trkpt lat="44.35697" lon="6.26474">
        <ele>1610.7</ele>
        <time>2022-06-27T15:52:54.000Z</time>
      </trkpt>
      <trkpt lat="44.35701" lon="6.26469">
        <ele>1605.9</ele>
        <time>2022-06-27T15:53:03.000Z</time>
      </trkpt>
      <trkpt lat="44.35703" lon="6.26476">
        <ele>1605.7</ele>
        <time>2022-06-27T15:53:06.000Z</time>
      </trkpt>
      <trkpt lat="44.357" lon="6.26481">
        <ele>1607</ele>
        <time>2022-06-27T15:53:23.561Z</time>
      </trkpt>
      <trkpt lat="44.35692" lon="6.26489">
        <ele>1610</ele>
        <time>2022-06-27T15:53:26.561Z</time>
      </trkpt>
      <trkpt lat="44.35682" lon="6.26497">
        <ele>1613.5</ele>
        <time>2022-06-27T15:53:29.559Z</time>
      </trkpt>
      <trkpt lat="44.35671" lon="6.2651">
        <ele>1612.9</ele>
        <time>2022-06-27T15:53:32.554Z</time>
      </trkpt>
      <trkpt lat="44.35662" lon="6.26526">
        <ele>1610.9</ele>
        <time>2022-06-27T15:53:35.599Z</time>
      </trkpt>
      <trkpt lat="44.35656" lon="6.26541">
        <ele>1610.6</ele>
        <time>2022-06-27T15:53:38.564Z</time>
      </trkpt>
      <trkpt lat="44.35652" lon="6.26556">
        <ele>1610.4</ele>
        <time>2022-06-27T15:53:41.554Z</time>
      </trkpt>
      <trkpt lat="44.35646" lon="6.26569">
        <ele>1611</ele>
        <time>2022-06-27T15:53:44.551Z</time>
      </trkpt>
      <trkpt lat="44.35638" lon="6.26578">
        <ele>1610</ele>
        <time>2022-06-27T15:53:47.561Z</time>
      </trkpt>
      <trkpt lat="44.3563" lon="6.26586">
        <ele>1612.8</ele>
        <time>2022-06-27T15:53:50.557Z</time>
      </trkpt>
      <trkpt lat="44.35621" lon="6.26597">
        <ele>1614</ele>
        <time>2022-06-27T15:53:53.569Z</time>
      </trkpt>
      <trkpt lat="44.35614" lon="6.2661">
        <ele>1615</ele>
        <time>2022-06-27T15:53:56.567Z</time>
      </trkpt>
      <trkpt lat="44.35606" lon="6.26623">
        <ele>1611</ele>
        <time>2022-06-27T15:53:59.564Z</time>
      </trkpt>
      <trkpt lat="44.35599" lon="6.26636">
        <ele>1612.9</ele>
        <time>2022-06-27T15:54:02.595Z</time>
      </trkpt>
      <trkpt lat="44.35595" lon="6.26647">
        <ele>1615.8</ele>
        <time>2022-06-27T15:54:05.557Z</time>
      </trkpt>
      <trkpt lat="44.35592" lon="6.26658">
        <ele>1616.9</ele>
        <time>2022-06-27T15:54:08.556Z</time>
      </trkpt>
      <trkpt lat="44.35589" lon="6.26669">
        <ele>1619.4</ele>
        <time>2022-06-27T15:54:11.605Z</time>
      </trkpt>
      <trkpt lat="44.35584" lon="6.26682">
        <ele>1621.1</ele>
        <time>2022-06-27T15:54:14.561Z</time>
      </trkpt>
      <trkpt lat="44.35578" lon="6.26691">
        <ele>1621.1</ele>
        <time>2022-06-27T15:54:17.552Z</time>
      </trkpt>
      <trkpt lat="44.35573" lon="6.26699">
        <ele>1622.7</ele>
        <time>2022-06-27T15:54:20.561Z</time>
      </trkpt>
      <trkpt lat="44.35566" lon="6.26709">
        <ele>1623.2</ele>
        <time>2022-06-27T15:54:23.593Z</time>
      </trkpt>
      <trkpt lat="44.35558" lon="6.2672">
        <ele>1623</ele>
        <time>2022-06-27T15:54:26.559Z</time>
      </trkpt>
      <trkpt lat="44.35551" lon="6.26727">
        <ele>1626</ele>
        <time>2022-06-27T15:54:29.565Z</time>
      </trkpt>
      <trkpt lat="44.35545" lon="6.26736">
        <ele>1624.5</ele>
        <time>2022-06-27T15:54:32.558Z</time>
      </trkpt>
      <trkpt lat="44.35539" lon="6.2675">
        <ele>1623.1</ele>
        <time>2022-06-27T15:54:35.560Z</time>
      </trkpt>
      <trkpt lat="44.35533" lon="6.26767">
        <ele>1623.6</ele>
        <time>2022-06-27T15:54:38.569Z</time>
      </trkpt>
      <trkpt lat="44.35525" lon="6.2678">
        <ele>1624.6</ele>
        <time>2022-06-27T15:54:41.557Z</time>
      </trkpt>
      <trkpt lat="44.35518" lon="6.26794">
        <ele>1626.9</ele>
        <time>2022-06-27T15:54:44.561Z</time>
      </trkpt>
      <trkpt lat="44.35512" lon="6.2681">
        <ele>1627.7</ele>
        <time>2022-06-27T15:54:47.565Z</time>
      </trkpt>
      <trkpt lat="44.35509" lon="6.2682">
        <ele>1631.7</ele>
        <time>2022-06-27T15:54:50.559Z</time>
      </trkpt>
      <trkpt lat="44.35504" lon="6.26834">
        <ele>1632.2</ele>
        <time>2022-06-27T15:54:53.561Z</time>
      </trkpt>
      <trkpt lat="44.35495" lon="6.26846">
        <ele>1633.2</ele>
        <time>2022-06-27T15:54:56.558Z</time>
      </trkpt>
      <trkpt lat="44.3549" lon="6.26855">
        <ele>1633.6</ele>
        <time>2022-06-27T15:54:59.588Z</time>
      </trkpt>
      <trkpt lat="44.35485" lon="6.26869">
        <ele>1635.5</ele>
        <time>2022-06-27T15:55:02.546Z</time>
      </trkpt>
      <trkpt lat="44.35478" lon="6.26881">
        <ele>1634.5</ele>
        <time>2022-06-27T15:55:05.568Z</time>
      </trkpt>
      <trkpt lat="44.35471" lon="6.26893">
        <ele>1630.9</ele>
        <time>2022-06-27T15:55:08.563Z</time>
      </trkpt>
      <trkpt lat="44.35464" lon="6.26905">
        <ele>1630.7</ele>
        <time>2022-06-27T15:55:11.566Z</time>
      </trkpt>
      <trkpt lat="44.35456" lon="6.26916">
        <ele>1632.2</ele>
        <time>2022-06-27T15:55:14.562Z</time>
      </trkpt>
      <trkpt lat="44.35448" lon="6.26925">
        <ele>1635.2</ele>
        <time>2022-06-27T15:55:17.559Z</time>
      </trkpt>
      <trkpt lat="44.35441" lon="6.26935">
        <ele>1636.5</ele>
        <time>2022-06-27T15:55:20.550Z</time>
      </trkpt>
      <trkpt lat="44.35434" lon="6.26946">
        <ele>1632.9</ele>
        <time>2022-06-27T15:55:23.566Z</time>
      </trkpt>
      <trkpt lat="44.35425" lon="6.26956">
        <ele>1631.9</ele>
        <time>2022-06-27T15:55:26.598Z</time>
      </trkpt>
      <trkpt lat="44.35415" lon="6.26965">
        <ele>1634.7</ele>
        <time>2022-06-27T15:55:29.562Z</time>
      </trkpt>
      <trkpt lat="44.35405" lon="6.26978">
        <ele>1636</ele>
        <time>2022-06-27T15:55:32.562Z</time>
      </trkpt>
      <trkpt lat="44.35399" lon="6.26995">
        <ele>1636.9</ele>
        <time>2022-06-27T15:55:36.000Z</time>
      </trkpt>
      <trkpt lat="44.35393" lon="6.27012">
        <ele>1636.9</ele>
        <time>2022-06-27T15:55:38.566Z</time>
      </trkpt>
      <trkpt lat="44.35388" lon="6.27021">
        <ele>1635.5</ele>
        <time>2022-06-27T15:55:41.553Z</time>
      </trkpt>
      <trkpt lat="44.35382" lon="6.27029">
        <ele>1636.3</ele>
        <time>2022-06-27T15:55:44.559Z</time>
      </trkpt>
      <trkpt lat="44.35373" lon="6.27035">
        <ele>1631.7</ele>
        <time>2022-06-27T15:55:48.000Z</time>
      </trkpt>
      <trkpt lat="44.35364" lon="6.27043">
        <ele>1631.7</ele>
        <time>2022-06-27T15:55:50.376Z</time>
      </trkpt>
      <trkpt lat="44.35355" lon="6.2705">
        <ele>1632.1</ele>
        <time>2022-06-27T15:55:53.563Z</time>
      </trkpt>
      <trkpt lat="44.35346" lon="6.27061">
        <ele>1633.1</ele>
        <time>2022-06-27T15:55:56.580Z</time>
      </trkpt>
      <trkpt lat="44.35339" lon="6.27073">
        <ele>1638.4</ele>
        <time>2022-06-27T15:55:59.601Z</time>
      </trkpt>
      <trkpt lat="44.35317" lon="6.27092">
        <ele>1638.6</ele>
        <time>2022-06-27T15:56:03.000Z</time>
      </trkpt>
      <trkpt lat="44.35299" lon="6.27105">
        <ele>1638.5</ele>
        <time>2022-06-27T15:56:06.000Z</time>
      </trkpt>
      <trkpt lat="44.35281" lon="6.27119">
        <ele>1643.1</ele>
        <time>2022-06-27T15:56:09.000Z</time>
      </trkpt>
      <trkpt lat="44.3527" lon="6.27145">
        <ele>1644.4</ele>
        <time>2022-06-27T15:56:12.000Z</time>
      </trkpt>
      <trkpt lat="44.35275" lon="6.27171">
        <ele>1644.3</ele>
        <time>2022-06-27T15:56:15.000Z</time>
      </trkpt>
      <trkpt lat="44.35278" lon="6.27182">
        <ele>1645.2</ele>
        <time>2022-06-27T15:56:18.000Z</time>
      </trkpt>
      <trkpt lat="44.35281" lon="6.27213">
        <ele>1645.3</ele>
        <time>2022-06-27T15:56:21.000Z</time>
      </trkpt>
      <trkpt lat="44.35282" lon="6.27243">
        <ele>1642.6</ele>
        <time>2022-06-27T15:56:24.000Z</time>
      </trkpt>
      <trkpt lat="44.3528" lon="6.27269">
        <ele>1640.4</ele>
        <time>2022-06-27T15:56:27.000Z</time>
      </trkpt>
      <trkpt lat="44.35272" lon="6.27296">
        <ele>1636.8</ele>
        <time>2022-06-27T15:56:30.000Z</time>
      </trkpt>
      <trkpt lat="44.3526" lon="6.27323">
        <ele>1637.5</ele>
        <time>2022-06-27T15:56:33.000Z</time>
      </trkpt>
      <trkpt lat="44.35252" lon="6.27356">
        <ele>1637.5</ele>
        <time>2022-06-27T15:56:36.000Z</time>
      </trkpt>
      <trkpt lat="44.35252" lon="6.27387">
        <ele>1637.3</ele>
        <time>2022-06-27T15:56:39.000Z</time>
      </trkpt>
      <trkpt lat="44.35259" lon="6.27418">
        <ele>1636.7</ele>
        <time>2022-06-27T15:56:42.000Z</time>
      </trkpt>
      <trkpt lat="44.35267" lon="6.27443">
        <ele>1635.1</ele>
        <time>2022-06-27T15:56:45.000Z</time>
      </trkpt>
      <trkpt lat="44.35278" lon="6.27468">
        <ele>1634.7</ele>
        <time>2022-06-27T15:56:48.000Z</time>
      </trkpt>
      <trkpt lat="44.35287" lon="6.2749">
        <ele>1635.7</ele>
        <time>2022-06-27T15:56:51.000Z</time>
      </trkpt>
      <trkpt lat="44.35292" lon="6.27516">
        <ele>1635.1</ele>
        <time>2022-06-27T15:56:54.000Z</time>
      </trkpt>
      <trkpt lat="44.35294" lon="6.27546">
        <ele>1632.1</ele>
        <time>2022-06-27T15:56:57.000Z</time>
      </trkpt>
      <trkpt lat="44.35304" lon="6.27577">
        <ele>1628.6</ele>
        <time>2022-06-27T15:57:00.000Z</time>
      </trkpt>
      <trkpt lat="44.35313" lon="6.27605">
        <ele>1625.8</ele>
        <time>2022-06-27T15:57:03.000Z</time>
      </trkpt>
      <trkpt lat="44.35319" lon="6.27628">
        <ele>1621.4</ele>
        <time>2022-06-27T15:57:06.000Z</time>
      </trkpt>
      <trkpt lat="44.3531" lon="6.27637">
        <ele>1619.4</ele>
        <time>2022-06-27T15:57:12.000Z</time>
      </trkpt>
      <trkpt lat="44.35305" lon="6.27632">
        <ele>1620.3</ele>
        <time>2022-06-27T15:57:15.000Z</time>
      </trkpt>
      <trkpt lat="44.35304" lon="6.27622">
        <ele>1620.3</ele>
        <time>2022-06-27T15:57:17.562Z</time>
      </trkpt>
      <trkpt lat="44.35298" lon="6.27616">
        <ele>1628</ele>
        <time>2022-06-27T15:57:46.564Z</time>
      </trkpt>
      <trkpt lat="44.35273" lon="6.27585">
        <ele>1626.3</ele>
        <time>2022-06-27T15:57:50.000Z</time>
      </trkpt>
      <trkpt lat="44.35253" lon="6.27568">
        <ele>1624.1</ele>
        <time>2022-06-27T15:57:53.000Z</time>
      </trkpt>
      <trkpt lat="44.35233" lon="6.27545">
        <ele>1622.3</ele>
        <time>2022-06-27T15:57:56.000Z</time>
      </trkpt>
      <trkpt lat="44.35215" lon="6.27523">
        <ele>1621.2</ele>
        <time>2022-06-27T15:57:59.000Z</time>
      </trkpt>
      <trkpt lat="44.352" lon="6.27521">
        <ele>1629.6</ele>
        <time>2022-06-27T15:58:02.000Z</time>
      </trkpt>
      <trkpt lat="44.35193" lon="6.27532">
        <ele>1627.5</ele>
        <time>2022-06-27T15:58:05.000Z</time>
      </trkpt>
      <trkpt lat="44.35192" lon="6.27543">
        <ele>1627.3</ele>
        <time>2022-06-27T15:58:08.000Z</time>
      </trkpt>
      <trkpt lat="44.35191" lon="6.27551">
        <ele>1620.7</ele>
        <time>2022-06-27T15:58:11.000Z</time>
      </trkpt>
      <trkpt lat="44.35186" lon="6.27558">
        <ele>1621.3</ele>
        <time>2022-06-27T15:58:14.000Z</time>
      </trkpt>
      <trkpt lat="44.35185" lon="6.27577">
        <ele>1621.4</ele>
        <time>2022-06-27T15:58:16.339Z</time>
      </trkpt>
      <trkpt lat="44.35183" lon="6.27608">
        <ele>1620.5</ele>
        <time>2022-06-27T15:58:20.000Z</time>
      </trkpt>
      <trkpt lat="44.35177" lon="6.27627">
        <ele>1619.7</ele>
        <time>2022-06-27T15:58:23.000Z</time>
      </trkpt>
      <trkpt lat="44.35176" lon="6.27645">
        <ele>1625</ele>
        <time>2022-06-27T15:58:26.000Z</time>
      </trkpt>
      <trkpt lat="44.35176" lon="6.27662">
        <ele>1627.4</ele>
        <time>2022-06-27T15:58:29.000Z</time>
      </trkpt>
      <trkpt lat="44.35175" lon="6.2767">
        <ele>1629.1</ele>
        <time>2022-06-27T15:58:32.000Z</time>
      </trkpt>
      <trkpt lat="44.35171" lon="6.2769">
        <ele>1624.2</ele>
        <time>2022-06-27T15:58:35.000Z</time>
      </trkpt>
      <trkpt lat="44.35175" lon="6.27702">
        <ele>1624.8</ele>
        <time>2022-06-27T15:58:37.557Z</time>
      </trkpt>
      <trkpt lat="44.35176" lon="6.27716">
        <ele>1624.9</ele>
        <time>2022-06-27T15:58:40.566Z</time>
      </trkpt>
      <trkpt lat="44.35171" lon="6.27727">
        <ele>1631.4</ele>
        <time>2022-06-27T15:58:43.562Z</time>
      </trkpt>
      <trkpt lat="44.35159" lon="6.27738">
        <ele>1628.3</ele>
        <time>2022-06-27T15:58:47.545Z</time>
      </trkpt>
      <trkpt lat="44.35151" lon="6.27745">
        <ele>1630.1</ele>
        <time>2022-06-27T15:58:50.551Z</time>
      </trkpt>
      <trkpt lat="44.35144" lon="6.27752">
        <ele>1625.5</ele>
        <time>2022-06-27T15:58:53.561Z</time>
      </trkpt>
      <trkpt lat="44.35137" lon="6.27761">
        <ele>1627.4</ele>
        <time>2022-06-27T15:58:56.554Z</time>
      </trkpt>
      <trkpt lat="44.35131" lon="6.27769">
        <ele>1630.7</ele>
        <time>2022-06-27T15:58:59.599Z</time>
      </trkpt>
      <trkpt lat="44.35125" lon="6.27779">
        <ele>1630.7</ele>
        <time>2022-06-27T15:59:02.567Z</time>
      </trkpt>
      <trkpt lat="44.3512" lon="6.27787">
        <ele>1632.4</ele>
        <time>2022-06-27T15:59:05.559Z</time>
      </trkpt>
      <trkpt lat="44.35116" lon="6.27799">
        <ele>1634.7</ele>
        <time>2022-06-27T15:59:08.609Z</time>
      </trkpt>
      <trkpt lat="44.35112" lon="6.27812">
        <ele>1635.7</ele>
        <time>2022-06-27T15:59:11.533Z</time>
      </trkpt>
      <trkpt lat="44.3511" lon="6.27827">
        <ele>1637.3</ele>
        <time>2022-06-27T15:59:14.559Z</time>
      </trkpt>
      <trkpt lat="44.35107" lon="6.27844">
        <ele>1636.9</ele>
        <time>2022-06-27T15:59:17.562Z</time>
      </trkpt>
      <trkpt lat="44.35103" lon="6.27858">
        <ele>1637.5</ele>
        <time>2022-06-27T15:59:20.559Z</time>
      </trkpt>
      <trkpt lat="44.35099" lon="6.27871">
        <ele>1636.6</ele>
        <time>2022-06-27T15:59:23.553Z</time>
      </trkpt>
      <trkpt lat="44.35094" lon="6.27884">
        <ele>1638.6</ele>
        <time>2022-06-27T15:59:26.561Z</time>
      </trkpt>
      <trkpt lat="44.35089" lon="6.27896">
        <ele>1639.8</ele>
        <time>2022-06-27T15:59:29.531Z</time>
      </trkpt>
      <trkpt lat="44.35083" lon="6.27907">
        <ele>1642.8</ele>
        <time>2022-06-27T15:59:32.560Z</time>
      </trkpt>
      <trkpt lat="44.35075" lon="6.27918">
        <ele>1639.2</ele>
        <time>2022-06-27T15:59:35.546Z</time>
      </trkpt>
      <trkpt lat="44.35065" lon="6.27923">
        <ele>1639.3</ele>
        <time>2022-06-27T15:59:38.604Z</time>
      </trkpt>
      <trkpt lat="44.35055" lon="6.27926">
        <ele>1638.6</ele>
        <time>2022-06-27T15:59:41.560Z</time>
      </trkpt>
      <trkpt lat="44.35043" lon="6.27924">
        <ele>1639.9</ele>
        <time>2022-06-27T15:59:44.566Z</time>
      </trkpt>
      <trkpt lat="44.35032" lon="6.2792">
        <ele>1639.8</ele>
        <time>2022-06-27T15:59:47.551Z</time>
      </trkpt>
      <trkpt lat="44.35021" lon="6.27914">
        <ele>1641.6</ele>
        <time>2022-06-27T15:59:50.557Z</time>
      </trkpt>
      <trkpt lat="44.34995" lon="6.27891">
        <ele>1638.2</ele>
        <time>2022-06-27T15:59:56.000Z</time>
      </trkpt>
      <trkpt lat="44.3498" lon="6.27877">
        <ele>1636.5</ele>
        <time>2022-06-27T15:59:59.000Z</time>
      </trkpt>
      <trkpt lat="44.34967" lon="6.27863">
        <ele>1635.2</ele>
        <time>2022-06-27T16:00:02.000Z</time>
      </trkpt>
      <trkpt lat="44.34955" lon="6.27849">
        <ele>1636.1</ele>
        <time>2022-06-27T16:00:05.000Z</time>
      </trkpt>
      <trkpt lat="44.34945" lon="6.27834">
        <ele>1637.8</ele>
        <time>2022-06-27T16:00:08.000Z</time>
      </trkpt>
      <trkpt lat="44.34934" lon="6.27817">
        <ele>1638.5</ele>
        <time>2022-06-27T16:00:11.000Z</time>
      </trkpt>
      <trkpt lat="44.34919" lon="6.27802">
        <ele>1635.7</ele>
        <time>2022-06-27T16:00:14.000Z</time>
      </trkpt>
      <trkpt lat="44.34903" lon="6.27797">
        <ele>1637.5</ele>
        <time>2022-06-27T16:00:17.000Z</time>
      </trkpt>
      <trkpt lat="44.34897" lon="6.27804">
        <ele>1641.8</ele>
        <time>2022-06-27T16:00:20.000Z</time>
      </trkpt>
      <trkpt lat="44.34898" lon="6.27823">
        <ele>1642.3</ele>
        <time>2022-06-27T16:00:23.000Z</time>
      </trkpt>
      <trkpt lat="44.34897" lon="6.2784">
        <ele>1644.3</ele>
        <time>2022-06-27T16:00:26.000Z</time>
      </trkpt>
      <trkpt lat="44.34891" lon="6.27857">
        <ele>1645.4</ele>
        <time>2022-06-27T16:00:29.000Z</time>
      </trkpt>
      <trkpt lat="44.34887" lon="6.27864">
        <ele>1645.4</ele>
        <time>2022-06-27T16:00:31.552Z</time>
      </trkpt>
      <trkpt lat="44.34883" lon="6.2787">
        <ele>1645.5</ele>
        <time>2022-06-27T16:00:34.558Z</time>
      </trkpt>
      <trkpt lat="44.34881" lon="6.27891">
        <ele>1647</ele>
        <time>2022-06-27T16:00:37.558Z</time>
      </trkpt>
      <trkpt lat="44.34882" lon="6.27913">
        <ele>1651.5</ele>
        <time>2022-06-27T16:00:40.555Z</time>
      </trkpt>
      <trkpt lat="44.34885" lon="6.27948">
        <ele>1646.4</ele>
        <time>2022-06-27T16:00:44.000Z</time>
      </trkpt>
      <trkpt lat="44.34877" lon="6.27963">
        <ele>1646.4</ele>
        <time>2022-06-27T16:00:46.554Z</time>
      </trkpt>
      <trkpt lat="44.34871" lon="6.2798">
        <ele>1641.8</ele>
        <time>2022-06-27T16:00:49.560Z</time>
      </trkpt>
      <trkpt lat="44.34868" lon="6.28006">
        <ele>1647.4</ele>
        <time>2022-06-27T16:00:53.000Z</time>
      </trkpt>
      <trkpt lat="44.34864" lon="6.28015">
        <ele>1647.4</ele>
        <time>2022-06-27T16:00:55.554Z</time>
      </trkpt>
      <trkpt lat="44.34853" lon="6.28014">
        <ele>1648.1</ele>
        <time>2022-06-27T16:00:58.485Z</time>
      </trkpt>
      <trkpt lat="44.34836" lon="6.28011">
        <ele>1647.6</ele>
        <time>2022-06-27T16:01:02.000Z</time>
      </trkpt>
      <trkpt lat="44.34828" lon="6.27999">
        <ele>1647.6</ele>
        <time>2022-06-27T16:01:04.549Z</time>
      </trkpt>
      <trkpt lat="44.34819" lon="6.28006">
        <ele>1648.6</ele>
        <time>2022-06-27T16:01:07.564Z</time>
      </trkpt>
      <trkpt lat="44.34811" lon="6.28026">
        <ele>1653.9</ele>
        <time>2022-06-27T16:01:11.000Z</time>
      </trkpt>
      <trkpt lat="44.34815" lon="6.28033">
        <ele>1653.9</ele>
        <time>2022-06-27T16:01:13.387Z</time>
      </trkpt>
      <trkpt lat="44.34823" lon="6.28046">
        <ele>1656.1</ele>
        <time>2022-06-27T16:01:16.554Z</time>
      </trkpt>
      <trkpt lat="44.34832" lon="6.28057">
        <ele>1654</ele>
        <time>2022-06-27T16:01:19.548Z</time>
      </trkpt>
      <trkpt lat="44.34839" lon="6.28069">
        <ele>1653.2</ele>
        <time>2022-06-27T16:01:22.546Z</time>
      </trkpt>
      <trkpt lat="44.34845" lon="6.28081">
        <ele>1653.7</ele>
        <time>2022-06-27T16:01:25.529Z</time>
      </trkpt>
      <trkpt lat="44.3485" lon="6.28095">
        <ele>1654.8</ele>
        <time>2022-06-27T16:01:28.563Z</time>
      </trkpt>
      <trkpt lat="44.34856" lon="6.2811">
        <ele>1653.2</ele>
        <time>2022-06-27T16:01:31.552Z</time>
      </trkpt>
      <trkpt lat="44.34863" lon="6.28123">
        <ele>1652.7</ele>
        <time>2022-06-27T16:01:34.551Z</time>
      </trkpt>
      <trkpt lat="44.3487" lon="6.28134">
        <ele>1653.5</ele>
        <time>2022-06-27T16:01:37.551Z</time>
      </trkpt>
      <trkpt lat="44.34877" lon="6.28147">
        <ele>1649.4</ele>
        <time>2022-06-27T16:01:40.579Z</time>
      </trkpt>
      <trkpt lat="44.34884" lon="6.28161">
        <ele>1649.3</ele>
        <time>2022-06-27T16:01:43.556Z</time>
      </trkpt>
      <trkpt lat="44.34891" lon="6.28173">
        <ele>1649.1</ele>
        <time>2022-06-27T16:01:46.559Z</time>
      </trkpt>
      <trkpt lat="44.34899" lon="6.28189">
        <ele>1648.3</ele>
        <time>2022-06-27T16:01:50.309Z</time>
      </trkpt>
      <trkpt lat="44.34907" lon="6.28204">
        <ele>1649.8</ele>
        <time>2022-06-27T16:01:53.560Z</time>
      </trkpt>
      <trkpt lat="44.34915" lon="6.28216">
        <ele>1648.5</ele>
        <time>2022-06-27T16:01:56.549Z</time>
      </trkpt>
      <trkpt lat="44.34922" lon="6.28227">
        <ele>1647</ele>
        <time>2022-06-27T16:01:59.553Z</time>
      </trkpt>
      <trkpt lat="44.34929" lon="6.28237">
        <ele>1648.3</ele>
        <time>2022-06-27T16:02:02.549Z</time>
      </trkpt>
      <trkpt lat="44.34936" lon="6.28247">
        <ele>1645.2</ele>
        <time>2022-06-27T16:02:05.486Z</time>
      </trkpt>
      <trkpt lat="44.34943" lon="6.28256">
        <ele>1640.4</ele>
        <time>2022-06-27T16:02:08.561Z</time>
      </trkpt>
      <trkpt lat="44.34949" lon="6.28266">
        <ele>1648.7</ele>
        <time>2022-06-27T16:02:11.532Z</time>
      </trkpt>
      <trkpt lat="44.34956" lon="6.28274">
        <ele>1651.7</ele>
        <time>2022-06-27T16:02:14.551Z</time>
      </trkpt>
      <trkpt lat="44.34962" lon="6.28285">
        <ele>1655.4</ele>
        <time>2022-06-27T16:02:17.558Z</time>
      </trkpt>
      <trkpt lat="44.34967" lon="6.28299">
        <ele>1657.9</ele>
        <time>2022-06-27T16:02:20.563Z</time>
      </trkpt>
      <trkpt lat="44.34968" lon="6.28315">
        <ele>1657.2</ele>
        <time>2022-06-27T16:02:23.556Z</time>
      </trkpt>
      <trkpt lat="44.34964" lon="6.28355">
        <ele>1658.6</ele>
        <time>2022-06-27T16:02:29.000Z</time>
      </trkpt>
      <trkpt lat="44.34954" lon="6.28371">
        <ele>1658.8</ele>
        <time>2022-06-27T16:02:32.000Z</time>
      </trkpt>
      <trkpt lat="44.34945" lon="6.28384">
        <ele>1657.8</ele>
        <time>2022-06-27T16:02:35.000Z</time>
      </trkpt>
      <trkpt lat="44.34935" lon="6.28388">
        <ele>1657.8</ele>
        <time>2022-06-27T16:02:37.550Z</time>
      </trkpt>
      <trkpt lat="44.34912" lon="6.28386">
        <ele>1661.2</ele>
        <time>2022-06-27T16:02:41.000Z</time>
      </trkpt>
      <trkpt lat="44.34902" lon="6.28382">
        <ele>1661.2</ele>
        <time>2022-06-27T16:02:43.550Z</time>
      </trkpt>
      <trkpt lat="44.34891" lon="6.28386">
        <ele>1663.3</ele>
        <time>2022-06-27T16:02:46.547Z</time>
      </trkpt>
      <trkpt lat="44.34879" lon="6.28391">
        <ele>1665.7</ele>
        <time>2022-06-27T16:02:49.544Z</time>
      </trkpt>
      <trkpt lat="44.34869" lon="6.28394">
        <ele>1667.5</ele>
        <time>2022-06-27T16:02:53.000Z</time>
      </trkpt>
      <trkpt lat="44.3486" lon="6.28403">
        <ele>1667</ele>
        <time>2022-06-27T16:02:56.000Z</time>
      </trkpt>
      <trkpt lat="44.34845" lon="6.28416">
        <ele>1667.1</ele>
        <time>2022-06-27T16:02:59.000Z</time>
      </trkpt>
      <trkpt lat="44.34821" lon="6.28427">
        <ele>1663.9</ele>
        <time>2022-06-27T16:03:02.000Z</time>
      </trkpt>
      <trkpt lat="44.34798" lon="6.28439">
        <ele>1665.2</ele>
        <time>2022-06-27T16:03:05.000Z</time>
      </trkpt>
      <trkpt lat="44.34773" lon="6.28441">
        <ele>1660.3</ele>
        <time>2022-06-27T16:03:08.000Z</time>
      </trkpt>
      <trkpt lat="44.3475" lon="6.2843">
        <ele>1657.3</ele>
        <time>2022-06-27T16:03:11.000Z</time>
      </trkpt>
      <trkpt lat="44.34729" lon="6.28423">
        <ele>1655.3</ele>
        <time>2022-06-27T16:03:14.000Z</time>
      </trkpt>
      <trkpt lat="44.34712" lon="6.28422">
        <ele>1656.4</ele>
        <time>2022-06-27T16:03:17.000Z</time>
      </trkpt>
      <trkpt lat="44.34697" lon="6.28435">
        <ele>1652.9</ele>
        <time>2022-06-27T16:03:20.000Z</time>
      </trkpt>
      <trkpt lat="44.34697" lon="6.28465">
        <ele>1650.1</ele>
        <time>2022-06-27T16:03:23.000Z</time>
      </trkpt>
      <trkpt lat="44.34704" lon="6.28501">
        <ele>1646.1</ele>
        <time>2022-06-27T16:03:26.000Z</time>
      </trkpt>
      <trkpt lat="44.34711" lon="6.28537">
        <ele>1644.3</ele>
        <time>2022-06-27T16:03:29.000Z</time>
      </trkpt>
      <trkpt lat="44.34716" lon="6.28569">
        <ele>1639.7</ele>
        <time>2022-06-27T16:03:32.000Z</time>
      </trkpt>
      <trkpt lat="44.34711" lon="6.28592">
        <ele>1639.5</ele>
        <time>2022-06-27T16:03:35.000Z</time>
      </trkpt>
      <trkpt lat="44.34694" lon="6.2861">
        <ele>1638</ele>
        <time>2022-06-27T16:03:38.000Z</time>
      </trkpt>
      <trkpt lat="44.34673" lon="6.2863">
        <ele>1637.6</ele>
        <time>2022-06-27T16:03:41.000Z</time>
      </trkpt>
      <trkpt lat="44.34649" lon="6.28648">
        <ele>1637</ele>
        <time>2022-06-27T16:03:44.000Z</time>
      </trkpt>
      <trkpt lat="44.34623" lon="6.28669">
        <ele>1637.2</ele>
        <time>2022-06-27T16:03:47.000Z</time>
      </trkpt>
      <trkpt lat="44.34598" lon="6.2869">
        <ele>1635.8</ele>
        <time>2022-06-27T16:03:50.000Z</time>
      </trkpt>
      <trkpt lat="44.34584" lon="6.28718">
        <ele>1634.6</ele>
        <time>2022-06-27T16:03:53.000Z</time>
      </trkpt>
      <trkpt lat="44.34577" lon="6.28749">
        <ele>1635</ele>
        <time>2022-06-27T16:03:56.000Z</time>
      </trkpt>
      <trkpt lat="44.34565" lon="6.28771">
        <ele>1632.9</ele>
        <time>2022-06-27T16:03:59.000Z</time>
      </trkpt>
      <trkpt lat="44.3455" lon="6.28771">
        <ele>1634.7</ele>
        <time>2022-06-27T16:04:02.000Z</time>
      </trkpt>
      <trkpt lat="44.34544" lon="6.28769">
        <ele>1633.5</ele>
        <time>2022-06-27T16:04:05.000Z</time>
      </trkpt>
      <trkpt lat="44.34534" lon="6.28773">
        <ele>1630.5</ele>
        <time>2022-06-27T16:04:08.000Z</time>
      </trkpt>
      <trkpt lat="44.34517" lon="6.28781">
        <ele>1631.8</ele>
        <time>2022-06-27T16:04:11.000Z</time>
      </trkpt>
      <trkpt lat="44.34499" lon="6.28783">
        <ele>1630.9</ele>
        <time>2022-06-27T16:04:14.000Z</time>
      </trkpt>
      <trkpt lat="44.34486" lon="6.28801">
        <ele>1632.7</ele>
        <time>2022-06-27T16:04:17.000Z</time>
      </trkpt>
      <trkpt lat="44.34484" lon="6.28825">
        <ele>1631</ele>
        <time>2022-06-27T16:04:20.000Z</time>
      </trkpt>
      <trkpt lat="44.34494" lon="6.28842">
        <ele>1628.2</ele>
        <time>2022-06-27T16:04:23.000Z</time>
      </trkpt>
      <trkpt lat="44.3451" lon="6.28855">
        <ele>1625.5</ele>
        <time>2022-06-27T16:04:26.000Z</time>
      </trkpt>
      <trkpt lat="44.34526" lon="6.28865">
        <ele>1624.9</ele>
        <time>2022-06-27T16:04:29.000Z</time>
      </trkpt>
      <trkpt lat="44.34539" lon="6.28881">
        <ele>1625.2</ele>
        <time>2022-06-27T16:04:32.000Z</time>
      </trkpt>
      <trkpt lat="44.34549" lon="6.28901">
        <ele>1625.1</ele>
        <time>2022-06-27T16:04:35.000Z</time>
      </trkpt>
      <trkpt lat="44.34555" lon="6.2892">
        <ele>1626.8</ele>
        <time>2022-06-27T16:04:38.000Z</time>
      </trkpt>
      <trkpt lat="44.34555" lon="6.28929">
        <ele>1626.9</ele>
        <time>2022-06-27T16:04:41.000Z</time>
      </trkpt>
      <trkpt lat="44.34551" lon="6.28945">
        <ele>1627</ele>
        <time>2022-06-27T16:04:44.000Z</time>
      </trkpt>
      <trkpt lat="44.34542" lon="6.28953">
        <ele>1627.1</ele>
        <time>2022-06-27T16:04:47.000Z</time>
      </trkpt>
      <trkpt lat="44.34535" lon="6.28963">
        <ele>1627.1</ele>
        <time>2022-06-27T16:04:49.554Z</time>
      </trkpt>
      <trkpt lat="44.34526" lon="6.28971">
        <ele>1627.7</ele>
        <time>2022-06-27T16:04:52.552Z</time>
      </trkpt>
      <trkpt lat="44.34513" lon="6.28974">
        <ele>1627.9</ele>
        <time>2022-06-27T16:04:55.541Z</time>
      </trkpt>
      <trkpt lat="44.34501" lon="6.2898">
        <ele>1631.4</ele>
        <time>2022-06-27T16:04:59.552Z</time>
      </trkpt>
      <trkpt lat="44.34494" lon="6.28989">
        <ele>1631.7</ele>
        <time>2022-06-27T16:05:02.594Z</time>
      </trkpt>
      <trkpt lat="44.34487" lon="6.28996">
        <ele>1633.2</ele>
        <time>2022-06-27T16:05:05.540Z</time>
      </trkpt>
      <trkpt lat="44.3448" lon="6.29006">
        <ele>1634.2</ele>
        <time>2022-06-27T16:05:09.117Z</time>
      </trkpt>
      <trkpt lat="44.34479" lon="6.29018">
        <ele>1632.4</ele>
        <time>2022-06-27T16:05:12.554Z</time>
      </trkpt>
      <trkpt lat="44.34487" lon="6.29027">
        <ele>1632.4</ele>
        <time>2022-06-27T16:05:15.551Z</time>
      </trkpt>
      <trkpt lat="44.34498" lon="6.29036">
        <ele>1635.6</ele>
        <time>2022-06-27T16:05:18.571Z</time>
      </trkpt>
      <trkpt lat="44.34507" lon="6.29043">
        <ele>1634.8</ele>
        <time>2022-06-27T16:05:21.564Z</time>
      </trkpt>
      <trkpt lat="44.34516" lon="6.29047">
        <ele>1636.6</ele>
        <time>2022-06-27T16:05:24.553Z</time>
      </trkpt>
      <trkpt lat="44.34524" lon="6.29056">
        <ele>1636.7</ele>
        <time>2022-06-27T16:05:27.568Z</time>
      </trkpt>
      <trkpt lat="44.34531" lon="6.29065">
        <ele>1637.1</ele>
        <time>2022-06-27T16:05:30.565Z</time>
      </trkpt>
      <trkpt lat="44.34538" lon="6.29073">
        <ele>1638.5</ele>
        <time>2022-06-27T16:05:33.556Z</time>
      </trkpt>
      <trkpt lat="44.34547" lon="6.29078">
        <ele>1635.2</ele>
        <time>2022-06-27T16:05:36.553Z</time>
      </trkpt>
      <trkpt lat="44.34554" lon="6.29084">
        <ele>1635.5</ele>
        <time>2022-06-27T16:05:39.551Z</time>
      </trkpt>
      <trkpt lat="44.34562" lon="6.29092">
        <ele>1636.9</ele>
        <time>2022-06-27T16:05:42.553Z</time>
      </trkpt>
      <trkpt lat="44.34571" lon="6.291">
        <ele>1636.4</ele>
        <time>2022-06-27T16:05:45.552Z</time>
      </trkpt>
      <trkpt lat="44.34579" lon="6.29107">
        <ele>1637.4</ele>
        <time>2022-06-27T16:05:48.565Z</time>
      </trkpt>
      <trkpt lat="44.34589" lon="6.29112">
        <ele>1636.7</ele>
        <time>2022-06-27T16:05:51.562Z</time>
      </trkpt>
      <trkpt lat="44.34599" lon="6.29118">
        <ele>1638.8</ele>
        <time>2022-06-27T16:05:54.566Z</time>
      </trkpt>
      <trkpt lat="44.34607" lon="6.29128">
        <ele>1638.7</ele>
        <time>2022-06-27T16:05:57.559Z</time>
      </trkpt>
      <trkpt lat="44.34612" lon="6.2914">
        <ele>1641.3</ele>
        <time>2022-06-27T16:06:00.560Z</time>
      </trkpt>
      <trkpt lat="44.34614" lon="6.29154">
        <ele>1643.6</ele>
        <time>2022-06-27T16:06:03.562Z</time>
      </trkpt>
      <trkpt lat="44.34614" lon="6.29168">
        <ele>1643.5</ele>
        <time>2022-06-27T16:06:06.551Z</time>
      </trkpt>
      <trkpt lat="44.34613" lon="6.29182">
        <ele>1643.7</ele>
        <time>2022-06-27T16:06:09.561Z</time>
      </trkpt>
      <trkpt lat="44.3461" lon="6.29196">
        <ele>1645.1</ele>
        <time>2022-06-27T16:06:12.589Z</time>
      </trkpt>
      <trkpt lat="44.34609" lon="6.29209">
        <ele>1644.4</ele>
        <time>2022-06-27T16:06:15.561Z</time>
      </trkpt>
      <trkpt lat="44.3461" lon="6.29221">
        <ele>1645.3</ele>
        <time>2022-06-27T16:06:18.598Z</time>
      </trkpt>
      <trkpt lat="44.34611" lon="6.29235">
        <ele>1644.9</ele>
        <time>2022-06-27T16:06:21.561Z</time>
      </trkpt>
      <trkpt lat="44.34614" lon="6.29248">
        <ele>1644.4</ele>
        <time>2022-06-27T16:06:24.561Z</time>
      </trkpt>
      <trkpt lat="44.34622" lon="6.2926">
        <ele>1644.8</ele>
        <time>2022-06-27T16:06:27.554Z</time>
      </trkpt>
      <trkpt lat="44.34635" lon="6.29268">
        <ele>1646.5</ele>
        <time>2022-06-27T16:06:30.567Z</time>
      </trkpt>
      <trkpt lat="44.34651" lon="6.2927">
        <ele>1648.6</ele>
        <time>2022-06-27T16:06:33.606Z</time>
      </trkpt>
      <trkpt lat="44.34666" lon="6.29261">
        <ele>1646</ele>
        <time>2022-06-27T16:06:36.566Z</time>
      </trkpt>
      <trkpt lat="44.34686" lon="6.29241">
        <ele>1646.6</ele>
        <time>2022-06-27T16:06:41.000Z</time>
      </trkpt>
      <trkpt lat="44.34699" lon="6.29234">
        <ele>1647.8</ele>
        <time>2022-06-27T16:06:44.000Z</time>
      </trkpt>
      <trkpt lat="44.34712" lon="6.29232">
        <ele>1648.2</ele>
        <time>2022-06-27T16:06:47.000Z</time>
      </trkpt>
      <trkpt lat="44.34724" lon="6.29234">
        <ele>1648.2</ele>
        <time>2022-06-27T16:06:49.568Z</time>
      </trkpt>
      <trkpt lat="44.34736" lon="6.29242">
        <ele>1647.4</ele>
        <time>2022-06-27T16:06:53.000Z</time>
      </trkpt>
      <trkpt lat="44.34748" lon="6.29247">
        <ele>1646.2</ele>
        <time>2022-06-27T16:06:56.000Z</time>
      </trkpt>
      <trkpt lat="44.34757" lon="6.29257">
        <ele>1646.5</ele>
        <time>2022-06-27T16:06:59.000Z</time>
      </trkpt>
      <trkpt lat="44.3476" lon="6.2927">
        <ele>1644.7</ele>
        <time>2022-06-27T16:07:02.000Z</time>
      </trkpt>
      <trkpt lat="44.34756" lon="6.29279">
        <ele>1644.6</ele>
        <time>2022-06-27T16:07:05.000Z</time>
      </trkpt>
      <trkpt lat="44.34754" lon="6.29271">
        <ele>1648.1</ele>
        <time>2022-06-27T16:07:14.000Z</time>
      </trkpt>
      <trkpt lat="44.34756" lon="6.29266">
        <ele>1650.9</ele>
        <time>2022-06-27T16:08:00.734Z</time>
      </trkpt>
    </trkseg>
  </trk>
</gpx>